<?xml version="1.0" encoding="utf-8"?>
<gpx xmlns:xsi="http://www.w3.org/2001/XMLSchema-instance" xmlns:xsd="http://www.w3.org/2001/XMLSchema" version="1.1" creator="Shapelink.com" xmlns="http://www.topografix.com/GPX/1/1" xmlns:gpxtpx="http://www.garmin.com/xmlschemas/TrackPointExtension/v1">
  <metadata>
    <name>Cykling 12.98 km, 2020-06-25</name>
    <desc></desc>
    <author><name>Alexander Engvall</name></author> 
    <time>2020-06-25T21:15:30Z</time>
  </metadata>
  <trk>
    <name>Cykling 12.98 km, 2020-06-25</name>
    <trkseg>
      <trkpt lat="39.852047142418" lon="2.802013514184">
        <ele>20.8</ele>
        <time>2020-06-25T21:15:30Z</time>
      </trkpt>
      <trkpt lat="39.852035659215" lon="2.801985099543">
        <ele>21</ele>
        <time>2020-06-25T21:15:31Z</time>
      </trkpt>
      <trkpt lat="39.852020404157" lon="2.801953415961">
        <ele>21</ele>
        <time>2020-06-25T21:15:32Z</time>
      </trkpt>
      <trkpt lat="39.852005149099" lon="2.801921732379">
        <ele>21.2</ele>
        <time>2020-06-25T21:15:33Z</time>
      </trkpt>
      <trkpt lat="39.851986038367" lon="2.801885438752">
        <ele>21.4</ele>
        <time>2020-06-25T21:15:34Z</time>
      </trkpt>
      <trkpt lat="39.85196315578" lon="2.801840427949">
        <ele>21.6</ele>
        <time>2020-06-25T21:15:36Z</time>
      </trkpt>
      <trkpt lat="39.851936501338" lon="2.801795836241">
        <ele>21.8</ele>
        <time>2020-06-25T21:15:37Z</time>
      </trkpt>
      <trkpt lat="39.851913618751" lon="2.801749568153">
        <ele>22</ele>
        <time>2020-06-25T21:15:38Z</time>
      </trkpt>
      <trkpt lat="39.85188688049" lon="2.801700953133">
        <ele>22.4</ele>
        <time>2020-06-25T21:15:39Z</time>
      </trkpt>
      <trkpt lat="39.851867853577" lon="2.801660636194">
        <ele>22.6</ele>
        <time>2020-06-25T21:15:40Z</time>
      </trkpt>
      <trkpt lat="39.851841115316" lon="2.801612440269">
        <ele>22.8</ele>
        <time>2020-06-25T21:15:41Z</time>
        <extensions><gpxtpx:TrackPointExtension><gpxtpx:hr>79</gpxtpx:hr></gpxtpx:TrackPointExtension></extensions>
      </trkpt>
      <trkpt lat="39.851822004584" lon="2.801572207149">
        <ele>23</ele>
        <time>2020-06-25T21:15:42Z</time>
        <extensions><gpxtpx:TrackPointExtension><gpxtpx:hr>79</gpxtpx:hr></gpxtpx:TrackPointExtension></extensions>
      </trkpt>
      <trkpt lat="39.851795350142" lon="2.801523340672">
        <ele>23.2</ele>
        <time>2020-06-25T21:15:44Z</time>
        <extensions><gpxtpx:TrackPointExtension><gpxtpx:hr>79</gpxtpx:hr></gpxtpx:TrackPointExtension></extensions>
      </trkpt>
      <trkpt lat="39.85177623941" lon="2.801480844439">
        <ele>23.4</ele>
        <time>2020-06-25T21:15:45Z</time>
        <extensions><gpxtpx:TrackPointExtension><gpxtpx:hr>85</gpxtpx:hr></gpxtpx:TrackPointExtension></extensions>
      </trkpt>
      <trkpt lat="39.851749584968" lon="2.801425104804">
        <ele>23.4</ele>
        <time>2020-06-25T21:15:46Z</time>
        <extensions><gpxtpx:TrackPointExtension><gpxtpx:hr>90</gpxtpx:hr></gpxtpx:TrackPointExtension></extensions>
      </trkpt>
      <trkpt lat="39.851726702381" lon="2.801375483956">
        <ele>23.6</ele>
        <time>2020-06-25T21:15:47Z</time>
        <extensions><gpxtpx:TrackPointExtension><gpxtpx:hr>90</gpxtpx:hr></gpxtpx:TrackPointExtension></extensions>
      </trkpt>
      <trkpt lat="39.85169996412" lon="2.801314212267">
        <ele>23.6</ele>
        <time>2020-06-25T21:15:48Z</time>
        <extensions><gpxtpx:TrackPointExtension><gpxtpx:hr>100</gpxtpx:hr></gpxtpx:TrackPointExtension></extensions>
      </trkpt>
      <trkpt lat="39.851673225859" lon="2.801252437664">
        <ele>23.8</ele>
        <time>2020-06-25T21:15:49Z</time>
        <extensions><gpxtpx:TrackPointExtension><gpxtpx:hr>102</gpxtpx:hr></gpxtpx:TrackPointExtension></extensions>
      </trkpt>
      <trkpt lat="39.851650343272" lon="2.801201894807">
        <ele>24</ele>
        <time>2020-06-25T21:15:50Z</time>
        <extensions><gpxtpx:TrackPointExtension><gpxtpx:hr>105</gpxtpx:hr></gpxtpx:TrackPointExtension></extensions>
      </trkpt>
      <trkpt lat="39.851627460685" lon="2.801152525416">
        <ele>24</ele>
        <time>2020-06-25T21:15:51Z</time>
        <extensions><gpxtpx:TrackPointExtension><gpxtpx:hr>107</gpxtpx:hr></gpxtpx:TrackPointExtension></extensions>
      </trkpt>
      <trkpt lat="39.851596950569" lon="2.80109435503">
        <ele>24.2</ele>
        <time>2020-06-25T21:15:52Z</time>
        <extensions><gpxtpx:TrackPointExtension><gpxtpx:hr>111</gpxtpx:hr></gpxtpx:TrackPointExtension></extensions>
      </trkpt>
      <trkpt lat="39.851570296127" lon="2.801037609567">
        <ele>24.2</ele>
        <time>2020-06-25T21:15:54Z</time>
        <extensions><gpxtpx:TrackPointExtension><gpxtpx:hr>112</gpxtpx:hr></gpxtpx:TrackPointExtension></extensions>
      </trkpt>
      <trkpt lat="39.85154741354" lon="2.800991173841">
        <ele>24.4</ele>
        <time>2020-06-25T21:15:55Z</time>
        <extensions><gpxtpx:TrackPointExtension><gpxtpx:hr>113</gpxtpx:hr></gpxtpx:TrackPointExtension></extensions>
      </trkpt>
      <trkpt lat="39.851520675279" lon="2.80094348083">
        <ele>24.4</ele>
        <time>2020-06-25T21:15:56Z</time>
        <extensions><gpxtpx:TrackPointExtension><gpxtpx:hr>114</gpxtpx:hr></gpxtpx:TrackPointExtension></extensions>
      </trkpt>
      <trkpt lat="39.851482537634" lon="2.800879359295">
        <ele>24.2</ele>
        <time>2020-06-25T21:15:57Z</time>
        <extensions><gpxtpx:TrackPointExtension><gpxtpx:hr>115</gpxtpx:hr></gpxtpx:TrackPointExtension></extensions>
      </trkpt>
      <trkpt lat="39.851444399989" lon="2.800822613832">
        <ele>24</ele>
        <time>2020-06-25T21:15:58Z</time>
        <extensions><gpxtpx:TrackPointExtension><gpxtpx:hr>115</gpxtpx:hr></gpxtpx:TrackPointExtension></extensions>
      </trkpt>
      <trkpt lat="39.851387151612" lon="2.800755139537">
        <ele>23.8</ele>
        <time>2020-06-25T21:15:59Z</time>
        <extensions><gpxtpx:TrackPointExtension><gpxtpx:hr>115</gpxtpx:hr></gpxtpx:TrackPointExtension></extensions>
      </trkpt>
      <trkpt lat="39.851310876322" lon="2.800692191468">
        <ele>23</ele>
        <time>2020-06-25T21:16:00Z</time>
        <extensions><gpxtpx:TrackPointExtension><gpxtpx:hr>115</gpxtpx:hr></gpxtpx:TrackPointExtension></extensions>
      </trkpt>
      <trkpt lat="39.851211718445" lon="2.800678361333">
        <ele>22.6</ele>
        <time>2020-06-25T21:16:01Z</time>
        <extensions><gpxtpx:TrackPointExtension><gpxtpx:hr>116</gpxtpx:hr></gpxtpx:TrackPointExtension></extensions>
      </trkpt>
      <trkpt lat="39.851127731807" lon="2.800682384645">
        <ele>22.4</ele>
        <time>2020-06-25T21:16:02Z</time>
        <extensions><gpxtpx:TrackPointExtension><gpxtpx:hr>116</gpxtpx:hr></gpxtpx:TrackPointExtension></extensions>
      </trkpt>
      <trkpt lat="39.851036201459" lon="2.800684815396">
        <ele>22</ele>
        <time>2020-06-25T21:16:03Z</time>
        <extensions><gpxtpx:TrackPointExtension><gpxtpx:hr>116</gpxtpx:hr></gpxtpx:TrackPointExtension></extensions>
      </trkpt>
      <trkpt lat="39.850944671111" lon="2.800685988862">
        <ele>21.6</ele>
        <time>2020-06-25T21:16:04Z</time>
        <extensions><gpxtpx:TrackPointExtension><gpxtpx:hr>117</gpxtpx:hr></gpxtpx:TrackPointExtension></extensions>
      </trkpt>
      <trkpt lat="39.850837885705" lon="2.800653047995">
        <ele>21.6</ele>
        <time>2020-06-25T21:16:06Z</time>
        <extensions><gpxtpx:TrackPointExtension><gpxtpx:hr>116</gpxtpx:hr></gpxtpx:TrackPointExtension></extensions>
      </trkpt>
      <trkpt lat="39.850738644009" lon="2.800592949772">
        <ele>21.2</ele>
        <time>2020-06-25T21:16:07Z</time>
        <extensions><gpxtpx:TrackPointExtension><gpxtpx:hr>116</gpxtpx:hr></gpxtpx:TrackPointExtension></extensions>
      </trkpt>
      <trkpt lat="39.850643257987" lon="2.800518602319">
        <ele>20.8</ele>
        <time>2020-06-25T21:16:08Z</time>
        <extensions><gpxtpx:TrackPointExtension><gpxtpx:hr>116</gpxtpx:hr></gpxtpx:TrackPointExtension></extensions>
      </trkpt>
      <trkpt lat="39.850570838371" lon="2.800445679789">
        <ele>20.6</ele>
        <time>2020-06-25T21:16:09Z</time>
        <extensions><gpxtpx:TrackPointExtension><gpxtpx:hr>116</gpxtpx:hr></gpxtpx:TrackPointExtension></extensions>
      </trkpt>
      <trkpt lat="39.850509818139" lon="2.800358172753">
        <ele>20.6</ele>
        <time>2020-06-25T21:16:10Z</time>
        <extensions><gpxtpx:TrackPointExtension><gpxtpx:hr>115</gpxtpx:hr></gpxtpx:TrackPointExtension></extensions>
      </trkpt>
      <trkpt lat="39.850448714088" lon="2.800248034587">
        <ele>20.4</ele>
        <time>2020-06-25T21:16:11Z</time>
        <extensions><gpxtpx:TrackPointExtension><gpxtpx:hr>115</gpxtpx:hr></gpxtpx:TrackPointExtension></extensions>
      </trkpt>
      <trkpt lat="39.850399177059" lon="2.800139991896">
        <ele>20.4</ele>
        <time>2020-06-25T21:16:12Z</time>
        <extensions><gpxtpx:TrackPointExtension><gpxtpx:hr>114</gpxtpx:hr></gpxtpx:TrackPointExtension></extensions>
      </trkpt>
      <trkpt lat="39.85035718374" lon="2.800035553422">
        <ele>20.4</ele>
        <time>2020-06-25T21:16:14Z</time>
        <extensions><gpxtpx:TrackPointExtension><gpxtpx:hr>114</gpxtpx:hr></gpxtpx:TrackPointExtension></extensions>
      </trkpt>
      <trkpt lat="39.850330529298" lon="2.799949219852">
        <ele>20.4</ele>
        <time>2020-06-25T21:16:15Z</time>
        <extensions><gpxtpx:TrackPointExtension><gpxtpx:hr>114</gpxtpx:hr></gpxtpx:TrackPointExtension></extensions>
      </trkpt>
      <trkpt lat="39.850338156827" lon="2.799860371712">
        <ele>20.4</ele>
        <time>2020-06-25T21:16:16Z</time>
        <extensions><gpxtpx:TrackPointExtension><gpxtpx:hr>113</gpxtpx:hr></gpxtpx:TrackPointExtension></extensions>
      </trkpt>
      <trkpt lat="39.85035718374" lon="2.799760208007">
        <ele>20.4</ele>
        <time>2020-06-25T21:16:17Z</time>
        <extensions><gpxtpx:TrackPointExtension><gpxtpx:hr>113</gpxtpx:hr></gpxtpx:TrackPointExtension></extensions>
      </trkpt>
      <trkpt lat="39.850383922001" lon="2.799666749822">
        <ele>20.4</ele>
        <time>2020-06-25T21:16:18Z</time>
        <extensions><gpxtpx:TrackPointExtension><gpxtpx:hr>112</gpxtpx:hr></gpxtpx:TrackPointExtension></extensions>
      </trkpt>
      <trkpt lat="39.850418203972" lon="2.799600197536">
        <ele>20.6</ele>
        <time>2020-06-25T21:16:19Z</time>
        <extensions><gpxtpx:TrackPointExtension><gpxtpx:hr>112</gpxtpx:hr></gpxtpx:TrackPointExtension></extensions>
      </trkpt>
      <trkpt lat="39.85046782482" lon="2.799553258896">
        <ele>20.6</ele>
        <time>2020-06-25T21:16:20Z</time>
        <extensions><gpxtpx:TrackPointExtension><gpxtpx:hr>112</gpxtpx:hr></gpxtpx:TrackPointExtension></extensions>
      </trkpt>
      <trkpt lat="39.850517445668" lon="2.799516797631">
        <ele>20.8</ele>
        <time>2020-06-25T21:16:21Z</time>
        <extensions><gpxtpx:TrackPointExtension><gpxtpx:hr>112</gpxtpx:hr></gpxtpx:TrackPointExtension></extensions>
      </trkpt>
      <trkpt lat="39.850563210842" lon="2.799488131533">
        <ele>21.2</ele>
        <time>2020-06-25T21:16:22Z</time>
        <extensions><gpxtpx:TrackPointExtension><gpxtpx:hr>111</gpxtpx:hr></gpxtpx:TrackPointExtension></extensions>
      </trkpt>
      <trkpt lat="39.850608976016" lon="2.799459297797">
        <ele>21.4</ele>
        <time>2020-06-25T21:16:23Z</time>
        <extensions><gpxtpx:TrackPointExtension><gpxtpx:hr>111</gpxtpx:hr></gpxtpx:TrackPointExtension></extensions>
      </trkpt>
      <trkpt lat="39.850650885516" lon="2.799433565364">
        <ele>21.6</ele>
        <time>2020-06-25T21:16:24Z</time>
        <extensions><gpxtpx:TrackPointExtension><gpxtpx:hr>111</gpxtpx:hr></gpxtpx:TrackPointExtension></extensions>
      </trkpt>
      <trkpt lat="39.850692878835" lon="2.799407581474">
        <ele>22</ele>
        <time>2020-06-25T21:16:26Z</time>
        <extensions><gpxtpx:TrackPointExtension><gpxtpx:hr>110</gpxtpx:hr></gpxtpx:TrackPointExtension></extensions>
      </trkpt>
      <trkpt lat="39.850727244625" lon="2.799383525421">
        <ele>22.2</ele>
        <time>2020-06-25T21:16:27Z</time>
        <extensions><gpxtpx:TrackPointExtension><gpxtpx:hr>109</gpxtpx:hr></gpxtpx:TrackPointExtension></extensions>
      </trkpt>
      <trkpt lat="39.850773009799" lon="2.799353182943">
        <ele>22.4</ele>
        <time>2020-06-25T21:16:28Z</time>
        <extensions><gpxtpx:TrackPointExtension><gpxtpx:hr>109</gpxtpx:hr></gpxtpx:TrackPointExtension></extensions>
      </trkpt>
      <trkpt lat="39.850814919299" lon="2.799324349207">
        <ele>22.6</ele>
        <time>2020-06-25T21:16:29Z</time>
        <extensions><gpxtpx:TrackPointExtension><gpxtpx:hr>108</gpxtpx:hr></gpxtpx:TrackPointExtension></extensions>
      </trkpt>
      <trkpt lat="39.850853140763" lon="2.799301718077">
        <ele>23</ele>
        <time>2020-06-25T21:16:30Z</time>
        <extensions><gpxtpx:TrackPointExtension><gpxtpx:hr>108</gpxtpx:hr></gpxtpx:TrackPointExtension></extensions>
      </trkpt>
      <trkpt lat="39.850891278408" lon="2.799277913481">
        <ele>23.2</ele>
        <time>2020-06-25T21:16:31Z</time>
        <extensions><gpxtpx:TrackPointExtension><gpxtpx:hr>107</gpxtpx:hr></gpxtpx:TrackPointExtension></extensions>
      </trkpt>
      <trkpt lat="39.850929416053" lon="2.799248995926">
        <ele>23.4</ele>
        <time>2020-06-25T21:16:32Z</time>
        <extensions><gpxtpx:TrackPointExtension><gpxtpx:hr>108</gpxtpx:hr></gpxtpx:TrackPointExtension></extensions>
      </trkpt>
      <trkpt lat="39.850971325553" lon="2.799207756978">
        <ele>24</ele>
        <time>2020-06-25T21:16:33Z</time>
        <extensions><gpxtpx:TrackPointExtension><gpxtpx:hr>109</gpxtpx:hr></gpxtpx:TrackPointExtension></extensions>
      </trkpt>
      <trkpt lat="39.85099420814" lon="2.799175151387">
        <ele>24.6</ele>
        <time>2020-06-25T21:16:34Z</time>
        <extensions><gpxtpx:TrackPointExtension><gpxtpx:hr>109</gpxtpx:hr></gpxtpx:TrackPointExtension></extensions>
      </trkpt>
      <trkpt lat="39.851009547017" lon="2.799139360674">
        <ele>24.6</ele>
        <time>2020-06-25T21:16:36Z</time>
        <extensions><gpxtpx:TrackPointExtension><gpxtpx:hr>110</gpxtpx:hr></gpxtpx:TrackPointExtension></extensions>
      </trkpt>
      <trkpt lat="39.851009547017" lon="2.799090913292">
        <ele>24.8</ele>
        <time>2020-06-25T21:16:37Z</time>
        <extensions><gpxtpx:TrackPointExtension><gpxtpx:hr>110</gpxtpx:hr></gpxtpx:TrackPointExtension></extensions>
      </trkpt>
      <trkpt lat="39.85099420814" lon="2.799063755936">
        <ele>25.4</ele>
        <time>2020-06-25T21:16:38Z</time>
        <extensions><gpxtpx:TrackPointExtension><gpxtpx:hr>111</gpxtpx:hr></gpxtpx:TrackPointExtension></extensions>
      </trkpt>
      <trkpt lat="39.850963698024" lon="2.799069958542">
        <ele>25.8</ele>
        <time>2020-06-25T21:16:39Z</time>
        <extensions><gpxtpx:TrackPointExtension><gpxtpx:hr>112</gpxtpx:hr></gpxtpx:TrackPointExtension></extensions>
      </trkpt>
      <trkpt lat="39.850929416053" lon="2.799089320731">
        <ele>26.2</ele>
        <time>2020-06-25T21:16:40Z</time>
        <extensions><gpxtpx:TrackPointExtension><gpxtpx:hr>113</gpxtpx:hr></gpxtpx:TrackPointExtension></extensions>
      </trkpt>
      <trkpt lat="39.850895050263" lon="2.799108096187">
        <ele>26.4</ele>
        <time>2020-06-25T21:16:41Z</time>
        <extensions><gpxtpx:TrackPointExtension><gpxtpx:hr>114</gpxtpx:hr></gpxtpx:TrackPointExtension></extensions>
      </trkpt>
      <trkpt lat="39.850864540147" lon="2.799126452548">
        <ele>26.8</ele>
        <time>2020-06-25T21:16:42Z</time>
        <extensions><gpxtpx:TrackPointExtension><gpxtpx:hr>115</gpxtpx:hr></gpxtpx:TrackPointExtension></extensions>
      </trkpt>
      <trkpt lat="39.850826402502" lon="2.799145311823">
        <ele>27.2</ele>
        <time>2020-06-25T21:16:44Z</time>
        <extensions><gpxtpx:TrackPointExtension><gpxtpx:hr>115</gpxtpx:hr></gpxtpx:TrackPointExtension></extensions>
      </trkpt>
      <trkpt lat="39.850788264857" lon="2.799163919641">
        <ele>27.4</ele>
        <time>2020-06-25T21:16:45Z</time>
        <extensions><gpxtpx:TrackPointExtension><gpxtpx:hr>116</gpxtpx:hr></gpxtpx:TrackPointExtension></extensions>
      </trkpt>
      <trkpt lat="39.850746271538" lon="2.799182778916">
        <ele>27.6</ele>
        <time>2020-06-25T21:16:46Z</time>
        <extensions><gpxtpx:TrackPointExtension><gpxtpx:hr>116</gpxtpx:hr></gpxtpx:TrackPointExtension></extensions>
      </trkpt>
      <trkpt lat="39.850696734509" lon="2.799199877992">
        <ele>28</ele>
        <time>2020-06-25T21:16:47Z</time>
        <extensions><gpxtpx:TrackPointExtension><gpxtpx:hr>116</gpxtpx:hr></gpxtpx:TrackPointExtension></extensions>
      </trkpt>
      <trkpt lat="39.850650885516" lon="2.799212031747">
        <ele>28.2</ele>
        <time>2020-06-25T21:16:48Z</time>
        <extensions><gpxtpx:TrackPointExtension><gpxtpx:hr>117</gpxtpx:hr></gpxtpx:TrackPointExtension></extensions>
      </trkpt>
      <trkpt lat="39.850612747871" lon="2.799217815258">
        <ele>28.6</ele>
        <time>2020-06-25T21:16:49Z</time>
        <extensions><gpxtpx:TrackPointExtension><gpxtpx:hr>117</gpxtpx:hr></gpxtpx:TrackPointExtension></extensions>
      </trkpt>
      <trkpt lat="39.850570838371" lon="2.799221335656">
        <ele>29</ele>
        <time>2020-06-25T21:16:50Z</time>
        <extensions><gpxtpx:TrackPointExtension><gpxtpx:hr>117</gpxtpx:hr></gpxtpx:TrackPointExtension></extensions>
      </trkpt>
      <trkpt lat="39.850536472581" lon="2.799226616253">
        <ele>29.4</ele>
        <time>2020-06-25T21:16:52Z</time>
        <extensions><gpxtpx:TrackPointExtension><gpxtpx:hr>118</gpxtpx:hr></gpxtpx:TrackPointExtension></extensions>
      </trkpt>
      <trkpt lat="39.850509818139" lon="2.79923022047">
        <ele>29.6</ele>
        <time>2020-06-25T21:16:53Z</time>
        <extensions><gpxtpx:TrackPointExtension><gpxtpx:hr>118</gpxtpx:hr></gpxtpx:TrackPointExtension></extensions>
      </trkpt>
      <trkpt lat="39.850483079878" lon="2.799231645393">
        <ele>30</ele>
        <time>2020-06-25T21:16:54Z</time>
        <extensions><gpxtpx:TrackPointExtension><gpxtpx:hr>119</gpxtpx:hr></gpxtpx:TrackPointExtension></extensions>
      </trkpt>
      <trkpt lat="39.850456341617" lon="2.799233070316">
        <ele>30.2</ele>
        <time>2020-06-25T21:16:55Z</time>
        <extensions><gpxtpx:TrackPointExtension><gpxtpx:hr>120</gpxtpx:hr></gpxtpx:TrackPointExtension></extensions>
      </trkpt>
      <trkpt lat="39.850425831501" lon="2.799233992325">
        <ele>30.6</ele>
        <time>2020-06-25T21:16:56Z</time>
        <extensions><gpxtpx:TrackPointExtension><gpxtpx:hr>121</gpxtpx:hr></gpxtpx:TrackPointExtension></extensions>
      </trkpt>
      <trkpt lat="39.850387693856" lon="2.799232315945">
        <ele>30.8</ele>
        <time>2020-06-25T21:16:57Z</time>
        <extensions><gpxtpx:TrackPointExtension><gpxtpx:hr>122</gpxtpx:hr></gpxtpx:TrackPointExtension></extensions>
      </trkpt>
      <trkpt lat="39.850345784356" lon="2.799228795547">
        <ele>31.2</ele>
        <time>2020-06-25T21:16:58Z</time>
        <extensions><gpxtpx:TrackPointExtension><gpxtpx:hr>122</gpxtpx:hr></gpxtpx:TrackPointExtension></extensions>
      </trkpt>
      <trkpt lat="39.850303791037" lon="2.799224688416">
        <ele>31.4</ele>
        <time>2020-06-25T21:16:59Z</time>
        <extensions><gpxtpx:TrackPointExtension><gpxtpx:hr>123</gpxtpx:hr></gpxtpx:TrackPointExtension></extensions>
      </trkpt>
      <trkpt lat="39.850258025863" lon="2.799219240181">
        <ele>31.8</ele>
        <time>2020-06-25T21:17:00Z</time>
        <extensions><gpxtpx:TrackPointExtension><gpxtpx:hr>124</gpxtpx:hr></gpxtpx:TrackPointExtension></extensions>
      </trkpt>
      <trkpt lat="39.850219888218" lon="2.799213959584">
        <ele>32.2</ele>
        <time>2020-06-25T21:17:01Z</time>
        <extensions><gpxtpx:TrackPointExtension><gpxtpx:hr>125</gpxtpx:hr></gpxtpx:TrackPointExtension></extensions>
      </trkpt>
      <trkpt lat="39.850185522428" lon="2.799208762806">
        <ele>32.4</ele>
        <time>2020-06-25T21:17:02Z</time>
        <extensions><gpxtpx:TrackPointExtension><gpxtpx:hr>125</gpxtpx:hr></gpxtpx:TrackPointExtension></extensions>
      </trkpt>
      <trkpt lat="39.850143612928" lon="2.7992025602">
        <ele>32.8</ele>
        <time>2020-06-25T21:17:04Z</time>
        <extensions><gpxtpx:TrackPointExtension><gpxtpx:hr>126</gpxtpx:hr></gpxtpx:TrackPointExtension></extensions>
      </trkpt>
      <trkpt lat="39.850109247138" lon="2.799197028146">
        <ele>33</ele>
        <time>2020-06-25T21:17:05Z</time>
        <extensions><gpxtpx:TrackPointExtension><gpxtpx:hr>126</gpxtpx:hr></gpxtpx:TrackPointExtension></extensions>
      </trkpt>
      <trkpt lat="39.850067253819" lon="2.799190154988">
        <ele>33.2</ele>
        <time>2020-06-25T21:17:06Z</time>
        <extensions><gpxtpx:TrackPointExtension><gpxtpx:hr>127</gpxtpx:hr></gpxtpx:TrackPointExtension></extensions>
      </trkpt>
      <trkpt lat="39.850032971848" lon="2.799183952382">
        <ele>33.6</ele>
        <time>2020-06-25T21:17:07Z</time>
        <extensions><gpxtpx:TrackPointExtension><gpxtpx:hr>127</gpxtpx:hr></gpxtpx:TrackPointExtension></extensions>
      </trkpt>
      <trkpt lat="39.849998606058" lon="2.799177246862">
        <ele>33.8</ele>
        <time>2020-06-25T21:17:08Z</time>
        <extensions><gpxtpx:TrackPointExtension><gpxtpx:hr>127</gpxtpx:hr></gpxtpx:TrackPointExtension></extensions>
      </trkpt>
      <trkpt lat="39.849964240268" lon="2.799170122247">
        <ele>34</ele>
        <time>2020-06-25T21:17:09Z</time>
        <extensions><gpxtpx:TrackPointExtension><gpxtpx:hr>127</gpxtpx:hr></gpxtpx:TrackPointExtension></extensions>
      </trkpt>
      <trkpt lat="39.849929958297" lon="2.799161991804">
        <ele>34.2</ele>
        <time>2020-06-25T21:17:10Z</time>
        <extensions><gpxtpx:TrackPointExtension><gpxtpx:hr>127</gpxtpx:hr></gpxtpx:TrackPointExtension></extensions>
      </trkpt>
      <trkpt lat="39.849884193123" lon="2.799150760058">
        <ele>34.6</ele>
        <time>2020-06-25T21:17:11Z</time>
        <extensions><gpxtpx:TrackPointExtension><gpxtpx:hr>128</gpxtpx:hr></gpxtpx:TrackPointExtension></extensions>
      </trkpt>
      <trkpt lat="39.849834572275" lon="2.799138187208">
        <ele>34.8</ele>
        <time>2020-06-25T21:17:12Z</time>
        <extensions><gpxtpx:TrackPointExtension><gpxtpx:hr>129</gpxtpx:hr></gpxtpx:TrackPointExtension></extensions>
      </trkpt>
      <trkpt lat="39.849788807101" lon="2.799124105616">
        <ele>35</ele>
        <time>2020-06-25T21:17:13Z</time>
        <extensions><gpxtpx:TrackPointExtension><gpxtpx:hr>129</gpxtpx:hr></gpxtpx:TrackPointExtension></extensions>
      </trkpt>
      <trkpt lat="39.849739186253" lon="2.799108347644">
        <ele>35.4</ele>
        <time>2020-06-25T21:17:15Z</time>
        <extensions><gpxtpx:TrackPointExtension><gpxtpx:hr>130</gpxtpx:hr></gpxtpx:TrackPointExtension></extensions>
      </trkpt>
      <trkpt lat="39.849701048608" lon="2.79909527188">
        <ele>35.8</ele>
        <time>2020-06-25T21:17:16Z</time>
        <extensions><gpxtpx:TrackPointExtension><gpxtpx:hr>130</gpxtpx:hr></gpxtpx:TrackPointExtension></extensions>
      </trkpt>
      <trkpt lat="39.849659139108" lon="2.799081441745">
        <ele>36.2</ele>
        <time>2020-06-25T21:17:17Z</time>
        <extensions><gpxtpx:TrackPointExtension><gpxtpx:hr>131</gpxtpx:hr></gpxtpx:TrackPointExtension></extensions>
      </trkpt>
      <trkpt lat="39.849624773318" lon="2.799071132008">
        <ele>36.4</ele>
        <time>2020-06-25T21:17:18Z</time>
        <extensions><gpxtpx:TrackPointExtension><gpxtpx:hr>131</gpxtpx:hr></gpxtpx:TrackPointExtension></extensions>
      </trkpt>
      <trkpt lat="39.849594263202" lon="2.799061157547">
        <ele>36.6</ele>
        <time>2020-06-25T21:17:19Z</time>
        <extensions><gpxtpx:TrackPointExtension><gpxtpx:hr>131</gpxtpx:hr></gpxtpx:TrackPointExtension></extensions>
      </trkpt>
      <trkpt lat="39.849563753086" lon="2.799051350724">
        <ele>37</ele>
        <time>2020-06-25T21:17:20Z</time>
        <extensions><gpxtpx:TrackPointExtension><gpxtpx:hr>132</gpxtpx:hr></gpxtpx:TrackPointExtension></extensions>
      </trkpt>
      <trkpt lat="39.849525615441" lon="2.799040202797">
        <ele>37.4</ele>
        <time>2020-06-25T21:17:21Z</time>
        <extensions><gpxtpx:TrackPointExtension><gpxtpx:hr>132</gpxtpx:hr></gpxtpx:TrackPointExtension></extensions>
      </trkpt>
      <trkpt lat="39.849491249651" lon="2.799031150345">
        <ele>37.6</ele>
        <time>2020-06-25T21:17:22Z</time>
        <extensions><gpxtpx:TrackPointExtension><gpxtpx:hr>132</gpxtpx:hr></gpxtpx:TrackPointExtension></extensions>
      </trkpt>
      <trkpt lat="39.84945696768" lon="2.799023690454">
        <ele>38</ele>
        <time>2020-06-25T21:17:23Z</time>
        <extensions><gpxtpx:TrackPointExtension><gpxtpx:hr>133</gpxtpx:hr></gpxtpx:TrackPointExtension></extensions>
      </trkpt>
      <trkpt lat="39.84942260189" lon="2.799019164228">
        <ele>38.2</ele>
        <time>2020-06-25T21:17:24Z</time>
        <extensions><gpxtpx:TrackPointExtension><gpxtpx:hr>134</gpxtpx:hr></gpxtpx:TrackPointExtension></extensions>
      </trkpt>
      <trkpt lat="39.849384464245" lon="2.799014386545">
        <ele>38.6</ele>
        <time>2020-06-25T21:17:25Z</time>
        <extensions><gpxtpx:TrackPointExtension><gpxtpx:hr>134</gpxtpx:hr></gpxtpx:TrackPointExtension></extensions>
      </trkpt>
      <trkpt lat="39.849353954129" lon="2.799010111776">
        <ele>39</ele>
        <time>2020-06-25T21:17:26Z</time>
        <extensions><gpxtpx:TrackPointExtension><gpxtpx:hr>134</gpxtpx:hr></gpxtpx:TrackPointExtension></extensions>
      </trkpt>
      <trkpt lat="39.849319588339" lon="2.799002987161">
        <ele>39.2</ele>
        <time>2020-06-25T21:17:27Z</time>
        <extensions><gpxtpx:TrackPointExtension><gpxtpx:hr>135</gpxtpx:hr></gpxtpx:TrackPointExtension></extensions>
      </trkpt>
      <trkpt lat="39.849281450694" lon="2.798992509786">
        <ele>39.6</ele>
        <time>2020-06-25T21:17:28Z</time>
        <extensions><gpxtpx:TrackPointExtension><gpxtpx:hr>135</gpxtpx:hr></gpxtpx:TrackPointExtension></extensions>
      </trkpt>
      <trkpt lat="39.84923568552" lon="2.798975075434">
        <ele>39.8</ele>
        <time>2020-06-25T21:17:30Z</time>
        <extensions><gpxtpx:TrackPointExtension><gpxtpx:hr>136</gpxtpx:hr></gpxtpx:TrackPointExtension></extensions>
      </trkpt>
      <trkpt lat="39.849189920346" lon="2.798956467616">
        <ele>40</ele>
        <time>2020-06-25T21:17:31Z</time>
        <extensions><gpxtpx:TrackPointExtension><gpxtpx:hr>137</gpxtpx:hr></gpxtpx:TrackPointExtension></extensions>
      </trkpt>
      <trkpt lat="39.849144155172" lon="2.79893601578">
        <ele>40</ele>
        <time>2020-06-25T21:17:32Z</time>
        <extensions><gpxtpx:TrackPointExtension><gpxtpx:hr>137</gpxtpx:hr></gpxtpx:TrackPointExtension></extensions>
      </trkpt>
      <trkpt lat="39.849094534324" lon="2.79891003189">
        <ele>40.2</ele>
        <time>2020-06-25T21:17:33Z</time>
        <extensions><gpxtpx:TrackPointExtension><gpxtpx:hr>137</gpxtpx:hr></gpxtpx:TrackPointExtension></extensions>
      </trkpt>
      <trkpt lat="39.849052541005" lon="2.798874492634">
        <ele>40.6</ele>
        <time>2020-06-25T21:17:34Z</time>
        <extensions><gpxtpx:TrackPointExtension><gpxtpx:hr>137</gpxtpx:hr></gpxtpx:TrackPointExtension></extensions>
      </trkpt>
      <trkpt lat="39.84901440336" lon="2.798835349161">
        <ele>41.2</ele>
        <time>2020-06-25T21:17:35Z</time>
        <extensions><gpxtpx:TrackPointExtension><gpxtpx:hr>138</gpxtpx:hr></gpxtpx:TrackPointExtension></extensions>
      </trkpt>
      <trkpt lat="39.848987748918" lon="2.798802492113">
        <ele>41.4</ele>
        <time>2020-06-25T21:17:36Z</time>
        <extensions><gpxtpx:TrackPointExtension><gpxtpx:hr>138</gpxtpx:hr></gpxtpx:TrackPointExtension></extensions>
      </trkpt>
      <trkpt lat="39.848961010657" lon="2.7987750833">
        <ele>41.8</ele>
        <time>2020-06-25T21:17:37Z</time>
        <extensions><gpxtpx:TrackPointExtension><gpxtpx:hr>138</gpxtpx:hr></gpxtpx:TrackPointExtension></extensions>
      </trkpt>
      <trkpt lat="39.848941983744" lon="2.798754799102">
        <ele>42</ele>
        <time>2020-06-25T21:17:38Z</time>
        <extensions><gpxtpx:TrackPointExtension><gpxtpx:hr>138</gpxtpx:hr></gpxtpx:TrackPointExtension></extensions>
      </trkpt>
      <trkpt lat="39.84890376228" lon="2.798733089981">
        <ele>42</ele>
        <time>2020-06-25T21:17:39Z</time>
        <extensions><gpxtpx:TrackPointExtension><gpxtpx:hr>139</gpxtpx:hr></gpxtpx:TrackPointExtension></extensions>
      </trkpt>
      <trkpt lat="39.848850369577" lon="2.798711632317">
        <ele>42.4</ele>
        <time>2020-06-25T21:17:41Z</time>
        <extensions><gpxtpx:TrackPointExtension><gpxtpx:hr>139</gpxtpx:hr></gpxtpx:TrackPointExtension></extensions>
      </trkpt>
      <trkpt lat="39.848812231932" lon="2.798699478562">
        <ele>42.8</ele>
        <time>2020-06-25T21:17:42Z</time>
        <extensions><gpxtpx:TrackPointExtension><gpxtpx:hr>139</gpxtpx:hr></gpxtpx:TrackPointExtension></extensions>
      </trkpt>
      <trkpt lat="39.848774094287" lon="2.798687827721">
        <ele>43</ele>
        <time>2020-06-25T21:17:43Z</time>
        <extensions><gpxtpx:TrackPointExtension><gpxtpx:hr>139</gpxtpx:hr></gpxtpx:TrackPointExtension></extensions>
      </trkpt>
      <trkpt lat="39.848747356026" lon="2.798679445821">
        <ele>43.4</ele>
        <time>2020-06-25T21:17:44Z</time>
        <extensions><gpxtpx:TrackPointExtension><gpxtpx:hr>139</gpxtpx:hr></gpxtpx:TrackPointExtension></extensions>
      </trkpt>
      <trkpt lat="39.84871684591" lon="2.798669890455">
        <ele>43.6</ele>
        <time>2020-06-25T21:17:45Z</time>
        <extensions><gpxtpx:TrackPointExtension><gpxtpx:hr>139</gpxtpx:hr></gpxtpx:TrackPointExtension></extensions>
      </trkpt>
      <trkpt lat="39.848682563939" lon="2.79865941308">
        <ele>44</ele>
        <time>2020-06-25T21:17:46Z</time>
        <extensions><gpxtpx:TrackPointExtension><gpxtpx:hr>139</gpxtpx:hr></gpxtpx:TrackPointExtension></extensions>
      </trkpt>
      <trkpt lat="39.848648198149" lon="2.798647007868">
        <ele>44.4</ele>
        <time>2020-06-25T21:17:47Z</time>
        <extensions><gpxtpx:TrackPointExtension><gpxtpx:hr>139</gpxtpx:hr></gpxtpx:TrackPointExtension></extensions>
      </trkpt>
      <trkpt lat="39.848617688033" lon="2.798635608484">
        <ele>44.6</ele>
        <time>2020-06-25T21:17:48Z</time>
        <extensions><gpxtpx:TrackPointExtension><gpxtpx:hr>139</gpxtpx:hr></gpxtpx:TrackPointExtension></extensions>
      </trkpt>
      <trkpt lat="39.848583322243" lon="2.798620521064">
        <ele>45</ele>
        <time>2020-06-25T21:17:49Z</time>
        <extensions><gpxtpx:TrackPointExtension><gpxtpx:hr>139</gpxtpx:hr></gpxtpx:TrackPointExtension></extensions>
      </trkpt>
      <trkpt lat="39.848545184598" lon="2.798600320685">
        <ele>45.4</ele>
        <time>2020-06-25T21:17:51Z</time>
        <extensions><gpxtpx:TrackPointExtension><gpxtpx:hr>139</gpxtpx:hr></gpxtpx:TrackPointExtension></extensions>
      </trkpt>
      <trkpt lat="39.848510902627" lon="2.798580287944">
        <ele>45.6</ele>
        <time>2020-06-25T21:17:52Z</time>
        <extensions><gpxtpx:TrackPointExtension><gpxtpx:hr>139</gpxtpx:hr></gpxtpx:TrackPointExtension></extensions>
      </trkpt>
      <trkpt lat="39.848476536837" lon="2.798556902443">
        <ele>46</ele>
        <time>2020-06-25T21:17:53Z</time>
        <extensions><gpxtpx:TrackPointExtension><gpxtpx:hr>139</gpxtpx:hr></gpxtpx:TrackPointExtension></extensions>
      </trkpt>
      <trkpt lat="39.848430771663" lon="2.798525218861">
        <ele>46.2</ele>
        <time>2020-06-25T21:17:54Z</time>
        <extensions><gpxtpx:TrackPointExtension><gpxtpx:hr>139</gpxtpx:hr></gpxtpx:TrackPointExtension></extensions>
      </trkpt>
      <trkpt lat="39.848388778344" lon="2.798491607442">
        <ele>46.6</ele>
        <time>2020-06-25T21:17:55Z</time>
        <extensions><gpxtpx:TrackPointExtension><gpxtpx:hr>139</gpxtpx:hr></gpxtpx:TrackPointExtension></extensions>
      </trkpt>
      <trkpt lat="39.848346868844" lon="2.798457744566">
        <ele>47</ele>
        <time>2020-06-25T21:17:56Z</time>
        <extensions><gpxtpx:TrackPointExtension><gpxtpx:hr>139</gpxtpx:hr></gpxtpx:TrackPointExtension></extensions>
      </trkpt>
      <trkpt lat="39.848312503054" lon="2.798429832839">
        <ele>47.4</ele>
        <time>2020-06-25T21:17:57Z</time>
        <extensions><gpxtpx:TrackPointExtension><gpxtpx:hr>139</gpxtpx:hr></gpxtpx:TrackPointExtension></extensions>
      </trkpt>
      <trkpt lat="39.848270593554" lon="2.798395969963">
        <ele>47.6</ele>
        <time>2020-06-25T21:17:58Z</time>
        <extensions><gpxtpx:TrackPointExtension><gpxtpx:hr>139</gpxtpx:hr></gpxtpx:TrackPointExtension></extensions>
      </trkpt>
      <trkpt lat="39.84823237209" lon="2.798362610001">
        <ele>48</ele>
        <time>2020-06-25T21:18:00Z</time>
        <extensions><gpxtpx:TrackPointExtension><gpxtpx:hr>139</gpxtpx:hr></gpxtpx:TrackPointExtension></extensions>
      </trkpt>
      <trkpt lat="39.848194234445" lon="2.798328495668">
        <ele>48.4</ele>
        <time>2020-06-25T21:18:01Z</time>
        <extensions><gpxtpx:TrackPointExtension><gpxtpx:hr>139</gpxtpx:hr></gpxtpx:TrackPointExtension></extensions>
      </trkpt>
      <trkpt lat="39.848159952474" lon="2.798299159018">
        <ele>48.8</ele>
        <time>2020-06-25T21:18:02Z</time>
        <extensions><gpxtpx:TrackPointExtension><gpxtpx:hr>139</gpxtpx:hr></gpxtpx:TrackPointExtension></extensions>
      </trkpt>
      <trkpt lat="39.848125586684" lon="2.798266469608">
        <ele>49</ele>
        <time>2020-06-25T21:18:03Z</time>
        <extensions><gpxtpx:TrackPointExtension><gpxtpx:hr>139</gpxtpx:hr></gpxtpx:TrackPointExtension></extensions>
      </trkpt>
      <trkpt lat="39.848083677184" lon="2.798231014171">
        <ele>49.4</ele>
        <time>2020-06-25T21:18:04Z</time>
        <extensions><gpxtpx:TrackPointExtension><gpxtpx:hr>139</gpxtpx:hr></gpxtpx:TrackPointExtension></extensions>
      </trkpt>
      <trkpt lat="39.848053083249" lon="2.798202348073">
        <ele>49.8</ele>
        <time>2020-06-25T21:18:05Z</time>
        <extensions><gpxtpx:TrackPointExtension><gpxtpx:hr>139</gpxtpx:hr></gpxtpx:TrackPointExtension></extensions>
      </trkpt>
      <trkpt lat="39.848011173749" lon="2.798169491025">
        <ele>50</ele>
        <time>2020-06-25T21:18:06Z</time>
        <extensions><gpxtpx:TrackPointExtension><gpxtpx:hr>139</gpxtpx:hr></gpxtpx:TrackPointExtension></extensions>
      </trkpt>
      <trkpt lat="39.847980663633" lon="2.798142752764">
        <ele>50.4</ele>
        <time>2020-06-25T21:18:07Z</time>
        <extensions><gpxtpx:TrackPointExtension><gpxtpx:hr>140</gpxtpx:hr></gpxtpx:TrackPointExtension></extensions>
      </trkpt>
      <trkpt lat="39.847942525988" lon="2.798111320639">
        <ele>50.8</ele>
        <time>2020-06-25T21:18:08Z</time>
        <extensions><gpxtpx:TrackPointExtension><gpxtpx:hr>140</gpxtpx:hr></gpxtpx:TrackPointExtension></extensions>
      </trkpt>
      <trkpt lat="39.847908160198" lon="2.798084833835">
        <ele>51</ele>
        <time>2020-06-25T21:18:09Z</time>
        <extensions><gpxtpx:TrackPointExtension><gpxtpx:hr>140</gpxtpx:hr></gpxtpx:TrackPointExtension></extensions>
      </trkpt>
      <trkpt lat="39.847870022553" lon="2.798053820805">
        <ele>51.4</ele>
        <time>2020-06-25T21:18:11Z</time>
        <extensions><gpxtpx:TrackPointExtension><gpxtpx:hr>140</gpxtpx:hr></gpxtpx:TrackPointExtension></extensions>
      </trkpt>
      <trkpt lat="39.847828029234" lon="2.798024987069">
        <ele>51.8</ele>
        <time>2020-06-25T21:18:12Z</time>
        <extensions><gpxtpx:TrackPointExtension><gpxtpx:hr>140</gpxtpx:hr></gpxtpx:TrackPointExtension></extensions>
      </trkpt>
      <trkpt lat="39.847793747263" lon="2.798002775034">
        <ele>52</ele>
        <time>2020-06-25T21:18:13Z</time>
        <extensions><gpxtpx:TrackPointExtension><gpxtpx:hr>140</gpxtpx:hr></gpxtpx:TrackPointExtension></extensions>
      </trkpt>
      <trkpt lat="39.847747982089" lon="2.797985675958">
        <ele>52.4</ele>
        <time>2020-06-25T21:18:14Z</time>
        <extensions><gpxtpx:TrackPointExtension><gpxtpx:hr>140</gpxtpx:hr></gpxtpx:TrackPointExtension></extensions>
      </trkpt>
      <trkpt lat="39.847702133096" lon="2.797979892447">
        <ele>52.6</ele>
        <time>2020-06-25T21:18:15Z</time>
        <extensions><gpxtpx:TrackPointExtension><gpxtpx:hr>140</gpxtpx:hr></gpxtpx:TrackPointExtension></extensions>
      </trkpt>
      <trkpt lat="39.847656367922" lon="2.797975366221">
        <ele>52.8</ele>
        <time>2020-06-25T21:18:16Z</time>
        <extensions><gpxtpx:TrackPointExtension><gpxtpx:hr>141</gpxtpx:hr></gpxtpx:TrackPointExtension></extensions>
      </trkpt>
      <trkpt lat="39.847599203364" lon="2.797999925188">
        <ele>52.8</ele>
        <time>2020-06-25T21:18:17Z</time>
        <extensions><gpxtpx:TrackPointExtension><gpxtpx:hr>141</gpxtpx:hr></gpxtpx:TrackPointExtension></extensions>
      </trkpt>
      <trkpt lat="39.847538099313" lon="2.797988525804">
        <ele>53</ele>
        <time>2020-06-25T21:18:18Z</time>
        <extensions><gpxtpx:TrackPointExtension><gpxtpx:hr>142</gpxtpx:hr></gpxtpx:TrackPointExtension></extensions>
      </trkpt>
      <trkpt lat="39.847492334139" lon="2.797942509173">
        <ele>53.4</ele>
        <time>2020-06-25T21:18:20Z</time>
        <extensions><gpxtpx:TrackPointExtension><gpxtpx:hr>142</gpxtpx:hr></gpxtpx:TrackPointExtension></extensions>
      </trkpt>
      <trkpt lat="39.847461824023" lon="2.797907221374">
        <ele>53.8</ele>
        <time>2020-06-25T21:18:21Z</time>
        <extensions><gpxtpx:TrackPointExtension><gpxtpx:hr>142</gpxtpx:hr></gpxtpx:TrackPointExtension></extensions>
      </trkpt>
      <trkpt lat="39.847431313907" lon="2.797870927747">
        <ele>54.2</ele>
        <time>2020-06-25T21:18:22Z</time>
        <extensions><gpxtpx:TrackPointExtension><gpxtpx:hr>142</gpxtpx:hr></gpxtpx:TrackPointExtension></extensions>
      </trkpt>
      <trkpt lat="39.847400803791" lon="2.797836394319">
        <ele>54.4</ele>
        <time>2020-06-25T21:18:23Z</time>
        <extensions><gpxtpx:TrackPointExtension><gpxtpx:hr>142</gpxtpx:hr></gpxtpx:TrackPointExtension></extensions>
      </trkpt>
      <trkpt lat="39.84737406553" lon="2.797806806212">
        <ele>54.6</ele>
        <time>2020-06-25T21:18:24Z</time>
        <extensions><gpxtpx:TrackPointExtension><gpxtpx:hr>141</gpxtpx:hr></gpxtpx:TrackPointExtension></extensions>
      </trkpt>
      <trkpt lat="39.847347411088" lon="2.79777679901">
        <ele>55</ele>
        <time>2020-06-25T21:18:25Z</time>
        <extensions><gpxtpx:TrackPointExtension><gpxtpx:hr>141</gpxtpx:hr></gpxtpx:TrackPointExtension></extensions>
      </trkpt>
      <trkpt lat="39.847316900972" lon="2.797739583374">
        <ele>55.2</ele>
        <time>2020-06-25T21:18:26Z</time>
        <extensions><gpxtpx:TrackPointExtension><gpxtpx:hr>140</gpxtpx:hr></gpxtpx:TrackPointExtension></extensions>
      </trkpt>
      <trkpt lat="39.847286390856" lon="2.797701445729">
        <ele>55.6</ele>
        <time>2020-06-25T21:18:27Z</time>
        <extensions><gpxtpx:TrackPointExtension><gpxtpx:hr>140</gpxtpx:hr></gpxtpx:TrackPointExtension></extensions>
      </trkpt>
      <trkpt lat="39.847259652595" lon="2.797669007776">
        <ele>55.8</ele>
        <time>2020-06-25T21:18:28Z</time>
        <extensions><gpxtpx:TrackPointExtension><gpxtpx:hr>139</gpxtpx:hr></gpxtpx:TrackPointExtension></extensions>
      </trkpt>
      <trkpt lat="39.847225370624" lon="2.797629696665">
        <ele>56.2</ele>
        <time>2020-06-25T21:18:30Z</time>
        <extensions><gpxtpx:TrackPointExtension><gpxtpx:hr>139</gpxtpx:hr></gpxtpx:TrackPointExtension></extensions>
      </trkpt>
      <trkpt lat="39.847191004834" lon="2.797589128269">
        <ele>56.4</ele>
        <time>2020-06-25T21:18:31Z</time>
        <extensions><gpxtpx:TrackPointExtension><gpxtpx:hr>139</gpxtpx:hr></gpxtpx:TrackPointExtension></extensions>
      </trkpt>
      <trkpt lat="39.847160494718" lon="2.797554846298">
        <ele>56.8</ele>
        <time>2020-06-25T21:18:32Z</time>
        <extensions><gpxtpx:TrackPointExtension><gpxtpx:hr>139</gpxtpx:hr></gpxtpx:TrackPointExtension></extensions>
      </trkpt>
      <trkpt lat="39.847126128928" lon="2.797513774988">
        <ele>57</ele>
        <time>2020-06-25T21:18:33Z</time>
        <extensions><gpxtpx:TrackPointExtension><gpxtpx:hr>139</gpxtpx:hr></gpxtpx:TrackPointExtension></extensions>
      </trkpt>
      <trkpt lat="39.847091846957" lon="2.797473038954">
        <ele>57.4</ele>
        <time>2020-06-25T21:18:34Z</time>
        <extensions><gpxtpx:TrackPointExtension><gpxtpx:hr>139</gpxtpx:hr></gpxtpx:TrackPointExtension></extensions>
      </trkpt>
      <trkpt lat="39.847065108696" lon="2.797439678992">
        <ele>57.8</ele>
        <time>2020-06-25T21:18:35Z</time>
        <extensions><gpxtpx:TrackPointExtension><gpxtpx:hr>139</gpxtpx:hr></gpxtpx:TrackPointExtension></extensions>
      </trkpt>
      <trkpt lat="39.847026971051" lon="2.79740128989">
        <ele>58</ele>
        <time>2020-06-25T21:18:36Z</time>
        <extensions><gpxtpx:TrackPointExtension><gpxtpx:hr>139</gpxtpx:hr></gpxtpx:TrackPointExtension></extensions>
      </trkpt>
      <trkpt lat="39.846988833406" lon="2.797364577168">
        <ele>58.4</ele>
        <time>2020-06-25T21:18:38Z</time>
        <extensions><gpxtpx:TrackPointExtension><gpxtpx:hr>139</gpxtpx:hr></gpxtpx:TrackPointExtension></extensions>
      </trkpt>
      <trkpt lat="39.846950695761" lon="2.797329037912">
        <ele>58.8</ele>
        <time>2020-06-25T21:18:39Z</time>
        <extensions><gpxtpx:TrackPointExtension><gpxtpx:hr>139</gpxtpx:hr></gpxtpx:TrackPointExtension></extensions>
      </trkpt>
      <trkpt lat="39.846916329971" lon="2.797300874728">
        <ele>59</ele>
        <time>2020-06-25T21:18:40Z</time>
        <extensions><gpxtpx:TrackPointExtension><gpxtpx:hr>139</gpxtpx:hr></gpxtpx:TrackPointExtension></extensions>
      </trkpt>
      <trkpt lat="39.846882048" lon="2.797274890838">
        <ele>59.4</ele>
        <time>2020-06-25T21:18:41Z</time>
        <extensions><gpxtpx:TrackPointExtension><gpxtpx:hr>139</gpxtpx:hr></gpxtpx:TrackPointExtension></extensions>
      </trkpt>
      <trkpt lat="39.846840054681" lon="2.797247984939">
        <ele>59.6</ele>
        <time>2020-06-25T21:18:42Z</time>
        <extensions><gpxtpx:TrackPointExtension><gpxtpx:hr>139</gpxtpx:hr></gpxtpx:TrackPointExtension></extensions>
      </trkpt>
      <trkpt lat="39.846790433833" lon="2.797223174515">
        <ele>60</ele>
        <time>2020-06-25T21:18:43Z</time>
        <extensions><gpxtpx:TrackPointExtension><gpxtpx:hr>139</gpxtpx:hr></gpxtpx:TrackPointExtension></extensions>
      </trkpt>
      <trkpt lat="39.846752296188" lon="2.797200040471">
        <ele>60.2</ele>
        <time>2020-06-25T21:18:44Z</time>
        <extensions><gpxtpx:TrackPointExtension><gpxtpx:hr>139</gpxtpx:hr></gpxtpx:TrackPointExtension></extensions>
      </trkpt>
      <trkpt lat="39.846710386688" lon="2.797181432653">
        <ele>60.6</ele>
        <time>2020-06-25T21:18:45Z</time>
        <extensions><gpxtpx:TrackPointExtension><gpxtpx:hr>139</gpxtpx:hr></gpxtpx:TrackPointExtension></extensions>
      </trkpt>
      <trkpt lat="39.846672165224" lon="2.79716408212">
        <ele>61</ele>
        <time>2020-06-25T21:18:46Z</time>
        <extensions><gpxtpx:TrackPointExtension><gpxtpx:hr>139</gpxtpx:hr></gpxtpx:TrackPointExtension></extensions>
      </trkpt>
      <trkpt lat="39.846634027579" lon="2.797149749071">
        <ele>61.2</ele>
        <time>2020-06-25T21:18:47Z</time>
        <extensions><gpxtpx:TrackPointExtension><gpxtpx:hr>139</gpxtpx:hr></gpxtpx:TrackPointExtension></extensions>
      </trkpt>
      <trkpt lat="39.846595889934" lon="2.79713809823">
        <ele>61.6</ele>
        <time>2020-06-25T21:18:49Z</time>
        <extensions><gpxtpx:TrackPointExtension><gpxtpx:hr>139</gpxtpx:hr></gpxtpx:TrackPointExtension></extensions>
      </trkpt>
      <trkpt lat="39.846569235492" lon="2.797130219244">
        <ele>62</ele>
        <time>2020-06-25T21:18:50Z</time>
        <extensions><gpxtpx:TrackPointExtension><gpxtpx:hr>139</gpxtpx:hr></gpxtpx:TrackPointExtension></extensions>
      </trkpt>
      <trkpt lat="39.846534869702" lon="2.797122591715">
        <ele>62.2</ele>
        <time>2020-06-25T21:18:51Z</time>
        <extensions><gpxtpx:TrackPointExtension><gpxtpx:hr>139</gpxtpx:hr></gpxtpx:TrackPointExtension></extensions>
      </trkpt>
      <trkpt lat="39.846496732057" lon="2.797115886195">
        <ele>62.4</ele>
        <time>2020-06-25T21:18:52Z</time>
        <extensions><gpxtpx:TrackPointExtension><gpxtpx:hr>139</gpxtpx:hr></gpxtpx:TrackPointExtension></extensions>
      </trkpt>
      <trkpt lat="39.846462366267" lon="2.797110186503">
        <ele>62.6</ele>
        <time>2020-06-25T21:18:53Z</time>
        <extensions><gpxtpx:TrackPointExtension><gpxtpx:hr>139</gpxtpx:hr></gpxtpx:TrackPointExtension></extensions>
      </trkpt>
      <trkpt lat="39.846420456767" lon="2.797104486811">
        <ele>63</ele>
        <time>2020-06-25T21:18:54Z</time>
        <extensions><gpxtpx:TrackPointExtension><gpxtpx:hr>138</gpxtpx:hr></gpxtpx:TrackPointExtension></extensions>
      </trkpt>
      <trkpt lat="39.846370835919" lon="2.797097278377">
        <ele>63.2</ele>
        <time>2020-06-25T21:18:55Z</time>
        <extensions><gpxtpx:TrackPointExtension><gpxtpx:hr>138</gpxtpx:hr></gpxtpx:TrackPointExtension></extensions>
      </trkpt>
      <trkpt lat="39.846313587542" lon="2.797089902305">
        <ele>63.6</ele>
        <time>2020-06-25T21:18:56Z</time>
        <extensions><gpxtpx:TrackPointExtension><gpxtpx:hr>138</gpxtpx:hr></gpxtpx:TrackPointExtension></extensions>
      </trkpt>
      <trkpt lat="39.846264050513" lon="2.797083029147">
        <ele>63.8</ele>
        <time>2020-06-25T21:18:57Z</time>
        <extensions><gpxtpx:TrackPointExtension><gpxtpx:hr>138</gpxtpx:hr></gpxtpx:TrackPointExtension></extensions>
      </trkpt>
      <trkpt lat="39.846206802136" lon="2.797073222324">
        <ele>64.2</ele>
        <time>2020-06-25T21:18:59Z</time>
        <extensions><gpxtpx:TrackPointExtension><gpxtpx:hr>137</gpxtpx:hr></gpxtpx:TrackPointExtension></extensions>
      </trkpt>
      <trkpt lat="39.846157181288" lon="2.797064672786">
        <ele>64.4</ele>
        <time>2020-06-25T21:19:00Z</time>
        <extensions><gpxtpx:TrackPointExtension><gpxtpx:hr>137</gpxtpx:hr></gpxtpx:TrackPointExtension></extensions>
      </trkpt>
      <trkpt lat="39.846115271788" lon="2.797056039429">
        <ele>64.6</ele>
        <time>2020-06-25T21:19:01Z</time>
        <extensions><gpxtpx:TrackPointExtension><gpxtpx:hr>137</gpxtpx:hr></gpxtpx:TrackPointExtension></extensions>
      </trkpt>
      <trkpt lat="39.846069506614" lon="2.797046316425">
        <ele>65</ele>
        <time>2020-06-25T21:19:02Z</time>
        <extensions><gpxtpx:TrackPointExtension><gpxtpx:hr>137</gpxtpx:hr></gpxtpx:TrackPointExtension></extensions>
      </trkpt>
      <trkpt lat="39.846016030092" lon="2.797034833222">
        <ele>65.2</ele>
        <time>2020-06-25T21:19:03Z</time>
        <extensions><gpxtpx:TrackPointExtension><gpxtpx:hr>137</gpxtpx:hr></gpxtpx:TrackPointExtension></extensions>
      </trkpt>
      <trkpt lat="39.845966493063" lon="2.797022930924">
        <ele>65.4</ele>
        <time>2020-06-25T21:19:04Z</time>
        <extensions><gpxtpx:TrackPointExtension><gpxtpx:hr>138</gpxtpx:hr></gpxtpx:TrackPointExtension></extensions>
      </trkpt>
      <trkpt lat="39.845924499744" lon="2.797012453549">
        <ele>65.8</ele>
        <time>2020-06-25T21:19:05Z</time>
        <extensions><gpxtpx:TrackPointExtension><gpxtpx:hr>138</gpxtpx:hr></gpxtpx:TrackPointExtension></extensions>
      </trkpt>
      <trkpt lat="39.845882590244" lon="2.796999293966">
        <ele>66</ele>
        <time>2020-06-25T21:19:06Z</time>
        <extensions><gpxtpx:TrackPointExtension><gpxtpx:hr>138</gpxtpx:hr></gpxtpx:TrackPointExtension></extensions>
      </trkpt>
      <trkpt lat="39.845840596925" lon="2.796982362528">
        <ele>66.4</ele>
        <time>2020-06-25T21:19:07Z</time>
        <extensions><gpxtpx:TrackPointExtension><gpxtpx:hr>139</gpxtpx:hr></gpxtpx:TrackPointExtension></extensions>
      </trkpt>
      <trkpt lat="39.845810086809" lon="2.796968280936">
        <ele>66.8</ele>
        <time>2020-06-25T21:19:08Z</time>
        <extensions><gpxtpx:TrackPointExtension><gpxtpx:hr>139</gpxtpx:hr></gpxtpx:TrackPointExtension></extensions>
      </trkpt>
      <trkpt lat="39.845775721019" lon="2.79695118186">
        <ele>67.2</ele>
        <time>2020-06-25T21:19:10Z</time>
        <extensions><gpxtpx:TrackPointExtension><gpxtpx:hr>139</gpxtpx:hr></gpxtpx:TrackPointExtension></extensions>
      </trkpt>
      <trkpt lat="39.845745210903" lon="2.79693441806">
        <ele>67.4</ele>
        <time>2020-06-25T21:19:11Z</time>
        <extensions><gpxtpx:TrackPointExtension><gpxtpx:hr>139</gpxtpx:hr></gpxtpx:TrackPointExtension></extensions>
      </trkpt>
      <trkpt lat="39.845707073258" lon="2.796913714767">
        <ele>67.6</ele>
        <time>2020-06-25T21:19:12Z</time>
        <extensions><gpxtpx:TrackPointExtension><gpxtpx:hr>140</gpxtpx:hr></gpxtpx:TrackPointExtension></extensions>
      </trkpt>
      <trkpt lat="39.845665079939" lon="2.796891083637">
        <ele>67.8</ele>
        <time>2020-06-25T21:19:13Z</time>
        <extensions><gpxtpx:TrackPointExtension><gpxtpx:hr>141</gpxtpx:hr></gpxtpx:TrackPointExtension></extensions>
      </trkpt>
      <trkpt lat="39.845619314765" lon="2.79686484829">
        <ele>68</ele>
        <time>2020-06-25T21:19:14Z</time>
        <extensions><gpxtpx:TrackPointExtension><gpxtpx:hr>142</gpxtpx:hr></gpxtpx:TrackPointExtension></extensions>
      </trkpt>
      <trkpt lat="39.845565922062" lon="2.796829811948">
        <ele>68.4</ele>
        <time>2020-06-25T21:19:15Z</time>
        <extensions><gpxtpx:TrackPointExtension><gpxtpx:hr>142</gpxtpx:hr></gpxtpx:TrackPointExtension></extensions>
      </trkpt>
      <trkpt lat="39.845520156888" lon="2.796797373995">
        <ele>68.6</ele>
        <time>2020-06-25T21:19:16Z</time>
        <extensions><gpxtpx:TrackPointExtension><gpxtpx:hr>143</gpxtpx:hr></gpxtpx:TrackPointExtension></extensions>
      </trkpt>
      <trkpt lat="39.845482019243" lon="2.796762337653">
        <ele>69</ele>
        <time>2020-06-25T21:19:17Z</time>
        <extensions><gpxtpx:TrackPointExtension><gpxtpx:hr>143</gpxtpx:hr></gpxtpx:TrackPointExtension></extensions>
      </trkpt>
      <trkpt lat="39.845440025924" lon="2.796720847248">
        <ele>69.4</ele>
        <time>2020-06-25T21:19:18Z</time>
        <extensions><gpxtpx:TrackPointExtension><gpxtpx:hr>142</gpxtpx:hr></gpxtpx:TrackPointExtension></extensions>
      </trkpt>
      <trkpt lat="39.845405743953" lon="2.7966796083">
        <ele>69.8</ele>
        <time>2020-06-25T21:19:19Z</time>
        <extensions><gpxtpx:TrackPointExtension><gpxtpx:hr>142</gpxtpx:hr></gpxtpx:TrackPointExtension></extensions>
      </trkpt>
      <trkpt lat="39.845371378163" lon="2.796637614981">
        <ele>70.2</ele>
        <time>2020-06-25T21:19:20Z</time>
        <extensions><gpxtpx:TrackPointExtension><gpxtpx:hr>142</gpxtpx:hr></gpxtpx:TrackPointExtension></extensions>
      </trkpt>
      <trkpt lat="39.845337096192" lon="2.796594196739">
        <ele>70.6</ele>
        <time>2020-06-25T21:19:22Z</time>
        <extensions><gpxtpx:TrackPointExtension><gpxtpx:hr>142</gpxtpx:hr></gpxtpx:TrackPointExtension></extensions>
      </trkpt>
      <trkpt lat="39.845306502257" lon="2.79654465971">
        <ele>71</ele>
        <time>2020-06-25T21:19:23Z</time>
        <extensions><gpxtpx:TrackPointExtension><gpxtpx:hr>142</gpxtpx:hr></gpxtpx:TrackPointExtension></extensions>
      </trkpt>
      <trkpt lat="39.84528361967" lon="2.796501744382">
        <ele>71.4</ele>
        <time>2020-06-25T21:19:24Z</time>
        <extensions><gpxtpx:TrackPointExtension><gpxtpx:hr>142</gpxtpx:hr></gpxtpx:TrackPointExtension></extensions>
      </trkpt>
      <trkpt lat="39.845256965228" lon="2.796443825453">
        <ele>71.6</ele>
        <time>2020-06-25T21:19:25Z</time>
        <extensions><gpxtpx:TrackPointExtension><gpxtpx:hr>142</gpxtpx:hr></gpxtpx:TrackPointExtension></extensions>
      </trkpt>
      <trkpt lat="39.845234082641" lon="2.796365119412">
        <ele>71.6</ele>
        <time>2020-06-25T21:19:26Z</time>
        <extensions><gpxtpx:TrackPointExtension><gpxtpx:hr>142</gpxtpx:hr></gpxtpx:TrackPointExtension></extensions>
      </trkpt>
      <trkpt lat="39.845214971909" lon="2.79626973339">
        <ele>71.8</ele>
        <time>2020-06-25T21:19:27Z</time>
        <extensions><gpxtpx:TrackPointExtension><gpxtpx:hr>142</gpxtpx:hr></gpxtpx:TrackPointExtension></extensions>
      </trkpt>
      <trkpt lat="39.84520734438" lon="2.796193709557">
        <ele>72.2</ele>
        <time>2020-06-25T21:19:28Z</time>
        <extensions><gpxtpx:TrackPointExtension><gpxtpx:hr>142</gpxtpx:hr></gpxtpx:TrackPointExtension></extensions>
      </trkpt>
      <trkpt lat="39.845199716851" lon="2.796114752059">
        <ele>72.8</ele>
        <time>2020-06-25T21:19:30Z</time>
        <extensions><gpxtpx:TrackPointExtension><gpxtpx:hr>142</gpxtpx:hr></gpxtpx:TrackPointExtension></extensions>
      </trkpt>
      <trkpt lat="39.845192089322" lon="2.796049205601">
        <ele>73.2</ele>
        <time>2020-06-25T21:19:31Z</time>
        <extensions><gpxtpx:TrackPointExtension><gpxtpx:hr>143</gpxtpx:hr></gpxtpx:TrackPointExtension></extensions>
      </trkpt>
      <trkpt lat="39.845188317467" lon="2.796001764047">
        <ele>73.4</ele>
        <time>2020-06-25T21:19:32Z</time>
        <extensions><gpxtpx:TrackPointExtension><gpxtpx:hr>143</gpxtpx:hr></gpxtpx:TrackPointExtension></extensions>
      </trkpt>
      <trkpt lat="39.845180689938" lon="2.795949041896">
        <ele>73.8</ele>
        <time>2020-06-25T21:19:33Z</time>
        <extensions><gpxtpx:TrackPointExtension><gpxtpx:hr>143</gpxtpx:hr></gpxtpx:TrackPointExtension></extensions>
      </trkpt>
      <trkpt lat="39.845176834264" lon="2.795896655021">
        <ele>74</ele>
        <time>2020-06-25T21:19:34Z</time>
        <extensions><gpxtpx:TrackPointExtension><gpxtpx:hr>143</gpxtpx:hr></gpxtpx:TrackPointExtension></extensions>
      </trkpt>
      <trkpt lat="39.845169206735" lon="2.795841585938">
        <ele>74.4</ele>
        <time>2020-06-25T21:19:35Z</time>
        <extensions><gpxtpx:TrackPointExtension><gpxtpx:hr>143</gpxtpx:hr></gpxtpx:TrackPointExtension></extensions>
      </trkpt>
      <trkpt lat="39.845157723532" lon="2.79578358319">
        <ele>74.8</ele>
        <time>2020-06-25T21:19:37Z</time>
        <extensions><gpxtpx:TrackPointExtension><gpxtpx:hr>143</gpxtpx:hr></gpxtpx:TrackPointExtension></extensions>
      </trkpt>
      <trkpt lat="39.845150096003" lon="2.795723736424">
        <ele>75</ele>
        <time>2020-06-25T21:19:38Z</time>
        <extensions><gpxtpx:TrackPointExtension><gpxtpx:hr>143</gpxtpx:hr></gpxtpx:TrackPointExtension></extensions>
      </trkpt>
      <trkpt lat="39.845142468474" lon="2.795673193567">
        <ele>75.4</ele>
        <time>2020-06-25T21:19:39Z</time>
        <extensions><gpxtpx:TrackPointExtension><gpxtpx:hr>143</gpxtpx:hr></gpxtpx:TrackPointExtension></extensions>
      </trkpt>
      <trkpt lat="39.845134840945" lon="2.795621980158">
        <ele>75.6</ele>
        <time>2020-06-25T21:19:40Z</time>
        <extensions><gpxtpx:TrackPointExtension><gpxtpx:hr>143</gpxtpx:hr></gpxtpx:TrackPointExtension></extensions>
      </trkpt>
      <trkpt lat="39.845123441561" lon="2.795570934387">
        <ele>76</ele>
        <time>2020-06-25T21:19:41Z</time>
        <extensions><gpxtpx:TrackPointExtension><gpxtpx:hr>143</gpxtpx:hr></gpxtpx:TrackPointExtension></extensions>
      </trkpt>
      <trkpt lat="39.845111958358" lon="2.795519720978">
        <ele>76.2</ele>
        <time>2020-06-25T21:19:42Z</time>
        <extensions><gpxtpx:TrackPointExtension><gpxtpx:hr>143</gpxtpx:hr></gpxtpx:TrackPointExtension></extensions>
      </trkpt>
      <trkpt lat="39.8450967033" lon="2.795467501741">
        <ele>76.6</ele>
        <time>2020-06-25T21:19:43Z</time>
        <extensions><gpxtpx:TrackPointExtension><gpxtpx:hr>143</gpxtpx:hr></gpxtpx:TrackPointExtension></extensions>
      </trkpt>
      <trkpt lat="39.845081448242" lon="2.795414528133">
        <ele>76.8</ele>
        <time>2020-06-25T21:19:44Z</time>
        <extensions><gpxtpx:TrackPointExtension><gpxtpx:hr>143</gpxtpx:hr></gpxtpx:TrackPointExtension></extensions>
      </trkpt>
      <trkpt lat="39.845058565655" lon="2.795350155141">
        <ele>77.2</ele>
        <time>2020-06-25T21:19:45Z</time>
        <extensions><gpxtpx:TrackPointExtension><gpxtpx:hr>143</gpxtpx:hr></gpxtpx:TrackPointExtension></extensions>
      </trkpt>
      <trkpt lat="39.845043310597" lon="2.795295588972">
        <ele>77.6</ele>
        <time>2020-06-25T21:19:46Z</time>
        <extensions><gpxtpx:TrackPointExtension><gpxtpx:hr>143</gpxtpx:hr></gpxtpx:TrackPointExtension></extensions>
      </trkpt>
      <trkpt lat="39.84502042801" lon="2.7952295396">
        <ele>77.8</ele>
        <time>2020-06-25T21:19:47Z</time>
        <extensions><gpxtpx:TrackPointExtension><gpxtpx:hr>143</gpxtpx:hr></gpxtpx:TrackPointExtension></extensions>
      </trkpt>
      <trkpt lat="39.844997545423" lon="2.795163238771">
        <ele>78.2</ele>
        <time>2020-06-25T21:19:48Z</time>
        <extensions><gpxtpx:TrackPointExtension><gpxtpx:hr>143</gpxtpx:hr></gpxtpx:TrackPointExtension></extensions>
      </trkpt>
      <trkpt lat="39.844978434691" lon="2.795107666774">
        <ele>78.6</ele>
        <time>2020-06-25T21:19:49Z</time>
        <extensions><gpxtpx:TrackPointExtension><gpxtpx:hr>143</gpxtpx:hr></gpxtpx:TrackPointExtension></extensions>
      </trkpt>
      <trkpt lat="39.844959407778" lon="2.795052178596">
        <ele>79</ele>
        <time>2020-06-25T21:19:50Z</time>
        <extensions><gpxtpx:TrackPointExtension><gpxtpx:hr>143</gpxtpx:hr></gpxtpx:TrackPointExtension></extensions>
      </trkpt>
      <trkpt lat="39.84494415272" lon="2.794996103685">
        <ele>79.2</ele>
        <time>2020-06-25T21:19:51Z</time>
        <extensions><gpxtpx:TrackPointExtension><gpxtpx:hr>144</gpxtpx:hr></gpxtpx:TrackPointExtension></extensions>
      </trkpt>
      <trkpt lat="39.844925041988" lon="2.79494036405">
        <ele>79.6</ele>
        <time>2020-06-25T21:19:52Z</time>
        <extensions><gpxtpx:TrackPointExtension><gpxtpx:hr>144</gpxtpx:hr></gpxtpx:TrackPointExtension></extensions>
      </trkpt>
      <trkpt lat="39.844902159401" lon="2.794873560307">
        <ele>80</ele>
        <time>2020-06-25T21:19:54Z</time>
        <extensions><gpxtpx:TrackPointExtension><gpxtpx:hr>144</gpxtpx:hr></gpxtpx:TrackPointExtension></extensions>
      </trkpt>
      <trkpt lat="39.844883132488" lon="2.794807259478">
        <ele>80.4</ele>
        <time>2020-06-25T21:19:55Z</time>
        <extensions><gpxtpx:TrackPointExtension><gpxtpx:hr>144</gpxtpx:hr></gpxtpx:TrackPointExtension></extensions>
      </trkpt>
      <trkpt lat="39.844860249901" lon="2.794741210106">
        <ele>80.8</ele>
        <time>2020-06-25T21:19:56Z</time>
        <extensions><gpxtpx:TrackPointExtension><gpxtpx:hr>145</gpxtpx:hr></gpxtpx:TrackPointExtension></extensions>
      </trkpt>
      <trkpt lat="39.844841139169" lon="2.794675663648">
        <ele>81.2</ele>
        <time>2020-06-25T21:19:57Z</time>
        <extensions><gpxtpx:TrackPointExtension><gpxtpx:hr>145</gpxtpx:hr></gpxtpx:TrackPointExtension></extensions>
      </trkpt>
      <trkpt lat="39.844818256582" lon="2.794609362819">
        <ele>81.6</ele>
        <time>2020-06-25T21:19:58Z</time>
        <extensions><gpxtpx:TrackPointExtension><gpxtpx:hr>145</gpxtpx:hr></gpxtpx:TrackPointExtension></extensions>
      </trkpt>
      <trkpt lat="39.844803001524" lon="2.794553874641">
        <ele>81.8</ele>
        <time>2020-06-25T21:19:59Z</time>
        <extensions><gpxtpx:TrackPointExtension><gpxtpx:hr>145</gpxtpx:hr></gpxtpx:TrackPointExtension></extensions>
      </trkpt>
      <trkpt lat="39.844780118937" lon="2.794487825269">
        <ele>82.2</ele>
        <time>2020-06-25T21:20:01Z</time>
        <extensions><gpxtpx:TrackPointExtension><gpxtpx:hr>146</gpxtpx:hr></gpxtpx:TrackPointExtension></extensions>
      </trkpt>
      <trkpt lat="39.844761008205" lon="2.79442320082">
        <ele>82.6</ele>
        <time>2020-06-25T21:20:02Z</time>
        <extensions><gpxtpx:TrackPointExtension><gpxtpx:hr>146</gpxtpx:hr></gpxtpx:TrackPointExtension></extensions>
      </trkpt>
      <trkpt lat="39.844745753147" lon="2.794369808117">
        <ele>83</ele>
        <time>2020-06-25T21:20:03Z</time>
        <extensions><gpxtpx:TrackPointExtension><gpxtpx:hr>146</gpxtpx:hr></gpxtpx:TrackPointExtension></extensions>
      </trkpt>
      <trkpt lat="39.844734353763" lon="2.794294203379">
        <ele>83</ele>
        <time>2020-06-25T21:20:04Z</time>
        <extensions><gpxtpx:TrackPointExtension><gpxtpx:hr>146</gpxtpx:hr></gpxtpx:TrackPointExtension></extensions>
      </trkpt>
      <trkpt lat="39.844719098705" lon="2.794219101555">
        <ele>83</ele>
        <time>2020-06-25T21:20:05Z</time>
        <extensions><gpxtpx:TrackPointExtension><gpxtpx:hr>147</gpxtpx:hr></gpxtpx:TrackPointExtension></extensions>
      </trkpt>
      <trkpt lat="39.844696216118" lon="2.794148777414">
        <ele>83.6</ele>
        <time>2020-06-25T21:20:06Z</time>
        <extensions><gpxtpx:TrackPointExtension><gpxtpx:hr>147</gpxtpx:hr></gpxtpx:TrackPointExtension></extensions>
      </trkpt>
      <trkpt lat="39.844658078473" lon="2.79409463034">
        <ele>84.4</ele>
        <time>2020-06-25T21:20:07Z</time>
        <extensions><gpxtpx:TrackPointExtension><gpxtpx:hr>147</gpxtpx:hr></gpxtpx:TrackPointExtension></extensions>
      </trkpt>
      <trkpt lat="39.844616085154" lon="2.794069652278">
        <ele>84.4</ele>
        <time>2020-06-25T21:20:08Z</time>
        <extensions><gpxtpx:TrackPointExtension><gpxtpx:hr>147</gpxtpx:hr></gpxtpx:TrackPointExtension></extensions>
      </trkpt>
      <trkpt lat="39.844558836777" lon="2.794065545147">
        <ele>84.6</ele>
        <time>2020-06-25T21:20:09Z</time>
        <extensions><gpxtpx:TrackPointExtension><gpxtpx:hr>148</gpxtpx:hr></gpxtpx:TrackPointExtension></extensions>
      </trkpt>
      <trkpt lat="39.844513071603" lon="2.794085829345">
        <ele>84.6</ele>
        <time>2020-06-25T21:20:10Z</time>
        <extensions><gpxtpx:TrackPointExtension><gpxtpx:hr>148</gpxtpx:hr></gpxtpx:TrackPointExtension></extensions>
      </trkpt>
      <trkpt lat="39.844467306429" lon="2.794143077722">
        <ele>84.6</ele>
        <time>2020-06-25T21:20:12Z</time>
        <extensions><gpxtpx:TrackPointExtension><gpxtpx:hr>148</gpxtpx:hr></gpxtpx:TrackPointExtension></extensions>
      </trkpt>
      <trkpt lat="39.844448195697" lon="2.794209797646">
        <ele>85</ele>
        <time>2020-06-25T21:20:13Z</time>
        <extensions><gpxtpx:TrackPointExtension><gpxtpx:hr>148</gpxtpx:hr></gpxtpx:TrackPointExtension></extensions>
      </trkpt>
      <trkpt lat="39.84442531311" lon="2.794285905298">
        <ele>85.2</ele>
        <time>2020-06-25T21:20:14Z</time>
        <extensions><gpxtpx:TrackPointExtension><gpxtpx:hr>148</gpxtpx:hr></gpxtpx:TrackPointExtension></extensions>
      </trkpt>
      <trkpt lat="39.844413913726" lon="2.794345500607">
        <ele>85.4</ele>
        <time>2020-06-25T21:20:15Z</time>
        <extensions><gpxtpx:TrackPointExtension><gpxtpx:hr>148</gpxtpx:hr></gpxtpx:TrackPointExtension></extensions>
      </trkpt>
      <trkpt lat="39.844394802994" lon="2.79441314254">
        <ele>85.8</ele>
        <time>2020-06-25T21:20:16Z</time>
        <extensions><gpxtpx:TrackPointExtension><gpxtpx:hr>148</gpxtpx:hr></gpxtpx:TrackPointExtension></extensions>
      </trkpt>
      <trkpt lat="39.844379547936" lon="2.794479024274">
        <ele>86</ele>
        <time>2020-06-25T21:20:17Z</time>
        <extensions><gpxtpx:TrackPointExtension><gpxtpx:hr>147</gpxtpx:hr></gpxtpx:TrackPointExtension></extensions>
      </trkpt>
      <trkpt lat="39.844364292878" lon="2.794543816361">
        <ele>86.2</ele>
        <time>2020-06-25T21:20:18Z</time>
        <extensions><gpxtpx:TrackPointExtension><gpxtpx:hr>147</gpxtpx:hr></gpxtpx:TrackPointExtension></extensions>
      </trkpt>
      <trkpt lat="39.844345265965" lon="2.794608692267">
        <ele>86.6</ele>
        <time>2020-06-25T21:20:20Z</time>
        <extensions><gpxtpx:TrackPointExtension><gpxtpx:hr>147</gpxtpx:hr></gpxtpx:TrackPointExtension></extensions>
      </trkpt>
      <trkpt lat="39.844330010907" lon="2.794673987268">
        <ele>86.8</ele>
        <time>2020-06-25T21:20:21Z</time>
        <extensions><gpxtpx:TrackPointExtension><gpxtpx:hr>147</gpxtpx:hr></gpxtpx:TrackPointExtension></extensions>
      </trkpt>
      <trkpt lat="39.844314755849" lon="2.794729056351">
        <ele>87</ele>
        <time>2020-06-25T21:20:22Z</time>
        <extensions><gpxtpx:TrackPointExtension><gpxtpx:hr>146</gpxtpx:hr></gpxtpx:TrackPointExtension></extensions>
      </trkpt>
      <trkpt lat="39.844299416972" lon="2.794784879805">
        <ele>87.2</ele>
        <time>2020-06-25T21:20:23Z</time>
        <extensions><gpxtpx:TrackPointExtension><gpxtpx:hr>146</gpxtpx:hr></gpxtpx:TrackPointExtension></extensions>
      </trkpt>
      <trkpt lat="39.844284161914" lon="2.794852857014">
        <ele>87.6</ele>
        <time>2020-06-25T21:20:24Z</time>
        <extensions><gpxtpx:TrackPointExtension><gpxtpx:hr>146</gpxtpx:hr></gpxtpx:TrackPointExtension></extensions>
      </trkpt>
      <trkpt lat="39.844265135001" lon="2.794922678241">
        <ele>87.8</ele>
        <time>2020-06-25T21:20:25Z</time>
        <extensions><gpxtpx:TrackPointExtension><gpxtpx:hr>146</gpxtpx:hr></gpxtpx:TrackPointExtension></extensions>
      </trkpt>
      <trkpt lat="39.844246024269" lon="2.794993253839">
        <ele>88</ele>
        <time>2020-06-25T21:20:26Z</time>
        <extensions><gpxtpx:TrackPointExtension><gpxtpx:hr>146</gpxtpx:hr></gpxtpx:TrackPointExtension></extensions>
      </trkpt>
      <trkpt lat="39.844223141682" lon="2.795047149456">
        <ele>88.4</ele>
        <time>2020-06-25T21:20:27Z</time>
        <extensions><gpxtpx:TrackPointExtension><gpxtpx:hr>146</gpxtpx:hr></gpxtpx:TrackPointExtension></extensions>
      </trkpt>
      <trkpt lat="39.844200259095" lon="2.795096770304">
        <ele>88.6</ele>
        <time>2020-06-25T21:20:28Z</time>
        <extensions><gpxtpx:TrackPointExtension><gpxtpx:hr>146</gpxtpx:hr></gpxtpx:TrackPointExtension></extensions>
      </trkpt>
      <trkpt lat="39.844173604653" lon="2.795142284021">
        <ele>88.8</ele>
        <time>2020-06-25T21:20:29Z</time>
        <extensions><gpxtpx:TrackPointExtension><gpxtpx:hr>146</gpxtpx:hr></gpxtpx:TrackPointExtension></extensions>
      </trkpt>
      <trkpt lat="39.844139238863" lon="2.795189725575">
        <ele>88.8</ele>
        <time>2020-06-25T21:20:30Z</time>
        <extensions><gpxtpx:TrackPointExtension><gpxtpx:hr>146</gpxtpx:hr></gpxtpx:TrackPointExtension></extensions>
      </trkpt>
      <trkpt lat="39.844097245544" lon="2.795235742206">
        <ele>88.8</ele>
        <time>2020-06-25T21:20:31Z</time>
        <extensions><gpxtpx:TrackPointExtension><gpxtpx:hr>146</gpxtpx:hr></gpxtpx:TrackPointExtension></extensions>
      </trkpt>
      <trkpt lat="39.844040080986" lon="2.795273879851">
        <ele>88.8</ele>
        <time>2020-06-25T21:20:32Z</time>
        <extensions><gpxtpx:TrackPointExtension><gpxtpx:hr>146</gpxtpx:hr></gpxtpx:TrackPointExtension></extensions>
      </trkpt>
      <trkpt lat="39.843979060754" lon="2.795307742727">
        <ele>89.6</ele>
        <time>2020-06-25T21:20:34Z</time>
        <extensions><gpxtpx:TrackPointExtension><gpxtpx:hr>145</gpxtpx:hr></gpxtpx:TrackPointExtension></extensions>
      </trkpt>
      <trkpt lat="39.843937067435" lon="2.795315370256">
        <ele>90.2</ele>
        <time>2020-06-25T21:20:35Z</time>
        <extensions><gpxtpx:TrackPointExtension><gpxtpx:hr>145</gpxtpx:hr></gpxtpx:TrackPointExtension></extensions>
      </trkpt>
      <trkpt lat="39.843902701645" lon="2.79531419679">
        <ele>90.4</ele>
        <time>2020-06-25T21:20:36Z</time>
        <extensions><gpxtpx:TrackPointExtension><gpxtpx:hr>145</gpxtpx:hr></gpxtpx:TrackPointExtension></extensions>
      </trkpt>
      <trkpt lat="39.843864564" lon="2.795310089659">
        <ele>90.8</ele>
        <time>2020-06-25T21:20:37Z</time>
        <extensions><gpxtpx:TrackPointExtension><gpxtpx:hr>145</gpxtpx:hr></gpxtpx:TrackPointExtension></extensions>
      </trkpt>
      <trkpt lat="39.8438226545" lon="2.795305144338">
        <ele>91</ele>
        <time>2020-06-25T21:20:38Z</time>
        <extensions><gpxtpx:TrackPointExtension><gpxtpx:hr>145</gpxtpx:hr></gpxtpx:TrackPointExtension></extensions>
      </trkpt>
      <trkpt lat="39.843765406123" lon="2.79529910937">
        <ele>91.4</ele>
        <time>2020-06-25T21:20:39Z</time>
        <extensions><gpxtpx:TrackPointExtension><gpxtpx:hr>144</gpxtpx:hr></gpxtpx:TrackPointExtension></extensions>
      </trkpt>
      <trkpt lat="39.843719640949" lon="2.795293912592">
        <ele>91.8</ele>
        <time>2020-06-25T21:20:40Z</time>
        <extensions><gpxtpx:TrackPointExtension><gpxtpx:hr>144</gpxtpx:hr></gpxtpx:TrackPointExtension></extensions>
      </trkpt>
      <trkpt lat="39.843670020101" lon="2.795289134909">
        <ele>92</ele>
        <time>2020-06-25T21:20:41Z</time>
        <extensions><gpxtpx:TrackPointExtension><gpxtpx:hr>144</gpxtpx:hr></gpxtpx:TrackPointExtension></extensions>
      </trkpt>
      <trkpt lat="39.843612771724" lon="2.795283854312">
        <ele>92.4</ele>
        <time>2020-06-25T21:20:42Z</time>
        <extensions><gpxtpx:TrackPointExtension><gpxtpx:hr>144</gpxtpx:hr></gpxtpx:TrackPointExtension></extensions>
      </trkpt>
      <trkpt lat="39.843559379021" lon="2.795278657534">
        <ele>92.8</ele>
        <time>2020-06-25T21:20:43Z</time>
        <extensions><gpxtpx:TrackPointExtension><gpxtpx:hr>145</gpxtpx:hr></gpxtpx:TrackPointExtension></extensions>
      </trkpt>
      <trkpt lat="39.843513613847" lon="2.79527480186">
        <ele>93.2</ele>
        <time>2020-06-25T21:20:44Z</time>
        <extensions><gpxtpx:TrackPointExtension><gpxtpx:hr>145</gpxtpx:hr></gpxtpx:TrackPointExtension></extensions>
      </trkpt>
      <trkpt lat="39.843460221144" lon="2.795270275634">
        <ele>93.6</ele>
        <time>2020-06-25T21:20:45Z</time>
        <extensions><gpxtpx:TrackPointExtension><gpxtpx:hr>145</gpxtpx:hr></gpxtpx:TrackPointExtension></extensions>
      </trkpt>
      <trkpt lat="39.84341445597" lon="2.795266755236">
        <ele>93.8</ele>
        <time>2020-06-25T21:20:46Z</time>
        <extensions><gpxtpx:TrackPointExtension><gpxtpx:hr>145</gpxtpx:hr></gpxtpx:TrackPointExtension></extensions>
      </trkpt>
      <trkpt lat="39.843372462651" lon="2.795263402476">
        <ele>94.2</ele>
        <time>2020-06-25T21:20:47Z</time>
        <extensions><gpxtpx:TrackPointExtension><gpxtpx:hr>146</gpxtpx:hr></gpxtpx:TrackPointExtension></extensions>
      </trkpt>
      <trkpt lat="39.843319069948" lon="2.795259295345">
        <ele>94.4</ele>
        <time>2020-06-25T21:20:49Z</time>
        <extensions><gpxtpx:TrackPointExtension><gpxtpx:hr>146</gpxtpx:hr></gpxtpx:TrackPointExtension></extensions>
      </trkpt>
      <trkpt lat="39.843277160448" lon="2.795256445499">
        <ele>94.8</ele>
        <time>2020-06-25T21:20:50Z</time>
        <extensions><gpxtpx:TrackPointExtension><gpxtpx:hr>147</gpxtpx:hr></gpxtpx:TrackPointExtension></extensions>
      </trkpt>
      <trkpt lat="39.843223683926" lon="2.795255272033">
        <ele>95.2</ele>
        <time>2020-06-25T21:20:51Z</time>
        <extensions><gpxtpx:TrackPointExtension><gpxtpx:hr>147</gpxtpx:hr></gpxtpx:TrackPointExtension></extensions>
      </trkpt>
      <trkpt lat="39.843177918752" lon="2.795258624793">
        <ele>95.2</ele>
        <time>2020-06-25T21:20:52Z</time>
        <extensions><gpxtpx:TrackPointExtension><gpxtpx:hr>148</gpxtpx:hr></gpxtpx:TrackPointExtension></extensions>
      </trkpt>
      <trkpt lat="39.843113126665" lon="2.795277903163">
        <ele>95.2</ele>
        <time>2020-06-25T21:20:53Z</time>
        <extensions><gpxtpx:TrackPointExtension><gpxtpx:hr>148</gpxtpx:hr></gpxtpx:TrackPointExtension></extensions>
      </trkpt>
      <trkpt lat="39.843055878288" lon="2.795308664736">
        <ele>95.6</ele>
        <time>2020-06-25T21:20:54Z</time>
        <extensions><gpxtpx:TrackPointExtension><gpxtpx:hr>149</gpxtpx:hr></gpxtpx:TrackPointExtension></extensions>
      </trkpt>
      <trkpt lat="39.84300625744" lon="2.795345377458">
        <ele>96</ele>
        <time>2020-06-25T21:20:55Z</time>
        <extensions><gpxtpx:TrackPointExtension><gpxtpx:hr>149</gpxtpx:hr></gpxtpx:TrackPointExtension></extensions>
      </trkpt>
      <trkpt lat="39.842975747324" lon="2.795397848152">
        <ele>96.4</ele>
        <time>2020-06-25T21:20:56Z</time>
        <extensions><gpxtpx:TrackPointExtension><gpxtpx:hr>149</gpxtpx:hr></gpxtpx:TrackPointExtension></extensions>
      </trkpt>
      <trkpt lat="39.842960492266" lon="2.795457443461">
        <ele>96.6</ele>
        <time>2020-06-25T21:20:57Z</time>
        <extensions><gpxtpx:TrackPointExtension><gpxtpx:hr>151</gpxtpx:hr></gpxtpx:TrackPointExtension></extensions>
      </trkpt>
      <trkpt lat="39.842941465353" lon="2.795529443982">
        <ele>97</ele>
        <time>2020-06-25T21:20:58Z</time>
        <extensions><gpxtpx:TrackPointExtension><gpxtpx:hr>151</gpxtpx:hr></gpxtpx:TrackPointExtension></extensions>
      </trkpt>
      <trkpt lat="39.842918498947" lon="2.795600773951">
        <ele>97.2</ele>
        <time>2020-06-25T21:20:59Z</time>
        <extensions><gpxtpx:TrackPointExtension><gpxtpx:hr>152</gpxtpx:hr></gpxtpx:TrackPointExtension></extensions>
      </trkpt>
      <trkpt lat="39.842899472034" lon="2.795659363432">
        <ele>97.6</ele>
        <time>2020-06-25T21:21:00Z</time>
        <extensions><gpxtpx:TrackPointExtension><gpxtpx:hr>152</gpxtpx:hr></gpxtpx:TrackPointExtension></extensions>
      </trkpt>
      <trkpt lat="39.842880361302" lon="2.795711834126">
        <ele>98.2</ele>
        <time>2020-06-25T21:21:01Z</time>
        <extensions><gpxtpx:TrackPointExtension><gpxtpx:hr>152</gpxtpx:hr></gpxtpx:TrackPointExtension></extensions>
      </trkpt>
      <trkpt lat="39.842868961918" lon="2.795741925147">
        <ele>98.8</ele>
        <time>2020-06-25T21:21:03Z</time>
        <extensions><gpxtpx:TrackPointExtension><gpxtpx:hr>152</gpxtpx:hr></gpxtpx:TrackPointExtension></extensions>
      </trkpt>
      <trkpt lat="39.842857478715" lon="2.795759778594">
        <ele>99.2</ele>
        <time>2020-06-25T21:21:04Z</time>
        <extensions><gpxtpx:TrackPointExtension><gpxtpx:hr>152</gpxtpx:hr></gpxtpx:TrackPointExtension></extensions>
      </trkpt>
      <trkpt lat="39.842834596128" lon="2.795792468004">
        <ele>99.2</ele>
        <time>2020-06-25T21:21:05Z</time>
        <extensions><gpxtpx:TrackPointExtension><gpxtpx:hr>152</gpxtpx:hr></gpxtpx:TrackPointExtension></extensions>
      </trkpt>
      <trkpt lat="39.84277743157" lon="2.795803196836">
        <ele>99.4</ele>
        <time>2020-06-25T21:21:06Z</time>
        <extensions><gpxtpx:TrackPointExtension><gpxtpx:hr>151</gpxtpx:hr></gpxtpx:TrackPointExtension></extensions>
      </trkpt>
      <trkpt lat="39.842712555664" lon="2.795791210719">
        <ele>99.8</ele>
        <time>2020-06-25T21:21:07Z</time>
        <extensions><gpxtpx:TrackPointExtension><gpxtpx:hr>151</gpxtpx:hr></gpxtpx:TrackPointExtension></extensions>
      </trkpt>
      <trkpt lat="39.842655307287" lon="2.795774279281">
        <ele>100.2</ele>
        <time>2020-06-25T21:21:08Z</time>
        <extensions><gpxtpx:TrackPointExtension><gpxtpx:hr>151</gpxtpx:hr></gpxtpx:TrackPointExtension></extensions>
      </trkpt>
      <trkpt lat="39.842609542113" lon="2.795738991482">
        <ele>101</ele>
        <time>2020-06-25T21:21:10Z</time>
        <extensions><gpxtpx:TrackPointExtension><gpxtpx:hr>150</gpxtpx:hr></gpxtpx:TrackPointExtension></extensions>
      </trkpt>
      <trkpt lat="39.842582803852" lon="2.795713259049">
        <ele>101.4</ele>
        <time>2020-06-25T21:21:11Z</time>
        <extensions><gpxtpx:TrackPointExtension><gpxtpx:hr>150</gpxtpx:hr></gpxtpx:TrackPointExtension></extensions>
      </trkpt>
      <trkpt lat="39.84255614941" lon="2.79568635315">
        <ele>102</ele>
        <time>2020-06-25T21:21:12Z</time>
        <extensions><gpxtpx:TrackPointExtension><gpxtpx:hr>150</gpxtpx:hr></gpxtpx:TrackPointExtension></extensions>
      </trkpt>
      <trkpt lat="39.842529411149" lon="2.79565366374">
        <ele>102.4</ele>
        <time>2020-06-25T21:21:13Z</time>
        <extensions><gpxtpx:TrackPointExtension><gpxtpx:hr>149</gpxtpx:hr></gpxtpx:TrackPointExtension></extensions>
      </trkpt>
      <trkpt lat="39.842498901033" lon="2.795609323489">
        <ele>103</ele>
        <time>2020-06-25T21:21:14Z</time>
        <extensions><gpxtpx:TrackPointExtension><gpxtpx:hr>149</gpxtpx:hr></gpxtpx:TrackPointExtension></extensions>
      </trkpt>
      <trkpt lat="39.842460763388" lon="2.79554637542">
        <ele>103.2</ele>
        <time>2020-06-25T21:21:15Z</time>
        <extensions><gpxtpx:TrackPointExtension><gpxtpx:hr>149</gpxtpx:hr></gpxtpx:TrackPointExtension></extensions>
      </trkpt>
      <trkpt lat="39.842418853888" lon="2.795470603044">
        <ele>103.4</ele>
        <time>2020-06-25T21:21:17Z</time>
        <extensions><gpxtpx:TrackPointExtension><gpxtpx:hr>150</gpxtpx:hr></gpxtpx:TrackPointExtension></extensions>
      </trkpt>
      <trkpt lat="39.842361605511" lon="2.795398099609">
        <ele>103.8</ele>
        <time>2020-06-25T21:21:18Z</time>
        <extensions><gpxtpx:TrackPointExtension><gpxtpx:hr>150</gpxtpx:hr></gpxtpx:TrackPointExtension></extensions>
      </trkpt>
      <trkpt lat="39.842308212808" lon="2.795358537041">
        <ele>104.6</ele>
        <time>2020-06-25T21:21:19Z</time>
        <extensions><gpxtpx:TrackPointExtension><gpxtpx:hr>150</gpxtpx:hr></gpxtpx:TrackPointExtension></extensions>
      </trkpt>
      <trkpt lat="39.842250964431" lon="2.795336325006">
        <ele>105.4</ele>
        <time>2020-06-25T21:21:20Z</time>
        <extensions><gpxtpx:TrackPointExtension><gpxtpx:hr>150</gpxtpx:hr></gpxtpx:TrackPointExtension></extensions>
      </trkpt>
      <trkpt lat="39.842205199257" lon="2.795330876771">
        <ele>105.8</ele>
        <time>2020-06-25T21:21:21Z</time>
        <extensions><gpxtpx:TrackPointExtension><gpxtpx:hr>151</gpxtpx:hr></gpxtpx:TrackPointExtension></extensions>
      </trkpt>
      <trkpt lat="39.842155578409" lon="2.795327524011">
        <ele>106.2</ele>
        <time>2020-06-25T21:21:22Z</time>
        <extensions><gpxtpx:TrackPointExtension><gpxtpx:hr>151</gpxtpx:hr></gpxtpx:TrackPointExtension></extensions>
      </trkpt>
      <trkpt lat="39.842102185706" lon="2.795324674165">
        <ele>106.6</ele>
        <time>2020-06-25T21:21:24Z</time>
        <extensions><gpxtpx:TrackPointExtension><gpxtpx:hr>152</gpxtpx:hr></gpxtpx:TrackPointExtension></extensions>
      </trkpt>
      <trkpt lat="39.842056420532" lon="2.795322243414">
        <ele>107</ele>
        <time>2020-06-25T21:21:25Z</time>
        <extensions><gpxtpx:TrackPointExtension><gpxtpx:hr>152</gpxtpx:hr></gpxtpx:TrackPointExtension></extensions>
      </trkpt>
      <trkpt lat="39.842006799684" lon="2.795319896482">
        <ele>107.4</ele>
        <time>2020-06-25T21:21:26Z</time>
        <extensions><gpxtpx:TrackPointExtension><gpxtpx:hr>152</gpxtpx:hr></gpxtpx:TrackPointExtension></extensions>
      </trkpt>
      <trkpt lat="39.841957262655" lon="2.795317298093">
        <ele>107.8</ele>
        <time>2020-06-25T21:21:27Z</time>
        <extensions><gpxtpx:TrackPointExtension><gpxtpx:hr>153</gpxtpx:hr></gpxtpx:TrackPointExtension></extensions>
      </trkpt>
      <trkpt lat="39.841907641807" lon="2.795312771867">
        <ele>108.2</ele>
        <time>2020-06-25T21:21:28Z</time>
        <extensions><gpxtpx:TrackPointExtension><gpxtpx:hr>153</gpxtpx:hr></gpxtpx:TrackPointExtension></extensions>
      </trkpt>
      <trkpt lat="39.841854249104" lon="2.795301791578">
        <ele>108.4</ele>
        <time>2020-06-25T21:21:29Z</time>
        <extensions><gpxtpx:TrackPointExtension><gpxtpx:hr>153</gpxtpx:hr></gpxtpx:TrackPointExtension></extensions>
      </trkpt>
      <trkpt lat="39.841797000727" lon="2.795285111597">
        <ele>108.8</ele>
        <time>2020-06-25T21:21:30Z</time>
        <extensions><gpxtpx:TrackPointExtension><gpxtpx:hr>154</gpxtpx:hr></gpxtpx:TrackPointExtension></extensions>
      </trkpt>
      <trkpt lat="39.841751235553" lon="2.795270778548">
        <ele>109.2</ele>
        <time>2020-06-25T21:21:31Z</time>
        <extensions><gpxtpx:TrackPointExtension><gpxtpx:hr>154</gpxtpx:hr></gpxtpx:TrackPointExtension></extensions>
      </trkpt>
      <trkpt lat="39.841701614705" lon="2.795260049716">
        <ele>109.4</ele>
        <time>2020-06-25T21:21:32Z</time>
        <extensions><gpxtpx:TrackPointExtension><gpxtpx:hr>154</gpxtpx:hr></gpxtpx:TrackPointExtension></extensions>
      </trkpt>
      <trkpt lat="39.841655849531" lon="2.795256445499">
        <ele>109.8</ele>
        <time>2020-06-25T21:21:33Z</time>
        <extensions><gpxtpx:TrackPointExtension><gpxtpx:hr>154</gpxtpx:hr></gpxtpx:TrackPointExtension></extensions>
      </trkpt>
      <trkpt lat="39.841598684973" lon="2.795256026404">
        <ele>110.2</ele>
        <time>2020-06-25T21:21:34Z</time>
        <extensions><gpxtpx:TrackPointExtension><gpxtpx:hr>154</gpxtpx:hr></gpxtpx:TrackPointExtension></extensions>
      </trkpt>
      <trkpt lat="39.84155283598" lon="2.795255774947">
        <ele>110.4</ele>
        <time>2020-06-25T21:21:35Z</time>
        <extensions><gpxtpx:TrackPointExtension><gpxtpx:hr>155</gpxtpx:hr></gpxtpx:TrackPointExtension></extensions>
      </trkpt>
      <trkpt lat="39.841495671422" lon="2.795256948413">
        <ele>110.8</ele>
        <time>2020-06-25T21:21:36Z</time>
        <extensions><gpxtpx:TrackPointExtension><gpxtpx:hr>155</gpxtpx:hr></gpxtpx:TrackPointExtension></extensions>
      </trkpt>
      <trkpt lat="39.841457533777" lon="2.795261474639">
        <ele>111.2</ele>
        <time>2020-06-25T21:21:37Z</time>
        <extensions><gpxtpx:TrackPointExtension><gpxtpx:hr>155</gpxtpx:hr></gpxtpx:TrackPointExtension></extensions>
      </trkpt>
      <trkpt lat="39.841423167987" lon="2.795267425788">
        <ele>111.6</ele>
        <time>2020-06-25T21:21:38Z</time>
        <extensions><gpxtpx:TrackPointExtension><gpxtpx:hr>155</gpxtpx:hr></gpxtpx:TrackPointExtension></extensions>
      </trkpt>
      <trkpt lat="39.841388886016" lon="2.795275053317">
        <ele>112</ele>
        <time>2020-06-25T21:21:39Z</time>
        <extensions><gpxtpx:TrackPointExtension><gpxtpx:hr>155</gpxtpx:hr></gpxtpx:TrackPointExtension></extensions>
      </trkpt>
      <trkpt lat="39.841350664552" lon="2.795285782149">
        <ele>112.2</ele>
        <time>2020-06-25T21:21:40Z</time>
        <extensions><gpxtpx:TrackPointExtension><gpxtpx:hr>155</gpxtpx:hr></gpxtpx:TrackPointExtension></extensions>
      </trkpt>
      <trkpt lat="39.841297271849" lon="2.795303635596">
        <ele>112.4</ele>
        <time>2020-06-25T21:21:42Z</time>
        <extensions><gpxtpx:TrackPointExtension><gpxtpx:hr>156</gpxtpx:hr></gpxtpx:TrackPointExtension></extensions>
      </trkpt>
      <trkpt lat="39.84124773482" lon="2.795321572862">
        <ele>112.6</ele>
        <time>2020-06-25T21:21:43Z</time>
        <extensions><gpxtpx:TrackPointExtension><gpxtpx:hr>156</gpxtpx:hr></gpxtpx:TrackPointExtension></extensions>
      </trkpt>
      <trkpt lat="39.841194258298" lon="2.795340432137">
        <ele>112.8</ele>
        <time>2020-06-25T21:21:44Z</time>
        <extensions><gpxtpx:TrackPointExtension><gpxtpx:hr>156</gpxtpx:hr></gpxtpx:TrackPointExtension></extensions>
      </trkpt>
      <trkpt lat="39.841140865595" lon="2.79535945905">
        <ele>113.2</ele>
        <time>2020-06-25T21:21:45Z</time>
        <extensions><gpxtpx:TrackPointExtension><gpxtpx:hr>157</gpxtpx:hr></gpxtpx:TrackPointExtension></extensions>
      </trkpt>
      <trkpt lat="39.841091328566" lon="2.795375217022">
        <ele>113.4</ele>
        <time>2020-06-25T21:21:46Z</time>
        <extensions><gpxtpx:TrackPointExtension><gpxtpx:hr>157</gpxtpx:hr></gpxtpx:TrackPointExtension></extensions>
      </trkpt>
      <trkpt lat="39.841041707718" lon="2.795383096008">
        <ele>113.8</ele>
        <time>2020-06-25T21:21:47Z</time>
        <extensions><gpxtpx:TrackPointExtension><gpxtpx:hr>157</gpxtpx:hr></gpxtpx:TrackPointExtension></extensions>
      </trkpt>
      <trkpt lat="39.840988315015" lon="2.79539382484">
        <ele>114.2</ele>
        <time>2020-06-25T21:21:48Z</time>
        <extensions><gpxtpx:TrackPointExtension><gpxtpx:hr>158</gpxtpx:hr></gpxtpx:TrackPointExtension></extensions>
      </trkpt>
      <trkpt lat="39.840934922312" lon="2.795397596695">
        <ele>114.6</ele>
        <time>2020-06-25T21:21:49Z</time>
        <extensions><gpxtpx:TrackPointExtension><gpxtpx:hr>157</gpxtpx:hr></gpxtpx:TrackPointExtension></extensions>
      </trkpt>
      <trkpt lat="39.840881529609" lon="2.795399775989">
        <ele>114.8</ele>
        <time>2020-06-25T21:21:50Z</time>
        <extensions><gpxtpx:TrackPointExtension><gpxtpx:hr>157</gpxtpx:hr></gpxtpx:TrackPointExtension></extensions>
      </trkpt>
      <trkpt lat="39.840831908761" lon="2.795400697998">
        <ele>115.2</ele>
        <time>2020-06-25T21:21:51Z</time>
        <extensions><gpxtpx:TrackPointExtension><gpxtpx:hr>157</gpxtpx:hr></gpxtpx:TrackPointExtension></extensions>
      </trkpt>
      <trkpt lat="39.840789915442" lon="2.795401200912">
        <ele>115.4</ele>
        <time>2020-06-25T21:21:52Z</time>
        <extensions><gpxtpx:TrackPointExtension><gpxtpx:hr>157</gpxtpx:hr></gpxtpx:TrackPointExtension></extensions>
      </trkpt>
      <trkpt lat="39.840748005942" lon="2.795402374378">
        <ele>115.8</ele>
        <time>2020-06-25T21:21:53Z</time>
        <extensions><gpxtpx:TrackPointExtension><gpxtpx:hr>157</gpxtpx:hr></gpxtpx:TrackPointExtension></extensions>
      </trkpt>
      <trkpt lat="39.840706012623" lon="2.795403128749">
        <ele>116</ele>
        <time>2020-06-25T21:21:54Z</time>
        <extensions><gpxtpx:TrackPointExtension><gpxtpx:hr>157</gpxtpx:hr></gpxtpx:TrackPointExtension></extensions>
      </trkpt>
      <trkpt lat="39.840664019304" lon="2.795403799301">
        <ele>116.4</ele>
        <time>2020-06-25T21:21:55Z</time>
        <extensions><gpxtpx:TrackPointExtension><gpxtpx:hr>157</gpxtpx:hr></gpxtpx:TrackPointExtension></extensions>
      </trkpt>
      <trkpt lat="39.840622109804" lon="2.795405727138">
        <ele>116.6</ele>
        <time>2020-06-25T21:21:56Z</time>
        <extensions><gpxtpx:TrackPointExtension><gpxtpx:hr>157</gpxtpx:hr></gpxtpx:TrackPointExtension></extensions>
      </trkpt>
      <trkpt lat="39.840583972159" lon="2.795409331355">
        <ele>116.8</ele>
        <time>2020-06-25T21:21:57Z</time>
        <extensions><gpxtpx:TrackPointExtension><gpxtpx:hr>157</gpxtpx:hr></gpxtpx:TrackPointExtension></extensions>
      </trkpt>
      <trkpt lat="39.840530579456" lon="2.795415031047">
        <ele>117.2</ele>
        <time>2020-06-25T21:21:59Z</time>
        <extensions><gpxtpx:TrackPointExtension><gpxtpx:hr>157</gpxtpx:hr></gpxtpx:TrackPointExtension></extensions>
      </trkpt>
      <trkpt lat="39.840473331079" lon="2.795420060187">
        <ele>117.6</ele>
        <time>2020-06-25T21:22:00Z</time>
        <extensions><gpxtpx:TrackPointExtension><gpxtpx:hr>156</gpxtpx:hr></gpxtpx:TrackPointExtension></extensions>
      </trkpt>
      <trkpt lat="39.840412310847" lon="2.795425759879">
        <ele>118</ele>
        <time>2020-06-25T21:22:01Z</time>
        <extensions><gpxtpx:TrackPointExtension><gpxtpx:hr>156</gpxtpx:hr></gpxtpx:TrackPointExtension></extensions>
      </trkpt>
      <trkpt lat="39.840366545673" lon="2.79543405796">
        <ele>118.4</ele>
        <time>2020-06-25T21:22:02Z</time>
        <extensions><gpxtpx:TrackPointExtension><gpxtpx:hr>156</gpxtpx:hr></gpxtpx:TrackPointExtension></extensions>
      </trkpt>
      <trkpt lat="39.840313069151" lon="2.795458449289">
        <ele>118.8</ele>
        <time>2020-06-25T21:22:03Z</time>
        <extensions><gpxtpx:TrackPointExtension><gpxtpx:hr>156</gpxtpx:hr></gpxtpx:TrackPointExtension></extensions>
      </trkpt>
      <trkpt lat="39.840271159651" lon="2.795485606645">
        <ele>119</ele>
        <time>2020-06-25T21:22:04Z</time>
        <extensions><gpxtpx:TrackPointExtension><gpxtpx:hr>156</gpxtpx:hr></gpxtpx:TrackPointExtension></extensions>
      </trkpt>
      <trkpt lat="39.840217766948" lon="2.795523995747">
        <ele>119.2</ele>
        <time>2020-06-25T21:22:05Z</time>
        <extensions><gpxtpx:TrackPointExtension><gpxtpx:hr>156</gpxtpx:hr></gpxtpx:TrackPointExtension></extensions>
      </trkpt>
      <trkpt lat="39.840164290426" lon="2.795566911075">
        <ele>119.4</ele>
        <time>2020-06-25T21:22:07Z</time>
        <extensions><gpxtpx:TrackPointExtension><gpxtpx:hr>156</gpxtpx:hr></gpxtpx:TrackPointExtension></extensions>
      </trkpt>
      <trkpt lat="39.840103270194" lon="2.795614771724">
        <ele>119.6</ele>
        <time>2020-06-25T21:22:08Z</time>
        <extensions><gpxtpx:TrackPointExtension><gpxtpx:hr>156</gpxtpx:hr></gpxtpx:TrackPointExtension></extensions>
      </trkpt>
      <trkpt lat="39.84005750502" lon="2.795658944337">
        <ele>119.8</ele>
        <time>2020-06-25T21:22:09Z</time>
        <extensions><gpxtpx:TrackPointExtension><gpxtpx:hr>156</gpxtpx:hr></gpxtpx:TrackPointExtension></extensions>
      </trkpt>
      <trkpt lat="39.840000256643" lon="2.795712588497">
        <ele>120.2</ele>
        <time>2020-06-25T21:22:10Z</time>
        <extensions><gpxtpx:TrackPointExtension><gpxtpx:hr>155</gpxtpx:hr></gpxtpx:TrackPointExtension></extensions>
      </trkpt>
      <trkpt lat="39.839965974672" lon="2.795751899608">
        <ele>121</ele>
        <time>2020-06-25T21:22:11Z</time>
        <extensions><gpxtpx:TrackPointExtension><gpxtpx:hr>155</gpxtpx:hr></gpxtpx:TrackPointExtension></extensions>
      </trkpt>
      <trkpt lat="39.839950719614" lon="2.795770507426">
        <ele>121.4</ele>
        <time>2020-06-25T21:22:12Z</time>
        <extensions><gpxtpx:TrackPointExtension><gpxtpx:hr>155</gpxtpx:hr></gpxtpx:TrackPointExtension></extensions>
      </trkpt>
      <trkpt lat="39.839943092085" lon="2.795784840475">
        <ele>121.6</ele>
        <time>2020-06-25T21:22:13Z</time>
        <extensions><gpxtpx:TrackPointExtension><gpxtpx:hr>154</gpxtpx:hr></gpxtpx:TrackPointExtension></extensions>
      </trkpt>
      <trkpt lat="39.839927837027" lon="2.795810572908">
        <ele>121.8</ele>
        <time>2020-06-25T21:22:14Z</time>
        <extensions><gpxtpx:TrackPointExtension><gpxtpx:hr>154</gpxtpx:hr></gpxtpx:TrackPointExtension></extensions>
      </trkpt>
      <trkpt lat="39.839908726295" lon="2.79585231477">
        <ele>122</ele>
        <time>2020-06-25T21:22:15Z</time>
        <extensions><gpxtpx:TrackPointExtension><gpxtpx:hr>153</gpxtpx:hr></gpxtpx:TrackPointExtension></extensions>
      </trkpt>
      <trkpt lat="39.839874444324" lon="2.795916436305">
        <ele>122.2</ele>
        <time>2020-06-25T21:22:16Z</time>
        <extensions><gpxtpx:TrackPointExtension><gpxtpx:hr>153</gpxtpx:hr></gpxtpx:TrackPointExtension></extensions>
      </trkpt>
      <trkpt lat="39.839843934208" lon="2.795979384374">
        <ele>122.4</ele>
        <time>2020-06-25T21:22:17Z</time>
        <extensions><gpxtpx:TrackPointExtension><gpxtpx:hr>152</gpxtpx:hr></gpxtpx:TrackPointExtension></extensions>
      </trkpt>
      <trkpt lat="39.839805712744" lon="2.796061107899">
        <ele>122.8</ele>
        <time>2020-06-25T21:22:19Z</time>
        <extensions><gpxtpx:TrackPointExtension><gpxtpx:hr>152</gpxtpx:hr></gpxtpx:TrackPointExtension></extensions>
      </trkpt>
      <trkpt lat="39.83975994757" lon="2.796143585795">
        <ele>123</ele>
        <time>2020-06-25T21:22:20Z</time>
        <extensions><gpxtpx:TrackPointExtension><gpxtpx:hr>152</gpxtpx:hr></gpxtpx:TrackPointExtension></extensions>
      </trkpt>
      <trkpt lat="39.839721809925" lon="2.796209216072">
        <ele>123.2</ele>
        <time>2020-06-25T21:22:21Z</time>
        <extensions><gpxtpx:TrackPointExtension><gpxtpx:hr>151</gpxtpx:hr></gpxtpx:TrackPointExtension></extensions>
      </trkpt>
      <trkpt lat="39.839672272896" lon="2.796280965136">
        <ele>123.6</ele>
        <time>2020-06-25T21:22:22Z</time>
        <extensions><gpxtpx:TrackPointExtension><gpxtpx:hr>151</gpxtpx:hr></gpxtpx:TrackPointExtension></extensions>
      </trkpt>
      <trkpt lat="39.839634051432" lon="2.796327484681">
        <ele>124.2</ele>
        <time>2020-06-25T21:22:23Z</time>
        <extensions><gpxtpx:TrackPointExtension><gpxtpx:hr>150</gpxtpx:hr></gpxtpx:TrackPointExtension></extensions>
      </trkpt>
      <trkpt lat="39.839595913787" lon="2.796365789964">
        <ele>124.8</ele>
        <time>2020-06-25T21:22:24Z</time>
        <extensions><gpxtpx:TrackPointExtension><gpxtpx:hr>150</gpxtpx:hr></gpxtpx:TrackPointExtension></extensions>
      </trkpt>
      <trkpt lat="39.8395730312" lon="2.796389175465">
        <ele>125.2</ele>
        <time>2020-06-25T21:22:25Z</time>
        <extensions><gpxtpx:TrackPointExtension><gpxtpx:hr>149</gpxtpx:hr></gpxtpx:TrackPointExtension></extensions>
      </trkpt>
      <trkpt lat="39.839546376758" lon="2.796413985889">
        <ele>125.6</ele>
        <time>2020-06-25T21:22:26Z</time>
        <extensions><gpxtpx:TrackPointExtension><gpxtpx:hr>149</gpxtpx:hr></gpxtpx:TrackPointExtension></extensions>
      </trkpt>
      <trkpt lat="39.839523494171" lon="2.796434940639">
        <ele>126</ele>
        <time>2020-06-25T21:22:27Z</time>
        <extensions><gpxtpx:TrackPointExtension><gpxtpx:hr>149</gpxtpx:hr></gpxtpx:TrackPointExtension></extensions>
      </trkpt>
      <trkpt lat="39.839492900236" lon="2.796461175986">
        <ele>126.4</ele>
        <time>2020-06-25T21:22:29Z</time>
        <extensions><gpxtpx:TrackPointExtension><gpxtpx:hr>150</gpxtpx:hr></gpxtpx:TrackPointExtension></extensions>
      </trkpt>
      <trkpt lat="39.83946239012" lon="2.796484058573">
        <ele>126.8</ele>
        <time>2020-06-25T21:22:30Z</time>
        <extensions><gpxtpx:TrackPointExtension><gpxtpx:hr>150</gpxtpx:hr></gpxtpx:TrackPointExtension></extensions>
      </trkpt>
      <trkpt lat="39.839428108149" lon="2.796508366083">
        <ele>127.2</ele>
        <time>2020-06-25T21:22:31Z</time>
        <extensions><gpxtpx:TrackPointExtension><gpxtpx:hr>151</gpxtpx:hr></gpxtpx:TrackPointExtension></extensions>
      </trkpt>
      <trkpt lat="39.839393742359" lon="2.796530578118">
        <ele>127.8</ele>
        <time>2020-06-25T21:22:32Z</time>
        <extensions><gpxtpx:TrackPointExtension><gpxtpx:hr>151</gpxtpx:hr></gpxtpx:TrackPointExtension></extensions>
      </trkpt>
      <trkpt lat="39.839359460388" lon="2.796559914768">
        <ele>128.2</ele>
        <time>2020-06-25T21:22:33Z</time>
        <extensions><gpxtpx:TrackPointExtension><gpxtpx:hr>151</gpxtpx:hr></gpxtpx:TrackPointExtension></extensions>
      </trkpt>
      <trkpt lat="39.839325094598" lon="2.796584222278">
        <ele>128.8</ele>
        <time>2020-06-25T21:22:34Z</time>
        <extensions><gpxtpx:TrackPointExtension><gpxtpx:hr>152</gpxtpx:hr></gpxtpx:TrackPointExtension></extensions>
      </trkpt>
      <trkpt lat="39.839286956953" lon="2.796612804557">
        <ele>129.2</ele>
        <time>2020-06-25T21:22:35Z</time>
        <extensions><gpxtpx:TrackPointExtension><gpxtpx:hr>152</gpxtpx:hr></gpxtpx:TrackPointExtension></extensions>
      </trkpt>
      <trkpt lat="39.839256446837" lon="2.796636944429">
        <ele>129.8</ele>
        <time>2020-06-25T21:22:36Z</time>
        <extensions><gpxtpx:TrackPointExtension><gpxtpx:hr>152</gpxtpx:hr></gpxtpx:TrackPointExtension></extensions>
      </trkpt>
      <trkpt lat="39.839214453518" lon="2.796665526708">
        <ele>130.2</ele>
        <time>2020-06-25T21:22:37Z</time>
        <extensions><gpxtpx:TrackPointExtension><gpxtpx:hr>152</gpxtpx:hr></gpxtpx:TrackPointExtension></extensions>
      </trkpt>
      <trkpt lat="39.839176315873" lon="2.796694108987">
        <ele>130.8</ele>
        <time>2020-06-25T21:22:39Z</time>
        <extensions><gpxtpx:TrackPointExtension><gpxtpx:hr>152</gpxtpx:hr></gpxtpx:TrackPointExtension></extensions>
      </trkpt>
      <trkpt lat="39.839134322554" lon="2.796722272171">
        <ele>131</ele>
        <time>2020-06-25T21:22:40Z</time>
        <extensions><gpxtpx:TrackPointExtension><gpxtpx:hr>152</gpxtpx:hr></gpxtpx:TrackPointExtension></extensions>
      </trkpt>
      <trkpt lat="39.839073302322" lon="2.796766360965">
        <ele>131</ele>
        <time>2020-06-25T21:22:41Z</time>
        <extensions><gpxtpx:TrackPointExtension><gpxtpx:hr>152</gpxtpx:hr></gpxtpx:TrackPointExtension></extensions>
      </trkpt>
      <trkpt lat="39.838997027032" lon="2.796817406736">
        <ele>131</ele>
        <time>2020-06-25T21:22:42Z</time>
        <extensions><gpxtpx:TrackPointExtension><gpxtpx:hr>152</gpxtpx:hr></gpxtpx:TrackPointExtension></extensions>
      </trkpt>
      <trkpt lat="39.838920751742" lon="2.796872978733">
        <ele>131</ele>
        <time>2020-06-25T21:22:43Z</time>
        <extensions><gpxtpx:TrackPointExtension><gpxtpx:hr>152</gpxtpx:hr></gpxtpx:TrackPointExtension></extensions>
      </trkpt>
      <trkpt lat="39.838840620778" lon="2.796932993137">
        <ele>131.2</ele>
        <time>2020-06-25T21:22:44Z</time>
        <extensions><gpxtpx:TrackPointExtension><gpxtpx:hr>153</gpxtpx:hr></gpxtpx:TrackPointExtension></extensions>
      </trkpt>
      <trkpt lat="39.838783372401" lon="2.796983535994">
        <ele>132</ele>
        <time>2020-06-25T21:22:46Z</time>
        <extensions><gpxtpx:TrackPointExtension><gpxtpx:hr>153</gpxtpx:hr></gpxtpx:TrackPointExtension></extensions>
      </trkpt>
      <trkpt lat="39.838741462901" lon="2.797018656155">
        <ele>132.6</ele>
        <time>2020-06-25T21:22:47Z</time>
        <extensions><gpxtpx:TrackPointExtension><gpxtpx:hr>153</gpxtpx:hr></gpxtpx:TrackPointExtension></extensions>
      </trkpt>
      <trkpt lat="39.83871472464" lon="2.797044807683">
        <ele>133</ele>
        <time>2020-06-25T21:22:48Z</time>
        <extensions><gpxtpx:TrackPointExtension><gpxtpx:hr>153</gpxtpx:hr></gpxtpx:TrackPointExtension></extensions>
      </trkpt>
      <trkpt lat="39.838691842053" lon="2.797065846252">
        <ele>133.4</ele>
        <time>2020-06-25T21:22:49Z</time>
        <extensions><gpxtpx:TrackPointExtension><gpxtpx:hr>153</gpxtpx:hr></gpxtpx:TrackPointExtension></extensions>
      </trkpt>
      <trkpt lat="39.838665187611" lon="2.797091830142">
        <ele>133.8</ele>
        <time>2020-06-25T21:22:50Z</time>
        <extensions><gpxtpx:TrackPointExtension><gpxtpx:hr>153</gpxtpx:hr></gpxtpx:TrackPointExtension></extensions>
      </trkpt>
      <trkpt lat="39.838642305024" lon="2.797113958358">
        <ele>134</ele>
        <time>2020-06-25T21:22:51Z</time>
        <extensions><gpxtpx:TrackPointExtension><gpxtpx:hr>154</gpxtpx:hr></gpxtpx:TrackPointExtension></extensions>
      </trkpt>
      <trkpt lat="39.838619338618" lon="2.797138517325">
        <ele>134.4</ele>
        <time>2020-06-25T21:22:52Z</time>
        <extensions><gpxtpx:TrackPointExtension><gpxtpx:hr>154</gpxtpx:hr></gpxtpx:TrackPointExtension></extensions>
      </trkpt>
      <trkpt lat="39.838592684176" lon="2.797165926138">
        <ele>134.8</ele>
        <time>2020-06-25T21:22:53Z</time>
        <extensions><gpxtpx:TrackPointExtension><gpxtpx:hr>154</gpxtpx:hr></gpxtpx:TrackPointExtension></extensions>
      </trkpt>
      <trkpt lat="39.838558318386" lon="2.797201213937">
        <ele>135.4</ele>
        <time>2020-06-25T21:22:54Z</time>
        <extensions><gpxtpx:TrackPointExtension><gpxtpx:hr>155</gpxtpx:hr></gpxtpx:TrackPointExtension></extensions>
      </trkpt>
      <trkpt lat="39.838531663944" lon="2.797231807872">
        <ele>135.8</ele>
        <time>2020-06-25T21:22:55Z</time>
        <extensions><gpxtpx:TrackPointExtension><gpxtpx:hr>155</gpxtpx:hr></gpxtpx:TrackPointExtension></extensions>
      </trkpt>
      <trkpt lat="39.838501153828" lon="2.797269945517">
        <ele>136.4</ele>
        <time>2020-06-25T21:22:57Z</time>
        <extensions><gpxtpx:TrackPointExtension><gpxtpx:hr>156</gpxtpx:hr></gpxtpx:TrackPointExtension></extensions>
      </trkpt>
      <trkpt lat="39.838474415567" lon="2.797303305479">
        <ele>136.8</ele>
        <time>2020-06-25T21:22:58Z</time>
        <extensions><gpxtpx:TrackPointExtension><gpxtpx:hr>156</gpxtpx:hr></gpxtpx:TrackPointExtension></extensions>
      </trkpt>
      <trkpt lat="39.838443905451" lon="2.797351669042">
        <ele>137</ele>
        <time>2020-06-25T21:22:59Z</time>
        <extensions><gpxtpx:TrackPointExtension><gpxtpx:hr>158</gpxtpx:hr></gpxtpx:TrackPointExtension></extensions>
      </trkpt>
      <trkpt lat="39.838409539661" lon="2.797409168876">
        <ele>137.4</ele>
        <time>2020-06-25T21:23:00Z</time>
        <extensions><gpxtpx:TrackPointExtension><gpxtpx:hr>158</gpxtpx:hr></gpxtpx:TrackPointExtension></extensions>
      </trkpt>
      <trkpt lat="39.838382885219" lon="2.797460885199">
        <ele>137.8</ele>
        <time>2020-06-25T21:23:01Z</time>
        <extensions><gpxtpx:TrackPointExtension><gpxtpx:hr>158</gpxtpx:hr></gpxtpx:TrackPointExtension></extensions>
      </trkpt>
      <trkpt lat="39.838352375103" lon="2.797526431657">
        <ele>138.2</ele>
        <time>2020-06-25T21:23:02Z</time>
        <extensions><gpxtpx:TrackPointExtension><gpxtpx:hr>158</gpxtpx:hr></gpxtpx:TrackPointExtension></extensions>
      </trkpt>
      <trkpt lat="39.838325636842" lon="2.797598935092">
        <ele>138.6</ele>
        <time>2020-06-25T21:23:03Z</time>
        <extensions><gpxtpx:TrackPointExtension><gpxtpx:hr>158</gpxtpx:hr></gpxtpx:TrackPointExtension></extensions>
      </trkpt>
      <trkpt lat="39.8382989824" lon="2.797677641133">
        <ele>138.8</ele>
        <time>2020-06-25T21:23:05Z</time>
        <extensions><gpxtpx:TrackPointExtension><gpxtpx:hr>158</gpxtpx:hr></gpxtpx:TrackPointExtension></extensions>
      </trkpt>
      <trkpt lat="39.838276015994" lon="2.797745283066">
        <ele>139</ele>
        <time>2020-06-25T21:23:06Z</time>
        <extensions><gpxtpx:TrackPointExtension><gpxtpx:hr>158</gpxtpx:hr></gpxtpx:TrackPointExtension></extensions>
      </trkpt>
      <trkpt lat="39.838245505878" lon="2.797826419858">
        <ele>139.4</ele>
        <time>2020-06-25T21:23:07Z</time>
        <extensions><gpxtpx:TrackPointExtension><gpxtpx:hr>158</gpxtpx:hr></gpxtpx:TrackPointExtension></extensions>
      </trkpt>
      <trkpt lat="39.838211223907" lon="2.797884338787">
        <ele>139.8</ele>
        <time>2020-06-25T21:23:08Z</time>
        <extensions><gpxtpx:TrackPointExtension><gpxtpx:hr>158</gpxtpx:hr></gpxtpx:TrackPointExtension></extensions>
      </trkpt>
      <trkpt lat="39.838165458733" lon="2.797934127273">
        <ele>140.2</ele>
        <time>2020-06-25T21:23:09Z</time>
        <extensions><gpxtpx:TrackPointExtension><gpxtpx:hr>158</gpxtpx:hr></gpxtpx:TrackPointExtension></extensions>
      </trkpt>
      <trkpt lat="39.83811960974" lon="2.797974695669">
        <ele>140.6</ele>
        <time>2020-06-25T21:23:10Z</time>
        <extensions><gpxtpx:TrackPointExtension><gpxtpx:hr>158</gpxtpx:hr></gpxtpx:TrackPointExtension></extensions>
      </trkpt>
      <trkpt lat="39.838085327769" lon="2.798006127794">
        <ele>141</ele>
        <time>2020-06-25T21:23:11Z</time>
        <extensions><gpxtpx:TrackPointExtension><gpxtpx:hr>158</gpxtpx:hr></gpxtpx:TrackPointExtension></extensions>
      </trkpt>
      <trkpt lat="39.838047190124" lon="2.798044265439">
        <ele>141.4</ele>
        <time>2020-06-25T21:23:12Z</time>
        <extensions><gpxtpx:TrackPointExtension><gpxtpx:hr>159</gpxtpx:hr></gpxtpx:TrackPointExtension></extensions>
      </trkpt>
      <trkpt lat="39.838020451863" lon="2.798087180767">
        <ele>141.4</ele>
        <time>2020-06-25T21:23:13Z</time>
        <extensions><gpxtpx:TrackPointExtension><gpxtpx:hr>159</gpxtpx:hr></gpxtpx:TrackPointExtension></extensions>
      </trkpt>
      <trkpt lat="39.837993797421" lon="2.798146608438">
        <ele>141.4</ele>
        <time>2020-06-25T21:23:14Z</time>
        <extensions><gpxtpx:TrackPointExtension><gpxtpx:hr>159</gpxtpx:hr></gpxtpx:TrackPointExtension></extensions>
      </trkpt>
      <trkpt lat="39.837963287305" lon="2.798227661411">
        <ele>141.8</ele>
        <time>2020-06-25T21:23:16Z</time>
        <extensions><gpxtpx:TrackPointExtension><gpxtpx:hr>158</gpxtpx:hr></gpxtpx:TrackPointExtension></extensions>
      </trkpt>
      <trkpt lat="39.837944176573" lon="2.79829228586">
        <ele>142.2</ele>
        <time>2020-06-25T21:23:17Z</time>
        <extensions><gpxtpx:TrackPointExtension><gpxtpx:hr>158</gpxtpx:hr></gpxtpx:TrackPointExtension></extensions>
      </trkpt>
      <trkpt lat="39.837944176573" lon="2.798367555322">
        <ele>142.6</ele>
        <time>2020-06-25T21:23:18Z</time>
        <extensions><gpxtpx:TrackPointExtension><gpxtpx:hr>158</gpxtpx:hr></gpxtpx:TrackPointExtension></extensions>
      </trkpt>
      <trkpt lat="39.837944176573" lon="2.79844986558">
        <ele>142.8</ele>
        <time>2020-06-25T21:23:19Z</time>
        <extensions><gpxtpx:TrackPointExtension><gpxtpx:hr>158</gpxtpx:hr></gpxtpx:TrackPointExtension></extensions>
      </trkpt>
      <trkpt lat="39.837947948428" lon="2.798524967404">
        <ele>143</ele>
        <time>2020-06-25T21:23:20Z</time>
        <extensions><gpxtpx:TrackPointExtension><gpxtpx:hr>157</gpxtpx:hr></gpxtpx:TrackPointExtension></extensions>
      </trkpt>
      <trkpt lat="39.837959431631" lon="2.798604846911">
        <ele>143</ele>
        <time>2020-06-25T21:23:21Z</time>
        <extensions><gpxtpx:TrackPointExtension><gpxtpx:hr>157</gpxtpx:hr></gpxtpx:TrackPointExtension></extensions>
      </trkpt>
      <trkpt lat="39.837974686689" lon="2.798704926797">
        <ele>143.2</ele>
        <time>2020-06-25T21:23:22Z</time>
        <extensions><gpxtpx:TrackPointExtension><gpxtpx:hr>157</gpxtpx:hr></gpxtpx:TrackPointExtension></extensions>
      </trkpt>
      <trkpt lat="39.838005196805" lon="2.798801737742">
        <ele>143.4</ele>
        <time>2020-06-25T21:23:23Z</time>
        <extensions><gpxtpx:TrackPointExtension><gpxtpx:hr>156</gpxtpx:hr></gpxtpx:TrackPointExtension></extensions>
      </trkpt>
      <trkpt lat="39.838035706921" lon="2.798870888417">
        <ele>143.8</ele>
        <time>2020-06-25T21:23:24Z</time>
        <extensions><gpxtpx:TrackPointExtension><gpxtpx:hr>156</gpxtpx:hr></gpxtpx:TrackPointExtension></extensions>
      </trkpt>
      <trkpt lat="39.838089099624" lon="2.798935009952">
        <ele>143.8</ele>
        <time>2020-06-25T21:23:26Z</time>
        <extensions><gpxtpx:TrackPointExtension><gpxtpx:hr>155</gpxtpx:hr></gpxtpx:TrackPointExtension></extensions>
      </trkpt>
      <trkpt lat="39.838157831204" lon="2.798965520068">
        <ele>144</ele>
        <time>2020-06-25T21:23:27Z</time>
        <extensions><gpxtpx:TrackPointExtension><gpxtpx:hr>155</gpxtpx:hr></gpxtpx:TrackPointExtension></extensions>
      </trkpt>
      <trkpt lat="39.838226478965" lon="2.798982032411">
        <ele>144.2</ele>
        <time>2020-06-25T21:23:28Z</time>
        <extensions><gpxtpx:TrackPointExtension><gpxtpx:hr>154</gpxtpx:hr></gpxtpx:TrackPointExtension></extensions>
      </trkpt>
      <trkpt lat="39.838295126726" lon="2.798997706564">
        <ele>144.6</ele>
        <time>2020-06-25T21:23:29Z</time>
        <extensions><gpxtpx:TrackPointExtension><gpxtpx:hr>154</gpxtpx:hr></gpxtpx:TrackPointExtension></extensions>
      </trkpt>
      <trkpt lat="39.838356146958" lon="2.799012793984">
        <ele>144.8</ele>
        <time>2020-06-25T21:23:30Z</time>
        <extensions><gpxtpx:TrackPointExtension><gpxtpx:hr>154</gpxtpx:hr></gpxtpx:TrackPointExtension></extensions>
      </trkpt>
      <trkpt lat="39.83841716719" lon="2.799026791757">
        <ele>145</ele>
        <time>2020-06-25T21:23:32Z</time>
        <extensions><gpxtpx:TrackPointExtension><gpxtpx:hr>153</gpxtpx:hr></gpxtpx:TrackPointExtension></extensions>
      </trkpt>
      <trkpt lat="39.838474415567" lon="2.799040621892">
        <ele>145.2</ele>
        <time>2020-06-25T21:23:33Z</time>
        <extensions><gpxtpx:TrackPointExtension><gpxtpx:hr>153</gpxtpx:hr></gpxtpx:TrackPointExtension></extensions>
      </trkpt>
      <trkpt lat="39.838531663944" lon="2.799054032932">
        <ele>145.4</ele>
        <time>2020-06-25T21:23:34Z</time>
        <extensions><gpxtpx:TrackPointExtension><gpxtpx:hr>153</gpxtpx:hr></gpxtpx:TrackPointExtension></extensions>
      </trkpt>
      <trkpt lat="39.838577429118" lon="2.799064929402">
        <ele>145.4</ele>
        <time>2020-06-25T21:23:35Z</time>
        <extensions><gpxtpx:TrackPointExtension><gpxtpx:hr>152</gpxtpx:hr></gpxtpx:TrackPointExtension></extensions>
      </trkpt>
      <trkpt lat="39.838634593676" lon="2.799077837528">
        <ele>145.6</ele>
        <time>2020-06-25T21:23:36Z</time>
        <extensions><gpxtpx:TrackPointExtension><gpxtpx:hr>152</gpxtpx:hr></gpxtpx:TrackPointExtension></extensions>
      </trkpt>
      <trkpt lat="39.838680442669" lon="2.79908688998">
        <ele>145.8</ele>
        <time>2020-06-25T21:23:37Z</time>
        <extensions><gpxtpx:TrackPointExtension><gpxtpx:hr>151</gpxtpx:hr></gpxtpx:TrackPointExtension></extensions>
      </trkpt>
      <trkpt lat="39.838729979698" lon="2.79909527188">
        <ele>146</ele>
        <time>2020-06-25T21:23:38Z</time>
        <extensions><gpxtpx:TrackPointExtension><gpxtpx:hr>151</gpxtpx:hr></gpxtpx:TrackPointExtension></extensions>
      </trkpt>
      <trkpt lat="39.838787228075" lon="2.799104743427">
        <ele>146.2</ele>
        <time>2020-06-25T21:23:39Z</time>
        <extensions><gpxtpx:TrackPointExtension><gpxtpx:hr>151</gpxtpx:hr></gpxtpx:TrackPointExtension></extensions>
      </trkpt>
      <trkpt lat="39.838836848923" lon="2.799113125327">
        <ele>146.2</ele>
        <time>2020-06-25T21:23:40Z</time>
        <extensions><gpxtpx:TrackPointExtension><gpxtpx:hr>150</gpxtpx:hr></gpxtpx:TrackPointExtension></extensions>
      </trkpt>
      <trkpt lat="39.838905496684" lon="2.79911790301">
        <ele>146.2</ele>
        <time>2020-06-25T21:23:42Z</time>
        <extensions><gpxtpx:TrackPointExtension><gpxtpx:hr>150</gpxtpx:hr></gpxtpx:TrackPointExtension></extensions>
      </trkpt>
      <trkpt lat="39.838962661242" lon="2.799114047336">
        <ele>146.4</ele>
        <time>2020-06-25T21:23:43Z</time>
        <extensions><gpxtpx:TrackPointExtension><gpxtpx:hr>150</gpxtpx:hr></gpxtpx:TrackPointExtension></extensions>
      </trkpt>
      <trkpt lat="39.839016137764" lon="2.799107425635">
        <ele>146.6</ele>
        <time>2020-06-25T21:23:44Z</time>
        <extensions><gpxtpx:TrackPointExtension><gpxtpx:hr>149</gpxtpx:hr></gpxtpx:TrackPointExtension></extensions>
      </trkpt>
      <trkpt lat="39.839073302322" lon="2.799100049563">
        <ele>146.8</ele>
        <time>2020-06-25T21:23:45Z</time>
        <extensions><gpxtpx:TrackPointExtension><gpxtpx:hr>148</gpxtpx:hr></gpxtpx:TrackPointExtension></extensions>
      </trkpt>
      <trkpt lat="39.83912292317" lon="2.799094014595">
        <ele>147</ele>
        <time>2020-06-25T21:23:46Z</time>
        <extensions><gpxtpx:TrackPointExtension><gpxtpx:hr>147</gpxtpx:hr></gpxtpx:TrackPointExtension></extensions>
      </trkpt>
      <trkpt lat="39.839183943402" lon="2.799086387066">
        <ele>147.4</ele>
        <time>2020-06-25T21:23:47Z</time>
        <extensions><gpxtpx:TrackPointExtension><gpxtpx:hr>146</gpxtpx:hr></gpxtpx:TrackPointExtension></extensions>
      </trkpt>
      <trkpt lat="39.839248819308" lon="2.799078340442">
        <ele>147.6</ele>
        <time>2020-06-25T21:23:48Z</time>
        <extensions><gpxtpx:TrackPointExtension><gpxtpx:hr>145</gpxtpx:hr></gpxtpx:TrackPointExtension></extensions>
      </trkpt>
      <trkpt lat="39.839317467069" lon="2.799069707085">
        <ele>148</ele>
        <time>2020-06-25T21:23:49Z</time>
        <extensions><gpxtpx:TrackPointExtension><gpxtpx:hr>144</gpxtpx:hr></gpxtpx:TrackPointExtension></extensions>
      </trkpt>
      <trkpt lat="39.839389970504" lon="2.79906090609">
        <ele>148.4</ele>
        <time>2020-06-25T21:23:51Z</time>
        <extensions><gpxtpx:TrackPointExtension><gpxtpx:hr>144</gpxtpx:hr></gpxtpx:TrackPointExtension></extensions>
      </trkpt>
      <trkpt lat="39.839450990736" lon="2.799053530018">
        <ele>148.6</ele>
        <time>2020-06-25T21:23:52Z</time>
        <extensions><gpxtpx:TrackPointExtension><gpxtpx:hr>143</gpxtpx:hr></gpxtpx:TrackPointExtension></extensions>
      </trkpt>
      <trkpt lat="39.839512010968" lon="2.799046405403">
        <ele>148.8</ele>
        <time>2020-06-25T21:23:53Z</time>
        <extensions><gpxtpx:TrackPointExtension><gpxtpx:hr>143</gpxtpx:hr></gpxtpx:TrackPointExtension></extensions>
      </trkpt>
      <trkpt lat="39.839580658729" lon="2.79903827496">
        <ele>149.2</ele>
        <time>2020-06-25T21:23:54Z</time>
        <extensions><gpxtpx:TrackPointExtension><gpxtpx:hr>143</gpxtpx:hr></gpxtpx:TrackPointExtension></extensions>
      </trkpt>
      <trkpt lat="39.839656934019" lon="2.799030144517">
        <ele>149.4</ele>
        <time>2020-06-25T21:23:55Z</time>
        <extensions><gpxtpx:TrackPointExtension><gpxtpx:hr>143</gpxtpx:hr></gpxtpx:TrackPointExtension></extensions>
      </trkpt>
      <trkpt lat="39.83971803807" lon="2.799023522816">
        <ele>149.6</ele>
        <time>2020-06-25T21:23:56Z</time>
        <extensions><gpxtpx:TrackPointExtension><gpxtpx:hr>143</gpxtpx:hr></gpxtpx:TrackPointExtension></extensions>
      </trkpt>
      <trkpt lat="39.83979431336" lon="2.799015140916">
        <ele>150</ele>
        <time>2020-06-25T21:23:57Z</time>
        <extensions><gpxtpx:TrackPointExtension><gpxtpx:hr>145</gpxtpx:hr></gpxtpx:TrackPointExtension></extensions>
      </trkpt>
      <trkpt lat="39.83987058865" lon="2.799006591378">
        <ele>150.2</ele>
        <time>2020-06-25T21:23:58Z</time>
        <extensions><gpxtpx:TrackPointExtension><gpxtpx:hr>146</gpxtpx:hr></gpxtpx:TrackPointExtension></extensions>
      </trkpt>
      <trkpt lat="39.83994686394" lon="2.798997706564">
        <ele>150.4</ele>
        <time>2020-06-25T21:24:00Z</time>
        <extensions><gpxtpx:TrackPointExtension><gpxtpx:hr>147</gpxtpx:hr></gpxtpx:TrackPointExtension></extensions>
      </trkpt>
      <trkpt lat="39.840023223049" lon="2.798988235017">
        <ele>150.8</ele>
        <time>2020-06-25T21:24:01Z</time>
        <extensions><gpxtpx:TrackPointExtension><gpxtpx:hr>148</gpxtpx:hr></gpxtpx:TrackPointExtension></extensions>
      </trkpt>
      <trkpt lat="39.840088015136" lon="2.798980607488">
        <ele>151</ele>
        <time>2020-06-25T21:24:02Z</time>
        <extensions><gpxtpx:TrackPointExtension><gpxtpx:hr>148</gpxtpx:hr></gpxtpx:TrackPointExtension></extensions>
      </trkpt>
      <trkpt lat="39.840149035368" lon="2.798973147597">
        <ele>151.4</ele>
        <time>2020-06-25T21:24:03Z</time>
        <extensions><gpxtpx:TrackPointExtension><gpxtpx:hr>149</gpxtpx:hr></gpxtpx:TrackPointExtension></extensions>
      </trkpt>
      <trkpt lat="39.840217766948" lon="2.798965100973">
        <ele>151.8</ele>
        <time>2020-06-25T21:24:04Z</time>
        <extensions><gpxtpx:TrackPointExtension><gpxtpx:hr>149</gpxtpx:hr></gpxtpx:TrackPointExtension></extensions>
      </trkpt>
      <trkpt lat="39.840271159651" lon="2.79895864691">
        <ele>152.2</ele>
        <time>2020-06-25T21:24:05Z</time>
        <extensions><gpxtpx:TrackPointExtension><gpxtpx:hr>149</gpxtpx:hr></gpxtpx:TrackPointExtension></extensions>
      </trkpt>
      <trkpt lat="39.840324552354" lon="2.798953114856">
        <ele>152.6</ele>
        <time>2020-06-25T21:24:06Z</time>
        <extensions><gpxtpx:TrackPointExtension><gpxtpx:hr>149</gpxtpx:hr></gpxtpx:TrackPointExtension></extensions>
      </trkpt>
      <trkpt lat="39.840385572586" lon="2.798945738784">
        <ele>153</ele>
        <time>2020-06-25T21:24:07Z</time>
        <extensions><gpxtpx:TrackPointExtension><gpxtpx:hr>150</gpxtpx:hr></gpxtpx:TrackPointExtension></extensions>
      </trkpt>
      <trkpt lat="39.840450448492" lon="2.798938111255">
        <ele>153.4</ele>
        <time>2020-06-25T21:24:08Z</time>
        <extensions><gpxtpx:TrackPointExtension><gpxtpx:hr>150</gpxtpx:hr></gpxtpx:TrackPointExtension></extensions>
      </trkpt>
      <trkpt lat="39.840503841195" lon="2.798931489554">
        <ele>153.8</ele>
        <time>2020-06-25T21:24:09Z</time>
        <extensions><gpxtpx:TrackPointExtension><gpxtpx:hr>150</gpxtpx:hr></gpxtpx:TrackPointExtension></extensions>
      </trkpt>
      <trkpt lat="39.840557233898" lon="2.798925286948">
        <ele>154.2</ele>
        <time>2020-06-25T21:24:10Z</time>
        <extensions><gpxtpx:TrackPointExtension><gpxtpx:hr>150</gpxtpx:hr></gpxtpx:TrackPointExtension></extensions>
      </trkpt>
      <trkpt lat="39.84061825413" lon="2.798915983039">
        <ele>154.6</ele>
        <time>2020-06-25T21:24:12Z</time>
        <extensions><gpxtpx:TrackPointExtension><gpxtpx:hr>150</gpxtpx:hr></gpxtpx:TrackPointExtension></extensions>
      </trkpt>
      <trkpt lat="39.840683130036" lon="2.798906176216">
        <ele>155</ele>
        <time>2020-06-25T21:24:13Z</time>
        <extensions><gpxtpx:TrackPointExtension><gpxtpx:hr>150</gpxtpx:hr></gpxtpx:TrackPointExtension></extensions>
      </trkpt>
      <trkpt lat="39.840744150268" lon="2.798894022461">
        <ele>155.4</ele>
        <time>2020-06-25T21:24:14Z</time>
        <extensions><gpxtpx:TrackPointExtension><gpxtpx:hr>150</gpxtpx:hr></gpxtpx:TrackPointExtension></extensions>
      </trkpt>
      <trkpt lat="39.840812798029" lon="2.79887231334">
        <ele>155.4</ele>
        <time>2020-06-25T21:24:15Z</time>
        <extensions><gpxtpx:TrackPointExtension><gpxtpx:hr>150</gpxtpx:hr></gpxtpx:TrackPointExtension></extensions>
      </trkpt>
      <trkpt lat="39.840866190732" lon="2.798846580907">
        <ele>156</ele>
        <time>2020-06-25T21:24:16Z</time>
        <extensions><gpxtpx:TrackPointExtension><gpxtpx:hr>150</gpxtpx:hr></gpxtpx:TrackPointExtension></extensions>
      </trkpt>
      <trkpt lat="39.840923439109" lon="2.798821519026">
        <ele>156.6</ele>
        <time>2020-06-25T21:24:17Z</time>
        <extensions><gpxtpx:TrackPointExtension><gpxtpx:hr>150</gpxtpx:hr></gpxtpx:TrackPointExtension></extensions>
      </trkpt>
      <trkpt lat="39.840973059957" lon="2.798799809905">
        <ele>157.2</ele>
        <time>2020-06-25T21:24:19Z</time>
        <extensions><gpxtpx:TrackPointExtension><gpxtpx:hr>150</gpxtpx:hr></gpxtpx:TrackPointExtension></extensions>
      </trkpt>
      <trkpt lat="39.841014969457" lon="2.798782459372">
        <ele>157.4</ele>
        <time>2020-06-25T21:24:20Z</time>
        <extensions><gpxtpx:TrackPointExtension><gpxtpx:hr>150</gpxtpx:hr></gpxtpx:TrackPointExtension></extensions>
      </trkpt>
      <trkpt lat="39.841072217834" lon="2.798767623409">
        <ele>157.8</ele>
        <time>2020-06-25T21:24:21Z</time>
        <extensions><gpxtpx:TrackPointExtension><gpxtpx:hr>150</gpxtpx:hr></gpxtpx:TrackPointExtension></extensions>
      </trkpt>
      <trkpt lat="39.841133238066" lon="2.798768126323">
        <ele>158.2</ele>
        <time>2020-06-25T21:24:22Z</time>
        <extensions><gpxtpx:TrackPointExtension><gpxtpx:hr>150</gpxtpx:hr></gpxtpx:TrackPointExtension></extensions>
      </trkpt>
      <trkpt lat="39.841194258298" lon="2.798773826015">
        <ele>158.6</ele>
        <time>2020-06-25T21:24:23Z</time>
        <extensions><gpxtpx:TrackPointExtension><gpxtpx:hr>150</gpxtpx:hr></gpxtpx:TrackPointExtension></extensions>
      </trkpt>
      <trkpt lat="39.841240107291" lon="2.798777933146">
        <ele>159</ele>
        <time>2020-06-25T21:24:24Z</time>
        <extensions><gpxtpx:TrackPointExtension><gpxtpx:hr>151</gpxtpx:hr></gpxtpx:TrackPointExtension></extensions>
      </trkpt>
      <trkpt lat="39.841293499994" lon="2.798782207915">
        <ele>159.4</ele>
        <time>2020-06-25T21:24:25Z</time>
        <extensions><gpxtpx:TrackPointExtension><gpxtpx:hr>151</gpxtpx:hr></gpxtpx:TrackPointExtension></extensions>
      </trkpt>
      <trkpt lat="39.841343037023" lon="2.79878597977">
        <ele>159.8</ele>
        <time>2020-06-25T21:24:27Z</time>
        <extensions><gpxtpx:TrackPointExtension><gpxtpx:hr>151</gpxtpx:hr></gpxtpx:TrackPointExtension></extensions>
      </trkpt>
      <trkpt lat="39.841396513545" lon="2.798789835444">
        <ele>160.2</ele>
        <time>2020-06-25T21:24:28Z</time>
        <extensions><gpxtpx:TrackPointExtension><gpxtpx:hr>151</gpxtpx:hr></gpxtpx:TrackPointExtension></extensions>
      </trkpt>
      <trkpt lat="39.841438423045" lon="2.79879268529">
        <ele>160.6</ele>
        <time>2020-06-25T21:24:29Z</time>
        <extensions><gpxtpx:TrackPointExtension><gpxtpx:hr>151</gpxtpx:hr></gpxtpx:TrackPointExtension></extensions>
      </trkpt>
      <trkpt lat="39.841491815748" lon="2.798795786593">
        <ele>161</ele>
        <time>2020-06-25T21:24:30Z</time>
        <extensions><gpxtpx:TrackPointExtension><gpxtpx:hr>151</gpxtpx:hr></gpxtpx:TrackPointExtension></extensions>
      </trkpt>
      <trkpt lat="39.841533809067" lon="2.798798384982">
        <ele>161.4</ele>
        <time>2020-06-25T21:24:31Z</time>
        <extensions><gpxtpx:TrackPointExtension><gpxtpx:hr>152</gpxtpx:hr></gpxtpx:TrackPointExtension></extensions>
      </trkpt>
      <trkpt lat="39.841579574241" lon="2.79880106719">
        <ele>161.8</ele>
        <time>2020-06-25T21:24:32Z</time>
        <extensions><gpxtpx:TrackPointExtension><gpxtpx:hr>152</gpxtpx:hr></gpxtpx:TrackPointExtension></extensions>
      </trkpt>
      <trkpt lat="39.841632966944" lon="2.798803917036">
        <ele>162.2</ele>
        <time>2020-06-25T21:24:33Z</time>
        <extensions><gpxtpx:TrackPointExtension><gpxtpx:hr>153</gpxtpx:hr></gpxtpx:TrackPointExtension></extensions>
      </trkpt>
      <trkpt lat="39.841678732118" lon="2.798806263968">
        <ele>162.6</ele>
        <time>2020-06-25T21:24:34Z</time>
        <extensions><gpxtpx:TrackPointExtension><gpxtpx:hr>153</gpxtpx:hr></gpxtpx:TrackPointExtension></extensions>
      </trkpt>
      <trkpt lat="39.841735980495" lon="2.798808946176">
        <ele>163</ele>
        <time>2020-06-25T21:24:35Z</time>
        <extensions><gpxtpx:TrackPointExtension><gpxtpx:hr>154</gpxtpx:hr></gpxtpx:TrackPointExtension></extensions>
      </trkpt>
      <trkpt lat="39.841777973814" lon="2.798810790194">
        <ele>163.4</ele>
        <time>2020-06-25T21:24:36Z</time>
        <extensions><gpxtpx:TrackPointExtension><gpxtpx:hr>154</gpxtpx:hr></gpxtpx:TrackPointExtension></extensions>
      </trkpt>
      <trkpt lat="39.841823738988" lon="2.798812718031">
        <ele>163.8</ele>
        <time>2020-06-25T21:24:37Z</time>
        <extensions><gpxtpx:TrackPointExtension><gpxtpx:hr>155</gpxtpx:hr></gpxtpx:TrackPointExtension></extensions>
      </trkpt>
      <trkpt lat="39.841869504162" lon="2.798814394411">
        <ele>164.2</ele>
        <time>2020-06-25T21:24:38Z</time>
        <extensions><gpxtpx:TrackPointExtension><gpxtpx:hr>155</gpxtpx:hr></gpxtpx:TrackPointExtension></extensions>
      </trkpt>
      <trkpt lat="39.841934380068" lon="2.798813220945">
        <ele>164.2</ele>
        <time>2020-06-25T21:24:40Z</time>
        <extensions><gpxtpx:TrackPointExtension><gpxtpx:hr>155</gpxtpx:hr></gpxtpx:TrackPointExtension></extensions>
      </trkpt>
      <trkpt lat="39.842006799684" lon="2.798802492113">
        <ele>164.4</ele>
        <time>2020-06-25T21:24:41Z</time>
        <extensions><gpxtpx:TrackPointExtension><gpxtpx:hr>156</gpxtpx:hr></gpxtpx:TrackPointExtension></extensions>
      </trkpt>
      <trkpt lat="39.842060192387" lon="2.798788410521">
        <ele>165</ele>
        <time>2020-06-25T21:24:42Z</time>
        <extensions><gpxtpx:TrackPointExtension><gpxtpx:hr>156</gpxtpx:hr></gpxtpx:TrackPointExtension></extensions>
      </trkpt>
      <trkpt lat="39.842102185706" lon="2.798777178775">
        <ele>165.6</ele>
        <time>2020-06-25T21:24:43Z</time>
        <extensions><gpxtpx:TrackPointExtension><gpxtpx:hr>156</gpxtpx:hr></gpxtpx:TrackPointExtension></extensions>
      </trkpt>
      <trkpt lat="39.842132695822" lon="2.798769048332">
        <ele>165.8</ele>
        <time>2020-06-25T21:24:44Z</time>
        <extensions><gpxtpx:TrackPointExtension><gpxtpx:hr>155</gpxtpx:hr></gpxtpx:TrackPointExtension></extensions>
      </trkpt>
      <trkpt lat="39.842163205938" lon="2.798763097183">
        <ele>166.2</ele>
        <time>2020-06-25T21:24:45Z</time>
        <extensions><gpxtpx:TrackPointExtension><gpxtpx:hr>155</gpxtpx:hr></gpxtpx:TrackPointExtension></extensions>
      </trkpt>
      <trkpt lat="39.842197571728" lon="2.798763851554">
        <ele>166.6</ele>
        <time>2020-06-25T21:24:46Z</time>
        <extensions><gpxtpx:TrackPointExtension><gpxtpx:hr>155</gpxtpx:hr></gpxtpx:TrackPointExtension></extensions>
      </trkpt>
      <trkpt lat="39.842243336902" lon="2.798766198486">
        <ele>166.8</ele>
        <time>2020-06-25T21:24:47Z</time>
        <extensions><gpxtpx:TrackPointExtension><gpxtpx:hr>155</gpxtpx:hr></gpxtpx:TrackPointExtension></extensions>
      </trkpt>
      <trkpt lat="39.842285330221" lon="2.798768126323">
        <ele>167.2</ele>
        <time>2020-06-25T21:24:48Z</time>
        <extensions><gpxtpx:TrackPointExtension><gpxtpx:hr>155</gpxtpx:hr></gpxtpx:TrackPointExtension></extensions>
      </trkpt>
      <trkpt lat="39.842338722924" lon="2.798776508223">
        <ele>167.8</ele>
        <time>2020-06-25T21:24:49Z</time>
        <extensions><gpxtpx:TrackPointExtension><gpxtpx:hr>155</gpxtpx:hr></gpxtpx:TrackPointExtension></extensions>
      </trkpt>
      <trkpt lat="39.842376860569" lon="2.798785560675">
        <ele>168.2</ele>
        <time>2020-06-25T21:24:50Z</time>
        <extensions><gpxtpx:TrackPointExtension><gpxtpx:hr>155</gpxtpx:hr></gpxtpx:TrackPointExtension></extensions>
      </trkpt>
      <trkpt lat="39.84241114254" lon="2.79879436167">
        <ele>168.8</ele>
        <time>2020-06-25T21:24:51Z</time>
        <extensions><gpxtpx:TrackPointExtension><gpxtpx:hr>155</gpxtpx:hr></gpxtpx:TrackPointExtension></extensions>
      </trkpt>
      <trkpt lat="39.842453135859" lon="2.798803414122">
        <ele>169.2</ele>
        <time>2020-06-25T21:24:53Z</time>
        <extensions><gpxtpx:TrackPointExtension><gpxtpx:hr>155</gpxtpx:hr></gpxtpx:TrackPointExtension></extensions>
      </trkpt>
      <trkpt lat="39.842487501649" lon="2.798809365271">
        <ele>169.6</ele>
        <time>2020-06-25T21:24:54Z</time>
        <extensions><gpxtpx:TrackPointExtension><gpxtpx:hr>155</gpxtpx:hr></gpxtpx:TrackPointExtension></extensions>
      </trkpt>
      <trkpt lat="39.842525639294" lon="2.798815064963">
        <ele>170</ele>
        <time>2020-06-25T21:24:55Z</time>
        <extensions><gpxtpx:TrackPointExtension><gpxtpx:hr>155</gpxtpx:hr></gpxtpx:TrackPointExtension></extensions>
      </trkpt>
      <trkpt lat="39.842567548794" lon="2.798821519026">
        <ele>170.6</ele>
        <time>2020-06-25T21:24:56Z</time>
        <extensions><gpxtpx:TrackPointExtension><gpxtpx:hr>155</gpxtpx:hr></gpxtpx:TrackPointExtension></extensions>
      </trkpt>
      <trkpt lat="39.842605770258" lon="2.798826548166">
        <ele>171</ele>
        <time>2020-06-25T21:24:57Z</time>
        <extensions><gpxtpx:TrackPointExtension><gpxtpx:hr>155</gpxtpx:hr></gpxtpx:TrackPointExtension></extensions>
      </trkpt>
      <trkpt lat="39.842647679758" lon="2.798832247858">
        <ele>171.6</ele>
        <time>2020-06-25T21:24:58Z</time>
        <extensions><gpxtpx:TrackPointExtension><gpxtpx:hr>155</gpxtpx:hr></gpxtpx:TrackPointExtension></extensions>
      </trkpt>
      <trkpt lat="39.842682045548" lon="2.798834930066">
        <ele>172</ele>
        <time>2020-06-25T21:24:59Z</time>
        <extensions><gpxtpx:TrackPointExtension><gpxtpx:hr>155</gpxtpx:hr></gpxtpx:TrackPointExtension></extensions>
      </trkpt>
      <trkpt lat="39.842739210106" lon="2.798831074392">
        <ele>172</ele>
        <time>2020-06-25T21:25:00Z</time>
        <extensions><gpxtpx:TrackPointExtension><gpxtpx:hr>155</gpxtpx:hr></gpxtpx:TrackPointExtension></extensions>
      </trkpt>
      <trkpt lat="39.842811713541" lon="2.798823949777">
        <ele>172.2</ele>
        <time>2020-06-25T21:25:01Z</time>
        <extensions><gpxtpx:TrackPointExtension><gpxtpx:hr>155</gpxtpx:hr></gpxtpx:TrackPointExtension></extensions>
      </trkpt>
      <trkpt lat="39.842868961918" lon="2.798807437434">
        <ele>172.6</ele>
        <time>2020-06-25T21:25:02Z</time>
        <extensions><gpxtpx:TrackPointExtension><gpxtpx:hr>155</gpxtpx:hr></gpxtpx:TrackPointExtension></extensions>
      </trkpt>
      <trkpt lat="39.842933837824" lon="2.798790086901">
        <ele>173.2</ele>
        <time>2020-06-25T21:25:04Z</time>
        <extensions><gpxtpx:TrackPointExtension><gpxtpx:hr>155</gpxtpx:hr></gpxtpx:TrackPointExtension></extensions>
      </trkpt>
      <trkpt lat="39.842991002382" lon="2.798775250938">
        <ele>173.6</ele>
        <time>2020-06-25T21:25:05Z</time>
        <extensions><gpxtpx:TrackPointExtension><gpxtpx:hr>155</gpxtpx:hr></gpxtpx:TrackPointExtension></extensions>
      </trkpt>
      <trkpt lat="39.843044395085" lon="2.798762929545">
        <ele>174</ele>
        <time>2020-06-25T21:25:06Z</time>
        <extensions><gpxtpx:TrackPointExtension><gpxtpx:hr>155</gpxtpx:hr></gpxtpx:TrackPointExtension></extensions>
      </trkpt>
      <trkpt lat="39.843086388404" lon="2.798754044731">
        <ele>174.4</ele>
        <time>2020-06-25T21:25:07Z</time>
        <extensions><gpxtpx:TrackPointExtension><gpxtpx:hr>155</gpxtpx:hr></gpxtpx:TrackPointExtension></extensions>
      </trkpt>
      <trkpt lat="39.843136009252" lon="2.798746417202">
        <ele>174.8</ele>
        <time>2020-06-25T21:25:08Z</time>
        <extensions><gpxtpx:TrackPointExtension><gpxtpx:hr>155</gpxtpx:hr></gpxtpx:TrackPointExtension></extensions>
      </trkpt>
      <trkpt lat="39.843177918752" lon="2.798744992279">
        <ele>175</ele>
        <time>2020-06-25T21:25:09Z</time>
        <extensions><gpxtpx:TrackPointExtension><gpxtpx:hr>155</gpxtpx:hr></gpxtpx:TrackPointExtension></extensions>
      </trkpt>
      <trkpt lat="39.843223683926" lon="2.798746668659">
        <ele>175.4</ele>
        <time>2020-06-25T21:25:10Z</time>
        <extensions><gpxtpx:TrackPointExtension><gpxtpx:hr>155</gpxtpx:hr></gpxtpx:TrackPointExtension></extensions>
      </trkpt>
      <trkpt lat="39.843265677245" lon="2.798749518505">
        <ele>175.8</ele>
        <time>2020-06-25T21:25:11Z</time>
        <extensions><gpxtpx:TrackPointExtension><gpxtpx:hr>155</gpxtpx:hr></gpxtpx:TrackPointExtension></extensions>
      </trkpt>
      <trkpt lat="39.843307670564" lon="2.798753122722">
        <ele>176</ele>
        <time>2020-06-25T21:25:12Z</time>
        <extensions><gpxtpx:TrackPointExtension><gpxtpx:hr>155</gpxtpx:hr></gpxtpx:TrackPointExtension></extensions>
      </trkpt>
      <trkpt lat="39.843345808209" lon="2.798758151862">
        <ele>176.4</ele>
        <time>2020-06-25T21:25:13Z</time>
        <extensions><gpxtpx:TrackPointExtension><gpxtpx:hr>155</gpxtpx:hr></gpxtpx:TrackPointExtension></extensions>
      </trkpt>
      <trkpt lat="39.843387717709" lon="2.798764522106">
        <ele>176.8</ele>
        <time>2020-06-25T21:25:14Z</time>
        <extensions><gpxtpx:TrackPointExtension><gpxtpx:hr>155</gpxtpx:hr></gpxtpx:TrackPointExtension></extensions>
      </trkpt>
      <trkpt lat="39.843422083499" lon="2.798770976169">
        <ele>177.4</ele>
        <time>2020-06-25T21:25:15Z</time>
        <extensions><gpxtpx:TrackPointExtension><gpxtpx:hr>156</gpxtpx:hr></gpxtpx:TrackPointExtension></extensions>
      </trkpt>
      <trkpt lat="39.843456449289" lon="2.798778184603">
        <ele>177.8</ele>
        <time>2020-06-25T21:25:17Z</time>
        <extensions><gpxtpx:TrackPointExtension><gpxtpx:hr>157</gpxtpx:hr></gpxtpx:TrackPointExtension></extensions>
      </trkpt>
      <trkpt lat="39.843479331876" lon="2.798784387209">
        <ele>178.2</ele>
        <time>2020-06-25T21:25:18Z</time>
        <extensions><gpxtpx:TrackPointExtension><gpxtpx:hr>157</gpxtpx:hr></gpxtpx:TrackPointExtension></extensions>
      </trkpt>
      <trkpt lat="39.843509841992" lon="2.79879268529">
        <ele>178.8</ele>
        <time>2020-06-25T21:25:19Z</time>
        <extensions><gpxtpx:TrackPointExtension><gpxtpx:hr>158</gpxtpx:hr></gpxtpx:TrackPointExtension></extensions>
      </trkpt>
      <trkpt lat="39.843532724579" lon="2.79880106719">
        <ele>179.2</ele>
        <time>2020-06-25T21:25:20Z</time>
        <extensions><gpxtpx:TrackPointExtension><gpxtpx:hr>158</gpxtpx:hr></gpxtpx:TrackPointExtension></extensions>
      </trkpt>
      <trkpt lat="39.843563234695" lon="2.798811796022">
        <ele>179.6</ele>
        <time>2020-06-25T21:25:21Z</time>
        <extensions><gpxtpx:TrackPointExtension><gpxtpx:hr>158</gpxtpx:hr></gpxtpx:TrackPointExtension></extensions>
      </trkpt>
      <trkpt lat="39.843593744811" lon="2.798823446863">
        <ele>180.2</ele>
        <time>2020-06-25T21:25:22Z</time>
        <extensions><gpxtpx:TrackPointExtension><gpxtpx:hr>158</gpxtpx:hr></gpxtpx:TrackPointExtension></extensions>
      </trkpt>
      <trkpt lat="39.843624254927" lon="2.798836522627">
        <ele>180.8</ele>
        <time>2020-06-25T21:25:23Z</time>
        <extensions><gpxtpx:TrackPointExtension><gpxtpx:hr>159</gpxtpx:hr></gpxtpx:TrackPointExtension></extensions>
      </trkpt>
      <trkpt lat="39.843658620717" lon="2.79885135859">
        <ele>181.4</ele>
        <time>2020-06-25T21:25:25Z</time>
        <extensions><gpxtpx:TrackPointExtension><gpxtpx:hr>159</gpxtpx:hr></gpxtpx:TrackPointExtension></extensions>
      </trkpt>
      <trkpt lat="39.843692902688" lon="2.798867116562">
        <ele>181.8</ele>
        <time>2020-06-25T21:25:26Z</time>
        <extensions><gpxtpx:TrackPointExtension><gpxtpx:hr>159</gpxtpx:hr></gpxtpx:TrackPointExtension></extensions>
      </trkpt>
      <trkpt lat="39.843719640949" lon="2.798881868706">
        <ele>182.4</ele>
        <time>2020-06-25T21:25:27Z</time>
        <extensions><gpxtpx:TrackPointExtension><gpxtpx:hr>160</gpxtpx:hr></gpxtpx:TrackPointExtension></extensions>
      </trkpt>
      <trkpt lat="39.84375392292" lon="2.79890164999">
        <ele>183</ele>
        <time>2020-06-25T21:25:28Z</time>
        <extensions><gpxtpx:TrackPointExtension><gpxtpx:hr>160</gpxtpx:hr></gpxtpx:TrackPointExtension></extensions>
      </trkpt>
      <trkpt lat="39.84378828871" lon="2.798927885337">
        <ele>183.4</ele>
        <time>2020-06-25T21:25:29Z</time>
        <extensions><gpxtpx:TrackPointExtension><gpxtpx:hr>160</gpxtpx:hr></gpxtpx:TrackPointExtension></extensions>
      </trkpt>
      <trkpt lat="39.8438226545" lon="2.798960071833">
        <ele>184</ele>
        <time>2020-06-25T21:25:30Z</time>
        <extensions><gpxtpx:TrackPointExtension><gpxtpx:hr>160</gpxtpx:hr></gpxtpx:TrackPointExtension></extensions>
      </trkpt>
      <trkpt lat="39.843856936471" lon="2.79898965994">
        <ele>184.4</ele>
        <time>2020-06-25T21:25:31Z</time>
        <extensions><gpxtpx:TrackPointExtension><gpxtpx:hr>160</gpxtpx:hr></gpxtpx:TrackPointExtension></extensions>
      </trkpt>
      <trkpt lat="39.843891302261" lon="2.799026372662">
        <ele>185</ele>
        <time>2020-06-25T21:25:33Z</time>
        <extensions><gpxtpx:TrackPointExtension><gpxtpx:hr>160</gpxtpx:hr></gpxtpx:TrackPointExtension></extensions>
      </trkpt>
      <trkpt lat="39.843929439906" lon="2.799063085384">
        <ele>185.6</ele>
        <time>2020-06-25T21:25:34Z</time>
        <extensions><gpxtpx:TrackPointExtension><gpxtpx:hr>160</gpxtpx:hr></gpxtpx:TrackPointExtension></extensions>
      </trkpt>
      <trkpt lat="39.843959950022" lon="2.79909191912">
        <ele>186</ele>
        <time>2020-06-25T21:25:35Z</time>
        <extensions><gpxtpx:TrackPointExtension><gpxtpx:hr>160</gpxtpx:hr></gpxtpx:TrackPointExtension></extensions>
      </trkpt>
      <trkpt lat="39.843990460138" lon="2.799120082304">
        <ele>186.4</ele>
        <time>2020-06-25T21:25:36Z</time>
        <extensions><gpxtpx:TrackPointExtension><gpxtpx:hr>160</gpxtpx:hr></gpxtpx:TrackPointExtension></extensions>
      </trkpt>
      <trkpt lat="39.844017198399" lon="2.79914723966">
        <ele>187</ele>
        <time>2020-06-25T21:25:37Z</time>
        <extensions><gpxtpx:TrackPointExtension><gpxtpx:hr>160</gpxtpx:hr></gpxtpx:TrackPointExtension></extensions>
      </trkpt>
      <trkpt lat="39.844043852841" lon="2.799173894102">
        <ele>187.4</ele>
        <time>2020-06-25T21:25:38Z</time>
        <extensions><gpxtpx:TrackPointExtension><gpxtpx:hr>160</gpxtpx:hr></gpxtpx:TrackPointExtension></extensions>
      </trkpt>
      <trkpt lat="39.844074362957" lon="2.799200380906">
        <ele>187.8</ele>
        <time>2020-06-25T21:25:39Z</time>
        <extensions><gpxtpx:TrackPointExtension><gpxtpx:hr>161</gpxtpx:hr></gpxtpx:TrackPointExtension></extensions>
      </trkpt>
      <trkpt lat="39.844104873073" lon="2.799231645393">
        <ele>188.2</ele>
        <time>2020-06-25T21:25:40Z</time>
        <extensions><gpxtpx:TrackPointExtension><gpxtpx:hr>161</gpxtpx:hr></gpxtpx:TrackPointExtension></extensions>
      </trkpt>
      <trkpt lat="39.844135467008" lon="2.799255701446">
        <ele>188.6</ele>
        <time>2020-06-25T21:25:41Z</time>
        <extensions><gpxtpx:TrackPointExtension><gpxtpx:hr>161</gpxtpx:hr></gpxtpx:TrackPointExtension></extensions>
      </trkpt>
      <trkpt lat="39.844181232182" lon="2.79927883549">
        <ele>188.6</ele>
        <time>2020-06-25T21:25:42Z</time>
        <extensions><gpxtpx:TrackPointExtension><gpxtpx:hr>161</gpxtpx:hr></gpxtpx:TrackPointExtension></extensions>
      </trkpt>
      <trkpt lat="39.844234624885" lon="2.799300544611">
        <ele>188.6</ele>
        <time>2020-06-25T21:25:43Z</time>
        <extensions><gpxtpx:TrackPointExtension><gpxtpx:hr>161</gpxtpx:hr></gpxtpx:TrackPointExtension></extensions>
      </trkpt>
      <trkpt lat="39.844299416972" lon="2.799325355035">
        <ele>189.4</ele>
        <time>2020-06-25T21:25:44Z</time>
        <extensions><gpxtpx:TrackPointExtension><gpxtpx:hr>162</gpxtpx:hr></gpxtpx:TrackPointExtension></extensions>
      </trkpt>
      <trkpt lat="39.844345265965" lon="2.799341280645">
        <ele>189.8</ele>
        <time>2020-06-25T21:25:45Z</time>
        <extensions><gpxtpx:TrackPointExtension><gpxtpx:hr>162</gpxtpx:hr></gpxtpx:TrackPointExtension></extensions>
      </trkpt>
      <trkpt lat="39.844394802994" lon="2.799357290074">
        <ele>190.4</ele>
        <time>2020-06-25T21:25:47Z</time>
        <extensions><gpxtpx:TrackPointExtension><gpxtpx:hr>162</gpxtpx:hr></gpxtpx:TrackPointExtension></extensions>
      </trkpt>
      <trkpt lat="39.844440568168" lon="2.799370365838">
        <ele>191</ele>
        <time>2020-06-25T21:25:48Z</time>
        <extensions><gpxtpx:TrackPointExtension><gpxtpx:hr>162</gpxtpx:hr></gpxtpx:TrackPointExtension></extensions>
      </trkpt>
      <trkpt lat="39.844474933958" lon="2.799379669747">
        <ele>191.4</ele>
        <time>2020-06-25T21:25:49Z</time>
        <extensions><gpxtpx:TrackPointExtension><gpxtpx:hr>162</gpxtpx:hr></gpxtpx:TrackPointExtension></extensions>
      </trkpt>
      <trkpt lat="39.844516927277" lon="2.799388051647">
        <ele>191.8</ele>
        <time>2020-06-25T21:25:50Z</time>
        <extensions><gpxtpx:TrackPointExtension><gpxtpx:hr>162</gpxtpx:hr></gpxtpx:TrackPointExtension></extensions>
      </trkpt>
      <trkpt lat="39.844551209248" lon="2.799393499882">
        <ele>192.2</ele>
        <time>2020-06-25T21:25:51Z</time>
        <extensions><gpxtpx:TrackPointExtension><gpxtpx:hr>162</gpxtpx:hr></gpxtpx:TrackPointExtension></extensions>
      </trkpt>
      <trkpt lat="39.844593202567" lon="2.799399199574">
        <ele>192.6</ele>
        <time>2020-06-25T21:25:52Z</time>
        <extensions><gpxtpx:TrackPointExtension><gpxtpx:hr>162</gpxtpx:hr></gpxtpx:TrackPointExtension></extensions>
      </trkpt>
      <trkpt lat="39.844627484538" lon="2.799403977257">
        <ele>193</ele>
        <time>2020-06-25T21:25:53Z</time>
        <extensions><gpxtpx:TrackPointExtension><gpxtpx:hr>162</gpxtpx:hr></gpxtpx:TrackPointExtension></extensions>
      </trkpt>
      <trkpt lat="39.844669477857" lon="2.799409509311">
        <ele>193.4</ele>
        <time>2020-06-25T21:25:54Z</time>
        <extensions><gpxtpx:TrackPointExtension><gpxtpx:hr>162</gpxtpx:hr></gpxtpx:TrackPointExtension></extensions>
      </trkpt>
      <trkpt lat="39.844711471176" lon="2.799415209003">
        <ele>193.8</ele>
        <time>2020-06-25T21:25:56Z</time>
        <extensions><gpxtpx:TrackPointExtension><gpxtpx:hr>162</gpxtpx:hr></gpxtpx:TrackPointExtension></extensions>
      </trkpt>
      <trkpt lat="39.844753380676" lon="2.799420657238">
        <ele>194.2</ele>
        <time>2020-06-25T21:25:57Z</time>
        <extensions><gpxtpx:TrackPointExtension><gpxtpx:hr>162</gpxtpx:hr></gpxtpx:TrackPointExtension></extensions>
      </trkpt>
      <trkpt lat="39.844795373995" lon="2.799426440749">
        <ele>194.6</ele>
        <time>2020-06-25T21:25:58Z</time>
        <extensions><gpxtpx:TrackPointExtension><gpxtpx:hr>162</gpxtpx:hr></gpxtpx:TrackPointExtension></extensions>
      </trkpt>
      <trkpt lat="39.844829739785" lon="2.799431218432">
        <ele>195</ele>
        <time>2020-06-25T21:25:59Z</time>
        <extensions><gpxtpx:TrackPointExtension><gpxtpx:hr>162</gpxtpx:hr></gpxtpx:TrackPointExtension></extensions>
      </trkpt>
      <trkpt lat="39.844864021756" lon="2.799435912296">
        <ele>195.4</ele>
        <time>2020-06-25T21:26:00Z</time>
        <extensions><gpxtpx:TrackPointExtension><gpxtpx:hr>163</gpxtpx:hr></gpxtpx:TrackPointExtension></extensions>
      </trkpt>
      <trkpt lat="39.844906015075" lon="2.799442617816">
        <ele>195.8</ele>
        <time>2020-06-25T21:26:01Z</time>
        <extensions><gpxtpx:TrackPointExtension><gpxtpx:hr>162</gpxtpx:hr></gpxtpx:TrackPointExtension></extensions>
      </trkpt>
      <trkpt lat="39.84494415272" lon="2.799450748259">
        <ele>196.2</ele>
        <time>2020-06-25T21:26:02Z</time>
        <extensions><gpxtpx:TrackPointExtension><gpxtpx:hr>162</gpxtpx:hr></gpxtpx:TrackPointExtension></extensions>
      </trkpt>
      <trkpt lat="39.844978434691" lon="2.79945904634">
        <ele>196.6</ele>
        <time>2020-06-25T21:26:03Z</time>
        <extensions><gpxtpx:TrackPointExtension><gpxtpx:hr>162</gpxtpx:hr></gpxtpx:TrackPointExtension></extensions>
      </trkpt>
      <trkpt lat="39.845016656155" lon="2.799470529543">
        <ele>196.8</ele>
        <time>2020-06-25T21:26:04Z</time>
        <extensions><gpxtpx:TrackPointExtension><gpxtpx:hr>161</gpxtpx:hr></gpxtpx:TrackPointExtension></extensions>
      </trkpt>
      <trkpt lat="39.845062421329" lon="2.799488131533">
        <ele>197.2</ele>
        <time>2020-06-25T21:26:06Z</time>
        <extensions><gpxtpx:TrackPointExtension><gpxtpx:hr>161</gpxtpx:hr></gpxtpx:TrackPointExtension></extensions>
      </trkpt>
      <trkpt lat="39.845104330829" lon="2.799505565885">
        <ele>197.4</ele>
        <time>2020-06-25T21:26:07Z</time>
        <extensions><gpxtpx:TrackPointExtension><gpxtpx:hr>161</gpxtpx:hr></gpxtpx:TrackPointExtension></extensions>
      </trkpt>
      <trkpt lat="39.845150096003" lon="2.799532471784">
        <ele>197.8</ele>
        <time>2020-06-25T21:26:08Z</time>
        <extensions><gpxtpx:TrackPointExtension><gpxtpx:hr>160</gpxtpx:hr></gpxtpx:TrackPointExtension></extensions>
      </trkpt>
      <trkpt lat="39.845192089322" lon="2.799563484814">
        <ele>198.2</ele>
        <time>2020-06-25T21:26:09Z</time>
        <extensions><gpxtpx:TrackPointExtension><gpxtpx:hr>160</gpxtpx:hr></gpxtpx:TrackPointExtension></extensions>
      </trkpt>
      <trkpt lat="39.845237854496" lon="2.799610507273">
        <ele>198.4</ele>
        <time>2020-06-25T21:26:10Z</time>
        <extensions><gpxtpx:TrackPointExtension><gpxtpx:hr>160</gpxtpx:hr></gpxtpx:TrackPointExtension></extensions>
      </trkpt>
      <trkpt lat="39.845287475344" lon="2.799664151433">
        <ele>198.8</ele>
        <time>2020-06-25T21:26:11Z</time>
        <extensions><gpxtpx:TrackPointExtension><gpxtpx:hr>159</gpxtpx:hr></gpxtpx:TrackPointExtension></extensions>
      </trkpt>
      <trkpt lat="39.845333240518" lon="2.79972391438">
        <ele>199.2</ele>
        <time>2020-06-25T21:26:12Z</time>
        <extensions><gpxtpx:TrackPointExtension><gpxtpx:hr>159</gpxtpx:hr></gpxtpx:TrackPointExtension></extensions>
      </trkpt>
      <trkpt lat="39.845367606308" lon="2.799775965979">
        <ele>199.4</ele>
        <time>2020-06-25T21:26:13Z</time>
        <extensions><gpxtpx:TrackPointExtension><gpxtpx:hr>159</gpxtpx:hr></gpxtpx:TrackPointExtension></extensions>
      </trkpt>
      <trkpt lat="39.845398116424" lon="2.799829107225">
        <ele>199.8</ele>
        <time>2020-06-25T21:26:14Z</time>
        <extensions><gpxtpx:TrackPointExtension><gpxtpx:hr>159</gpxtpx:hr></gpxtpx:TrackPointExtension></extensions>
      </trkpt>
      <trkpt lat="39.84542862654" lon="2.799894653683">
        <ele>200.2</ele>
        <time>2020-06-25T21:26:16Z</time>
        <extensions><gpxtpx:TrackPointExtension><gpxtpx:hr>159</gpxtpx:hr></gpxtpx:TrackPointExtension></extensions>
      </trkpt>
      <trkpt lat="39.845436254069" lon="2.799947375834">
        <ele>200.6</ele>
        <time>2020-06-25T21:26:17Z</time>
        <extensions><gpxtpx:TrackPointExtension><gpxtpx:hr>159</gpxtpx:hr></gpxtpx:TrackPointExtension></extensions>
      </trkpt>
      <trkpt lat="39.845420999011" lon="2.800006468229">
        <ele>201</ele>
        <time>2020-06-25T21:26:18Z</time>
        <extensions><gpxtpx:TrackPointExtension><gpxtpx:hr>159</gpxtpx:hr></gpxtpx:TrackPointExtension></extensions>
      </trkpt>
      <trkpt lat="39.845398116424" lon="2.800053658326">
        <ele>201.2</ele>
        <time>2020-06-25T21:26:19Z</time>
        <extensions><gpxtpx:TrackPointExtension><gpxtpx:hr>159</gpxtpx:hr></gpxtpx:TrackPointExtension></extensions>
      </trkpt>
      <trkpt lat="39.845356123105" lon="2.800093472351">
        <ele>201.6</ele>
        <time>2020-06-25T21:26:20Z</time>
        <extensions><gpxtpx:TrackPointExtension><gpxtpx:hr>160</gpxtpx:hr></gpxtpx:TrackPointExtension></extensions>
      </trkpt>
      <trkpt lat="39.845295102873" lon="2.800096406016">
        <ele>201.8</ele>
        <time>2020-06-25T21:26:21Z</time>
        <extensions><gpxtpx:TrackPointExtension><gpxtpx:hr>161</gpxtpx:hr></gpxtpx:TrackPointExtension></extensions>
      </trkpt>
      <trkpt lat="39.84524171017" lon="2.800065141529">
        <ele>202.6</ele>
        <time>2020-06-25T21:26:22Z</time>
        <extensions><gpxtpx:TrackPointExtension><gpxtpx:hr>162</gpxtpx:hr></gpxtpx:TrackPointExtension></extensions>
      </trkpt>
      <trkpt lat="39.845199716851" lon="2.800036978345">
        <ele>203.2</ele>
        <time>2020-06-25T21:26:24Z</time>
        <extensions><gpxtpx:TrackPointExtension><gpxtpx:hr>162</gpxtpx:hr></gpxtpx:TrackPointExtension></extensions>
      </trkpt>
      <trkpt lat="39.845169206735" lon="2.800015101586">
        <ele>203.6</ele>
        <time>2020-06-25T21:26:25Z</time>
        <extensions><gpxtpx:TrackPointExtension><gpxtpx:hr>163</gpxtpx:hr></gpxtpx:TrackPointExtension></extensions>
      </trkpt>
      <trkpt lat="39.845146324148" lon="2.799999846528">
        <ele>203.8</ele>
        <time>2020-06-25T21:26:26Z</time>
        <extensions><gpxtpx:TrackPointExtension><gpxtpx:hr>163</gpxtpx:hr></gpxtpx:TrackPointExtension></extensions>
      </trkpt>
      <trkpt lat="39.845119585887" lon="2.799984759108">
        <ele>204</ele>
        <time>2020-06-25T21:26:27Z</time>
        <extensions><gpxtpx:TrackPointExtension><gpxtpx:hr>163</gpxtpx:hr></gpxtpx:TrackPointExtension></extensions>
      </trkpt>
      <trkpt lat="39.845081448242" lon="2.799971934801">
        <ele>204</ele>
        <time>2020-06-25T21:26:28Z</time>
        <extensions><gpxtpx:TrackPointExtension><gpxtpx:hr>163</gpxtpx:hr></gpxtpx:TrackPointExtension></extensions>
      </trkpt>
      <trkpt lat="39.845028055539" lon="2.79997788595">
        <ele>204.8</ele>
        <time>2020-06-25T21:26:29Z</time>
        <extensions><gpxtpx:TrackPointExtension><gpxtpx:hr>163</gpxtpx:hr></gpxtpx:TrackPointExtension></extensions>
      </trkpt>
      <trkpt lat="39.845012800481" lon="2.799985513479">
        <ele>205.2</ele>
        <time>2020-06-25T21:26:30Z</time>
        <extensions><gpxtpx:TrackPointExtension><gpxtpx:hr>163</gpxtpx:hr></gpxtpx:TrackPointExtension></extensions>
      </trkpt>
      <trkpt lat="39.845001401097" lon="2.799990961714">
        <ele>205.4</ele>
        <time>2020-06-25T21:26:31Z</time>
        <extensions><gpxtpx:TrackPointExtension><gpxtpx:hr>163</gpxtpx:hr></gpxtpx:TrackPointExtension></extensions>
      </trkpt>
      <trkpt lat="39.844989917894" lon="2.799997667234">
        <ele>205.8</ele>
        <time>2020-06-25T21:26:32Z</time>
        <extensions><gpxtpx:TrackPointExtension><gpxtpx:hr>163</gpxtpx:hr></gpxtpx:TrackPointExtension></extensions>
      </trkpt>
      <trkpt lat="39.844978434691" lon="2.800005965315">
        <ele>206.2</ele>
        <time>2020-06-25T21:26:33Z</time>
        <extensions><gpxtpx:TrackPointExtension><gpxtpx:hr>162</gpxtpx:hr></gpxtpx:TrackPointExtension></extensions>
      </trkpt>
      <trkpt lat="39.844963179633" lon="2.800017448518">
        <ele>206.6</ele>
        <time>2020-06-25T21:26:34Z</time>
        <extensions><gpxtpx:TrackPointExtension><gpxtpx:hr>162</gpxtpx:hr></gpxtpx:TrackPointExtension></extensions>
      </trkpt>
      <trkpt lat="39.84494415272" lon="2.80003655925">
        <ele>207.2</ele>
        <time>2020-06-25T21:26:35Z</time>
        <extensions><gpxtpx:TrackPointExtension><gpxtpx:hr>162</gpxtpx:hr></gpxtpx:TrackPointExtension></extensions>
      </trkpt>
      <trkpt lat="39.844925041988" lon="2.800068745746">
        <ele>207.4</ele>
        <time>2020-06-25T21:26:36Z</time>
        <extensions><gpxtpx:TrackPointExtension><gpxtpx:hr>161</gpxtpx:hr></gpxtpx:TrackPointExtension></extensions>
      </trkpt>
      <trkpt lat="39.844917414459" lon="2.800125491209">
        <ele>207.8</ele>
        <time>2020-06-25T21:26:38Z</time>
        <extensions><gpxtpx:TrackPointExtension><gpxtpx:hr>161</gpxtpx:hr></gpxtpx:TrackPointExtension></extensions>
      </trkpt>
      <trkpt lat="39.844921270133" lon="2.800207466191">
        <ele>207.8</ele>
        <time>2020-06-25T21:26:39Z</time>
        <extensions><gpxtpx:TrackPointExtension><gpxtpx:hr>160</gpxtpx:hr></gpxtpx:TrackPointExtension></extensions>
      </trkpt>
      <trkpt lat="39.844970807162" lon="2.800281394549">
        <ele>208.2</ele>
        <time>2020-06-25T21:26:40Z</time>
        <extensions><gpxtpx:TrackPointExtension><gpxtpx:hr>160</gpxtpx:hr></gpxtpx:TrackPointExtension></extensions>
      </trkpt>
      <trkpt lat="39.845028055539" lon="2.800336966546">
        <ele>209</ele>
        <time>2020-06-25T21:26:41Z</time>
        <extensions><gpxtpx:TrackPointExtension><gpxtpx:hr>160</gpxtpx:hr></gpxtpx:TrackPointExtension></extensions>
      </trkpt>
      <trkpt lat="39.845077676387" lon="2.800386755032">
        <ele>209.6</ele>
        <time>2020-06-25T21:26:42Z</time>
        <extensions><gpxtpx:TrackPointExtension><gpxtpx:hr>159</gpxtpx:hr></gpxtpx:TrackPointExtension></extensions>
      </trkpt>
      <trkpt lat="39.845115814032" lon="2.800436627337">
        <ele>210.2</ele>
        <time>2020-06-25T21:26:44Z</time>
        <extensions><gpxtpx:TrackPointExtension><gpxtpx:hr>159</gpxtpx:hr></gpxtpx:TrackPointExtension></extensions>
      </trkpt>
      <trkpt lat="39.845153951677" lon="2.80050426927">
        <ele>210.4</ele>
        <time>2020-06-25T21:26:45Z</time>
        <extensions><gpxtpx:TrackPointExtension><gpxtpx:hr>159</gpxtpx:hr></gpxtpx:TrackPointExtension></extensions>
      </trkpt>
      <trkpt lat="39.845192089322" lon="2.800585154605">
        <ele>210.6</ele>
        <time>2020-06-25T21:26:46Z</time>
        <extensions><gpxtpx:TrackPointExtension><gpxtpx:hr>159</gpxtpx:hr></gpxtpx:TrackPointExtension></extensions>
      </trkpt>
      <trkpt lat="39.845222599438" lon="2.800652796538">
        <ele>211</ele>
        <time>2020-06-25T21:26:47Z</time>
        <extensions><gpxtpx:TrackPointExtension><gpxtpx:hr>159</gpxtpx:hr></gpxtpx:TrackPointExtension></extensions>
      </trkpt>
      <trkpt lat="39.845253109554" lon="2.800726724896">
        <ele>211.4</ele>
        <time>2020-06-25T21:26:48Z</time>
        <extensions><gpxtpx:TrackPointExtension><gpxtpx:hr>159</gpxtpx:hr></gpxtpx:TrackPointExtension></extensions>
      </trkpt>
      <trkpt lat="39.845275992141" lon="2.80078254835">
        <ele>211.8</ele>
        <time>2020-06-25T21:26:49Z</time>
        <extensions><gpxtpx:TrackPointExtension><gpxtpx:hr>159</gpxtpx:hr></gpxtpx:TrackPointExtension></extensions>
      </trkpt>
      <trkpt lat="39.845302730402" lon="2.800843568582">
        <ele>212.2</ele>
        <time>2020-06-25T21:26:50Z</time>
        <extensions><gpxtpx:TrackPointExtension><gpxtpx:hr>159</gpxtpx:hr></gpxtpx:TrackPointExtension></extensions>
      </trkpt>
      <trkpt lat="39.845321757315" lon="2.800891932145">
        <ele>212.6</ele>
        <time>2020-06-25T21:26:51Z</time>
        <extensions><gpxtpx:TrackPointExtension><gpxtpx:hr>159</gpxtpx:hr></gpxtpx:TrackPointExtension></extensions>
      </trkpt>
      <trkpt lat="39.845344723721" lon="2.800949683436">
        <ele>213</ele>
        <time>2020-06-25T21:26:53Z</time>
        <extensions><gpxtpx:TrackPointExtension><gpxtpx:hr>159</gpxtpx:hr></gpxtpx:TrackPointExtension></extensions>
      </trkpt>
      <trkpt lat="39.845367606308" lon="2.800999220465">
        <ele>213.4</ele>
        <time>2020-06-25T21:26:54Z</time>
        <extensions><gpxtpx:TrackPointExtension><gpxtpx:hr>159</gpxtpx:hr></gpxtpx:TrackPointExtension></extensions>
      </trkpt>
      <trkpt lat="39.845386633221" lon="2.801049763322">
        <ele>213.6</ele>
        <time>2020-06-25T21:26:55Z</time>
        <extensions><gpxtpx:TrackPointExtension><gpxtpx:hr>159</gpxtpx:hr></gpxtpx:TrackPointExtension></extensions>
      </trkpt>
      <trkpt lat="39.845409515808" lon="2.801111789382">
        <ele>214</ele>
        <time>2020-06-25T21:26:56Z</time>
        <extensions><gpxtpx:TrackPointExtension><gpxtpx:hr>159</gpxtpx:hr></gpxtpx:TrackPointExtension></extensions>
      </trkpt>
      <trkpt lat="39.845436254069" lon="2.801174485994">
        <ele>214.4</ele>
        <time>2020-06-25T21:26:57Z</time>
        <extensions><gpxtpx:TrackPointExtension><gpxtpx:hr>159</gpxtpx:hr></gpxtpx:TrackPointExtension></extensions>
      </trkpt>
      <trkpt lat="39.845455280982" lon="2.801226705231">
        <ele>214.8</ele>
        <time>2020-06-25T21:26:58Z</time>
        <extensions><gpxtpx:TrackPointExtension><gpxtpx:hr>159</gpxtpx:hr></gpxtpx:TrackPointExtension></extensions>
      </trkpt>
      <trkpt lat="39.845474391714" lon="2.801278924468">
        <ele>215.2</ele>
        <time>2020-06-25T21:26:59Z</time>
        <extensions><gpxtpx:TrackPointExtension><gpxtpx:hr>159</gpxtpx:hr></gpxtpx:TrackPointExtension></extensions>
      </trkpt>
      <trkpt lat="39.845501046156" lon="2.801342123994">
        <ele>215.6</ele>
        <time>2020-06-25T21:27:00Z</time>
        <extensions><gpxtpx:TrackPointExtension><gpxtpx:hr>160</gpxtpx:hr></gpxtpx:TrackPointExtension></extensions>
      </trkpt>
      <trkpt lat="39.845520156888" lon="2.801396187249">
        <ele>216</ele>
        <time>2020-06-25T21:27:01Z</time>
        <extensions><gpxtpx:TrackPointExtension><gpxtpx:hr>160</gpxtpx:hr></gpxtpx:TrackPointExtension></extensions>
      </trkpt>
      <trkpt lat="39.845543039475" lon="2.801464918829">
        <ele>216.4</ele>
        <time>2020-06-25T21:27:02Z</time>
        <extensions><gpxtpx:TrackPointExtension><gpxtpx:hr>160</gpxtpx:hr></gpxtpx:TrackPointExtension></extensions>
      </trkpt>
      <trkpt lat="39.845565922062" lon="2.801535494427">
        <ele>216.8</ele>
        <time>2020-06-25T21:27:04Z</time>
        <extensions><gpxtpx:TrackPointExtension><gpxtpx:hr>160</gpxtpx:hr></gpxtpx:TrackPointExtension></extensions>
      </trkpt>
      <trkpt lat="39.845585032794" lon="2.801607662586">
        <ele>217.2</ele>
        <time>2020-06-25T21:27:05Z</time>
        <extensions><gpxtpx:TrackPointExtension><gpxtpx:hr>160</gpxtpx:hr></gpxtpx:TrackPointExtension></extensions>
      </trkpt>
      <trkpt lat="39.845600287852" lon="2.801672538492">
        <ele>217.4</ele>
        <time>2020-06-25T21:27:06Z</time>
        <extensions><gpxtpx:TrackPointExtension><gpxtpx:hr>161</gpxtpx:hr></gpxtpx:TrackPointExtension></extensions>
      </trkpt>
      <trkpt lat="39.845611687236" lon="2.80174143771">
        <ele>217.6</ele>
        <time>2020-06-25T21:27:07Z</time>
        <extensions><gpxtpx:TrackPointExtension><gpxtpx:hr>161</gpxtpx:hr></gpxtpx:TrackPointExtension></extensions>
      </trkpt>
      <trkpt lat="39.845619314765" lon="2.801812516222">
        <ele>218</ele>
        <time>2020-06-25T21:27:08Z</time>
        <extensions><gpxtpx:TrackPointExtension><gpxtpx:hr>161</gpxtpx:hr></gpxtpx:TrackPointExtension></extensions>
      </trkpt>
      <trkpt lat="39.845626942294" lon="2.801885019657">
        <ele>218.6</ele>
        <time>2020-06-25T21:27:09Z</time>
        <extensions><gpxtpx:TrackPointExtension><gpxtpx:hr>161</gpxtpx:hr></gpxtpx:TrackPointExtension></extensions>
      </trkpt>
      <trkpt lat="39.845630797968" lon="2.801944363509">
        <ele>219.2</ele>
        <time>2020-06-25T21:27:10Z</time>
        <extensions><gpxtpx:TrackPointExtension><gpxtpx:hr>162</gpxtpx:hr></gpxtpx:TrackPointExtension></extensions>
      </trkpt>
      <trkpt lat="39.845634569823" lon="2.801988452303">
        <ele>219.6</ele>
        <time>2020-06-25T21:27:11Z</time>
        <extensions><gpxtpx:TrackPointExtension><gpxtpx:hr>162</gpxtpx:hr></gpxtpx:TrackPointExtension></extensions>
      </trkpt>
      <trkpt lat="39.845634569823" lon="2.802042096463">
        <ele>220</ele>
        <time>2020-06-25T21:27:12Z</time>
        <extensions><gpxtpx:TrackPointExtension><gpxtpx:hr>162</gpxtpx:hr></gpxtpx:TrackPointExtension></extensions>
      </trkpt>
      <trkpt lat="39.845638425497" lon="2.802087861637">
        <ele>220.4</ele>
        <time>2020-06-25T21:27:13Z</time>
        <extensions><gpxtpx:TrackPointExtension><gpxtpx:hr>162</gpxtpx:hr></gpxtpx:TrackPointExtension></extensions>
      </trkpt>
      <trkpt lat="39.845634569823" lon="2.802146786394">
        <ele>220.8</ele>
        <time>2020-06-25T21:27:15Z</time>
        <extensions><gpxtpx:TrackPointExtension><gpxtpx:hr>162</gpxtpx:hr></gpxtpx:TrackPointExtension></extensions>
      </trkpt>
      <trkpt lat="39.845623170439" lon="2.802204453866">
        <ele>221.2</ele>
        <time>2020-06-25T21:27:16Z</time>
        <extensions><gpxtpx:TrackPointExtension><gpxtpx:hr>162</gpxtpx:hr></gpxtpx:TrackPointExtension></extensions>
      </trkpt>
      <trkpt lat="39.845600287852" lon="2.802278130767">
        <ele>221.6</ele>
        <time>2020-06-25T21:27:17Z</time>
        <extensions><gpxtpx:TrackPointExtension><gpxtpx:hr>162</gpxtpx:hr></gpxtpx:TrackPointExtension></extensions>
      </trkpt>
      <trkpt lat="39.845565922062" lon="2.802347029985">
        <ele>222.2</ele>
        <time>2020-06-25T21:27:18Z</time>
        <extensions><gpxtpx:TrackPointExtension><gpxtpx:hr>162</gpxtpx:hr></gpxtpx:TrackPointExtension></extensions>
      </trkpt>
      <trkpt lat="39.845535411946" lon="2.80239187315">
        <ele>222.6</ele>
        <time>2020-06-25T21:27:19Z</time>
        <extensions><gpxtpx:TrackPointExtension><gpxtpx:hr>161</gpxtpx:hr></gpxtpx:TrackPointExtension></extensions>
      </trkpt>
      <trkpt lat="39.84550490183" lon="2.802435961944">
        <ele>223.2</ele>
        <time>2020-06-25T21:27:20Z</time>
        <extensions><gpxtpx:TrackPointExtension><gpxtpx:hr>161</gpxtpx:hr></gpxtpx:TrackPointExtension></extensions>
      </trkpt>
      <trkpt lat="39.845478163569" lon="2.802474099589">
        <ele>223.6</ele>
        <time>2020-06-25T21:27:21Z</time>
        <extensions><gpxtpx:TrackPointExtension><gpxtpx:hr>160</gpxtpx:hr></gpxtpx:TrackPointExtension></extensions>
      </trkpt>
      <trkpt lat="39.845451509127" lon="2.802511063768">
        <ele>224</ele>
        <time>2020-06-25T21:27:23Z</time>
        <extensions><gpxtpx:TrackPointExtension><gpxtpx:hr>160</gpxtpx:hr></gpxtpx:TrackPointExtension></extensions>
      </trkpt>
      <trkpt lat="39.845420999011" lon="2.802550877793">
        <ele>224.6</ele>
        <time>2020-06-25T21:27:24Z</time>
        <extensions><gpxtpx:TrackPointExtension><gpxtpx:hr>160</gpxtpx:hr></gpxtpx:TrackPointExtension></extensions>
      </trkpt>
      <trkpt lat="39.84539426075" lon="2.80259471513">
        <ele>225</ele>
        <time>2020-06-25T21:27:25Z</time>
        <extensions><gpxtpx:TrackPointExtension><gpxtpx:hr>160</gpxtpx:hr></gpxtpx:TrackPointExtension></extensions>
      </trkpt>
      <trkpt lat="39.845367606308" lon="2.802634361517">
        <ele>225.6</ele>
        <time>2020-06-25T21:27:26Z</time>
        <extensions><gpxtpx:TrackPointExtension><gpxtpx:hr>160</gpxtpx:hr></gpxtpx:TrackPointExtension></extensions>
      </trkpt>
      <trkpt lat="39.845348495576" lon="2.802674175542">
        <ele>226</ele>
        <time>2020-06-25T21:27:27Z</time>
        <extensions><gpxtpx:TrackPointExtension><gpxtpx:hr>160</gpxtpx:hr></gpxtpx:TrackPointExtension></extensions>
      </trkpt>
      <trkpt lat="39.845321757315" lon="2.802725891865">
        <ele>226.4</ele>
        <time>2020-06-25T21:27:28Z</time>
        <extensions><gpxtpx:TrackPointExtension><gpxtpx:hr>160</gpxtpx:hr></gpxtpx:TrackPointExtension></extensions>
      </trkpt>
      <trkpt lat="39.845298874728" lon="2.802793114703">
        <ele>226.6</ele>
        <time>2020-06-25T21:27:29Z</time>
        <extensions><gpxtpx:TrackPointExtension><gpxtpx:hr>161</gpxtpx:hr></gpxtpx:TrackPointExtension></extensions>
      </trkpt>
      <trkpt lat="39.845287475344" lon="2.802858242066">
        <ele>227</ele>
        <time>2020-06-25T21:27:30Z</time>
        <extensions><gpxtpx:TrackPointExtension><gpxtpx:hr>161</gpxtpx:hr></gpxtpx:TrackPointExtension></extensions>
      </trkpt>
      <trkpt lat="39.84528361967" lon="2.802942396342">
        <ele>227.4</ele>
        <time>2020-06-25T21:27:32Z</time>
        <extensions><gpxtpx:TrackPointExtension><gpxtpx:hr>161</gpxtpx:hr></gpxtpx:TrackPointExtension></extensions>
      </trkpt>
      <trkpt lat="39.845287475344" lon="2.80300961918">
        <ele>227.8</ele>
        <time>2020-06-25T21:27:33Z</time>
        <extensions><gpxtpx:TrackPointExtension><gpxtpx:hr>162</gpxtpx:hr></gpxtpx:TrackPointExtension></extensions>
      </trkpt>
      <trkpt lat="39.845295102873" lon="2.803085140099">
        <ele>228.2</ele>
        <time>2020-06-25T21:27:34Z</time>
        <extensions><gpxtpx:TrackPointExtension><gpxtpx:hr>162</gpxtpx:hr></gpxtpx:TrackPointExtension></extensions>
      </trkpt>
      <trkpt lat="39.845298874728" lon="2.803154793688">
        <ele>228.6</ele>
        <time>2020-06-25T21:27:35Z</time>
        <extensions><gpxtpx:TrackPointExtension><gpxtpx:hr>162</gpxtpx:hr></gpxtpx:TrackPointExtension></extensions>
      </trkpt>
      <trkpt lat="39.845298874728" lon="2.803209862771">
        <ele>229</ele>
        <time>2020-06-25T21:27:36Z</time>
        <extensions><gpxtpx:TrackPointExtension><gpxtpx:hr>162</gpxtpx:hr></gpxtpx:TrackPointExtension></extensions>
      </trkpt>
      <trkpt lat="39.845302730402" lon="2.803264009845">
        <ele>229.4</ele>
        <time>2020-06-25T21:27:37Z</time>
        <extensions><gpxtpx:TrackPointExtension><gpxtpx:hr>162</gpxtpx:hr></gpxtpx:TrackPointExtension></extensions>
      </trkpt>
      <trkpt lat="39.845306502257" lon="2.803328634294">
        <ele>229.8</ele>
        <time>2020-06-25T21:27:38Z</time>
        <extensions><gpxtpx:TrackPointExtension><gpxtpx:hr>162</gpxtpx:hr></gpxtpx:TrackPointExtension></extensions>
      </trkpt>
      <trkpt lat="39.845310357931" lon="2.803382949006">
        <ele>230.2</ele>
        <time>2020-06-25T21:27:39Z</time>
        <extensions><gpxtpx:TrackPointExtension><gpxtpx:hr>162</gpxtpx:hr></gpxtpx:TrackPointExtension></extensions>
      </trkpt>
      <trkpt lat="39.845314129786" lon="2.803438018089">
        <ele>230.4</ele>
        <time>2020-06-25T21:27:40Z</time>
        <extensions><gpxtpx:TrackPointExtension><gpxtpx:hr>162</gpxtpx:hr></gpxtpx:TrackPointExtension></extensions>
      </trkpt>
      <trkpt lat="39.845314129786" lon="2.803505240927">
        <ele>230.8</ele>
        <time>2020-06-25T21:27:41Z</time>
        <extensions><gpxtpx:TrackPointExtension><gpxtpx:hr>162</gpxtpx:hr></gpxtpx:TrackPointExtension></extensions>
      </trkpt>
      <trkpt lat="39.84531798546" lon="2.803573218136">
        <ele>231.4</ele>
        <time>2020-06-25T21:27:43Z</time>
        <extensions><gpxtpx:TrackPointExtension><gpxtpx:hr>162</gpxtpx:hr></gpxtpx:TrackPointExtension></extensions>
      </trkpt>
      <trkpt lat="39.845321757315" lon="2.803629712142">
        <ele>231.6</ele>
        <time>2020-06-25T21:27:44Z</time>
        <extensions><gpxtpx:TrackPointExtension><gpxtpx:hr>162</gpxtpx:hr></gpxtpx:TrackPointExtension></extensions>
      </trkpt>
      <trkpt lat="39.845321757315" lon="2.803685535596">
        <ele>232</ele>
        <time>2020-06-25T21:27:45Z</time>
        <extensions><gpxtpx:TrackPointExtension><gpxtpx:hr>162</gpxtpx:hr></gpxtpx:TrackPointExtension></extensions>
      </trkpt>
      <trkpt lat="39.845325612989" lon="2.803751836425">
        <ele>232.4</ele>
        <time>2020-06-25T21:27:46Z</time>
        <extensions><gpxtpx:TrackPointExtension><gpxtpx:hr>162</gpxtpx:hr></gpxtpx:TrackPointExtension></extensions>
      </trkpt>
      <trkpt lat="39.845325612989" lon="2.803807324603">
        <ele>232.8</ele>
        <time>2020-06-25T21:27:47Z</time>
        <extensions><gpxtpx:TrackPointExtension><gpxtpx:hr>162</gpxtpx:hr></gpxtpx:TrackPointExtension></extensions>
      </trkpt>
      <trkpt lat="39.845325612989" lon="2.803864070066">
        <ele>233.2</ele>
        <time>2020-06-25T21:27:48Z</time>
        <extensions><gpxtpx:TrackPointExtension><gpxtpx:hr>162</gpxtpx:hr></gpxtpx:TrackPointExtension></extensions>
      </trkpt>
      <trkpt lat="39.845325612989" lon="2.803921066986">
        <ele>233.6</ele>
        <time>2020-06-25T21:27:49Z</time>
        <extensions><gpxtpx:TrackPointExtension><gpxtpx:hr>162</gpxtpx:hr></gpxtpx:TrackPointExtension></extensions>
      </trkpt>
      <trkpt lat="39.845321757315" lon="2.803993570421">
        <ele>233.8</ele>
        <time>2020-06-25T21:27:50Z</time>
        <extensions><gpxtpx:TrackPointExtension><gpxtpx:hr>162</gpxtpx:hr></gpxtpx:TrackPointExtension></extensions>
      </trkpt>
      <trkpt lat="39.845310357931" lon="2.804083424389">
        <ele>233.8</ele>
        <time>2020-06-25T21:27:51Z</time>
        <extensions><gpxtpx:TrackPointExtension><gpxtpx:hr>162</gpxtpx:hr></gpxtpx:TrackPointExtension></extensions>
      </trkpt>
      <trkpt lat="39.845287475344" lon="2.804161124602">
        <ele>234</ele>
        <time>2020-06-25T21:27:52Z</time>
        <extensions><gpxtpx:TrackPointExtension><gpxtpx:hr>162</gpxtpx:hr></gpxtpx:TrackPointExtension></extensions>
      </trkpt>
      <trkpt lat="39.845249337699" lon="2.804231029648">
        <ele>234.2</ele>
        <time>2020-06-25T21:27:53Z</time>
        <extensions><gpxtpx:TrackPointExtension><gpxtpx:hr>162</gpxtpx:hr></gpxtpx:TrackPointExtension></extensions>
      </trkpt>
      <trkpt lat="39.84520734438" lon="2.804291127871">
        <ele>234.8</ele>
        <time>2020-06-25T21:27:54Z</time>
        <extensions><gpxtpx:TrackPointExtension><gpxtpx:hr>162</gpxtpx:hr></gpxtpx:TrackPointExtension></extensions>
      </trkpt>
      <trkpt lat="39.845169206735" lon="2.804336893045">
        <ele>235.2</ele>
        <time>2020-06-25T21:27:55Z</time>
        <extensions><gpxtpx:TrackPointExtension><gpxtpx:hr>162</gpxtpx:hr></gpxtpx:TrackPointExtension></extensions>
      </trkpt>
      <trkpt lat="39.84513106909" lon="2.80437167793">
        <ele>235.6</ele>
        <time>2020-06-25T21:27:56Z</time>
        <extensions><gpxtpx:TrackPointExtension><gpxtpx:hr>162</gpxtpx:hr></gpxtpx:TrackPointExtension></extensions>
      </trkpt>
      <trkpt lat="39.845073820713" lon="2.804407217186">
        <ele>235.6</ele>
        <time>2020-06-25T21:27:57Z</time>
        <extensions><gpxtpx:TrackPointExtension><gpxtpx:hr>162</gpxtpx:hr></gpxtpx:TrackPointExtension></extensions>
      </trkpt>
      <trkpt lat="39.84502042801" lon="2.804431021782">
        <ele>235.6</ele>
        <time>2020-06-25T21:27:58Z</time>
        <extensions><gpxtpx:TrackPointExtension><gpxtpx:hr>162</gpxtpx:hr></gpxtpx:TrackPointExtension></extensions>
      </trkpt>
      <trkpt lat="39.844959407778" lon="2.804446109202">
        <ele>235.8</ele>
        <time>2020-06-25T21:27:59Z</time>
        <extensions><gpxtpx:TrackPointExtension><gpxtpx:hr>162</gpxtpx:hr></gpxtpx:TrackPointExtension></extensions>
      </trkpt>
      <trkpt lat="39.844890760017" lon="2.804449210505">
        <ele>236.2</ele>
        <time>2020-06-25T21:28:01Z</time>
        <extensions><gpxtpx:TrackPointExtension><gpxtpx:hr>162</gpxtpx:hr></gpxtpx:TrackPointExtension></extensions>
      </trkpt>
      <trkpt lat="39.844825884111" lon="2.804445103374">
        <ele>236.4</ele>
        <time>2020-06-25T21:28:02Z</time>
        <extensions><gpxtpx:TrackPointExtension><gpxtpx:hr>162</gpxtpx:hr></gpxtpx:TrackPointExtension></extensions>
      </trkpt>
      <trkpt lat="39.844761008205" lon="2.804440325691">
        <ele>236.8</ele>
        <time>2020-06-25T21:28:03Z</time>
        <extensions><gpxtpx:TrackPointExtension><gpxtpx:hr>162</gpxtpx:hr></gpxtpx:TrackPointExtension></extensions>
      </trkpt>
      <trkpt lat="39.844703843647" lon="2.804436553836">
        <ele>237</ele>
        <time>2020-06-25T21:28:04Z</time>
        <extensions><gpxtpx:TrackPointExtension><gpxtpx:hr>162</gpxtpx:hr></gpxtpx:TrackPointExtension></extensions>
      </trkpt>
      <trkpt lat="39.844650450944" lon="2.804432446705">
        <ele>237.2</ele>
        <time>2020-06-25T21:28:05Z</time>
        <extensions><gpxtpx:TrackPointExtension><gpxtpx:hr>162</gpxtpx:hr></gpxtpx:TrackPointExtension></extensions>
      </trkpt>
      <trkpt lat="39.844585575038" lon="2.804427501384">
        <ele>237.6</ele>
        <time>2020-06-25T21:28:06Z</time>
        <extensions><gpxtpx:TrackPointExtension><gpxtpx:hr>162</gpxtpx:hr></gpxtpx:TrackPointExtension></extensions>
      </trkpt>
      <trkpt lat="39.844520699132" lon="2.804422220787">
        <ele>237.8</ele>
        <time>2020-06-25T21:28:07Z</time>
        <extensions><gpxtpx:TrackPointExtension><gpxtpx:hr>162</gpxtpx:hr></gpxtpx:TrackPointExtension></extensions>
      </trkpt>
      <trkpt lat="39.844455823226" lon="2.804417024009">
        <ele>238.2</ele>
        <time>2020-06-25T21:28:09Z</time>
        <extensions><gpxtpx:TrackPointExtension><gpxtpx:hr>161</gpxtpx:hr></gpxtpx:TrackPointExtension></extensions>
      </trkpt>
      <trkpt lat="39.844398658668" lon="2.804412413964">
        <ele>238.4</ele>
        <time>2020-06-25T21:28:10Z</time>
        <extensions><gpxtpx:TrackPointExtension><gpxtpx:hr>161</gpxtpx:hr></gpxtpx:TrackPointExtension></extensions>
      </trkpt>
      <trkpt lat="39.844337638436" lon="2.804406462815">
        <ele>238.6</ele>
        <time>2020-06-25T21:28:11Z</time>
        <extensions><gpxtpx:TrackPointExtension><gpxtpx:hr>161</gpxtpx:hr></gpxtpx:TrackPointExtension></extensions>
      </trkpt>
      <trkpt lat="39.84427276253" lon="2.804400511666">
        <ele>239</ele>
        <time>2020-06-25T21:28:12Z</time>
        <extensions><gpxtpx:TrackPointExtension><gpxtpx:hr>161</gpxtpx:hr></gpxtpx:TrackPointExtension></extensions>
      </trkpt>
      <trkpt lat="39.844215514153" lon="2.804394560517">
        <ele>239.2</ele>
        <time>2020-06-25T21:28:13Z</time>
        <extensions><gpxtpx:TrackPointExtension><gpxtpx:hr>161</gpxtpx:hr></gpxtpx:TrackPointExtension></extensions>
      </trkpt>
      <trkpt lat="39.844154493921" lon="2.804388106454">
        <ele>239.4</ele>
        <time>2020-06-25T21:28:14Z</time>
        <extensions><gpxtpx:TrackPointExtension><gpxtpx:hr>161</gpxtpx:hr></gpxtpx:TrackPointExtension></extensions>
      </trkpt>
      <trkpt lat="39.844093473689" lon="2.804380981839">
        <ele>239.6</ele>
        <time>2020-06-25T21:28:16Z</time>
        <extensions><gpxtpx:TrackPointExtension><gpxtpx:hr>160</gpxtpx:hr></gpxtpx:TrackPointExtension></extensions>
      </trkpt>
      <trkpt lat="39.844032453457" lon="2.804373102853">
        <ele>239.8</ele>
        <time>2020-06-25T21:28:17Z</time>
        <extensions><gpxtpx:TrackPointExtension><gpxtpx:hr>160</gpxtpx:hr></gpxtpx:TrackPointExtension></extensions>
      </trkpt>
      <trkpt lat="39.843982832609" lon="2.804365726781">
        <ele>239.8</ele>
        <time>2020-06-25T21:28:18Z</time>
        <extensions><gpxtpx:TrackPointExtension><gpxtpx:hr>160</gpxtpx:hr></gpxtpx:TrackPointExtension></extensions>
      </trkpt>
      <trkpt lat="39.843929439906" lon="2.804357177243">
        <ele>240</ele>
        <time>2020-06-25T21:28:19Z</time>
        <extensions><gpxtpx:TrackPointExtension><gpxtpx:hr>160</gpxtpx:hr></gpxtpx:TrackPointExtension></extensions>
      </trkpt>
      <trkpt lat="39.843868419674" lon="2.80434401766">
        <ele>240.2</ele>
        <time>2020-06-25T21:28:20Z</time>
        <extensions><gpxtpx:TrackPointExtension><gpxtpx:hr>160</gpxtpx:hr></gpxtpx:TrackPointExtension></extensions>
      </trkpt>
      <trkpt lat="39.843815026971" lon="2.804320464521">
        <ele>240.6</ele>
        <time>2020-06-25T21:28:21Z</time>
        <extensions><gpxtpx:TrackPointExtension><gpxtpx:hr>160</gpxtpx:hr></gpxtpx:TrackPointExtension></extensions>
      </trkpt>
      <trkpt lat="39.843765406123" lon="2.804286098731">
        <ele>241</ele>
        <time>2020-06-25T21:28:22Z</time>
        <extensions><gpxtpx:TrackPointExtension><gpxtpx:hr>161</gpxtpx:hr></gpxtpx:TrackPointExtension></extensions>
      </trkpt>
      <trkpt lat="39.843731040333" lon="2.804254834244">
        <ele>241.2</ele>
        <time>2020-06-25T21:28:23Z</time>
        <extensions><gpxtpx:TrackPointExtension><gpxtpx:hr>160</gpxtpx:hr></gpxtpx:TrackPointExtension></extensions>
      </trkpt>
      <trkpt lat="39.843692902688" lon="2.804213176201">
        <ele>241.4</ele>
        <time>2020-06-25T21:28:25Z</time>
        <extensions><gpxtpx:TrackPointExtension><gpxtpx:hr>160</gpxtpx:hr></gpxtpx:TrackPointExtension></extensions>
      </trkpt>
      <trkpt lat="39.843658620717" lon="2.804165650828">
        <ele>241.8</ele>
        <time>2020-06-25T21:28:26Z</time>
        <extensions><gpxtpx:TrackPointExtension><gpxtpx:hr>158</gpxtpx:hr></gpxtpx:TrackPointExtension></extensions>
      </trkpt>
      <trkpt lat="39.843639509985" lon="2.804112761039">
        <ele>242.4</ele>
        <time>2020-06-25T21:28:27Z</time>
        <extensions><gpxtpx:TrackPointExtension><gpxtpx:hr>157</gpxtpx:hr></gpxtpx:TrackPointExtension></extensions>
      </trkpt>
      <trkpt lat="39.843631882456" lon="2.804064565114">
        <ele>242.6</ele>
        <time>2020-06-25T21:28:28Z</time>
        <extensions><gpxtpx:TrackPointExtension><gpxtpx:hr>157</gpxtpx:hr></gpxtpx:TrackPointExtension></extensions>
      </trkpt>
      <trkpt lat="39.843628110601" lon="2.804002371416">
        <ele>243</ele>
        <time>2020-06-25T21:28:29Z</time>
        <extensions><gpxtpx:TrackPointExtension><gpxtpx:hr>155</gpxtpx:hr></gpxtpx:TrackPointExtension></extensions>
      </trkpt>
      <trkpt lat="39.843616627398" lon="2.803937076415">
        <ele>243.4</ele>
        <time>2020-06-25T21:28:30Z</time>
        <extensions><gpxtpx:TrackPointExtension><gpxtpx:hr>154</gpxtpx:hr></gpxtpx:TrackPointExtension></extensions>
      </trkpt>
      <trkpt lat="39.843608999869" lon="2.803881252961">
        <ele>243.8</ele>
        <time>2020-06-25T21:28:31Z</time>
        <extensions><gpxtpx:TrackPointExtension><gpxtpx:hr>154</gpxtpx:hr></gpxtpx:TrackPointExtension></extensions>
      </trkpt>
      <trkpt lat="39.843597516666" lon="2.803824758955">
        <ele>244</ele>
        <time>2020-06-25T21:28:32Z</time>
        <extensions><gpxtpx:TrackPointExtension><gpxtpx:hr>154</gpxtpx:hr></gpxtpx:TrackPointExtension></extensions>
      </trkpt>
      <trkpt lat="39.843586117282" lon="2.803770863338">
        <ele>244.4</ele>
        <time>2020-06-25T21:28:33Z</time>
        <extensions><gpxtpx:TrackPointExtension><gpxtpx:hr>154</gpxtpx:hr></gpxtpx:TrackPointExtension></extensions>
      </trkpt>
      <trkpt lat="39.84356700655" lon="2.803723673241">
        <ele>245</ele>
        <time>2020-06-25T21:28:34Z</time>
        <extensions><gpxtpx:TrackPointExtension><gpxtpx:hr>154</gpxtpx:hr></gpxtpx:TrackPointExtension></extensions>
      </trkpt>
      <trkpt lat="39.843547979637" lon="2.80368100937">
        <ele>245.4</ele>
        <time>2020-06-25T21:28:35Z</time>
        <extensions><gpxtpx:TrackPointExtension><gpxtpx:hr>154</gpxtpx:hr></gpxtpx:TrackPointExtension></extensions>
      </trkpt>
      <trkpt lat="39.843502214463" lon="2.803641446802">
        <ele>245.6</ele>
        <time>2020-06-25T21:28:37Z</time>
        <extensions><gpxtpx:TrackPointExtension><gpxtpx:hr>155</gpxtpx:hr></gpxtpx:TrackPointExtension></extensions>
      </trkpt>
      <trkpt lat="39.843433482883" lon="2.803632813445">
        <ele>245.6</ele>
        <time>2020-06-25T21:28:38Z</time>
        <extensions><gpxtpx:TrackPointExtension><gpxtpx:hr>155</gpxtpx:hr></gpxtpx:TrackPointExtension></extensions>
      </trkpt>
      <trkpt lat="39.843357207593" lon="2.803657120955">
        <ele>246</ele>
        <time>2020-06-25T21:28:39Z</time>
        <extensions><gpxtpx:TrackPointExtension><gpxtpx:hr>155</gpxtpx:hr></gpxtpx:TrackPointExtension></extensions>
      </trkpt>
      <trkpt lat="39.843300043035" lon="2.803685032682">
        <ele>246.4</ele>
        <time>2020-06-25T21:28:40Z</time>
        <extensions><gpxtpx:TrackPointExtension><gpxtpx:hr>155</gpxtpx:hr></gpxtpx:TrackPointExtension></extensions>
      </trkpt>
      <trkpt lat="39.843246566513" lon="2.803710513658">
        <ele>247</ele>
        <time>2020-06-25T21:28:41Z</time>
        <extensions><gpxtpx:TrackPointExtension><gpxtpx:hr>156</gpxtpx:hr></gpxtpx:TrackPointExtension></extensions>
      </trkpt>
      <trkpt lat="39.843189401955" lon="2.803739179756">
        <ele>247.6</ele>
        <time>2020-06-25T21:28:42Z</time>
        <extensions><gpxtpx:TrackPointExtension><gpxtpx:hr>156</gpxtpx:hr></gpxtpx:TrackPointExtension></extensions>
      </trkpt>
      <trkpt lat="39.843136009252" lon="2.803767510578">
        <ele>248.2</ele>
        <time>2020-06-25T21:28:43Z</time>
        <extensions><gpxtpx:TrackPointExtension><gpxtpx:hr>156</gpxtpx:hr></gpxtpx:TrackPointExtension></extensions>
      </trkpt>
      <trkpt lat="39.843090160259" lon="2.803791398993">
        <ele>248.6</ele>
        <time>2020-06-25T21:28:44Z</time>
        <extensions><gpxtpx:TrackPointExtension><gpxtpx:hr>156</gpxtpx:hr></gpxtpx:TrackPointExtension></extensions>
      </trkpt>
      <trkpt lat="39.843048250759" lon="2.803814952132">
        <ele>249</ele>
        <time>2020-06-25T21:28:45Z</time>
        <extensions><gpxtpx:TrackPointExtension><gpxtpx:hr>156</gpxtpx:hr></gpxtpx:TrackPointExtension></extensions>
      </trkpt>
      <trkpt lat="39.84300625744" lon="2.803838086176">
        <ele>249.4</ele>
        <time>2020-06-25T21:28:46Z</time>
        <extensions><gpxtpx:TrackPointExtension><gpxtpx:hr>156</gpxtpx:hr></gpxtpx:TrackPointExtension></extensions>
      </trkpt>
      <trkpt lat="39.842956720411" lon="2.803866919912">
        <ele>249.8</ele>
        <time>2020-06-25T21:28:48Z</time>
        <extensions><gpxtpx:TrackPointExtension><gpxtpx:hr>156</gpxtpx:hr></gpxtpx:TrackPointExtension></extensions>
      </trkpt>
      <trkpt lat="39.84289561636" lon="2.803907739765">
        <ele>249.8</ele>
        <time>2020-06-25T21:28:49Z</time>
        <extensions><gpxtpx:TrackPointExtension><gpxtpx:hr>157</gpxtpx:hr></gpxtpx:TrackPointExtension></extensions>
      </trkpt>
      <trkpt lat="39.842838451802" lon="2.803951577102">
        <ele>249.8</ele>
        <time>2020-06-25T21:28:50Z</time>
        <extensions><gpxtpx:TrackPointExtension><gpxtpx:hr>157</gpxtpx:hr></gpxtpx:TrackPointExtension></extensions>
      </trkpt>
      <trkpt lat="39.84277743157" lon="2.804017626474">
        <ele>250.6</ele>
        <time>2020-06-25T21:28:51Z</time>
        <extensions><gpxtpx:TrackPointExtension><gpxtpx:hr>157</gpxtpx:hr></gpxtpx:TrackPointExtension></extensions>
      </trkpt>
      <trkpt lat="39.842735438251" lon="2.804071773548">
        <ele>251.2</ele>
        <time>2020-06-25T21:28:52Z</time>
        <extensions><gpxtpx:TrackPointExtension><gpxtpx:hr>157</gpxtpx:hr></gpxtpx:TrackPointExtension></extensions>
      </trkpt>
      <trkpt lat="39.842704928135" lon="2.804108737727">
        <ele>251.8</ele>
        <time>2020-06-25T21:28:53Z</time>
        <extensions><gpxtpx:TrackPointExtension><gpxtpx:hr>158</gpxtpx:hr></gpxtpx:TrackPointExtension></extensions>
      </trkpt>
      <trkpt lat="39.842674418019" lon="2.804147294467">
        <ele>252.2</ele>
        <time>2020-06-25T21:28:54Z</time>
        <extensions><gpxtpx:TrackPointExtension><gpxtpx:hr>159</gpxtpx:hr></gpxtpx:TrackPointExtension></extensions>
      </trkpt>
      <trkpt lat="39.842651535432" lon="2.804177134031">
        <ele>252.6</ele>
        <time>2020-06-25T21:28:55Z</time>
        <extensions><gpxtpx:TrackPointExtension><gpxtpx:hr>160</gpxtpx:hr></gpxtpx:TrackPointExtension></extensions>
      </trkpt>
      <trkpt lat="39.842624797171" lon="2.804213595296">
        <ele>253</ele>
        <time>2020-06-25T21:28:57Z</time>
        <extensions><gpxtpx:TrackPointExtension><gpxtpx:hr>160</gpxtpx:hr></gpxtpx:TrackPointExtension></extensions>
      </trkpt>
      <trkpt lat="39.842601914584" lon="2.804244608326">
        <ele>253.4</ele>
        <time>2020-06-25T21:28:58Z</time>
        <extensions><gpxtpx:TrackPointExtension><gpxtpx:hr>161</gpxtpx:hr></gpxtpx:TrackPointExtension></extensions>
      </trkpt>
      <trkpt lat="39.842575176323" lon="2.804280818134">
        <ele>253.8</ele>
        <time>2020-06-25T21:28:59Z</time>
        <extensions><gpxtpx:TrackPointExtension><gpxtpx:hr>161</gpxtpx:hr></gpxtpx:TrackPointExtension></extensions>
      </trkpt>
      <trkpt lat="39.842544666207" lon="2.804317111761">
        <ele>254.2</ele>
        <time>2020-06-25T21:29:00Z</time>
        <extensions><gpxtpx:TrackPointExtension><gpxtpx:hr>162</gpxtpx:hr></gpxtpx:TrackPointExtension></extensions>
      </trkpt>
      <trkpt lat="39.842518011765" lon="2.804353824483">
        <ele>254.8</ele>
        <time>2020-06-25T21:29:01Z</time>
        <extensions><gpxtpx:TrackPointExtension><gpxtpx:hr>162</gpxtpx:hr></gpxtpx:TrackPointExtension></extensions>
      </trkpt>
      <trkpt lat="39.842495129178" lon="2.804385508065">
        <ele>255</ele>
        <time>2020-06-25T21:29:02Z</time>
        <extensions><gpxtpx:TrackPointExtension><gpxtpx:hr>162</gpxtpx:hr></gpxtpx:TrackPointExtension></extensions>
      </trkpt>
      <trkpt lat="39.842472246591" lon="2.804417694561">
        <ele>255.4</ele>
        <time>2020-06-25T21:29:03Z</time>
        <extensions><gpxtpx:TrackPointExtension><gpxtpx:hr>162</gpxtpx:hr></gpxtpx:TrackPointExtension></extensions>
      </trkpt>
      <trkpt lat="39.84244550833" lon="2.804450132514">
        <ele>255.8</ele>
        <time>2020-06-25T21:29:04Z</time>
        <extensions><gpxtpx:TrackPointExtension><gpxtpx:hr>162</gpxtpx:hr></gpxtpx:TrackPointExtension></extensions>
      </trkpt>
      <trkpt lat="39.842418853888" lon="2.804488773073">
        <ele>256.4</ele>
        <time>2020-06-25T21:29:05Z</time>
        <extensions><gpxtpx:TrackPointExtension><gpxtpx:hr>162</gpxtpx:hr></gpxtpx:TrackPointExtension></extensions>
      </trkpt>
      <trkpt lat="39.842395887482" lon="2.804520205198">
        <ele>256.6</ele>
        <time>2020-06-25T21:29:06Z</time>
        <extensions><gpxtpx:TrackPointExtension><gpxtpx:hr>163</gpxtpx:hr></gpxtpx:TrackPointExtension></extensions>
      </trkpt>
      <trkpt lat="39.842365377366" lon="2.804558342843">
        <ele>257.2</ele>
        <time>2020-06-25T21:29:08Z</time>
        <extensions><gpxtpx:TrackPointExtension><gpxtpx:hr>163</gpxtpx:hr></gpxtpx:TrackPointExtension></extensions>
      </trkpt>
      <trkpt lat="39.842338722924" lon="2.80459631285">
        <ele>257.6</ele>
        <time>2020-06-25T21:29:09Z</time>
        <extensions><gpxtpx:TrackPointExtension><gpxtpx:hr>163</gpxtpx:hr></gpxtpx:TrackPointExtension></extensions>
      </trkpt>
      <trkpt lat="39.842311984663" lon="2.804628499346">
        <ele>258</ele>
        <time>2020-06-25T21:29:10Z</time>
        <extensions><gpxtpx:TrackPointExtension><gpxtpx:hr>163</gpxtpx:hr></gpxtpx:TrackPointExtension></extensions>
      </trkpt>
      <trkpt lat="39.842285330221" lon="2.804659428557">
        <ele>258.4</ele>
        <time>2020-06-25T21:29:11Z</time>
        <extensions><gpxtpx:TrackPointExtension><gpxtpx:hr>163</gpxtpx:hr></gpxtpx:TrackPointExtension></extensions>
      </trkpt>
      <trkpt lat="39.842254820105" lon="2.804691195958">
        <ele>259</ele>
        <time>2020-06-25T21:29:12Z</time>
        <extensions><gpxtpx:TrackPointExtension><gpxtpx:hr>164</gpxtpx:hr></gpxtpx:TrackPointExtension></extensions>
      </trkpt>
      <trkpt lat="39.84222422617" lon="2.80471952678">
        <ele>259.4</ele>
        <time>2020-06-25T21:29:13Z</time>
        <extensions><gpxtpx:TrackPointExtension><gpxtpx:hr>164</gpxtpx:hr></gpxtpx:TrackPointExtension></extensions>
      </trkpt>
      <trkpt lat="39.842201343583" lon="2.80474215791">
        <ele>259.8</ele>
        <time>2020-06-25T21:29:14Z</time>
        <extensions><gpxtpx:TrackPointExtension><gpxtpx:hr>164</gpxtpx:hr></gpxtpx:TrackPointExtension></extensions>
      </trkpt>
      <trkpt lat="39.842174689141" lon="2.804764872859">
        <ele>260.2</ele>
        <time>2020-06-25T21:29:15Z</time>
        <extensions><gpxtpx:TrackPointExtension><gpxtpx:hr>164</gpxtpx:hr></gpxtpx:TrackPointExtension></extensions>
      </trkpt>
      <trkpt lat="39.84214795088" lon="2.804795634432">
        <ele>260.8</ele>
        <time>2020-06-25T21:29:16Z</time>
        <extensions><gpxtpx:TrackPointExtension><gpxtpx:hr>164</gpxtpx:hr></gpxtpx:TrackPointExtension></extensions>
      </trkpt>
      <trkpt lat="39.842113668909" lon="2.804828994394">
        <ele>261.2</ele>
        <time>2020-06-25T21:29:18Z</time>
        <extensions><gpxtpx:TrackPointExtension><gpxtpx:hr>164</gpxtpx:hr></gpxtpx:TrackPointExtension></extensions>
      </trkpt>
      <trkpt lat="39.842086930648" lon="2.80485782813">
        <ele>261.6</ele>
        <time>2020-06-25T21:29:19Z</time>
        <extensions><gpxtpx:TrackPointExtension><gpxtpx:hr>165</gpxtpx:hr></gpxtpx:TrackPointExtension></extensions>
      </trkpt>
      <trkpt lat="39.842056420532" lon="2.804886158952">
        <ele>262</ele>
        <time>2020-06-25T21:29:20Z</time>
        <extensions><gpxtpx:TrackPointExtension><gpxtpx:hr>165</gpxtpx:hr></gpxtpx:TrackPointExtension></extensions>
      </trkpt>
      <trkpt lat="39.842022054742" lon="2.804918848362">
        <ele>262.6</ele>
        <time>2020-06-25T21:29:21Z</time>
        <extensions><gpxtpx:TrackPointExtension><gpxtpx:hr>165</gpxtpx:hr></gpxtpx:TrackPointExtension></extensions>
      </trkpt>
      <trkpt lat="39.841987772771" lon="2.804944329338">
        <ele>262.6</ele>
        <time>2020-06-25T21:29:22Z</time>
        <extensions><gpxtpx:TrackPointExtension><gpxtpx:hr>165</gpxtpx:hr></gpxtpx:TrackPointExtension></extensions>
      </trkpt>
      <trkpt lat="39.841926752539" lon="2.804979617137">
        <ele>262.6</ele>
        <time>2020-06-25T21:29:23Z</time>
        <extensions><gpxtpx:TrackPointExtension><gpxtpx:hr>164</gpxtpx:hr></gpxtpx:TrackPointExtension></extensions>
      </trkpt>
      <trkpt lat="39.841854249104" lon="2.805019012067">
        <ele>262.8</ele>
        <time>2020-06-25T21:29:24Z</time>
        <extensions><gpxtpx:TrackPointExtension><gpxtpx:hr>164</gpxtpx:hr></gpxtpx:TrackPointExtension></extensions>
      </trkpt>
      <trkpt lat="39.841789373198" lon="2.805054048409">
        <ele>263.6</ele>
        <time>2020-06-25T21:29:25Z</time>
        <extensions><gpxtpx:TrackPointExtension><gpxtpx:hr>164</gpxtpx:hr></gpxtpx:TrackPointExtension></extensions>
      </trkpt>
      <trkpt lat="39.841735980495" lon="2.805083636516">
        <ele>264.2</ele>
        <time>2020-06-25T21:29:27Z</time>
        <extensions><gpxtpx:TrackPointExtension><gpxtpx:hr>164</gpxtpx:hr></gpxtpx:TrackPointExtension></extensions>
      </trkpt>
      <trkpt lat="39.841690215321" lon="2.805108363121">
        <ele>264.8</ele>
        <time>2020-06-25T21:29:28Z</time>
        <extensions><gpxtpx:TrackPointExtension><gpxtpx:hr>164</gpxtpx:hr></gpxtpx:TrackPointExtension></extensions>
      </trkpt>
      <trkpt lat="39.841655849531" lon="2.805126719482">
        <ele>265.2</ele>
        <time>2020-06-25T21:29:29Z</time>
        <extensions><gpxtpx:TrackPointExtension><gpxtpx:hr>163</gpxtpx:hr></gpxtpx:TrackPointExtension></extensions>
      </trkpt>
      <trkpt lat="39.841617711886" lon="2.805147758051">
        <ele>265.6</ele>
        <time>2020-06-25T21:29:30Z</time>
        <extensions><gpxtpx:TrackPointExtension><gpxtpx:hr>163</gpxtpx:hr></gpxtpx:TrackPointExtension></extensions>
      </trkpt>
      <trkpt lat="39.841575802386" lon="2.805168712801">
        <ele>266</ele>
        <time>2020-06-25T21:29:31Z</time>
        <extensions><gpxtpx:TrackPointExtension><gpxtpx:hr>162</gpxtpx:hr></gpxtpx:TrackPointExtension></extensions>
      </trkpt>
      <trkpt lat="39.841537580922" lon="2.805189919008">
        <ele>266.6</ele>
        <time>2020-06-25T21:29:32Z</time>
        <extensions><gpxtpx:TrackPointExtension><gpxtpx:hr>162</gpxtpx:hr></gpxtpx:TrackPointExtension></extensions>
      </trkpt>
      <trkpt lat="39.841503298951" lon="2.805207856274">
        <ele>267</ele>
        <time>2020-06-25T21:29:33Z</time>
        <extensions><gpxtpx:TrackPointExtension><gpxtpx:hr>162</gpxtpx:hr></gpxtpx:TrackPointExtension></extensions>
      </trkpt>
      <trkpt lat="39.841461305632" lon="2.805229733033">
        <ele>267.4</ele>
        <time>2020-06-25T21:29:35Z</time>
        <extensions><gpxtpx:TrackPointExtension><gpxtpx:hr>162</gpxtpx:hr></gpxtpx:TrackPointExtension></extensions>
      </trkpt>
      <trkpt lat="39.841423167987" lon="2.805248089394">
        <ele>267.8</ele>
        <time>2020-06-25T21:29:36Z</time>
        <extensions><gpxtpx:TrackPointExtension><gpxtpx:hr>162</gpxtpx:hr></gpxtpx:TrackPointExtension></extensions>
      </trkpt>
      <trkpt lat="39.841388886016" lon="2.805266194298">
        <ele>268.2</ele>
        <time>2020-06-25T21:29:37Z</time>
        <extensions><gpxtpx:TrackPointExtension><gpxtpx:hr>162</gpxtpx:hr></gpxtpx:TrackPointExtension></extensions>
      </trkpt>
      <trkpt lat="39.841350664552" lon="2.805283125736">
        <ele>268.6</ele>
        <time>2020-06-25T21:29:38Z</time>
        <extensions><gpxtpx:TrackPointExtension><gpxtpx:hr>162</gpxtpx:hr></gpxtpx:TrackPointExtension></extensions>
      </trkpt>
      <trkpt lat="39.841308755052" lon="2.805301985011">
        <ele>269.2</ele>
        <time>2020-06-25T21:29:39Z</time>
        <extensions><gpxtpx:TrackPointExtension><gpxtpx:hr>162</gpxtpx:hr></gpxtpx:TrackPointExtension></extensions>
      </trkpt>
      <trkpt lat="39.841270617407" lon="2.805317240069">
        <ele>269.6</ele>
        <time>2020-06-25T21:29:40Z</time>
        <extensions><gpxtpx:TrackPointExtension><gpxtpx:hr>162</gpxtpx:hr></gpxtpx:TrackPointExtension></extensions>
      </trkpt>
      <trkpt lat="39.841232479762" lon="2.805332076032">
        <ele>270</ele>
        <time>2020-06-25T21:29:41Z</time>
        <extensions><gpxtpx:TrackPointExtension><gpxtpx:hr>162</gpxtpx:hr></gpxtpx:TrackPointExtension></extensions>
      </trkpt>
      <trkpt lat="39.841198113972" lon="2.805347498728">
        <ele>270.4</ele>
        <time>2020-06-25T21:29:42Z</time>
        <extensions><gpxtpx:TrackPointExtension><gpxtpx:hr>162</gpxtpx:hr></gpxtpx:TrackPointExtension></extensions>
      </trkpt>
      <trkpt lat="39.841140865595" lon="2.805365435994">
        <ele>270.4</ele>
        <time>2020-06-25T21:29:43Z</time>
        <extensions><gpxtpx:TrackPointExtension><gpxtpx:hr>163</gpxtpx:hr></gpxtpx:TrackPointExtension></extensions>
      </trkpt>
      <trkpt lat="39.841072217834" lon="2.805379517586">
        <ele>270.4</ele>
        <time>2020-06-25T21:29:44Z</time>
        <extensions><gpxtpx:TrackPointExtension><gpxtpx:hr>163</gpxtpx:hr></gpxtpx:TrackPointExtension></extensions>
      </trkpt>
      <trkpt lat="39.841014969457" lon="2.805384714364">
        <ele>271</ele>
        <time>2020-06-25T21:29:45Z</time>
        <extensions><gpxtpx:TrackPointExtension><gpxtpx:hr>163</gpxtpx:hr></gpxtpx:TrackPointExtension></extensions>
      </trkpt>
      <trkpt lat="39.840965432428" lon="2.805387312753">
        <ele>271.6</ele>
        <time>2020-06-25T21:29:46Z</time>
        <extensions><gpxtpx:TrackPointExtension><gpxtpx:hr>163</gpxtpx:hr></gpxtpx:TrackPointExtension></extensions>
      </trkpt>
      <trkpt lat="39.840927294783" lon="2.805386893658">
        <ele>272.2</ele>
        <time>2020-06-25T21:29:47Z</time>
        <extensions><gpxtpx:TrackPointExtension><gpxtpx:hr>163</gpxtpx:hr></gpxtpx:TrackPointExtension></extensions>
      </trkpt>
      <trkpt lat="39.840885301464" lon="2.80538588783">
        <ele>272.6</ele>
        <time>2020-06-25T21:29:48Z</time>
        <extensions><gpxtpx:TrackPointExtension><gpxtpx:hr>163</gpxtpx:hr></gpxtpx:TrackPointExtension></extensions>
      </trkpt>
      <trkpt lat="39.840854791348" lon="2.805385217278">
        <ele>273</ele>
        <time>2020-06-25T21:29:49Z</time>
        <extensions><gpxtpx:TrackPointExtension><gpxtpx:hr>163</gpxtpx:hr></gpxtpx:TrackPointExtension></extensions>
      </trkpt>
      <trkpt lat="39.840824281232" lon="2.805384462907">
        <ele>273.4</ele>
        <time>2020-06-25T21:29:50Z</time>
        <extensions><gpxtpx:TrackPointExtension><gpxtpx:hr>163</gpxtpx:hr></gpxtpx:TrackPointExtension></extensions>
      </trkpt>
      <trkpt lat="39.840786143587" lon="2.805383289441">
        <ele>274</ele>
        <time>2020-06-25T21:29:52Z</time>
        <extensions><gpxtpx:TrackPointExtension><gpxtpx:hr>163</gpxtpx:hr></gpxtpx:TrackPointExtension></extensions>
      </trkpt>
      <trkpt lat="39.840744150268" lon="2.805379014672">
        <ele>274.4</ele>
        <time>2020-06-25T21:29:53Z</time>
        <extensions><gpxtpx:TrackPointExtension><gpxtpx:hr>163</gpxtpx:hr></gpxtpx:TrackPointExtension></extensions>
      </trkpt>
      <trkpt lat="39.840706012623" lon="2.805371387143">
        <ele>274.8</ele>
        <time>2020-06-25T21:29:54Z</time>
        <extensions><gpxtpx:TrackPointExtension><gpxtpx:hr>162</gpxtpx:hr></gpxtpx:TrackPointExtension></extensions>
      </trkpt>
      <trkpt lat="39.840656391775" lon="2.805359484845">
        <ele>275.2</ele>
        <time>2020-06-25T21:29:55Z</time>
        <extensions><gpxtpx:TrackPointExtension><gpxtpx:hr>162</gpxtpx:hr></gpxtpx:TrackPointExtension></extensions>
      </trkpt>
      <trkpt lat="39.840606854746" lon="2.805347750185">
        <ele>275.6</ele>
        <time>2020-06-25T21:29:56Z</time>
        <extensions><gpxtpx:TrackPointExtension><gpxtpx:hr>162</gpxtpx:hr></gpxtpx:TrackPointExtension></extensions>
      </trkpt>
      <trkpt lat="39.840561089572" lon="2.805339452104">
        <ele>275.8</ele>
        <time>2020-06-25T21:29:57Z</time>
        <extensions><gpxtpx:TrackPointExtension><gpxtpx:hr>162</gpxtpx:hr></gpxtpx:TrackPointExtension></extensions>
      </trkpt>
      <trkpt lat="39.840522868108" lon="2.805331070204">
        <ele>276.2</ele>
        <time>2020-06-25T21:29:58Z</time>
        <extensions><gpxtpx:TrackPointExtension><gpxtpx:hr>163</gpxtpx:hr></gpxtpx:TrackPointExtension></extensions>
      </trkpt>
      <trkpt lat="39.840473331079" lon="2.8053213472">
        <ele>276.6</ele>
        <time>2020-06-25T21:29:59Z</time>
        <extensions><gpxtpx:TrackPointExtension><gpxtpx:hr>163</gpxtpx:hr></gpxtpx:TrackPointExtension></extensions>
      </trkpt>
      <trkpt lat="39.840419938376" lon="2.805311037463">
        <ele>277</ele>
        <time>2020-06-25T21:30:01Z</time>
        <extensions><gpxtpx:TrackPointExtension><gpxtpx:hr>164</gpxtpx:hr></gpxtpx:TrackPointExtension></extensions>
      </trkpt>
      <trkpt lat="39.840377945057" lon="2.805308941988">
        <ele>277.4</ele>
        <time>2020-06-25T21:30:02Z</time>
        <extensions><gpxtpx:TrackPointExtension><gpxtpx:hr>164</gpxtpx:hr></gpxtpx:TrackPointExtension></extensions>
      </trkpt>
      <trkpt lat="39.840332179883" lon="2.805312210929">
        <ele>278</ele>
        <time>2020-06-25T21:30:03Z</time>
        <extensions><gpxtpx:TrackPointExtension><gpxtpx:hr>164</gpxtpx:hr></gpxtpx:TrackPointExtension></extensions>
      </trkpt>
      <trkpt lat="39.840290186564" lon="2.805320592829">
        <ele>278.4</ele>
        <time>2020-06-25T21:30:04Z</time>
        <extensions><gpxtpx:TrackPointExtension><gpxtpx:hr>164</gpxtpx:hr></gpxtpx:TrackPointExtension></extensions>
      </trkpt>
      <trkpt lat="39.84024442139" lon="2.80533224367">
        <ele>278.8</ele>
        <time>2020-06-25T21:30:05Z</time>
        <extensions><gpxtpx:TrackPointExtension><gpxtpx:hr>164</gpxtpx:hr></gpxtpx:TrackPointExtension></extensions>
      </trkpt>
      <trkpt lat="39.840194884361" lon="2.805344397425">
        <ele>279.2</ele>
        <time>2020-06-25T21:30:06Z</time>
        <extensions><gpxtpx:TrackPointExtension><gpxtpx:hr>164</gpxtpx:hr></gpxtpx:TrackPointExtension></extensions>
      </trkpt>
      <trkpt lat="39.840145263513" lon="2.805356802637">
        <ele>279.6</ele>
        <time>2020-06-25T21:30:08Z</time>
        <extensions><gpxtpx:TrackPointExtension><gpxtpx:hr>164</gpxtpx:hr></gpxtpx:TrackPointExtension></extensions>
      </trkpt>
      <trkpt lat="39.840103270194" lon="2.805367531469">
        <ele>280</ele>
        <time>2020-06-25T21:30:09Z</time>
        <extensions><gpxtpx:TrackPointExtension><gpxtpx:hr>164</gpxtpx:hr></gpxtpx:TrackPointExtension></extensions>
      </trkpt>
      <trkpt lat="39.840053733165" lon="2.805380188138">
        <ele>280.4</ele>
        <time>2020-06-25T21:30:10Z</time>
        <extensions><gpxtpx:TrackPointExtension><gpxtpx:hr>164</gpxtpx:hr></gpxtpx:TrackPointExtension></extensions>
      </trkpt>
      <trkpt lat="39.840011739846" lon="2.805390665513">
        <ele>280.8</ele>
        <time>2020-06-25T21:30:11Z</time>
        <extensions><gpxtpx:TrackPointExtension><gpxtpx:hr>165</gpxtpx:hr></gpxtpx:TrackPointExtension></extensions>
      </trkpt>
      <trkpt lat="39.839958347143" lon="2.805403322182">
        <ele>281.2</ele>
        <time>2020-06-25T21:30:12Z</time>
        <extensions><gpxtpx:TrackPointExtension><gpxtpx:hr>165</gpxtpx:hr></gpxtpx:TrackPointExtension></extensions>
      </trkpt>
      <trkpt lat="39.839908726295" lon="2.805415727394">
        <ele>281.6</ele>
        <time>2020-06-25T21:30:13Z</time>
        <extensions><gpxtpx:TrackPointExtension><gpxtpx:hr>165</gpxtpx:hr></gpxtpx:TrackPointExtension></extensions>
      </trkpt>
      <trkpt lat="39.839862961121" lon="2.805426204769">
        <ele>282</ele>
        <time>2020-06-25T21:30:14Z</time>
        <extensions><gpxtpx:TrackPointExtension><gpxtpx:hr>165</gpxtpx:hr></gpxtpx:TrackPointExtension></extensions>
      </trkpt>
      <trkpt lat="39.839805712744" lon="2.805439112895">
        <ele>282.6</ele>
        <time>2020-06-25T21:30:15Z</time>
        <extensions><gpxtpx:TrackPointExtension><gpxtpx:hr>165</gpxtpx:hr></gpxtpx:TrackPointExtension></extensions>
      </trkpt>
      <trkpt lat="39.839752320041" lon="2.80545126665">
        <ele>283</ele>
        <time>2020-06-25T21:30:17Z</time>
        <extensions><gpxtpx:TrackPointExtension><gpxtpx:hr>166</gpxtpx:hr></gpxtpx:TrackPointExtension></extensions>
      </trkpt>
      <trkpt lat="39.839702783012" lon="2.805461492568">
        <ele>283.6</ele>
        <time>2020-06-25T21:30:18Z</time>
        <extensions><gpxtpx:TrackPointExtension><gpxtpx:hr>166</gpxtpx:hr></gpxtpx:TrackPointExtension></extensions>
      </trkpt>
      <trkpt lat="39.839664561548" lon="2.805469874468">
        <ele>284</ele>
        <time>2020-06-25T21:30:19Z</time>
        <extensions><gpxtpx:TrackPointExtension><gpxtpx:hr>165</gpxtpx:hr></gpxtpx:TrackPointExtension></extensions>
      </trkpt>
      <trkpt lat="39.839615024519" lon="2.805479346015">
        <ele>284.4</ele>
        <time>2020-06-25T21:30:20Z</time>
        <extensions><gpxtpx:TrackPointExtension><gpxtpx:hr>165</gpxtpx:hr></gpxtpx:TrackPointExtension></extensions>
      </trkpt>
      <trkpt lat="39.8395730312" lon="2.805488649924">
        <ele>285</ele>
        <time>2020-06-25T21:30:21Z</time>
        <extensions><gpxtpx:TrackPointExtension><gpxtpx:hr>165</gpxtpx:hr></gpxtpx:TrackPointExtension></extensions>
      </trkpt>
      <trkpt lat="39.839534893555" lon="2.805496277453">
        <ele>285.4</ele>
        <time>2020-06-25T21:30:22Z</time>
        <extensions><gpxtpx:TrackPointExtension><gpxtpx:hr>165</gpxtpx:hr></gpxtpx:TrackPointExtension></extensions>
      </trkpt>
      <trkpt lat="39.839489128381" lon="2.805505581362">
        <ele>285.8</ele>
        <time>2020-06-25T21:30:23Z</time>
        <extensions><gpxtpx:TrackPointExtension><gpxtpx:hr>165</gpxtpx:hr></gpxtpx:TrackPointExtension></extensions>
      </trkpt>
      <trkpt lat="39.839450990736" lon="2.805513711805">
        <ele>286.2</ele>
        <time>2020-06-25T21:30:24Z</time>
        <extensions><gpxtpx:TrackPointExtension><gpxtpx:hr>165</gpxtpx:hr></gpxtpx:TrackPointExtension></extensions>
      </trkpt>
      <trkpt lat="39.839401369888" lon="2.805523686266">
        <ele>286.8</ele>
        <time>2020-06-25T21:30:26Z</time>
        <extensions><gpxtpx:TrackPointExtension><gpxtpx:hr>165</gpxtpx:hr></gpxtpx:TrackPointExtension></extensions>
      </trkpt>
      <trkpt lat="39.839363232243" lon="2.805533241632">
        <ele>287.2</ele>
        <time>2020-06-25T21:30:27Z</time>
        <extensions><gpxtpx:TrackPointExtension><gpxtpx:hr>165</gpxtpx:hr></gpxtpx:TrackPointExtension></extensions>
      </trkpt>
      <trkpt lat="39.839313611395" lon="2.805545898301">
        <ele>287.6</ele>
        <time>2020-06-25T21:30:28Z</time>
        <extensions><gpxtpx:TrackPointExtension><gpxtpx:hr>165</gpxtpx:hr></gpxtpx:TrackPointExtension></extensions>
      </trkpt>
      <trkpt lat="39.83927547375" lon="2.805557381504">
        <ele>288</ele>
        <time>2020-06-25T21:30:29Z</time>
        <extensions><gpxtpx:TrackPointExtension><gpxtpx:hr>165</gpxtpx:hr></gpxtpx:TrackPointExtension></extensions>
      </trkpt>
      <trkpt lat="39.839225936721" lon="2.805572385105">
        <ele>288.6</ele>
        <time>2020-06-25T21:30:30Z</time>
        <extensions><gpxtpx:TrackPointExtension><gpxtpx:hr>165</gpxtpx:hr></gpxtpx:TrackPointExtension></extensions>
      </trkpt>
      <trkpt lat="39.839180171547" lon="2.805588813629">
        <ele>288.6</ele>
        <time>2020-06-25T21:30:31Z</time>
        <extensions><gpxtpx:TrackPointExtension><gpxtpx:hr>165</gpxtpx:hr></gpxtpx:TrackPointExtension></extensions>
      </trkpt>
      <trkpt lat="39.839115295641" lon="2.805618150279">
        <ele>288.6</ele>
        <time>2020-06-25T21:30:32Z</time>
        <extensions><gpxtpx:TrackPointExtension><gpxtpx:hr>165</gpxtpx:hr></gpxtpx:TrackPointExtension></extensions>
      </trkpt>
      <trkpt lat="39.83904664788" lon="2.805658634856">
        <ele>289.2</ele>
        <time>2020-06-25T21:30:34Z</time>
        <extensions><gpxtpx:TrackPointExtension><gpxtpx:hr>165</gpxtpx:hr></gpxtpx:TrackPointExtension></extensions>
      </trkpt>
      <trkpt lat="39.839000882706" lon="2.805690821352">
        <ele>289.8</ele>
        <time>2020-06-25T21:30:35Z</time>
        <extensions><gpxtpx:TrackPointExtension><gpxtpx:hr>165</gpxtpx:hr></gpxtpx:TrackPointExtension></extensions>
      </trkpt>
      <trkpt lat="39.838955033713" lon="2.805721834382">
        <ele>290.4</ele>
        <time>2020-06-25T21:30:36Z</time>
        <extensions><gpxtpx:TrackPointExtension><gpxtpx:hr>165</gpxtpx:hr></gpxtpx:TrackPointExtension></extensions>
      </trkpt>
      <trkpt lat="39.838920751742" lon="2.805745219883">
        <ele>290.8</ele>
        <time>2020-06-25T21:30:37Z</time>
        <extensions><gpxtpx:TrackPointExtension><gpxtpx:hr>165</gpxtpx:hr></gpxtpx:TrackPointExtension></extensions>
      </trkpt>
      <trkpt lat="39.838894013481" lon="2.805762402778">
        <ele>291.2</ele>
        <time>2020-06-25T21:30:38Z</time>
        <extensions><gpxtpx:TrackPointExtension><gpxtpx:hr>165</gpxtpx:hr></gpxtpx:TrackPointExtension></extensions>
      </trkpt>
      <trkpt lat="39.838867359039" lon="2.805779753311">
        <ele>291.6</ele>
        <time>2020-06-25T21:30:39Z</time>
        <extensions><gpxtpx:TrackPointExtension><gpxtpx:hr>165</gpxtpx:hr></gpxtpx:TrackPointExtension></extensions>
      </trkpt>
      <trkpt lat="39.838840620778" lon="2.805798361129">
        <ele>292</ele>
        <time>2020-06-25T21:30:40Z</time>
        <extensions><gpxtpx:TrackPointExtension><gpxtpx:hr>164</gpxtpx:hr></gpxtpx:TrackPointExtension></extensions>
      </trkpt>
      <trkpt lat="39.838806254988" lon="2.805822249544">
        <ele>292.4</ele>
        <time>2020-06-25T21:30:41Z</time>
        <extensions><gpxtpx:TrackPointExtension><gpxtpx:hr>164</gpxtpx:hr></gpxtpx:TrackPointExtension></extensions>
      </trkpt>
      <trkpt lat="39.838775744872" lon="2.80584270138">
        <ele>292.8</ele>
        <time>2020-06-25T21:30:42Z</time>
        <extensions><gpxtpx:TrackPointExtension><gpxtpx:hr>164</gpxtpx:hr></gpxtpx:TrackPointExtension></extensions>
      </trkpt>
      <trkpt lat="39.838741462901" lon="2.805862985578">
        <ele>293.2</ele>
        <time>2020-06-25T21:30:43Z</time>
        <extensions><gpxtpx:TrackPointExtension><gpxtpx:hr>165</gpxtpx:hr></gpxtpx:TrackPointExtension></extensions>
      </trkpt>
      <trkpt lat="39.838707097111" lon="2.805885365251">
        <ele>293.6</ele>
        <time>2020-06-25T21:30:44Z</time>
        <extensions><gpxtpx:TrackPointExtension><gpxtpx:hr>165</gpxtpx:hr></gpxtpx:TrackPointExtension></extensions>
      </trkpt>
      <trkpt lat="39.838680442669" lon="2.805902799603">
        <ele>294</ele>
        <time>2020-06-25T21:30:45Z</time>
        <extensions><gpxtpx:TrackPointExtension><gpxtpx:hr>165</gpxtpx:hr></gpxtpx:TrackPointExtension></extensions>
      </trkpt>
      <trkpt lat="39.838646076879" lon="2.805923586715">
        <ele>294.4</ele>
        <time>2020-06-25T21:30:47Z</time>
        <extensions><gpxtpx:TrackPointExtension><gpxtpx:hr>165</gpxtpx:hr></gpxtpx:TrackPointExtension></extensions>
      </trkpt>
      <trkpt lat="39.838619338618" lon="2.805941188705">
        <ele>294.8</ele>
        <time>2020-06-25T21:30:48Z</time>
        <extensions><gpxtpx:TrackPointExtension><gpxtpx:hr>165</gpxtpx:hr></gpxtpx:TrackPointExtension></extensions>
      </trkpt>
      <trkpt lat="39.838585056647" lon="2.805962394912">
        <ele>295.2</ele>
        <time>2020-06-25T21:30:49Z</time>
        <extensions><gpxtpx:TrackPointExtension><gpxtpx:hr>165</gpxtpx:hr></gpxtpx:TrackPointExtension></extensions>
      </trkpt>
      <trkpt lat="39.838554546531" lon="2.805980080721">
        <ele>295.6</ele>
        <time>2020-06-25T21:30:50Z</time>
        <extensions><gpxtpx:TrackPointExtension><gpxtpx:hr>166</gpxtpx:hr></gpxtpx:TrackPointExtension></extensions>
      </trkpt>
      <trkpt lat="39.838524036415" lon="2.805997682711">
        <ele>296</ele>
        <time>2020-06-25T21:30:51Z</time>
        <extensions><gpxtpx:TrackPointExtension><gpxtpx:hr>166</gpxtpx:hr></gpxtpx:TrackPointExtension></extensions>
      </trkpt>
      <trkpt lat="39.83848589877" lon="2.806017966909">
        <ele>296.4</ele>
        <time>2020-06-25T21:30:52Z</time>
        <extensions><gpxtpx:TrackPointExtension><gpxtpx:hr>165</gpxtpx:hr></gpxtpx:TrackPointExtension></extensions>
      </trkpt>
      <trkpt lat="39.838447677306" lon="2.806037077641">
        <ele>297</ele>
        <time>2020-06-25T21:30:53Z</time>
        <extensions><gpxtpx:TrackPointExtension><gpxtpx:hr>165</gpxtpx:hr></gpxtpx:TrackPointExtension></extensions>
      </trkpt>
      <trkpt lat="39.838405767806" lon="2.806056607468">
        <ele>297.2</ele>
        <time>2020-06-25T21:30:54Z</time>
        <extensions><gpxtpx:TrackPointExtension><gpxtpx:hr>165</gpxtpx:hr></gpxtpx:TrackPointExtension></extensions>
      </trkpt>
      <trkpt lat="39.838367630161" lon="2.806073538906">
        <ele>297.6</ele>
        <time>2020-06-25T21:30:55Z</time>
        <extensions><gpxtpx:TrackPointExtension><gpxtpx:hr>165</gpxtpx:hr></gpxtpx:TrackPointExtension></extensions>
      </trkpt>
      <trkpt lat="39.838318009313" lon="2.806094242199">
        <ele>298</ele>
        <time>2020-06-25T21:30:57Z</time>
        <extensions><gpxtpx:TrackPointExtension><gpxtpx:hr>165</gpxtpx:hr></gpxtpx:TrackPointExtension></extensions>
      </trkpt>
      <trkpt lat="39.838276015994" lon="2.806111425094">
        <ele>298.4</ele>
        <time>2020-06-25T21:30:58Z</time>
        <extensions><gpxtpx:TrackPointExtension><gpxtpx:hr>164</gpxtpx:hr></gpxtpx:TrackPointExtension></extensions>
      </trkpt>
      <trkpt lat="39.838222623291" lon="2.806131206378">
        <ele>298.8</ele>
        <time>2020-06-25T21:30:59Z</time>
        <extensions><gpxtpx:TrackPointExtension><gpxtpx:hr>164</gpxtpx:hr></gpxtpx:TrackPointExtension></extensions>
      </trkpt>
      <trkpt lat="39.838173086262" lon="2.806150484748">
        <ele>299.2</ele>
        <time>2020-06-25T21:31:00Z</time>
        <extensions><gpxtpx:TrackPointExtension><gpxtpx:hr>164</gpxtpx:hr></gpxtpx:TrackPointExtension></extensions>
      </trkpt>
      <trkpt lat="39.838134948617" lon="2.806165991263">
        <ele>299.4</ele>
        <time>2020-06-25T21:31:01Z</time>
        <extensions><gpxtpx:TrackPointExtension><gpxtpx:hr>164</gpxtpx:hr></gpxtpx:TrackPointExtension></extensions>
      </trkpt>
      <trkpt lat="39.838085327769" lon="2.806184179986">
        <ele>299.8</ele>
        <time>2020-06-25T21:31:02Z</time>
        <extensions><gpxtpx:TrackPointExtension><gpxtpx:hr>164</gpxtpx:hr></gpxtpx:TrackPointExtension></extensions>
      </trkpt>
      <trkpt lat="39.838039562595" lon="2.80620228489">
        <ele>300.2</ele>
        <time>2020-06-25T21:31:03Z</time>
        <extensions><gpxtpx:TrackPointExtension><gpxtpx:hr>164</gpxtpx:hr></gpxtpx:TrackPointExtension></extensions>
      </trkpt>
      <trkpt lat="39.83800142495" lon="2.806217037034">
        <ele>300.6</ele>
        <time>2020-06-25T21:31:04Z</time>
        <extensions><gpxtpx:TrackPointExtension><gpxtpx:hr>164</gpxtpx:hr></gpxtpx:TrackPointExtension></extensions>
      </trkpt>
      <trkpt lat="39.837959431631" lon="2.806231789178">
        <ele>300.8</ele>
        <time>2020-06-25T21:31:05Z</time>
        <extensions><gpxtpx:TrackPointExtension><gpxtpx:hr>163</gpxtpx:hr></gpxtpx:TrackPointExtension></extensions>
      </trkpt>
      <trkpt lat="39.837913666457" lon="2.806250145539">
        <ele>301.2</ele>
        <time>2020-06-25T21:31:07Z</time>
        <extensions><gpxtpx:TrackPointExtension><gpxtpx:hr>163</gpxtpx:hr></gpxtpx:TrackPointExtension></extensions>
      </trkpt>
      <trkpt lat="39.837875528812" lon="2.806266406425">
        <ele>301.6</ele>
        <time>2020-06-25T21:31:08Z</time>
        <extensions><gpxtpx:TrackPointExtension><gpxtpx:hr>163</gpxtpx:hr></gpxtpx:TrackPointExtension></extensions>
      </trkpt>
      <trkpt lat="39.837837391167" lon="2.806283337863">
        <ele>301.8</ele>
        <time>2020-06-25T21:31:09Z</time>
        <extensions><gpxtpx:TrackPointExtension><gpxtpx:hr>162</gpxtpx:hr></gpxtpx:TrackPointExtension></extensions>
      </trkpt>
      <trkpt lat="39.837803025377" lon="2.806300017844">
        <ele>302.2</ele>
        <time>2020-06-25T21:31:10Z</time>
        <extensions><gpxtpx:TrackPointExtension><gpxtpx:hr>162</gpxtpx:hr></gpxtpx:TrackPointExtension></extensions>
      </trkpt>
      <trkpt lat="39.837768659587" lon="2.806317200739">
        <ele>302.4</ele>
        <time>2020-06-25T21:31:11Z</time>
        <extensions><gpxtpx:TrackPointExtension><gpxtpx:hr>162</gpxtpx:hr></gpxtpx:TrackPointExtension></extensions>
      </trkpt>
      <trkpt lat="39.837730521942" lon="2.806335054186">
        <ele>302.8</ele>
        <time>2020-06-25T21:31:12Z</time>
        <extensions><gpxtpx:TrackPointExtension><gpxtpx:hr>162</gpxtpx:hr></gpxtpx:TrackPointExtension></extensions>
      </trkpt>
      <trkpt lat="39.837696239971" lon="2.806353913461">
        <ele>303</ele>
        <time>2020-06-25T21:31:13Z</time>
        <extensions><gpxtpx:TrackPointExtension><gpxtpx:hr>162</gpxtpx:hr></gpxtpx:TrackPointExtension></extensions>
      </trkpt>
      <trkpt lat="39.837661874181" lon="2.806376293134">
        <ele>303.4</ele>
        <time>2020-06-25T21:31:14Z</time>
        <extensions><gpxtpx:TrackPointExtension><gpxtpx:hr>162</gpxtpx:hr></gpxtpx:TrackPointExtension></extensions>
      </trkpt>
      <trkpt lat="39.837619964681" lon="2.806403953404">
        <ele>303.6</ele>
        <time>2020-06-25T21:31:15Z</time>
        <extensions><gpxtpx:TrackPointExtension><gpxtpx:hr>163</gpxtpx:hr></gpxtpx:TrackPointExtension></extensions>
      </trkpt>
      <trkpt lat="39.837574115688" lon="2.80644116904">
        <ele>303.8</ele>
        <time>2020-06-25T21:31:16Z</time>
        <extensions><gpxtpx:TrackPointExtension><gpxtpx:hr>163</gpxtpx:hr></gpxtpx:TrackPointExtension></extensions>
      </trkpt>
      <trkpt lat="39.837532206188" lon="2.80647385845">
        <ele>304.2</ele>
        <time>2020-06-25T21:31:17Z</time>
        <extensions><gpxtpx:TrackPointExtension><gpxtpx:hr>163</gpxtpx:hr></gpxtpx:TrackPointExtension></extensions>
      </trkpt>
      <trkpt lat="39.837490212869" lon="2.806505793489">
        <ele>304.4</ele>
        <time>2020-06-25T21:31:18Z</time>
        <extensions><gpxtpx:TrackPointExtension><gpxtpx:hr>164</gpxtpx:hr></gpxtpx:TrackPointExtension></extensions>
      </trkpt>
      <trkpt lat="39.837448303369" lon="2.806534124311">
        <ele>304.6</ele>
        <time>2020-06-25T21:31:19Z</time>
        <extensions><gpxtpx:TrackPointExtension><gpxtpx:hr>164</gpxtpx:hr></gpxtpx:TrackPointExtension></extensions>
      </trkpt>
      <trkpt lat="39.837398682521" lon="2.806567065178">
        <ele>305</ele>
        <time>2020-06-25T21:31:20Z</time>
        <extensions><gpxtpx:TrackPointExtension><gpxtpx:hr>165</gpxtpx:hr></gpxtpx:TrackPointExtension></extensions>
      </trkpt>
      <trkpt lat="39.837349061673" lon="2.806597575294">
        <ele>305.4</ele>
        <time>2020-06-25T21:31:21Z</time>
        <extensions><gpxtpx:TrackPointExtension><gpxtpx:hr>164</gpxtpx:hr></gpxtpx:TrackPointExtension></extensions>
      </trkpt>
      <trkpt lat="39.837307152173" lon="2.806620206424">
        <ele>305.8</ele>
        <time>2020-06-25T21:31:22Z</time>
        <extensions><gpxtpx:TrackPointExtension><gpxtpx:hr>164</gpxtpx:hr></gpxtpx:TrackPointExtension></extensions>
      </trkpt>
      <trkpt lat="39.837269014528" lon="2.80663479093">
        <ele>306.2</ele>
        <time>2020-06-25T21:31:24Z</time>
        <extensions><gpxtpx:TrackPointExtension><gpxtpx:hr>164</gpxtpx:hr></gpxtpx:TrackPointExtension></extensions>
      </trkpt>
      <trkpt lat="39.837238420593" lon="2.806640993536">
        <ele>306.6</ele>
        <time>2020-06-25T21:31:25Z</time>
        <extensions><gpxtpx:TrackPointExtension><gpxtpx:hr>163</gpxtpx:hr></gpxtpx:TrackPointExtension></extensions>
      </trkpt>
      <trkpt lat="39.837207910477" lon="2.806642586097">
        <ele>306.8</ele>
        <time>2020-06-25T21:31:26Z</time>
        <extensions><gpxtpx:TrackPointExtension><gpxtpx:hr>163</gpxtpx:hr></gpxtpx:TrackPointExtension></extensions>
      </trkpt>
      <trkpt lat="39.837169772832" lon="2.806642586097">
        <ele>307</ele>
        <time>2020-06-25T21:31:27Z</time>
        <extensions><gpxtpx:TrackPointExtension><gpxtpx:hr>164</gpxtpx:hr></gpxtpx:TrackPointExtension></extensions>
      </trkpt>
      <trkpt lat="39.837131635187" lon="2.806641664088">
        <ele>307.2</ele>
        <time>2020-06-25T21:31:28Z</time>
        <extensions><gpxtpx:TrackPointExtension><gpxtpx:hr>162</gpxtpx:hr></gpxtpx:TrackPointExtension></extensions>
      </trkpt>
      <trkpt lat="39.837082014339" lon="2.806640490622">
        <ele>307.6</ele>
        <time>2020-06-25T21:31:29Z</time>
        <extensions><gpxtpx:TrackPointExtension><gpxtpx:hr>162</gpxtpx:hr></gpxtpx:TrackPointExtension></extensions>
      </trkpt>
      <trkpt lat="39.837028621636" lon="2.806638814242">
        <ele>308</ele>
        <time>2020-06-25T21:31:30Z</time>
        <extensions><gpxtpx:TrackPointExtension><gpxtpx:hr>162</gpxtpx:hr></gpxtpx:TrackPointExtension></extensions>
      </trkpt>
      <trkpt lat="39.836975228933" lon="2.806634288016">
        <ele>308.4</ele>
        <time>2020-06-25T21:31:31Z</time>
        <extensions><gpxtpx:TrackPointExtension><gpxtpx:hr>162</gpxtpx:hr></gpxtpx:TrackPointExtension></extensions>
      </trkpt>
      <trkpt lat="39.836940946962" lon="2.806627582496">
        <ele>308.8</ele>
        <time>2020-06-25T21:31:32Z</time>
        <extensions><gpxtpx:TrackPointExtension><gpxtpx:hr>162</gpxtpx:hr></gpxtpx:TrackPointExtension></extensions>
      </trkpt>
      <trkpt lat="39.836906581172" lon="2.806619954967">
        <ele>309.4</ele>
        <time>2020-06-25T21:31:33Z</time>
        <extensions><gpxtpx:TrackPointExtension><gpxtpx:hr>161</gpxtpx:hr></gpxtpx:TrackPointExtension></extensions>
      </trkpt>
      <trkpt lat="39.836879842911" lon="2.806613752361">
        <ele>309.6</ele>
        <time>2020-06-25T21:31:34Z</time>
        <extensions><gpxtpx:TrackPointExtension><gpxtpx:hr>161</gpxtpx:hr></gpxtpx:TrackPointExtension></extensions>
      </trkpt>
      <trkpt lat="39.83684556094" lon="2.806606376289">
        <ele>310</ele>
        <time>2020-06-25T21:31:36Z</time>
        <extensions><gpxtpx:TrackPointExtension><gpxtpx:hr>161</gpxtpx:hr></gpxtpx:TrackPointExtension></extensions>
      </trkpt>
      <trkpt lat="39.836815050824" lon="2.806599000217">
        <ele>310.4</ele>
        <time>2020-06-25T21:31:37Z</time>
        <extensions><gpxtpx:TrackPointExtension><gpxtpx:hr>161</gpxtpx:hr></gpxtpx:TrackPointExtension></extensions>
      </trkpt>
      <trkpt lat="39.83676928565" lon="2.806588941937">
        <ele>311</ele>
        <time>2020-06-25T21:31:38Z</time>
        <extensions><gpxtpx:TrackPointExtension><gpxtpx:hr>161</gpxtpx:hr></gpxtpx:TrackPointExtension></extensions>
      </trkpt>
      <trkpt lat="39.836723436657" lon="2.806578716019">
        <ele>311.6</ele>
        <time>2020-06-25T21:31:39Z</time>
        <extensions><gpxtpx:TrackPointExtension><gpxtpx:hr>161</gpxtpx:hr></gpxtpx:TrackPointExtension></extensions>
      </trkpt>
      <trkpt lat="39.836685299012" lon="2.806570585576">
        <ele>312</ele>
        <time>2020-06-25T21:31:40Z</time>
        <extensions><gpxtpx:TrackPointExtension><gpxtpx:hr>161</gpxtpx:hr></gpxtpx:TrackPointExtension></extensions>
      </trkpt>
      <trkpt lat="39.836639533838" lon="2.806562287495">
        <ele>312.6</ele>
        <time>2020-06-25T21:31:41Z</time>
        <extensions><gpxtpx:TrackPointExtension><gpxtpx:hr>162</gpxtpx:hr></gpxtpx:TrackPointExtension></extensions>
      </trkpt>
      <trkpt lat="39.836601396193" lon="2.80655516288">
        <ele>313.2</ele>
        <time>2020-06-25T21:31:42Z</time>
        <extensions><gpxtpx:TrackPointExtension><gpxtpx:hr>162</gpxtpx:hr></gpxtpx:TrackPointExtension></extensions>
      </trkpt>
      <trkpt lat="39.836559402874" lon="2.806549127912">
        <ele>313.6</ele>
        <time>2020-06-25T21:31:44Z</time>
        <extensions><gpxtpx:TrackPointExtension><gpxtpx:hr>162</gpxtpx:hr></gpxtpx:TrackPointExtension></extensions>
      </trkpt>
      <trkpt lat="39.836528892758" lon="2.806544434048">
        <ele>314</ele>
        <time>2020-06-25T21:31:45Z</time>
        <extensions><gpxtpx:TrackPointExtension><gpxtpx:hr>162</gpxtpx:hr></gpxtpx:TrackPointExtension></extensions>
      </trkpt>
      <trkpt lat="39.836490755113" lon="2.806539824003">
        <ele>314.6</ele>
        <time>2020-06-25T21:31:46Z</time>
        <extensions><gpxtpx:TrackPointExtension><gpxtpx:hr>162</gpxtpx:hr></gpxtpx:TrackPointExtension></extensions>
      </trkpt>
      <trkpt lat="39.836448845613" lon="2.806536303605">
        <ele>315</ele>
        <time>2020-06-25T21:31:47Z</time>
        <extensions><gpxtpx:TrackPointExtension><gpxtpx:hr>162</gpxtpx:hr></gpxtpx:TrackPointExtension></extensions>
      </trkpt>
      <trkpt lat="39.836418335497" lon="2.806534124311">
        <ele>315.4</ele>
        <time>2020-06-25T21:31:48Z</time>
        <extensions><gpxtpx:TrackPointExtension><gpxtpx:hr>162</gpxtpx:hr></gpxtpx:TrackPointExtension></extensions>
      </trkpt>
      <trkpt lat="39.836376342178" lon="2.806534124311">
        <ele>315.8</ele>
        <time>2020-06-25T21:31:49Z</time>
        <extensions><gpxtpx:TrackPointExtension><gpxtpx:hr>162</gpxtpx:hr></gpxtpx:TrackPointExtension></extensions>
      </trkpt>
      <trkpt lat="39.836334348859" lon="2.806536555062">
        <ele>316.2</ele>
        <time>2020-06-25T21:31:50Z</time>
        <extensions><gpxtpx:TrackPointExtension><gpxtpx:hr>162</gpxtpx:hr></gpxtpx:TrackPointExtension></extensions>
      </trkpt>
      <trkpt lat="39.836280956156" lon="2.806541332745">
        <ele>316.6</ele>
        <time>2020-06-25T21:31:51Z</time>
        <extensions><gpxtpx:TrackPointExtension><gpxtpx:hr>162</gpxtpx:hr></gpxtpx:TrackPointExtension></extensions>
      </trkpt>
      <trkpt lat="39.836235190982" lon="2.806546529523">
        <ele>316.8</ele>
        <time>2020-06-25T21:31:52Z</time>
        <extensions><gpxtpx:TrackPointExtension><gpxtpx:hr>162</gpxtpx:hr></gpxtpx:TrackPointExtension></extensions>
      </trkpt>
      <trkpt lat="39.836177942605" lon="2.806553654138">
        <ele>317.2</ele>
        <time>2020-06-25T21:31:54Z</time>
        <extensions><gpxtpx:TrackPointExtension><gpxtpx:hr>162</gpxtpx:hr></gpxtpx:TrackPointExtension></extensions>
      </trkpt>
      <trkpt lat="39.836124549902" lon="2.806561784581">
        <ele>317.6</ele>
        <time>2020-06-25T21:31:55Z</time>
        <extensions><gpxtpx:TrackPointExtension><gpxtpx:hr>162</gpxtpx:hr></gpxtpx:TrackPointExtension></extensions>
      </trkpt>
      <trkpt lat="39.836082640402" lon="2.806568909196">
        <ele>318</ele>
        <time>2020-06-25T21:31:56Z</time>
        <extensions><gpxtpx:TrackPointExtension><gpxtpx:hr>162</gpxtpx:hr></gpxtpx:TrackPointExtension></extensions>
      </trkpt>
      <trkpt lat="39.83602916388" lon="2.80657779401">
        <ele>318.4</ele>
        <time>2020-06-25T21:31:57Z</time>
        <extensions><gpxtpx:TrackPointExtension><gpxtpx:hr>162</gpxtpx:hr></gpxtpx:TrackPointExtension></extensions>
      </trkpt>
      <trkpt lat="39.835975771177" lon="2.806587097919">
        <ele>318.8</ele>
        <time>2020-06-25T21:31:58Z</time>
        <extensions><gpxtpx:TrackPointExtension><gpxtpx:hr>162</gpxtpx:hr></gpxtpx:TrackPointExtension></extensions>
      </trkpt>
      <trkpt lat="39.835918606619" lon="2.80659707238">
        <ele>319.2</ele>
        <time>2020-06-25T21:31:59Z</time>
        <extensions><gpxtpx:TrackPointExtension><gpxtpx:hr>162</gpxtpx:hr></gpxtpx:TrackPointExtension></extensions>
      </trkpt>
      <trkpt lat="39.835861358242" lon="2.806608052669">
        <ele>319.6</ele>
        <time>2020-06-25T21:32:01Z</time>
        <extensions><gpxtpx:TrackPointExtension><gpxtpx:hr>162</gpxtpx:hr></gpxtpx:TrackPointExtension></extensions>
      </trkpt>
      <trkpt lat="39.835804109865" lon="2.806619032958">
        <ele>320</ele>
        <time>2020-06-25T21:32:02Z</time>
        <extensions><gpxtpx:TrackPointExtension><gpxtpx:hr>162</gpxtpx:hr></gpxtpx:TrackPointExtension></extensions>
      </trkpt>
      <trkpt lat="39.835746945307" lon="2.806630432342">
        <ele>320.4</ele>
        <time>2020-06-25T21:32:03Z</time>
        <extensions><gpxtpx:TrackPointExtension><gpxtpx:hr>162</gpxtpx:hr></gpxtpx:TrackPointExtension></extensions>
      </trkpt>
      <trkpt lat="39.83568969693" lon="2.806641664088">
        <ele>320.8</ele>
        <time>2020-06-25T21:32:04Z</time>
        <extensions><gpxtpx:TrackPointExtension><gpxtpx:hr>162</gpxtpx:hr></gpxtpx:TrackPointExtension></extensions>
      </trkpt>
      <trkpt lat="39.835636304227" lon="2.806652644377">
        <ele>321.2</ele>
        <time>2020-06-25T21:32:05Z</time>
        <extensions><gpxtpx:TrackPointExtension><gpxtpx:hr>162</gpxtpx:hr></gpxtpx:TrackPointExtension></extensions>
      </trkpt>
      <trkpt lat="39.835586683379" lon="2.806661445372">
        <ele>321.6</ele>
        <time>2020-06-25T21:32:06Z</time>
        <extensions><gpxtpx:TrackPointExtension><gpxtpx:hr>162</gpxtpx:hr></gpxtpx:TrackPointExtension></extensions>
      </trkpt>
      <trkpt lat="39.83554469006" lon="2.806669324358">
        <ele>322</ele>
        <time>2020-06-25T21:32:07Z</time>
        <extensions><gpxtpx:TrackPointExtension><gpxtpx:hr>162</gpxtpx:hr></gpxtpx:TrackPointExtension></extensions>
      </trkpt>
      <trkpt lat="39.835491297357" lon="2.806678125353">
        <ele>322.4</ele>
        <time>2020-06-25T21:32:09Z</time>
        <extensions><gpxtpx:TrackPointExtension><gpxtpx:hr>162</gpxtpx:hr></gpxtpx:TrackPointExtension></extensions>
      </trkpt>
      <trkpt lat="39.835441760328" lon="2.806686926348">
        <ele>322.8</ele>
        <time>2020-06-25T21:32:10Z</time>
        <extensions><gpxtpx:TrackPointExtension><gpxtpx:hr>163</gpxtpx:hr></gpxtpx:TrackPointExtension></extensions>
      </trkpt>
      <trkpt lat="39.835388367625" lon="2.806695056791">
        <ele>323.2</ele>
        <time>2020-06-25T21:32:11Z</time>
        <extensions><gpxtpx:TrackPointExtension><gpxtpx:hr>163</gpxtpx:hr></gpxtpx:TrackPointExtension></extensions>
      </trkpt>
      <trkpt lat="39.835338746777" lon="2.806703438691">
        <ele>323.6</ele>
        <time>2020-06-25T21:32:12Z</time>
        <extensions><gpxtpx:TrackPointExtension><gpxtpx:hr>163</gpxtpx:hr></gpxtpx:TrackPointExtension></extensions>
      </trkpt>
      <trkpt lat="39.835285354074" lon="2.806711736772">
        <ele>324</ele>
        <time>2020-06-25T21:32:13Z</time>
        <extensions><gpxtpx:TrackPointExtension><gpxtpx:hr>164</gpxtpx:hr></gpxtpx:TrackPointExtension></extensions>
      </trkpt>
      <trkpt lat="39.835235733226" lon="2.806720370129">
        <ele>324.6</ele>
        <time>2020-06-25T21:32:15Z</time>
        <extensions><gpxtpx:TrackPointExtension><gpxtpx:hr>164</gpxtpx:hr></gpxtpx:TrackPointExtension></extensions>
      </trkpt>
      <trkpt lat="39.835182340523" lon="2.80672866821">
        <ele>325</ele>
        <time>2020-06-25T21:32:16Z</time>
        <extensions><gpxtpx:TrackPointExtension><gpxtpx:hr>164</gpxtpx:hr></gpxtpx:TrackPointExtension></extensions>
      </trkpt>
      <trkpt lat="39.83512894782" lon="2.806736798653">
        <ele>325.4</ele>
        <time>2020-06-25T21:32:17Z</time>
        <extensions><gpxtpx:TrackPointExtension><gpxtpx:hr>165</gpxtpx:hr></gpxtpx:TrackPointExtension></extensions>
      </trkpt>
      <trkpt lat="39.835075555117" lon="2.806745180553">
        <ele>325.8</ele>
        <time>2020-06-25T21:32:18Z</time>
        <extensions><gpxtpx:TrackPointExtension><gpxtpx:hr>165</gpxtpx:hr></gpxtpx:TrackPointExtension></extensions>
      </trkpt>
      <trkpt lat="39.835029706124" lon="2.806752305168">
        <ele>326.2</ele>
        <time>2020-06-25T21:32:19Z</time>
        <extensions><gpxtpx:TrackPointExtension><gpxtpx:hr>165</gpxtpx:hr></gpxtpx:TrackPointExtension></extensions>
      </trkpt>
      <trkpt lat="39.83498394095" lon="2.806759178326">
        <ele>326.6</ele>
        <time>2020-06-25T21:32:20Z</time>
        <extensions><gpxtpx:TrackPointExtension><gpxtpx:hr>165</gpxtpx:hr></gpxtpx:TrackPointExtension></extensions>
      </trkpt>
      <trkpt lat="39.834938175776" lon="2.806766135303">
        <ele>327</ele>
        <time>2020-06-25T21:32:21Z</time>
        <extensions><gpxtpx:TrackPointExtension><gpxtpx:hr>165</gpxtpx:hr></gpxtpx:TrackPointExtension></extensions>
      </trkpt>
      <trkpt lat="39.834884783073" lon="2.806773762832">
        <ele>327.4</ele>
        <time>2020-06-25T21:32:22Z</time>
        <extensions><gpxtpx:TrackPointExtension><gpxtpx:hr>165</gpxtpx:hr></gpxtpx:TrackPointExtension></extensions>
      </trkpt>
      <trkpt lat="39.834839017899" lon="2.806778037601">
        <ele>327.8</ele>
        <time>2020-06-25T21:32:23Z</time>
        <extensions><gpxtpx:TrackPointExtension><gpxtpx:hr>165</gpxtpx:hr></gpxtpx:TrackPointExtension></extensions>
      </trkpt>
      <trkpt lat="39.834793252725" lon="2.806780887447">
        <ele>328</ele>
        <time>2020-06-25T21:32:24Z</time>
        <extensions><gpxtpx:TrackPointExtension><gpxtpx:hr>165</gpxtpx:hr></gpxtpx:TrackPointExtension></extensions>
      </trkpt>
      <trkpt lat="39.834743631877" lon="2.806782060913">
        <ele>328.4</ele>
        <time>2020-06-25T21:32:25Z</time>
        <extensions><gpxtpx:TrackPointExtension><gpxtpx:hr>165</gpxtpx:hr></gpxtpx:TrackPointExtension></extensions>
      </trkpt>
      <trkpt lat="39.834682611645" lon="2.806782815284">
        <ele>328.8</ele>
        <time>2020-06-25T21:32:27Z</time>
        <extensions><gpxtpx:TrackPointExtension><gpxtpx:hr>165</gpxtpx:hr></gpxtpx:TrackPointExtension></extensions>
      </trkpt>
      <trkpt lat="39.834629218942" lon="2.80678231237">
        <ele>329.2</ele>
        <time>2020-06-25T21:32:28Z</time>
        <extensions><gpxtpx:TrackPointExtension><gpxtpx:hr>166</gpxtpx:hr></gpxtpx:TrackPointExtension></extensions>
      </trkpt>
      <trkpt lat="39.834583453768" lon="2.806771583538">
        <ele>329.8</ele>
        <time>2020-06-25T21:32:29Z</time>
        <extensions><gpxtpx:TrackPointExtension><gpxtpx:hr>166</gpxtpx:hr></gpxtpx:TrackPointExtension></extensions>
      </trkpt>
      <trkpt lat="39.83453383292" lon="2.806750628788">
        <ele>330.4</ele>
        <time>2020-06-25T21:32:30Z</time>
        <extensions><gpxtpx:TrackPointExtension><gpxtpx:hr>166</gpxtpx:hr></gpxtpx:TrackPointExtension></extensions>
      </trkpt>
      <trkpt lat="39.834491839601" lon="2.806729841676">
        <ele>330.8</ele>
        <time>2020-06-25T21:32:31Z</time>
        <extensions><gpxtpx:TrackPointExtension><gpxtpx:hr>166</gpxtpx:hr></gpxtpx:TrackPointExtension></extensions>
      </trkpt>
      <trkpt lat="39.83445755763" lon="2.8067127426">
        <ele>331.2</ele>
        <time>2020-06-25T21:32:32Z</time>
        <extensions><gpxtpx:TrackPointExtension><gpxtpx:hr>166</gpxtpx:hr></gpxtpx:TrackPointExtension></extensions>
      </trkpt>
      <trkpt lat="39.834419419985" lon="2.806695056791">
        <ele>331.6</ele>
        <time>2020-06-25T21:32:33Z</time>
        <extensions><gpxtpx:TrackPointExtension><gpxtpx:hr>166</gpxtpx:hr></gpxtpx:TrackPointExtension></extensions>
      </trkpt>
      <trkpt lat="39.834373654811" lon="2.806673850584">
        <ele>332</ele>
        <time>2020-06-25T21:32:34Z</time>
        <extensions><gpxtpx:TrackPointExtension><gpxtpx:hr>167</gpxtpx:hr></gpxtpx:TrackPointExtension></extensions>
      </trkpt>
      <trkpt lat="39.834331661492" lon="2.806653566386">
        <ele>332.4</ele>
        <time>2020-06-25T21:32:35Z</time>
        <extensions><gpxtpx:TrackPointExtension><gpxtpx:hr>167</gpxtpx:hr></gpxtpx:TrackPointExtension></extensions>
      </trkpt>
      <trkpt lat="39.834297295702" lon="2.806637640776">
        <ele>332.8</ele>
        <time>2020-06-25T21:32:36Z</time>
        <extensions><gpxtpx:TrackPointExtension><gpxtpx:hr>167</gpxtpx:hr></gpxtpx:TrackPointExtension></extensions>
      </trkpt>
      <trkpt lat="39.834259158057" lon="2.80661802713">
        <ele>333.2</ele>
        <time>2020-06-25T21:32:38Z</time>
        <extensions><gpxtpx:TrackPointExtension><gpxtpx:hr>167</gpxtpx:hr></gpxtpx:TrackPointExtension></extensions>
      </trkpt>
      <trkpt lat="39.834217248557" lon="2.806597826751">
        <ele>333.6</ele>
        <time>2020-06-25T21:32:39Z</time>
        <extensions><gpxtpx:TrackPointExtension><gpxtpx:hr>167</gpxtpx:hr></gpxtpx:TrackPointExtension></extensions>
      </trkpt>
      <trkpt lat="39.834182882767" lon="2.806580392399">
        <ele>333.8</ele>
        <time>2020-06-25T21:32:40Z</time>
        <extensions><gpxtpx:TrackPointExtension><gpxtpx:hr>167</gpxtpx:hr></gpxtpx:TrackPointExtension></extensions>
      </trkpt>
      <trkpt lat="39.834140889448" lon="2.806557761269">
        <ele>334.4</ele>
        <time>2020-06-25T21:32:41Z</time>
        <extensions><gpxtpx:TrackPointExtension><gpxtpx:hr>167</gpxtpx:hr></gpxtpx:TrackPointExtension></extensions>
      </trkpt>
      <trkpt lat="39.834102751803" lon="2.806538231442">
        <ele>334.6</ele>
        <time>2020-06-25T21:32:42Z</time>
        <extensions><gpxtpx:TrackPointExtension><gpxtpx:hr>166</gpxtpx:hr></gpxtpx:TrackPointExtension></extensions>
      </trkpt>
      <trkpt lat="39.834068469832" lon="2.806517947244">
        <ele>335</ele>
        <time>2020-06-25T21:32:43Z</time>
        <extensions><gpxtpx:TrackPointExtension><gpxtpx:hr>166</gpxtpx:hr></gpxtpx:TrackPointExtension></extensions>
      </trkpt>
      <trkpt lat="39.834026476513" lon="2.806492633906">
        <ele>335.4</ele>
        <time>2020-06-25T21:32:44Z</time>
        <extensions><gpxtpx:TrackPointExtension><gpxtpx:hr>166</gpxtpx:hr></gpxtpx:TrackPointExtension></extensions>
      </trkpt>
      <trkpt lat="39.833980711339" lon="2.80646547655">
        <ele>336</ele>
        <time>2020-06-25T21:32:45Z</time>
        <extensions><gpxtpx:TrackPointExtension><gpxtpx:hr>166</gpxtpx:hr></gpxtpx:TrackPointExtension></extensions>
      </trkpt>
      <trkpt lat="39.833942573694" lon="2.806429685837">
        <ele>336</ele>
        <time>2020-06-25T21:32:46Z</time>
        <extensions><gpxtpx:TrackPointExtension><gpxtpx:hr>166</gpxtpx:hr></gpxtpx:TrackPointExtension></extensions>
      </trkpt>
      <trkpt lat="39.833900580375" lon="2.806365312845">
        <ele>336.6</ele>
        <time>2020-06-25T21:32:48Z</time>
        <extensions><gpxtpx:TrackPointExtension><gpxtpx:hr>165</gpxtpx:hr></gpxtpx:TrackPointExtension></extensions>
      </trkpt>
      <trkpt lat="39.833881553462" lon="2.806311668685">
        <ele>337.2</ele>
        <time>2020-06-25T21:32:49Z</time>
        <extensions><gpxtpx:TrackPointExtension><gpxtpx:hr>165</gpxtpx:hr></gpxtpx:TrackPointExtension></extensions>
      </trkpt>
      <trkpt lat="39.833866298404" lon="2.806248050064">
        <ele>337.2</ele>
        <time>2020-06-25T21:32:50Z</time>
        <extensions><gpxtpx:TrackPointExtension><gpxtpx:hr>165</gpxtpx:hr></gpxtpx:TrackPointExtension></extensions>
      </trkpt>
      <trkpt lat="39.833877697788" lon="2.806174121706">
        <ele>337.4</ele>
        <time>2020-06-25T21:32:51Z</time>
        <extensions><gpxtpx:TrackPointExtension><gpxtpx:hr>164</gpxtpx:hr></gpxtpx:TrackPointExtension></extensions>
      </trkpt>
      <trkpt lat="39.83389680852" lon="2.806101199176">
        <ele>337.8</ele>
        <time>2020-06-25T21:32:52Z</time>
        <extensions><gpxtpx:TrackPointExtension><gpxtpx:hr>164</gpxtpx:hr></gpxtpx:TrackPointExtension></extensions>
      </trkpt>
      <trkpt lat="39.833923462962" lon="2.806028192827">
        <ele>338</ele>
        <time>2020-06-25T21:32:53Z</time>
        <extensions><gpxtpx:TrackPointExtension><gpxtpx:hr>164</gpxtpx:hr></gpxtpx:TrackPointExtension></extensions>
      </trkpt>
      <trkpt lat="39.833957828752" lon="2.805942865085">
        <ele>338.4</ele>
        <time>2020-06-25T21:32:54Z</time>
        <extensions><gpxtpx:TrackPointExtension><gpxtpx:hr>164</gpxtpx:hr></gpxtpx:TrackPointExtension></extensions>
      </trkpt>
      <trkpt lat="39.833992110723" lon="2.805857285886">
        <ele>338.8</ele>
        <time>2020-06-25T21:32:55Z</time>
        <extensions><gpxtpx:TrackPointExtension><gpxtpx:hr>164</gpxtpx:hr></gpxtpx:TrackPointExtension></extensions>
      </trkpt>
      <trkpt lat="39.834022704658" lon="2.805785955917">
        <ele>339</ele>
        <time>2020-06-25T21:32:56Z</time>
        <extensions><gpxtpx:TrackPointExtension><gpxtpx:hr>164</gpxtpx:hr></gpxtpx:TrackPointExtension></extensions>
      </trkpt>
      <trkpt lat="39.834053214774" lon="2.80571613469">
        <ele>339.2</ele>
        <time>2020-06-25T21:32:57Z</time>
        <extensions><gpxtpx:TrackPointExtension><gpxtpx:hr>165</gpxtpx:hr></gpxtpx:TrackPointExtension></extensions>
      </trkpt>
      <trkpt lat="39.834087496745" lon="2.80563483026">
        <ele>339.6</ele>
        <time>2020-06-25T21:32:58Z</time>
        <extensions><gpxtpx:TrackPointExtension><gpxtpx:hr>165</gpxtpx:hr></gpxtpx:TrackPointExtension></extensions>
      </trkpt>
      <trkpt lat="39.834121862535" lon="2.805555872762">
        <ele>340</ele>
        <time>2020-06-25T21:32:59Z</time>
        <extensions><gpxtpx:TrackPointExtension><gpxtpx:hr>165</gpxtpx:hr></gpxtpx:TrackPointExtension></extensions>
      </trkpt>
      <trkpt lat="39.834156144506" lon="2.805479178377">
        <ele>340.2</ele>
        <time>2020-06-25T21:33:01Z</time>
        <extensions><gpxtpx:TrackPointExtension><gpxtpx:hr>166</gpxtpx:hr></gpxtpx:TrackPointExtension></extensions>
      </trkpt>
      <trkpt lat="39.834182882767" lon="2.805416230308">
        <ele>340.4</ele>
        <time>2020-06-25T21:33:02Z</time>
        <extensions><gpxtpx:TrackPointExtension><gpxtpx:hr>166</gpxtpx:hr></gpxtpx:TrackPointExtension></extensions>
      </trkpt>
      <trkpt lat="39.834213392883" lon="2.805342050493">
        <ele>340.8</ele>
        <time>2020-06-25T21:33:03Z</time>
        <extensions><gpxtpx:TrackPointExtension><gpxtpx:hr>166</gpxtpx:hr></gpxtpx:TrackPointExtension></extensions>
      </trkpt>
      <trkpt lat="39.834240131144" lon="2.805280778804">
        <ele>341</ele>
        <time>2020-06-25T21:33:04Z</time>
        <extensions><gpxtpx:TrackPointExtension><gpxtpx:hr>166</gpxtpx:hr></gpxtpx:TrackPointExtension></extensions>
      </trkpt>
      <trkpt lat="39.83427064126" lon="2.805208275369">
        <ele>341.4</ele>
        <time>2020-06-25T21:33:05Z</time>
        <extensions><gpxtpx:TrackPointExtension><gpxtpx:hr>166</gpxtpx:hr></gpxtpx:TrackPointExtension></extensions>
      </trkpt>
      <trkpt lat="39.834293523847" lon="2.805149182974">
        <ele>341.6</ele>
        <time>2020-06-25T21:33:06Z</time>
        <extensions><gpxtpx:TrackPointExtension><gpxtpx:hr>166</gpxtpx:hr></gpxtpx:TrackPointExtension></extensions>
      </trkpt>
      <trkpt lat="39.834316406434" lon="2.805091431683">
        <ele>342</ele>
        <time>2020-06-25T21:33:07Z</time>
        <extensions><gpxtpx:TrackPointExtension><gpxtpx:hr>166</gpxtpx:hr></gpxtpx:TrackPointExtension></extensions>
      </trkpt>
      <trkpt lat="39.834335433347" lon="2.805036194962">
        <ele>342.4</ele>
        <time>2020-06-25T21:33:08Z</time>
        <extensions><gpxtpx:TrackPointExtension><gpxtpx:hr>166</gpxtpx:hr></gpxtpx:TrackPointExtension></extensions>
      </trkpt>
      <trkpt lat="39.834362171608" lon="2.804973414531">
        <ele>342.6</ele>
        <time>2020-06-25T21:33:09Z</time>
        <extensions><gpxtpx:TrackPointExtension><gpxtpx:hr>166</gpxtpx:hr></gpxtpx:TrackPointExtension></extensions>
      </trkpt>
      <trkpt lat="39.83438128234" lon="2.804924128959">
        <ele>343</ele>
        <time>2020-06-25T21:33:10Z</time>
        <extensions><gpxtpx:TrackPointExtension><gpxtpx:hr>166</gpxtpx:hr></gpxtpx:TrackPointExtension></extensions>
      </trkpt>
      <trkpt lat="39.834404164927" lon="2.804867802591">
        <ele>343.2</ele>
        <time>2020-06-25T21:33:11Z</time>
        <extensions><gpxtpx:TrackPointExtension><gpxtpx:hr>166</gpxtpx:hr></gpxtpx:TrackPointExtension></extensions>
      </trkpt>
      <trkpt lat="39.83442319184" lon="2.804822037417">
        <ele>343.6</ele>
        <time>2020-06-25T21:33:12Z</time>
        <extensions><gpxtpx:TrackPointExtension><gpxtpx:hr>166</gpxtpx:hr></gpxtpx:TrackPointExtension></extensions>
      </trkpt>
      <trkpt lat="39.834446074427" lon="2.804767722705">
        <ele>343.8</ele>
        <time>2020-06-25T21:33:14Z</time>
        <extensions><gpxtpx:TrackPointExtension><gpxtpx:hr>166</gpxtpx:hr></gpxtpx:TrackPointExtension></extensions>
      </trkpt>
      <trkpt lat="39.834468957014" lon="2.80471282126">
        <ele>344.2</ele>
        <time>2020-06-25T21:33:15Z</time>
        <extensions><gpxtpx:TrackPointExtension><gpxtpx:hr>166</gpxtpx:hr></gpxtpx:TrackPointExtension></extensions>
      </trkpt>
      <trkpt lat="39.834495695275" lon="2.804656830168">
        <ele>344.6</ele>
        <time>2020-06-25T21:33:16Z</time>
        <extensions><gpxtpx:TrackPointExtension><gpxtpx:hr>166</gpxtpx:hr></gpxtpx:TrackPointExtension></extensions>
      </trkpt>
      <trkpt lat="39.834522433536" lon="2.804599833248">
        <ele>344.8</ele>
        <time>2020-06-25T21:33:17Z</time>
        <extensions><gpxtpx:TrackPointExtension><gpxtpx:hr>166</gpxtpx:hr></gpxtpx:TrackPointExtension></extensions>
      </trkpt>
      <trkpt lat="39.834549087978" lon="2.804550966771">
        <ele>345.2</ele>
        <time>2020-06-25T21:33:18Z</time>
        <extensions><gpxtpx:TrackPointExtension><gpxtpx:hr>166</gpxtpx:hr></gpxtpx:TrackPointExtension></extensions>
      </trkpt>
      <trkpt lat="39.834571970565" lon="2.804502100294">
        <ele>345.4</ele>
        <time>2020-06-25T21:33:19Z</time>
        <extensions><gpxtpx:TrackPointExtension><gpxtpx:hr>168</gpxtpx:hr></gpxtpx:TrackPointExtension></extensions>
      </trkpt>
      <trkpt lat="39.834602480681" lon="2.804461112803">
        <ele>346.2</ele>
        <time>2020-06-25T21:33:20Z</time>
        <extensions><gpxtpx:TrackPointExtension><gpxtpx:hr>168</gpxtpx:hr></gpxtpx:TrackPointExtension></extensions>
      </trkpt>
      <trkpt lat="39.834629218942" lon="2.804433452533">
        <ele>346.8</ele>
        <time>2020-06-25T21:33:21Z</time>
        <extensions><gpxtpx:TrackPointExtension><gpxtpx:hr>169</gpxtpx:hr></gpxtpx:TrackPointExtension></extensions>
      </trkpt>
      <trkpt lat="39.834648245855" lon="2.804416269638">
        <ele>347.2</ele>
        <time>2020-06-25T21:33:22Z</time>
        <extensions><gpxtpx:TrackPointExtension><gpxtpx:hr>168</gpxtpx:hr></gpxtpx:TrackPointExtension></extensions>
      </trkpt>
      <trkpt lat="39.834663500913" lon="2.804400763123">
        <ele>347.6</ele>
        <time>2020-06-25T21:33:23Z</time>
        <extensions><gpxtpx:TrackPointExtension><gpxtpx:hr>168</gpxtpx:hr></gpxtpx:TrackPointExtension></extensions>
      </trkpt>
      <trkpt lat="39.834682611645" lon="2.804385256608">
        <ele>348.2</ele>
        <time>2020-06-25T21:33:24Z</time>
        <extensions><gpxtpx:TrackPointExtension><gpxtpx:hr>168</gpxtpx:hr></gpxtpx:TrackPointExtension></extensions>
      </trkpt>
      <trkpt lat="39.834709349906" lon="2.80436664879">
        <ele>348.4</ele>
        <time>2020-06-25T21:33:25Z</time>
        <extensions><gpxtpx:TrackPointExtension><gpxtpx:hr>168</gpxtpx:hr></gpxtpx:TrackPointExtension></extensions>
      </trkpt>
      <trkpt lat="39.834751259406" lon="2.804336641588">
        <ele>348.8</ele>
        <time>2020-06-25T21:33:27Z</time>
        <extensions><gpxtpx:TrackPointExtension><gpxtpx:hr>167</gpxtpx:hr></gpxtpx:TrackPointExtension></extensions>
      </trkpt>
      <trkpt lat="39.834804652109" lon="2.804302275798">
        <ele>349</ele>
        <time>2020-06-25T21:33:28Z</time>
        <extensions><gpxtpx:TrackPointExtension><gpxtpx:hr>167</gpxtpx:hr></gpxtpx:TrackPointExtension></extensions>
      </trkpt>
      <trkpt lat="39.834854272957" lon="2.804271514225">
        <ele>349.4</ele>
        <time>2020-06-25T21:33:29Z</time>
        <extensions><gpxtpx:TrackPointExtension><gpxtpx:hr>167</gpxtpx:hr></gpxtpx:TrackPointExtension></extensions>
      </trkpt>
      <trkpt lat="39.834915293189" lon="2.804233628037">
        <ele>349.8</ele>
        <time>2020-06-25T21:33:30Z</time>
        <extensions><gpxtpx:TrackPointExtension><gpxtpx:hr>167</gpxtpx:hr></gpxtpx:TrackPointExtension></extensions>
      </trkpt>
      <trkpt lat="39.834972541566" lon="2.804195741849">
        <ele>350.2</ele>
        <time>2020-06-25T21:33:31Z</time>
        <extensions><gpxtpx:TrackPointExtension><gpxtpx:hr>166</gpxtpx:hr></gpxtpx:TrackPointExtension></extensions>
      </trkpt>
      <trkpt lat="39.835025934269" lon="2.80416380681">
        <ele>350.4</ele>
        <time>2020-06-25T21:33:32Z</time>
        <extensions><gpxtpx:TrackPointExtension><gpxtpx:hr>166</gpxtpx:hr></gpxtpx:TrackPointExtension></extensions>
      </trkpt>
      <trkpt lat="39.835083182646" lon="2.804124244242">
        <ele>350.8</ele>
        <time>2020-06-25T21:33:33Z</time>
        <extensions><gpxtpx:TrackPointExtension><gpxtpx:hr>166</gpxtpx:hr></gpxtpx:TrackPointExtension></extensions>
      </trkpt>
      <trkpt lat="39.83512894782" lon="2.804086274235">
        <ele>351</ele>
        <time>2020-06-25T21:33:34Z</time>
        <extensions><gpxtpx:TrackPointExtension><gpxtpx:hr>166</gpxtpx:hr></gpxtpx:TrackPointExtension></extensions>
      </trkpt>
      <trkpt lat="39.835178484849" lon="2.804046711667">
        <ele>351.4</ele>
        <time>2020-06-25T21:33:35Z</time>
        <extensions><gpxtpx:TrackPointExtension><gpxtpx:hr>166</gpxtpx:hr></gpxtpx:TrackPointExtension></extensions>
      </trkpt>
      <trkpt lat="39.835228105697" lon="2.803997593733">
        <ele>351.8</ele>
        <time>2020-06-25T21:33:37Z</time>
        <extensions><gpxtpx:TrackPointExtension><gpxtpx:hr>165</gpxtpx:hr></gpxtpx:TrackPointExtension></extensions>
      </trkpt>
      <trkpt lat="39.835273870871" lon="2.80395090655">
        <ele>352.2</ele>
        <time>2020-06-25T21:33:38Z</time>
        <extensions><gpxtpx:TrackPointExtension><gpxtpx:hr>165</gpxtpx:hr></gpxtpx:TrackPointExtension></extensions>
      </trkpt>
      <trkpt lat="39.835312008516" lon="2.803913942371">
        <ele>352.6</ele>
        <time>2020-06-25T21:33:39Z</time>
        <extensions><gpxtpx:TrackPointExtension><gpxtpx:hr>165</gpxtpx:hr></gpxtpx:TrackPointExtension></extensions>
      </trkpt>
      <trkpt lat="39.835350146161" lon="2.803871446138">
        <ele>352.8</ele>
        <time>2020-06-25T21:33:40Z</time>
        <extensions><gpxtpx:TrackPointExtension><gpxtpx:hr>165</gpxtpx:hr></gpxtpx:TrackPointExtension></extensions>
      </trkpt>
      <trkpt lat="39.835384511951" lon="2.803836661253">
        <ele>353.2</ele>
        <time>2020-06-25T21:33:41Z</time>
        <extensions><gpxtpx:TrackPointExtension><gpxtpx:hr>165</gpxtpx:hr></gpxtpx:TrackPointExtension></extensions>
      </trkpt>
      <trkpt lat="39.83542650527" lon="2.803794751753">
        <ele>353.6</ele>
        <time>2020-06-25T21:33:42Z</time>
        <extensions><gpxtpx:TrackPointExtension><gpxtpx:hr>165</gpxtpx:hr></gpxtpx:TrackPointExtension></extensions>
      </trkpt>
      <trkpt lat="39.835457015386" lon="2.803759212497">
        <ele>353.8</ele>
        <time>2020-06-25T21:33:43Z</time>
        <extensions><gpxtpx:TrackPointExtension><gpxtpx:hr>164</gpxtpx:hr></gpxtpx:TrackPointExtension></extensions>
      </trkpt>
      <trkpt lat="39.835498924886" lon="2.803716045712">
        <ele>354.2</ele>
        <time>2020-06-25T21:33:44Z</time>
        <extensions><gpxtpx:TrackPointExtension><gpxtpx:hr>164</gpxtpx:hr></gpxtpx:TrackPointExtension></extensions>
      </trkpt>
      <trkpt lat="39.835533290676" lon="2.803679584447">
        <ele>354.6</ele>
        <time>2020-06-25T21:33:45Z</time>
        <extensions><gpxtpx:TrackPointExtension><gpxtpx:hr>164</gpxtpx:hr></gpxtpx:TrackPointExtension></extensions>
      </trkpt>
      <trkpt lat="39.835571428321" lon="2.803632813445">
        <ele>355</ele>
        <time>2020-06-25T21:33:47Z</time>
        <extensions><gpxtpx:TrackPointExtension><gpxtpx:hr>164</gpxtpx:hr></gpxtpx:TrackPointExtension></extensions>
      </trkpt>
      <trkpt lat="39.835609565966" lon="2.803583946968">
        <ele>355.2</ele>
        <time>2020-06-25T21:33:48Z</time>
        <extensions><gpxtpx:TrackPointExtension><gpxtpx:hr>163</gpxtpx:hr></gpxtpx:TrackPointExtension></extensions>
      </trkpt>
      <trkpt lat="39.835643931756" lon="2.803540780183">
        <ele>355.6</ele>
        <time>2020-06-25T21:33:49Z</time>
        <extensions><gpxtpx:TrackPointExtension><gpxtpx:hr>163</gpxtpx:hr></gpxtpx:TrackPointExtension></extensions>
      </trkpt>
      <trkpt lat="39.835674441872" lon="2.803495015009">
        <ele>356</ele>
        <time>2020-06-25T21:33:50Z</time>
        <extensions><gpxtpx:TrackPointExtension><gpxtpx:hr>163</gpxtpx:hr></gpxtpx:TrackPointExtension></extensions>
      </trkpt>
      <trkpt lat="39.835701096314" lon="2.803440867935">
        <ele>356.6</ele>
        <time>2020-06-25T21:33:51Z</time>
        <extensions><gpxtpx:TrackPointExtension><gpxtpx:hr>162</gpxtpx:hr></gpxtpx:TrackPointExtension></extensions>
      </trkpt>
      <trkpt lat="39.835727834575" lon="2.803381021169">
        <ele>356.8</ele>
        <time>2020-06-25T21:33:52Z</time>
        <extensions><gpxtpx:TrackPointExtension><gpxtpx:hr>162</gpxtpx:hr></gpxtpx:TrackPointExtension></extensions>
      </trkpt>
      <trkpt lat="39.835727834575" lon="2.803300722567">
        <ele>357.2</ele>
        <time>2020-06-25T21:33:53Z</time>
        <extensions><gpxtpx:TrackPointExtension><gpxtpx:hr>162</gpxtpx:hr></gpxtpx:TrackPointExtension></extensions>
      </trkpt>
      <trkpt lat="39.835716351372" lon="2.803212964074">
        <ele>357.4</ele>
        <time>2020-06-25T21:33:55Z</time>
        <extensions><gpxtpx:TrackPointExtension><gpxtpx:hr>162</gpxtpx:hr></gpxtpx:TrackPointExtension></extensions>
      </trkpt>
      <trkpt lat="39.835701096314" lon="2.80313618587">
        <ele>357.8</ele>
        <time>2020-06-25T21:33:56Z</time>
        <extensions><gpxtpx:TrackPointExtension><gpxtpx:hr>162</gpxtpx:hr></gpxtpx:TrackPointExtension></extensions>
      </trkpt>
      <trkpt lat="39.835682069401" lon="2.803043230599">
        <ele>358.2</ele>
        <time>2020-06-25T21:33:57Z</time>
        <extensions><gpxtpx:TrackPointExtension><gpxtpx:hr>163</gpxtpx:hr></gpxtpx:TrackPointExtension></extensions>
      </trkpt>
      <trkpt lat="39.835662958669" lon="2.802951867889">
        <ele>358.6</ele>
        <time>2020-06-25T21:33:58Z</time>
        <extensions><gpxtpx:TrackPointExtension><gpxtpx:hr>163</gpxtpx:hr></gpxtpx:TrackPointExtension></extensions>
      </trkpt>
      <trkpt lat="39.835647703611" lon="2.802881795205">
        <ele>359</ele>
        <time>2020-06-25T21:33:59Z</time>
        <extensions><gpxtpx:TrackPointExtension><gpxtpx:hr>163</gpxtpx:hr></gpxtpx:TrackPointExtension></extensions>
      </trkpt>
      <trkpt lat="39.835628676698" lon="2.802816919299">
        <ele>359.4</ele>
        <time>2020-06-25T21:34:00Z</time>
        <extensions><gpxtpx:TrackPointExtension><gpxtpx:hr>163</gpxtpx:hr></gpxtpx:TrackPointExtension></extensions>
      </trkpt>
      <trkpt lat="39.835594310908" lon="2.802736620697">
        <ele>359.4</ele>
        <time>2020-06-25T21:34:01Z</time>
        <extensions><gpxtpx:TrackPointExtension><gpxtpx:hr>163</gpxtpx:hr></gpxtpx:TrackPointExtension></extensions>
      </trkpt>
      <trkpt lat="39.835556173263" lon="2.802665290728">
        <ele>359.4</ele>
        <time>2020-06-25T21:34:02Z</time>
        <extensions><gpxtpx:TrackPointExtension><gpxtpx:hr>163</gpxtpx:hr></gpxtpx:TrackPointExtension></extensions>
      </trkpt>
      <trkpt lat="39.835491297357" lon="2.802598822261">
        <ele>360.2</ele>
        <time>2020-06-25T21:34:03Z</time>
        <extensions><gpxtpx:TrackPointExtension><gpxtpx:hr>163</gpxtpx:hr></gpxtpx:TrackPointExtension></extensions>
      </trkpt>
      <trkpt lat="39.835449387857" lon="2.802576861683">
        <ele>361</ele>
        <time>2020-06-25T21:34:04Z</time>
        <extensions><gpxtpx:TrackPointExtension><gpxtpx:hr>163</gpxtpx:hr></gpxtpx:TrackPointExtension></extensions>
      </trkpt>
      <trkpt lat="39.835403622683" lon="2.802563534462">
        <ele>361</ele>
        <time>2020-06-25T21:34:05Z</time>
        <extensions><gpxtpx:TrackPointExtension><gpxtpx:hr>163</gpxtpx:hr></gpxtpx:TrackPointExtension></extensions>
      </trkpt>
      <trkpt lat="39.835338746777" lon="2.802554901105">
        <ele>361.2</ele>
        <time>2020-06-25T21:34:07Z</time>
        <extensions><gpxtpx:TrackPointExtension><gpxtpx:hr>163</gpxtpx:hr></gpxtpx:TrackPointExtension></extensions>
      </trkpt>
      <trkpt lat="39.835270099016" lon="2.802550207241">
        <ele>361.6</ele>
        <time>2020-06-25T21:34:08Z</time>
        <extensions><gpxtpx:TrackPointExtension><gpxtpx:hr>163</gpxtpx:hr></gpxtpx:TrackPointExtension></extensions>
      </trkpt>
      <trkpt lat="39.835201367436" lon="2.802547525033">
        <ele>362</ele>
        <time>2020-06-25T21:34:09Z</time>
        <extensions><gpxtpx:TrackPointExtension><gpxtpx:hr>163</gpxtpx:hr></gpxtpx:TrackPointExtension></extensions>
      </trkpt>
      <trkpt lat="39.835140347204" lon="2.802547105938">
        <ele>362.2</ele>
        <time>2020-06-25T21:34:10Z</time>
        <extensions><gpxtpx:TrackPointExtension><gpxtpx:hr>163</gpxtpx:hr></gpxtpx:TrackPointExtension></extensions>
      </trkpt>
      <trkpt lat="39.835086954501" lon="2.80254945287">
        <ele>362.6</ele>
        <time>2020-06-25T21:34:11Z</time>
        <extensions><gpxtpx:TrackPointExtension><gpxtpx:hr>164</gpxtpx:hr></gpxtpx:TrackPointExtension></extensions>
      </trkpt>
      <trkpt lat="39.835037417472" lon="2.802559930245">
        <ele>363.2</ele>
        <time>2020-06-25T21:34:12Z</time>
        <extensions><gpxtpx:TrackPointExtension><gpxtpx:hr>164</gpxtpx:hr></gpxtpx:TrackPointExtension></extensions>
      </trkpt>
      <trkpt lat="39.834995424153" lon="2.802571413448">
        <ele>363.6</ele>
        <time>2020-06-25T21:34:13Z</time>
        <extensions><gpxtpx:TrackPointExtension><gpxtpx:hr>164</gpxtpx:hr></gpxtpx:TrackPointExtension></extensions>
      </trkpt>
      <trkpt lat="39.834949658979" lon="2.80258549504">
        <ele>364</ele>
        <time>2020-06-25T21:34:14Z</time>
        <extensions><gpxtpx:TrackPointExtension><gpxtpx:hr>164</gpxtpx:hr></gpxtpx:TrackPointExtension></extensions>
      </trkpt>
      <trkpt lat="39.83490766566" lon="2.802599995727">
        <ele>364.6</ele>
        <time>2020-06-25T21:34:15Z</time>
        <extensions><gpxtpx:TrackPointExtension><gpxtpx:hr>164</gpxtpx:hr></gpxtpx:TrackPointExtension></extensions>
      </trkpt>
      <trkpt lat="39.834869528015" lon="2.802613574405">
        <ele>364.8</ele>
        <time>2020-06-25T21:34:16Z</time>
        <extensions><gpxtpx:TrackPointExtension><gpxtpx:hr>164</gpxtpx:hr></gpxtpx:TrackPointExtension></extensions>
      </trkpt>
      <trkpt lat="39.83483139037" lon="2.802628829463">
        <ele>365.4</ele>
        <time>2020-06-25T21:34:17Z</time>
        <extensions><gpxtpx:TrackPointExtension><gpxtpx:hr>164</gpxtpx:hr></gpxtpx:TrackPointExtension></extensions>
      </trkpt>
      <trkpt lat="39.834781769522" lon="2.802647940195">
        <ele>365.8</ele>
        <time>2020-06-25T21:34:19Z</time>
        <extensions><gpxtpx:TrackPointExtension><gpxtpx:hr>164</gpxtpx:hr></gpxtpx:TrackPointExtension></extensions>
      </trkpt>
      <trkpt lat="39.834739860022" lon="2.80266512309">
        <ele>366.2</ele>
        <time>2020-06-25T21:34:20Z</time>
        <extensions><gpxtpx:TrackPointExtension><gpxtpx:hr>165</gpxtpx:hr></gpxtpx:TrackPointExtension></extensions>
      </trkpt>
      <trkpt lat="39.834705494232" lon="2.802678953225">
        <ele>366.6</ele>
        <time>2020-06-25T21:34:21Z</time>
        <extensions><gpxtpx:TrackPointExtension><gpxtpx:hr>165</gpxtpx:hr></gpxtpx:TrackPointExtension></extensions>
      </trkpt>
      <trkpt lat="39.834667356587" lon="2.802695633206">
        <ele>367</ele>
        <time>2020-06-25T21:34:22Z</time>
        <extensions><gpxtpx:TrackPointExtension><gpxtpx:hr>165</gpxtpx:hr></gpxtpx:TrackPointExtension></extensions>
      </trkpt>
      <trkpt lat="39.834636846471" lon="2.802709630979">
        <ele>367.4</ele>
        <time>2020-06-25T21:34:23Z</time>
        <extensions><gpxtpx:TrackPointExtension><gpxtpx:hr>165</gpxtpx:hr></gpxtpx:TrackPointExtension></extensions>
      </trkpt>
      <trkpt lat="39.834598708826" lon="2.80272798734">
        <ele>367.8</ele>
        <time>2020-06-25T21:34:24Z</time>
        <extensions><gpxtpx:TrackPointExtension><gpxtpx:hr>165</gpxtpx:hr></gpxtpx:TrackPointExtension></extensions>
      </trkpt>
      <trkpt lat="39.834564343036" lon="2.80274475114">
        <ele>368</ele>
        <time>2020-06-25T21:34:25Z</time>
        <extensions><gpxtpx:TrackPointExtension><gpxtpx:hr>165</gpxtpx:hr></gpxtpx:TrackPointExtension></extensions>
      </trkpt>
      <trkpt lat="39.83453383292" lon="2.802762101673">
        <ele>368.4</ele>
        <time>2020-06-25T21:34:26Z</time>
        <extensions><gpxtpx:TrackPointExtension><gpxtpx:hr>166</gpxtpx:hr></gpxtpx:TrackPointExtension></extensions>
      </trkpt>
      <trkpt lat="39.834491839601" lon="2.802785235717">
        <ele>368.8</ele>
        <time>2020-06-25T21:34:27Z</time>
        <extensions><gpxtpx:TrackPointExtension><gpxtpx:hr>166</gpxtpx:hr></gpxtpx:TrackPointExtension></extensions>
      </trkpt>
      <trkpt lat="39.83445755763" lon="2.802808369761">
        <ele>369.2</ele>
        <time>2020-06-25T21:34:28Z</time>
        <extensions><gpxtpx:TrackPointExtension><gpxtpx:hr>166</gpxtpx:hr></gpxtpx:TrackPointExtension></extensions>
      </trkpt>
      <trkpt lat="39.83442319184" lon="2.802835527117">
        <ele>369.4</ele>
        <time>2020-06-25T21:34:29Z</time>
        <extensions><gpxtpx:TrackPointExtension><gpxtpx:hr>166</gpxtpx:hr></gpxtpx:TrackPointExtension></extensions>
      </trkpt>
      <trkpt lat="39.83438128234" lon="2.802878190988">
        <ele>369.6</ele>
        <time>2020-06-25T21:34:31Z</time>
        <extensions><gpxtpx:TrackPointExtension><gpxtpx:hr>166</gpxtpx:hr></gpxtpx:TrackPointExtension></extensions>
      </trkpt>
      <trkpt lat="39.834354544079" lon="2.80295094588">
        <ele>370</ele>
        <time>2020-06-25T21:34:32Z</time>
        <extensions><gpxtpx:TrackPointExtension><gpxtpx:hr>166</gpxtpx:hr></gpxtpx:TrackPointExtension></extensions>
      </trkpt>
      <trkpt lat="39.83434691655" lon="2.803013391035">
        <ele>370.4</ele>
        <time>2020-06-25T21:34:33Z</time>
        <extensions><gpxtpx:TrackPointExtension><gpxtpx:hr>166</gpxtpx:hr></gpxtpx:TrackPointExtension></extensions>
      </trkpt>
      <trkpt lat="39.834335433347" lon="2.803082290253">
        <ele>370.8</ele>
        <time>2020-06-25T21:34:34Z</time>
        <extensions><gpxtpx:TrackPointExtension><gpxtpx:hr>165</gpxtpx:hr></gpxtpx:TrackPointExtension></extensions>
      </trkpt>
      <trkpt lat="39.834324033963" lon="2.803147166159">
        <ele>371.2</ele>
        <time>2020-06-25T21:34:35Z</time>
        <extensions><gpxtpx:TrackPointExtension><gpxtpx:hr>165</gpxtpx:hr></gpxtpx:TrackPointExtension></extensions>
      </trkpt>
      <trkpt lat="39.83431255076" lon="2.803211287694">
        <ele>371.6</ele>
        <time>2020-06-25T21:34:36Z</time>
        <extensions><gpxtpx:TrackPointExtension><gpxtpx:hr>165</gpxtpx:hr></gpxtpx:TrackPointExtension></extensions>
      </trkpt>
      <trkpt lat="39.834304923231" lon="2.803265937682">
        <ele>372</ele>
        <time>2020-06-25T21:34:37Z</time>
        <extensions><gpxtpx:TrackPointExtension><gpxtpx:hr>165</gpxtpx:hr></gpxtpx:TrackPointExtension></extensions>
      </trkpt>
      <trkpt lat="39.834293523847" lon="2.803331903235">
        <ele>372.4</ele>
        <time>2020-06-25T21:34:39Z</time>
        <extensions><gpxtpx:TrackPointExtension><gpxtpx:hr>165</gpxtpx:hr></gpxtpx:TrackPointExtension></extensions>
      </trkpt>
      <trkpt lat="39.834285896318" lon="2.803387475232">
        <ele>372.6</ele>
        <time>2020-06-25T21:34:40Z</time>
        <extensions><gpxtpx:TrackPointExtension><gpxtpx:hr>166</gpxtpx:hr></gpxtpx:TrackPointExtension></extensions>
      </trkpt>
      <trkpt lat="39.834274413115" lon="2.803443550143">
        <ele>373</ele>
        <time>2020-06-25T21:34:41Z</time>
        <extensions><gpxtpx:TrackPointExtension><gpxtpx:hr>166</gpxtpx:hr></gpxtpx:TrackPointExtension></extensions>
      </trkpt>
      <trkpt lat="39.834266785586" lon="2.803499541235">
        <ele>373.4</ele>
        <time>2020-06-25T21:34:42Z</time>
        <extensions><gpxtpx:TrackPointExtension><gpxtpx:hr>166</gpxtpx:hr></gpxtpx:TrackPointExtension></extensions>
      </trkpt>
      <trkpt lat="39.834255386202" lon="2.803566344978">
        <ele>373.8</ele>
        <time>2020-06-25T21:34:43Z</time>
        <extensions><gpxtpx:TrackPointExtension><gpxtpx:hr>165</gpxtpx:hr></gpxtpx:TrackPointExtension></extensions>
      </trkpt>
      <trkpt lat="39.834240131144" lon="2.803632142893">
        <ele>374.2</ele>
        <time>2020-06-25T21:34:44Z</time>
        <extensions><gpxtpx:TrackPointExtension><gpxtpx:hr>165</gpxtpx:hr></gpxtpx:TrackPointExtension></extensions>
      </trkpt>
      <trkpt lat="39.834228647941" lon="2.803696683523">
        <ele>374.6</ele>
        <time>2020-06-25T21:34:45Z</time>
        <extensions><gpxtpx:TrackPointExtension><gpxtpx:hr>165</gpxtpx:hr></gpxtpx:TrackPointExtension></extensions>
      </trkpt>
      <trkpt lat="39.834213392883" lon="2.80374890276">
        <ele>374.8</ele>
        <time>2020-06-25T21:34:46Z</time>
        <extensions><gpxtpx:TrackPointExtension><gpxtpx:hr>165</gpxtpx:hr></gpxtpx:TrackPointExtension></extensions>
      </trkpt>
      <trkpt lat="39.834190510296" lon="2.803806905508">
        <ele>375.2</ele>
        <time>2020-06-25T21:34:47Z</time>
        <extensions><gpxtpx:TrackPointExtension><gpxtpx:hr>165</gpxtpx:hr></gpxtpx:TrackPointExtension></extensions>
      </trkpt>
      <trkpt lat="39.834167627709" lon="2.803860046754">
        <ele>375.6</ele>
        <time>2020-06-25T21:34:49Z</time>
        <extensions><gpxtpx:TrackPointExtension><gpxtpx:hr>165</gpxtpx:hr></gpxtpx:TrackPointExtension></extensions>
      </trkpt>
      <trkpt lat="39.834140889448" lon="2.80390983524">
        <ele>376</ele>
        <time>2020-06-25T21:34:50Z</time>
        <extensions><gpxtpx:TrackPointExtension><gpxtpx:hr>164</gpxtpx:hr></gpxtpx:TrackPointExtension></extensions>
      </trkpt>
      <trkpt lat="39.834118006861" lon="2.803949900722">
        <ele>376.4</ele>
        <time>2020-06-25T21:34:51Z</time>
        <extensions><gpxtpx:TrackPointExtension><gpxtpx:hr>164</gpxtpx:hr></gpxtpx:TrackPointExtension></extensions>
      </trkpt>
      <trkpt lat="39.834095124274" lon="2.803988038367">
        <ele>376.8</ele>
        <time>2020-06-25T21:34:52Z</time>
        <extensions><gpxtpx:TrackPointExtension><gpxtpx:hr>163</gpxtpx:hr></gpxtpx:TrackPointExtension></extensions>
      </trkpt>
      <trkpt lat="39.834068469832" lon="2.804019805768">
        <ele>377.2</ele>
        <time>2020-06-25T21:34:53Z</time>
        <extensions><gpxtpx:TrackPointExtension><gpxtpx:hr>163</gpxtpx:hr></gpxtpx:TrackPointExtension></extensions>
      </trkpt>
      <trkpt lat="39.834037959716" lon="2.804045789658">
        <ele>377.8</ele>
        <time>2020-06-25T21:34:54Z</time>
        <extensions><gpxtpx:TrackPointExtension><gpxtpx:hr>163</gpxtpx:hr></gpxtpx:TrackPointExtension></extensions>
      </trkpt>
      <trkpt lat="39.834011221455" lon="2.804065319485">
        <ele>378.2</ele>
        <time>2020-06-25T21:34:55Z</time>
        <extensions><gpxtpx:TrackPointExtension><gpxtpx:hr>163</gpxtpx:hr></gpxtpx:TrackPointExtension></extensions>
      </trkpt>
      <trkpt lat="39.833984483194" lon="2.804080574543">
        <ele>378.4</ele>
        <time>2020-06-25T21:34:56Z</time>
        <extensions><gpxtpx:TrackPointExtension><gpxtpx:hr>162</gpxtpx:hr></gpxtpx:TrackPointExtension></extensions>
      </trkpt>
      <trkpt lat="39.833934946165" lon="2.80410178075">
        <ele>378.8</ele>
        <time>2020-06-25T21:34:57Z</time>
        <extensions><gpxtpx:TrackPointExtension><gpxtpx:hr>162</gpxtpx:hr></gpxtpx:TrackPointExtension></extensions>
      </trkpt>
      <trkpt lat="39.833885325317" lon="2.804119885654">
        <ele>379</ele>
        <time>2020-06-25T21:34:58Z</time>
        <extensions><gpxtpx:TrackPointExtension><gpxtpx:hr>162</gpxtpx:hr></gpxtpx:TrackPointExtension></extensions>
      </trkpt>
      <trkpt lat="39.833831932614" lon="2.804138493472">
        <ele>379.4</ele>
        <time>2020-06-25T21:34:59Z</time>
        <extensions><gpxtpx:TrackPointExtension><gpxtpx:hr>162</gpxtpx:hr></gpxtpx:TrackPointExtension></extensions>
      </trkpt>
      <trkpt lat="39.833778539911" lon="2.80415710129">
        <ele>380.2</ele>
        <time>2020-06-25T21:35:01Z</time>
        <extensions><gpxtpx:TrackPointExtension><gpxtpx:hr>162</gpxtpx:hr></gpxtpx:TrackPointExtension></extensions>
      </trkpt>
      <trkpt lat="39.833732774737" lon="2.804169506502">
        <ele>380.8</ele>
        <time>2020-06-25T21:35:02Z</time>
        <extensions><gpxtpx:TrackPointExtension><gpxtpx:hr>161</gpxtpx:hr></gpxtpx:TrackPointExtension></extensions>
      </trkpt>
      <trkpt lat="39.833698408947" lon="2.804177134031">
        <ele>381.4</ele>
        <time>2020-06-25T21:35:03Z</time>
        <extensions><gpxtpx:TrackPointExtension><gpxtpx:hr>161</gpxtpx:hr></gpxtpx:TrackPointExtension></extensions>
      </trkpt>
      <trkpt lat="39.833667898831" lon="2.804181157343">
        <ele>381.8</ele>
        <time>2020-06-25T21:35:04Z</time>
        <extensions><gpxtpx:TrackPointExtension><gpxtpx:hr>161</gpxtpx:hr></gpxtpx:TrackPointExtension></extensions>
      </trkpt>
      <trkpt lat="39.833625905512" lon="2.804172104891">
        <ele>381.8</ele>
        <time>2020-06-25T21:35:05Z</time>
        <extensions><gpxtpx:TrackPointExtension><gpxtpx:hr>161</gpxtpx:hr></gpxtpx:TrackPointExtension></extensions>
      </trkpt>
      <trkpt lat="39.833576368483" lon="2.804150647227">
        <ele>381.8</ele>
        <time>2020-06-25T21:35:06Z</time>
        <extensions><gpxtpx:TrackPointExtension><gpxtpx:hr>161</gpxtpx:hr></gpxtpx:TrackPointExtension></extensions>
      </trkpt>
      <trkpt lat="39.833515348251" lon="2.80410680989">
        <ele>382.2</ele>
        <time>2020-06-25T21:35:08Z</time>
        <extensions><gpxtpx:TrackPointExtension><gpxtpx:hr>161</gpxtpx:hr></gpxtpx:TrackPointExtension></extensions>
      </trkpt>
      <trkpt lat="39.833458099874" lon="2.804058865422">
        <ele>382.8</ele>
        <time>2020-06-25T21:35:09Z</time>
        <extensions><gpxtpx:TrackPointExtension><gpxtpx:hr>161</gpxtpx:hr></gpxtpx:TrackPointExtension></extensions>
      </trkpt>
      <trkpt lat="39.833408479026" lon="2.804014776628">
        <ele>383.4</ele>
        <time>2020-06-25T21:35:10Z</time>
        <extensions><gpxtpx:TrackPointExtension><gpxtpx:hr>161</gpxtpx:hr></gpxtpx:TrackPointExtension></extensions>
      </trkpt>
      <trkpt lat="39.833358941997" lon="2.803972531852">
        <ele>384</ele>
        <time>2020-06-25T21:35:11Z</time>
        <extensions><gpxtpx:TrackPointExtension><gpxtpx:hr>162</gpxtpx:hr></gpxtpx:TrackPointExtension></extensions>
      </trkpt>
      <trkpt lat="39.833313093004" lon="2.803931544361">
        <ele>384.4</ele>
        <time>2020-06-25T21:35:12Z</time>
        <extensions><gpxtpx:TrackPointExtension><gpxtpx:hr>162</gpxtpx:hr></gpxtpx:TrackPointExtension></extensions>
      </trkpt>
      <trkpt lat="39.833271183504" lon="2.803898687313">
        <ele>385</ele>
        <time>2020-06-25T21:35:13Z</time>
        <extensions><gpxtpx:TrackPointExtension><gpxtpx:hr>163</gpxtpx:hr></gpxtpx:TrackPointExtension></extensions>
      </trkpt>
      <trkpt lat="39.833221562656" lon="2.803861723134">
        <ele>385.4</ele>
        <time>2020-06-25T21:35:15Z</time>
        <extensions><gpxtpx:TrackPointExtension><gpxtpx:hr>164</gpxtpx:hr></gpxtpx:TrackPointExtension></extensions>
      </trkpt>
      <trkpt lat="39.833183425011" lon="2.803838086176">
        <ele>386</ele>
        <time>2020-06-25T21:35:16Z</time>
        <extensions><gpxtpx:TrackPointExtension><gpxtpx:hr>164</gpxtpx:hr></gpxtpx:TrackPointExtension></extensions>
      </trkpt>
      <trkpt lat="39.833137659837" lon="2.803821909109">
        <ele>386.6</ele>
        <time>2020-06-25T21:35:17Z</time>
        <extensions><gpxtpx:TrackPointExtension><gpxtpx:hr>165</gpxtpx:hr></gpxtpx:TrackPointExtension></extensions>
      </trkpt>
      <trkpt lat="39.833099522192" lon="2.803810677363">
        <ele>387.2</ele>
        <time>2020-06-25T21:35:18Z</time>
        <extensions><gpxtpx:TrackPointExtension><gpxtpx:hr>165</gpxtpx:hr></gpxtpx:TrackPointExtension></extensions>
      </trkpt>
      <trkpt lat="39.833061384547" lon="2.803802127825">
        <ele>387.8</ele>
        <time>2020-06-25T21:35:19Z</time>
        <extensions><gpxtpx:TrackPointExtension><gpxtpx:hr>166</gpxtpx:hr></gpxtpx:TrackPointExtension></extensions>
      </trkpt>
      <trkpt lat="39.833023246902" lon="2.803794500296">
        <ele>388.2</ele>
        <time>2020-06-25T21:35:20Z</time>
        <extensions><gpxtpx:TrackPointExtension><gpxtpx:hr>166</gpxtpx:hr></gpxtpx:TrackPointExtension></extensions>
      </trkpt>
      <trkpt lat="39.832965998525" lon="2.803787291862">
        <ele>388.4</ele>
        <time>2020-06-25T21:35:22Z</time>
        <extensions><gpxtpx:TrackPointExtension><gpxtpx:hr>166</gpxtpx:hr></gpxtpx:TrackPointExtension></extensions>
      </trkpt>
      <trkpt lat="39.832908750148" lon="2.803786369853">
        <ele>388.4</ele>
        <time>2020-06-25T21:35:23Z</time>
        <extensions><gpxtpx:TrackPointExtension><gpxtpx:hr>166</gpxtpx:hr></gpxtpx:TrackPointExtension></extensions>
      </trkpt>
      <trkpt lat="39.832847729916" lon="2.803795673762">
        <ele>388.8</ele>
        <time>2020-06-25T21:35:24Z</time>
        <extensions><gpxtpx:TrackPointExtension><gpxtpx:hr>167</gpxtpx:hr></gpxtpx:TrackPointExtension></extensions>
      </trkpt>
      <trkpt lat="39.832786709684" lon="2.803810677363">
        <ele>389</ele>
        <time>2020-06-25T21:35:25Z</time>
        <extensions><gpxtpx:TrackPointExtension><gpxtpx:hr>167</gpxtpx:hr></gpxtpx:TrackPointExtension></extensions>
      </trkpt>
      <trkpt lat="39.832714206249" lon="2.803829536638">
        <ele>389.4</ele>
        <time>2020-06-25T21:35:26Z</time>
        <extensions><gpxtpx:TrackPointExtension><gpxtpx:hr>167</gpxtpx:hr></gpxtpx:TrackPointExtension></extensions>
      </trkpt>
      <trkpt lat="39.832641786633" lon="2.803848563551">
        <ele>389.8</ele>
        <time>2020-06-25T21:35:27Z</time>
        <extensions><gpxtpx:TrackPointExtension><gpxtpx:hr>167</gpxtpx:hr></gpxtpx:TrackPointExtension></extensions>
      </trkpt>
      <trkpt lat="39.832569283198" lon="2.803867171369">
        <ele>390.2</ele>
        <time>2020-06-25T21:35:28Z</time>
        <extensions><gpxtpx:TrackPointExtension><gpxtpx:hr>168</gpxtpx:hr></gpxtpx:TrackPointExtension></extensions>
      </trkpt>
      <trkpt lat="39.832500635437" lon="2.803885108635">
        <ele>390.4</ele>
        <time>2020-06-25T21:35:29Z</time>
        <extensions><gpxtpx:TrackPointExtension><gpxtpx:hr>168</gpxtpx:hr></gpxtpx:TrackPointExtension></extensions>
      </trkpt>
      <trkpt lat="39.832435759531" lon="2.803902207711">
        <ele>390.8</ele>
        <time>2020-06-25T21:35:31Z</time>
        <extensions><gpxtpx:TrackPointExtension><gpxtpx:hr>168</gpxtpx:hr></gpxtpx:TrackPointExtension></extensions>
      </trkpt>
      <trkpt lat="39.832370883625" lon="2.803917462769">
        <ele>391.2</ele>
        <time>2020-06-25T21:35:32Z</time>
        <extensions><gpxtpx:TrackPointExtension><gpxtpx:hr>168</gpxtpx:hr></gpxtpx:TrackPointExtension></extensions>
      </trkpt>
      <trkpt lat="39.832325118451" lon="2.803927521049">
        <ele>391.8</ele>
        <time>2020-06-25T21:35:33Z</time>
        <extensions><gpxtpx:TrackPointExtension><gpxtpx:hr>168</gpxtpx:hr></gpxtpx:TrackPointExtension></extensions>
      </trkpt>
      <trkpt lat="39.832279353277" lon="2.803937076415">
        <ele>392.2</ele>
        <time>2020-06-25T21:35:34Z</time>
        <extensions><gpxtpx:TrackPointExtension><gpxtpx:hr>168</gpxtpx:hr></gpxtpx:TrackPointExtension></extensions>
      </trkpt>
      <trkpt lat="39.832244987487" lon="2.803944955401">
        <ele>392.6</ele>
        <time>2020-06-25T21:35:35Z</time>
        <extensions><gpxtpx:TrackPointExtension><gpxtpx:hr>167</gpxtpx:hr></gpxtpx:TrackPointExtension></extensions>
      </trkpt>
      <trkpt lat="39.832210705516" lon="2.803952331473">
        <ele>393</ele>
        <time>2020-06-25T21:35:36Z</time>
        <extensions><gpxtpx:TrackPointExtension><gpxtpx:hr>167</gpxtpx:hr></gpxtpx:TrackPointExtension></extensions>
      </trkpt>
      <trkpt lat="39.832176339726" lon="2.803959204631">
        <ele>393.4</ele>
        <time>2020-06-25T21:35:37Z</time>
        <extensions><gpxtpx:TrackPointExtension><gpxtpx:hr>167</gpxtpx:hr></gpxtpx:TrackPointExtension></extensions>
      </trkpt>
      <trkpt lat="39.832134430226" lon="2.803968005626">
        <ele>394</ele>
        <time>2020-06-25T21:35:39Z</time>
        <extensions><gpxtpx:TrackPointExtension><gpxtpx:hr>167</gpxtpx:hr></gpxtpx:TrackPointExtension></extensions>
      </trkpt>
      <trkpt lat="39.832088581233" lon="2.803977812449">
        <ele>394.4</ele>
        <time>2020-06-25T21:35:40Z</time>
        <extensions><gpxtpx:TrackPointExtension><gpxtpx:hr>167</gpxtpx:hr></gpxtpx:TrackPointExtension></extensions>
      </trkpt>
      <trkpt lat="39.832050443588" lon="2.803986361987">
        <ele>395</ele>
        <time>2020-06-25T21:35:41Z</time>
        <extensions><gpxtpx:TrackPointExtension><gpxtpx:hr>167</gpxtpx:hr></gpxtpx:TrackPointExtension></extensions>
      </trkpt>
      <trkpt lat="39.832000906559" lon="2.803997090819">
        <ele>395.4</ele>
        <time>2020-06-25T21:35:42Z</time>
        <extensions><gpxtpx:TrackPointExtension><gpxtpx:hr>168</gpxtpx:hr></gpxtpx:TrackPointExtension></extensions>
      </trkpt>
      <trkpt lat="39.831962768914" lon="2.80400622709">
        <ele>396</ele>
        <time>2020-06-25T21:35:43Z</time>
        <extensions><gpxtpx:TrackPointExtension><gpxtpx:hr>168</gpxtpx:hr></gpxtpx:TrackPointExtension></extensions>
      </trkpt>
      <trkpt lat="39.831913148066" lon="2.804017626474">
        <ele>396.6</ele>
        <time>2020-06-25T21:35:44Z</time>
        <extensions><gpxtpx:TrackPointExtension><gpxtpx:hr>168</gpxtpx:hr></gpxtpx:TrackPointExtension></extensions>
      </trkpt>
      <trkpt lat="39.831871154747" lon="2.804028355306">
        <ele>397</ele>
        <time>2020-06-25T21:35:45Z</time>
        <extensions><gpxtpx:TrackPointExtension><gpxtpx:hr>169</gpxtpx:hr></gpxtpx:TrackPointExtension></extensions>
      </trkpt>
      <trkpt lat="39.831829245247" lon="2.804040257604">
        <ele>397.2</ele>
        <time>2020-06-25T21:35:46Z</time>
        <extensions><gpxtpx:TrackPointExtension><gpxtpx:hr>169</gpxtpx:hr></gpxtpx:TrackPointExtension></extensions>
      </trkpt>
      <trkpt lat="39.831775852544" lon="2.804055764119">
        <ele>397.8</ele>
        <time>2020-06-25T21:35:47Z</time>
        <extensions><gpxtpx:TrackPointExtension><gpxtpx:hr>169</gpxtpx:hr></gpxtpx:TrackPointExtension></extensions>
      </trkpt>
      <trkpt lat="39.831722376022" lon="2.804072025005">
        <ele>398.2</ele>
        <time>2020-06-25T21:35:49Z</time>
        <extensions><gpxtpx:TrackPointExtension><gpxtpx:hr>169</gpxtpx:hr></gpxtpx:TrackPointExtension></extensions>
      </trkpt>
      <trkpt lat="39.831668983319" lon="2.804089124081">
        <ele>398.6</ele>
        <time>2020-06-25T21:35:50Z</time>
        <extensions><gpxtpx:TrackPointExtension><gpxtpx:hr>169</gpxtpx:hr></gpxtpx:TrackPointExtension></extensions>
      </trkpt>
      <trkpt lat="39.831627073819" lon="2.804104379139">
        <ele>399</ele>
        <time>2020-06-25T21:35:51Z</time>
        <extensions><gpxtpx:TrackPointExtension><gpxtpx:hr>169</gpxtpx:hr></gpxtpx:TrackPointExtension></extensions>
      </trkpt>
      <trkpt lat="39.831581224826" lon="2.804122567862">
        <ele>399.2</ele>
        <time>2020-06-25T21:35:52Z</time>
        <extensions><gpxtpx:TrackPointExtension><gpxtpx:hr>169</gpxtpx:hr></gpxtpx:TrackPointExtension></extensions>
      </trkpt>
      <trkpt lat="39.831524060268" lon="2.804147797381">
        <ele>399.6</ele>
        <time>2020-06-25T21:35:53Z</time>
        <extensions><gpxtpx:TrackPointExtension><gpxtpx:hr>169</gpxtpx:hr></gpxtpx:TrackPointExtension></extensions>
      </trkpt>
      <trkpt lat="39.83147443942" lon="2.804171182882">
        <ele>399.8</ele>
        <time>2020-06-25T21:35:54Z</time>
        <extensions><gpxtpx:TrackPointExtension><gpxtpx:hr>168</gpxtpx:hr></gpxtpx:TrackPointExtension></extensions>
      </trkpt>
      <trkpt lat="39.831413419188" lon="2.804200938627">
        <ele>400.2</ele>
        <time>2020-06-25T21:35:55Z</time>
        <extensions><gpxtpx:TrackPointExtension><gpxtpx:hr>168</gpxtpx:hr></gpxtpx:TrackPointExtension></extensions>
      </trkpt>
      <trkpt lat="39.831352398956" lon="2.804231951657">
        <ele>400.4</ele>
        <time>2020-06-25T21:35:56Z</time>
        <extensions><gpxtpx:TrackPointExtension><gpxtpx:hr>168</gpxtpx:hr></gpxtpx:TrackPointExtension></extensions>
      </trkpt>
      <trkpt lat="39.831302778108" lon="2.804258438461">
        <ele>400.8</ele>
        <time>2020-06-25T21:35:57Z</time>
        <extensions><gpxtpx:TrackPointExtension><gpxtpx:hr>168</gpxtpx:hr></gpxtpx:TrackPointExtension></extensions>
      </trkpt>
      <trkpt lat="39.83125315726" lon="2.804286098731">
        <ele>401</ele>
        <time>2020-06-25T21:35:58Z</time>
        <extensions><gpxtpx:TrackPointExtension><gpxtpx:hr>169</gpxtpx:hr></gpxtpx:TrackPointExtension></extensions>
      </trkpt>
      <trkpt lat="39.831195992702" lon="2.80431971015">
        <ele>401.4</ele>
        <time>2020-06-25T21:36:00Z</time>
        <extensions><gpxtpx:TrackPointExtension><gpxtpx:hr>169</gpxtpx:hr></gpxtpx:TrackPointExtension></extensions>
      </trkpt>
      <trkpt lat="39.831142599999" lon="2.804349549714">
        <ele>402.2</ele>
        <time>2020-06-25T21:36:01Z</time>
        <extensions><gpxtpx:TrackPointExtension><gpxtpx:hr>169</gpxtpx:hr></gpxtpx:TrackPointExtension></extensions>
      </trkpt>
      <trkpt lat="39.831119717412" lon="2.804362122564">
        <ele>402.8</ele>
        <time>2020-06-25T21:36:02Z</time>
        <extensions><gpxtpx:TrackPointExtension><gpxtpx:hr>169</gpxtpx:hr></gpxtpx:TrackPointExtension></extensions>
      </trkpt>
      <trkpt lat="39.831104462354" lon="2.80437167793">
        <ele>403.2</ele>
        <time>2020-06-25T21:36:03Z</time>
        <extensions><gpxtpx:TrackPointExtension><gpxtpx:hr>169</gpxtpx:hr></gpxtpx:TrackPointExtension></extensions>
      </trkpt>
      <trkpt lat="39.831089207296" lon="2.804385005151">
        <ele>403.8</ele>
        <time>2020-06-25T21:36:04Z</time>
        <extensions><gpxtpx:TrackPointExtension><gpxtpx:hr>169</gpxtpx:hr></gpxtpx:TrackPointExtension></extensions>
      </trkpt>
      <trkpt lat="39.831077724093" lon="2.80442867485">
        <ele>404.2</ele>
        <time>2020-06-25T21:36:05Z</time>
        <extensions><gpxtpx:TrackPointExtension><gpxtpx:hr>169</gpxtpx:hr></gpxtpx:TrackPointExtension></extensions>
      </trkpt>
      <trkpt lat="39.83106624089" lon="2.804484917399">
        <ele>404.6</ele>
        <time>2020-06-25T21:36:06Z</time>
        <extensions><gpxtpx:TrackPointExtension><gpxtpx:hr>169</gpxtpx:hr></gpxtpx:TrackPointExtension></extensions>
      </trkpt>
      <trkpt lat="39.831062469035" lon="2.804565551277">
        <ele>404.8</ele>
        <time>2020-06-25T21:36:08Z</time>
        <extensions><gpxtpx:TrackPointExtension><gpxtpx:hr>169</gpxtpx:hr></gpxtpx:TrackPointExtension></extensions>
      </trkpt>
      <trkpt lat="39.831054841506" lon="2.804655656702">
        <ele>405.2</ele>
        <time>2020-06-25T21:36:09Z</time>
        <extensions><gpxtpx:TrackPointExtension><gpxtpx:hr>168</gpxtpx:hr></gpxtpx:TrackPointExtension></extensions>
      </trkpt>
      <trkpt lat="39.831050985832" lon="2.804749114887">
        <ele>405.6</ele>
        <time>2020-06-25T21:36:10Z</time>
        <extensions><gpxtpx:TrackPointExtension><gpxtpx:hr>168</gpxtpx:hr></gpxtpx:TrackPointExtension></extensions>
      </trkpt>
      <trkpt lat="39.831043358303" lon="2.804842824529">
        <ele>405.8</ele>
        <time>2020-06-25T21:36:11Z</time>
        <extensions><gpxtpx:TrackPointExtension><gpxtpx:hr>168</gpxtpx:hr></gpxtpx:TrackPointExtension></extensions>
      </trkpt>
      <trkpt lat="39.831028103245" lon="2.804921279113">
        <ele>406</ele>
        <time>2020-06-25T21:36:12Z</time>
        <extensions><gpxtpx:TrackPointExtension><gpxtpx:hr>168</gpxtpx:hr></gpxtpx:TrackPointExtension></extensions>
      </trkpt>
      <trkpt lat="39.831005220658" lon="2.804998476412">
        <ele>406.2</ele>
        <time>2020-06-25T21:36:13Z</time>
        <extensions><gpxtpx:TrackPointExtension><gpxtpx:hr>168</gpxtpx:hr></gpxtpx:TrackPointExtension></extensions>
      </trkpt>
      <trkpt lat="39.830974710542" lon="2.805072907684">
        <ele>406.4</ele>
        <time>2020-06-25T21:36:14Z</time>
        <extensions><gpxtpx:TrackPointExtension><gpxtpx:hr>167</gpxtpx:hr></gpxtpx:TrackPointExtension></extensions>
      </trkpt>
      <trkpt lat="39.830921317839" lon="2.805151110811">
        <ele>406.8</ele>
        <time>2020-06-25T21:36:15Z</time>
        <extensions><gpxtpx:TrackPointExtension><gpxtpx:hr>167</gpxtpx:hr></gpxtpx:TrackPointExtension></extensions>
      </trkpt>
      <trkpt lat="39.830875552665" lon="2.805200899297">
        <ele>407.2</ele>
        <time>2020-06-25T21:36:16Z</time>
        <extensions><gpxtpx:TrackPointExtension><gpxtpx:hr>167</gpxtpx:hr></gpxtpx:TrackPointExtension></extensions>
      </trkpt>
      <trkpt lat="39.830822159962" lon="2.805227386101">
        <ele>407.6</ele>
        <time>2020-06-25T21:36:17Z</time>
        <extensions><gpxtpx:TrackPointExtension><gpxtpx:hr>167</gpxtpx:hr></gpxtpx:TrackPointExtension></extensions>
      </trkpt>
      <trkpt lat="39.830749656527" lon="2.805221686409">
        <ele>407.6</ele>
        <time>2020-06-25T21:36:19Z</time>
        <extensions><gpxtpx:TrackPointExtension><gpxtpx:hr>167</gpxtpx:hr></gpxtpx:TrackPointExtension></extensions>
      </trkpt>
      <trkpt lat="39.830684780621" lon="2.805210957577">
        <ele>407.6</ele>
        <time>2020-06-25T21:36:20Z</time>
        <extensions><gpxtpx:TrackPointExtension><gpxtpx:hr>167</gpxtpx:hr></gpxtpx:TrackPointExtension></extensions>
      </trkpt>
      <trkpt lat="39.830623760389" lon="2.805177765253">
        <ele>408</ele>
        <time>2020-06-25T21:36:21Z</time>
        <extensions><gpxtpx:TrackPointExtension><gpxtpx:hr>167</gpxtpx:hr></gpxtpx:TrackPointExtension></extensions>
      </trkpt>
      <trkpt lat="39.830558884483" lon="2.805128647319">
        <ele>408.6</ele>
        <time>2020-06-25T21:36:22Z</time>
        <extensions><gpxtpx:TrackPointExtension><gpxtpx:hr>168</gpxtpx:hr></gpxtpx:TrackPointExtension></extensions>
      </trkpt>
      <trkpt lat="39.83050549178" lon="2.805084558525">
        <ele>409</ele>
        <time>2020-06-25T21:36:23Z</time>
        <extensions><gpxtpx:TrackPointExtension><gpxtpx:hr>168</gpxtpx:hr></gpxtpx:TrackPointExtension></extensions>
      </trkpt>
      <trkpt lat="39.830467354135" lon="2.805051869115">
        <ele>409.4</ele>
        <time>2020-06-25T21:36:24Z</time>
        <extensions><gpxtpx:TrackPointExtension><gpxtpx:hr>168</gpxtpx:hr></gpxtpx:TrackPointExtension></extensions>
      </trkpt>
      <trkpt lat="39.830425444635" lon="2.805015659307">
        <ele>409.6</ele>
        <time>2020-06-25T21:36:25Z</time>
        <extensions><gpxtpx:TrackPointExtension><gpxtpx:hr>168</gpxtpx:hr></gpxtpx:TrackPointExtension></extensions>
      </trkpt>
      <trkpt lat="39.830383451316" lon="2.804980622965">
        <ele>410</ele>
        <time>2020-06-25T21:36:26Z</time>
        <extensions><gpxtpx:TrackPointExtension><gpxtpx:hr>168</gpxtpx:hr></gpxtpx:TrackPointExtension></extensions>
      </trkpt>
      <trkpt lat="39.830341457997" lon="2.804946760089">
        <ele>410.4</ele>
        <time>2020-06-25T21:36:28Z</time>
        <extensions><gpxtpx:TrackPointExtension><gpxtpx:hr>168</gpxtpx:hr></gpxtpx:TrackPointExtension></extensions>
      </trkpt>
      <trkpt lat="39.830310947881" lon="2.804918345448">
        <ele>410.6</ele>
        <time>2020-06-25T21:36:29Z</time>
        <extensions><gpxtpx:TrackPointExtension><gpxtpx:hr>168</gpxtpx:hr></gpxtpx:TrackPointExtension></extensions>
      </trkpt>
      <trkpt lat="39.83027666591" lon="2.804889260255">
        <ele>411</ele>
        <time>2020-06-25T21:36:30Z</time>
        <extensions><gpxtpx:TrackPointExtension><gpxtpx:hr>168</gpxtpx:hr></gpxtpx:TrackPointExtension></extensions>
      </trkpt>
      <trkpt lat="39.830234672591" lon="2.804853553361">
        <ele>411.4</ele>
        <time>2020-06-25T21:36:31Z</time>
        <extensions><gpxtpx:TrackPointExtension><gpxtpx:hr>168</gpxtpx:hr></gpxtpx:TrackPointExtension></extensions>
      </trkpt>
      <trkpt lat="39.830200306801" lon="2.804823043245">
        <ele>411.6</ele>
        <time>2020-06-25T21:36:32Z</time>
        <extensions><gpxtpx:TrackPointExtension><gpxtpx:hr>168</gpxtpx:hr></gpxtpx:TrackPointExtension></extensions>
      </trkpt>
      <trkpt lat="39.830158397301" lon="2.804785827609">
        <ele>412</ele>
        <time>2020-06-25T21:36:33Z</time>
        <extensions><gpxtpx:TrackPointExtension><gpxtpx:hr>168</gpxtpx:hr></gpxtpx:TrackPointExtension></extensions>
      </trkpt>
      <trkpt lat="39.830116403982" lon="2.804748109059">
        <ele>412.4</ele>
        <time>2020-06-25T21:36:34Z</time>
        <extensions><gpxtpx:TrackPointExtension><gpxtpx:hr>168</gpxtpx:hr></gpxtpx:TrackPointExtension></extensions>
      </trkpt>
      <trkpt lat="39.830082122011" lon="2.804715252011">
        <ele>412.6</ele>
        <time>2020-06-25T21:36:35Z</time>
        <extensions><gpxtpx:TrackPointExtension><gpxtpx:hr>167</gpxtpx:hr></gpxtpx:TrackPointExtension></extensions>
      </trkpt>
      <trkpt lat="39.830047756221" lon="2.804680886221">
        <ele>413</ele>
        <time>2020-06-25T21:36:36Z</time>
        <extensions><gpxtpx:TrackPointExtension><gpxtpx:hr>167</gpxtpx:hr></gpxtpx:TrackPointExtension></extensions>
      </trkpt>
      <trkpt lat="39.830009618576" lon="2.804645430784">
        <ele>413.2</ele>
        <time>2020-06-25T21:36:37Z</time>
        <extensions><gpxtpx:TrackPointExtension><gpxtpx:hr>167</gpxtpx:hr></gpxtpx:TrackPointExtension></extensions>
      </trkpt>
      <trkpt lat="39.829971480931" lon="2.804598659782">
        <ele>413.6</ele>
        <time>2020-06-25T21:36:38Z</time>
        <extensions><gpxtpx:TrackPointExtension><gpxtpx:hr>167</gpxtpx:hr></gpxtpx:TrackPointExtension></extensions>
      </trkpt>
      <trkpt lat="39.829925715757" lon="2.804533364781">
        <ele>413.6</ele>
        <time>2020-06-25T21:36:40Z</time>
        <extensions><gpxtpx:TrackPointExtension><gpxtpx:hr>167</gpxtpx:hr></gpxtpx:TrackPointExtension></extensions>
      </trkpt>
      <trkpt lat="39.829887578112" lon="2.804449881057">
        <ele>413.8</ele>
        <time>2020-06-25T21:36:41Z</time>
        <extensions><gpxtpx:TrackPointExtension><gpxtpx:hr>167</gpxtpx:hr></gpxtpx:TrackPointExtension></extensions>
      </trkpt>
      <trkpt lat="39.829853212322" lon="2.804364804772">
        <ele>414.2</ele>
        <time>2020-06-25T21:36:42Z</time>
        <extensions><gpxtpx:TrackPointExtension><gpxtpx:hr>167</gpxtpx:hr></gpxtpx:TrackPointExtension></extensions>
      </trkpt>
      <trkpt lat="39.829822702206" lon="2.80428366798">
        <ele>414.6</ele>
        <time>2020-06-25T21:36:43Z</time>
        <extensions><gpxtpx:TrackPointExtension><gpxtpx:hr>167</gpxtpx:hr></gpxtpx:TrackPointExtension></extensions>
      </trkpt>
      <trkpt lat="39.82979219209" lon="2.804204291387">
        <ele>414.8</ele>
        <time>2020-06-25T21:36:45Z</time>
        <extensions><gpxtpx:TrackPointExtension><gpxtpx:hr>167</gpxtpx:hr></gpxtpx:TrackPointExtension></extensions>
      </trkpt>
      <trkpt lat="39.829761681974" lon="2.804135392169">
        <ele>415.2</ele>
        <time>2020-06-25T21:36:46Z</time>
        <extensions><gpxtpx:TrackPointExtension><gpxtpx:hr>167</gpxtpx:hr></gpxtpx:TrackPointExtension></extensions>
      </trkpt>
      <trkpt lat="39.829727316184" lon="2.804050986436">
        <ele>415.4</ele>
        <time>2020-06-25T21:36:47Z</time>
        <extensions><gpxtpx:TrackPointExtension><gpxtpx:hr>166</gpxtpx:hr></gpxtpx:TrackPointExtension></extensions>
      </trkpt>
      <trkpt lat="39.829700577923" lon="2.803980662295">
        <ele>415.8</ele>
        <time>2020-06-25T21:36:48Z</time>
        <extensions><gpxtpx:TrackPointExtension><gpxtpx:hr>166</gpxtpx:hr></gpxtpx:TrackPointExtension></extensions>
      </trkpt>
      <trkpt lat="39.829666295952" lon="2.803897681485">
        <ele>416</ele>
        <time>2020-06-25T21:36:49Z</time>
        <extensions><gpxtpx:TrackPointExtension><gpxtpx:hr>166</gpxtpx:hr></gpxtpx:TrackPointExtension></extensions>
      </trkpt>
      <trkpt lat="39.829635785836" lon="2.80383020719">
        <ele>416.4</ele>
        <time>2020-06-25T21:36:50Z</time>
        <extensions><gpxtpx:TrackPointExtension><gpxtpx:hr>166</gpxtpx:hr></gpxtpx:TrackPointExtension></extensions>
      </trkpt>
      <trkpt lat="39.829597648191" lon="2.803749657131">
        <ele>416.8</ele>
        <time>2020-06-25T21:36:51Z</time>
        <extensions><gpxtpx:TrackPointExtension><gpxtpx:hr>166</gpxtpx:hr></gpxtpx:TrackPointExtension></extensions>
      </trkpt>
      <trkpt lat="39.829567138075" lon="2.803682434293">
        <ele>417.2</ele>
        <time>2020-06-25T21:36:52Z</time>
        <extensions><gpxtpx:TrackPointExtension><gpxtpx:hr>166</gpxtpx:hr></gpxtpx:TrackPointExtension></extensions>
      </trkpt>
      <trkpt lat="39.829532772285" lon="2.803601800415">
        <ele>417.4</ele>
        <time>2020-06-25T21:36:53Z</time>
        <extensions><gpxtpx:TrackPointExtension><gpxtpx:hr>166</gpxtpx:hr></gpxtpx:TrackPointExtension></extensions>
      </trkpt>
      <trkpt lat="39.829498406495" lon="2.803520495985">
        <ele>417.8</ele>
        <time>2020-06-25T21:36:55Z</time>
        <extensions><gpxtpx:TrackPointExtension><gpxtpx:hr>166</gpxtpx:hr></gpxtpx:TrackPointExtension></extensions>
      </trkpt>
      <trkpt lat="39.829464124524" lon="2.803439191555">
        <ele>418.2</ele>
        <time>2020-06-25T21:36:56Z</time>
        <extensions><gpxtpx:TrackPointExtension><gpxtpx:hr>166</gpxtpx:hr></gpxtpx:TrackPointExtension></extensions>
      </trkpt>
      <trkpt lat="39.829433614408" lon="2.803371968717">
        <ele>418.6</ele>
        <time>2020-06-25T21:36:57Z</time>
        <extensions><gpxtpx:TrackPointExtension><gpxtpx:hr>166</gpxtpx:hr></gpxtpx:TrackPointExtension></extensions>
      </trkpt>
      <trkpt lat="39.829410731821" lon="2.803304075327">
        <ele>418.8</ele>
        <time>2020-06-25T21:36:58Z</time>
        <extensions><gpxtpx:TrackPointExtension><gpxtpx:hr>166</gpxtpx:hr></gpxtpx:TrackPointExtension></extensions>
      </trkpt>
      <trkpt lat="39.829387849234" lon="2.803233751186">
        <ele>419.2</ele>
        <time>2020-06-25T21:36:59Z</time>
        <extensions><gpxtpx:TrackPointExtension><gpxtpx:hr>166</gpxtpx:hr></gpxtpx:TrackPointExtension></extensions>
      </trkpt>
      <trkpt lat="39.829372594176" lon="2.803164600511">
        <ele>419.6</ele>
        <time>2020-06-25T21:37:00Z</time>
        <extensions><gpxtpx:TrackPointExtension><gpxtpx:hr>166</gpxtpx:hr></gpxtpx:TrackPointExtension></extensions>
      </trkpt>
      <trkpt lat="39.829353483444" lon="2.803087319393">
        <ele>420.2</ele>
        <time>2020-06-25T21:37:01Z</time>
        <extensions><gpxtpx:TrackPointExtension><gpxtpx:hr>166</gpxtpx:hr></gpxtpx:TrackPointExtension></extensions>
      </trkpt>
      <trkpt lat="39.829334372712" lon="2.803020096555">
        <ele>420.6</ele>
        <time>2020-06-25T21:37:02Z</time>
        <extensions><gpxtpx:TrackPointExtension><gpxtpx:hr>166</gpxtpx:hr></gpxtpx:TrackPointExtension></extensions>
      </trkpt>
      <trkpt lat="39.829311490125" lon="2.802962596721">
        <ele>420.8</ele>
        <time>2020-06-25T21:37:03Z</time>
        <extensions><gpxtpx:TrackPointExtension><gpxtpx:hr>166</gpxtpx:hr></gpxtpx:TrackPointExtension></extensions>
      </trkpt>
      <trkpt lat="39.829269580625" lon="2.802939295039">
        <ele>420.8</ele>
        <time>2020-06-25T21:37:04Z</time>
        <extensions><gpxtpx:TrackPointExtension><gpxtpx:hr>166</gpxtpx:hr></gpxtpx:TrackPointExtension></extensions>
      </trkpt>
      <trkpt lat="39.829216187922" lon="2.802951700251">
        <ele>421.4</ele>
        <time>2020-06-25T21:37:06Z</time>
        <extensions><gpxtpx:TrackPointExtension><gpxtpx:hr>166</gpxtpx:hr></gpxtpx:TrackPointExtension></extensions>
      </trkpt>
      <trkpt lat="39.829189449661" lon="2.803001488737">
        <ele>421.6</ele>
        <time>2020-06-25T21:37:07Z</time>
        <extensions><gpxtpx:TrackPointExtension><gpxtpx:hr>166</gpxtpx:hr></gpxtpx:TrackPointExtension></extensions>
      </trkpt>
      <trkpt lat="39.829193221516" lon="2.8030666161">
        <ele>421.8</ele>
        <time>2020-06-25T21:37:08Z</time>
        <extensions><gpxtpx:TrackPointExtension><gpxtpx:hr>166</gpxtpx:hr></gpxtpx:TrackPointExtension></extensions>
      </trkpt>
      <trkpt lat="39.829200932864" lon="2.803135012404">
        <ele>422</ele>
        <time>2020-06-25T21:37:09Z</time>
        <extensions><gpxtpx:TrackPointExtension><gpxtpx:hr>166</gpxtpx:hr></gpxtpx:TrackPointExtension></extensions>
      </trkpt>
      <trkpt lat="39.829219959777" lon="2.803204414536">
        <ele>422.2</ele>
        <time>2020-06-25T21:37:10Z</time>
        <extensions><gpxtpx:TrackPointExtension><gpxtpx:hr>166</gpxtpx:hr></gpxtpx:TrackPointExtension></extensions>
      </trkpt>
      <trkpt lat="39.829242842364" lon="2.803274990134">
        <ele>422.4</ele>
        <time>2020-06-25T21:37:11Z</time>
        <extensions><gpxtpx:TrackPointExtension><gpxtpx:hr>167</gpxtpx:hr></gpxtpx:TrackPointExtension></extensions>
      </trkpt>
      <trkpt lat="39.829265724951" lon="2.803345565732">
        <ele>422.6</ele>
        <time>2020-06-25T21:37:12Z</time>
        <extensions><gpxtpx:TrackPointExtension><gpxtpx:hr>167</gpxtpx:hr></gpxtpx:TrackPointExtension></extensions>
      </trkpt>
      <trkpt lat="39.829296235067" lon="2.803427792171">
        <ele>422.8</ele>
        <time>2020-06-25T21:37:13Z</time>
        <extensions><gpxtpx:TrackPointExtension><gpxtpx:hr>168</gpxtpx:hr></gpxtpx:TrackPointExtension></extensions>
      </trkpt>
      <trkpt lat="39.829322973328" lon="2.803494763552">
        <ele>423</ele>
        <time>2020-06-25T21:37:14Z</time>
        <extensions><gpxtpx:TrackPointExtension><gpxtpx:hr>169</gpxtpx:hr></gpxtpx:TrackPointExtension></extensions>
      </trkpt>
      <trkpt lat="39.829353483444" lon="2.803573218136">
        <ele>423.2</ele>
        <time>2020-06-25T21:37:15Z</time>
        <extensions><gpxtpx:TrackPointExtension><gpxtpx:hr>168</gpxtpx:hr></gpxtpx:TrackPointExtension></extensions>
      </trkpt>
      <trkpt lat="39.829380221705" lon="2.803650247797">
        <ele>423.4</ele>
        <time>2020-06-25T21:37:16Z</time>
        <extensions><gpxtpx:TrackPointExtension><gpxtpx:hr>168</gpxtpx:hr></gpxtpx:TrackPointExtension></extensions>
      </trkpt>
      <trkpt lat="39.829406876147" lon="2.803715291341">
        <ele>423.6</ele>
        <time>2020-06-25T21:37:17Z</time>
        <extensions><gpxtpx:TrackPointExtension><gpxtpx:hr>168</gpxtpx:hr></gpxtpx:TrackPointExtension></extensions>
      </trkpt>
      <trkpt lat="39.829429758734" lon="2.803781843627">
        <ele>423.8</ele>
        <time>2020-06-25T21:37:18Z</time>
        <extensions><gpxtpx:TrackPointExtension><gpxtpx:hr>168</gpxtpx:hr></gpxtpx:TrackPointExtension></extensions>
      </trkpt>
      <trkpt lat="39.829456496995" lon="2.803847641542">
        <ele>424</ele>
        <time>2020-06-25T21:37:19Z</time>
        <extensions><gpxtpx:TrackPointExtension><gpxtpx:hr>168</gpxtpx:hr></gpxtpx:TrackPointExtension></extensions>
      </trkpt>
      <trkpt lat="39.829487007111" lon="2.803929197429">
        <ele>424.2</ele>
        <time>2020-06-25T21:37:20Z</time>
        <extensions><gpxtpx:TrackPointExtension><gpxtpx:hr>168</gpxtpx:hr></gpxtpx:TrackPointExtension></extensions>
      </trkpt>
      <trkpt lat="39.829521289082" lon="2.804020979234">
        <ele>424.6</ele>
        <time>2020-06-25T21:37:22Z</time>
        <extensions><gpxtpx:TrackPointExtension><gpxtpx:hr>168</gpxtpx:hr></gpxtpx:TrackPointExtension></extensions>
      </trkpt>
      <trkpt lat="39.829551883017" lon="2.804103205673">
        <ele>424.8</ele>
        <time>2020-06-25T21:37:23Z</time>
        <extensions><gpxtpx:TrackPointExtension><gpxtpx:hr>167</gpxtpx:hr></gpxtpx:TrackPointExtension></extensions>
      </trkpt>
      <trkpt lat="39.829582393133" lon="2.804186940854">
        <ele>425.2</ele>
        <time>2020-06-25T21:37:24Z</time>
        <extensions><gpxtpx:TrackPointExtension><gpxtpx:hr>167</gpxtpx:hr></gpxtpx:TrackPointExtension></extensions>
      </trkpt>
      <trkpt lat="39.829612903249" lon="2.804285176722">
        <ele>425.6</ele>
        <time>2020-06-25T21:37:25Z</time>
        <extensions><gpxtpx:TrackPointExtension><gpxtpx:hr>167</gpxtpx:hr></gpxtpx:TrackPointExtension></extensions>
      </trkpt>
      <trkpt lat="39.829639557691" lon="2.80436497241">
        <ele>426</ele>
        <time>2020-06-25T21:37:26Z</time>
        <extensions><gpxtpx:TrackPointExtension><gpxtpx:hr>167</gpxtpx:hr></gpxtpx:TrackPointExtension></extensions>
      </trkpt>
      <trkpt lat="39.829670067807" lon="2.804456586577">
        <ele>426.4</ele>
        <time>2020-06-25T21:37:27Z</time>
        <extensions><gpxtpx:TrackPointExtension><gpxtpx:hr>166</gpxtpx:hr></gpxtpx:TrackPointExtension></extensions>
      </trkpt>
      <trkpt lat="39.829700577923" lon="2.804550296219">
        <ele>426.8</ele>
        <time>2020-06-25T21:37:28Z</time>
        <extensions><gpxtpx:TrackPointExtension><gpxtpx:hr>166</gpxtpx:hr></gpxtpx:TrackPointExtension></extensions>
      </trkpt>
      <trkpt lat="39.829731171858" lon="2.804644173499">
        <ele>427.2</ele>
        <time>2020-06-25T21:37:29Z</time>
        <extensions><gpxtpx:TrackPointExtension><gpxtpx:hr>166</gpxtpx:hr></gpxtpx:TrackPointExtension></extensions>
      </trkpt>
      <trkpt lat="39.829765453829" lon="2.804733608372">
        <ele>427.6</ele>
        <time>2020-06-25T21:37:31Z</time>
        <extensions><gpxtpx:TrackPointExtension><gpxtpx:hr>165</gpxtpx:hr></gpxtpx:TrackPointExtension></extensions>
      </trkpt>
      <trkpt lat="39.829788336416" lon="2.804805357436">
        <ele>428</ele>
        <time>2020-06-25T21:37:32Z</time>
        <extensions><gpxtpx:TrackPointExtension><gpxtpx:hr>165</gpxtpx:hr></gpxtpx:TrackPointExtension></extensions>
      </trkpt>
      <trkpt lat="39.829822702206" lon="2.804888589703">
        <ele>428.4</ele>
        <time>2020-06-25T21:37:33Z</time>
        <extensions><gpxtpx:TrackPointExtension><gpxtpx:hr>165</gpxtpx:hr></gpxtpx:TrackPointExtension></extensions>
      </trkpt>
      <trkpt lat="39.829853212322" lon="2.80495673455">
        <ele>428.6</ele>
        <time>2020-06-25T21:37:34Z</time>
        <extensions><gpxtpx:TrackPointExtension><gpxtpx:hr>165</gpxtpx:hr></gpxtpx:TrackPointExtension></extensions>
      </trkpt>
      <trkpt lat="39.829891349967" lon="2.805039966817">
        <ele>429</ele>
        <time>2020-06-25T21:37:35Z</time>
        <extensions><gpxtpx:TrackPointExtension><gpxtpx:hr>165</gpxtpx:hr></gpxtpx:TrackPointExtension></extensions>
      </trkpt>
      <trkpt lat="39.829929487612" lon="2.805123199084">
        <ele>429.6</ele>
        <time>2020-06-25T21:37:36Z</time>
        <extensions><gpxtpx:TrackPointExtension><gpxtpx:hr>165</gpxtpx:hr></gpxtpx:TrackPointExtension></extensions>
      </trkpt>
      <trkpt lat="39.829967625257" lon="2.805190421922">
        <ele>429.8</ele>
        <time>2020-06-25T21:37:37Z</time>
        <extensions><gpxtpx:TrackPointExtension><gpxtpx:hr>165</gpxtpx:hr></gpxtpx:TrackPointExtension></extensions>
      </trkpt>
      <trkpt lat="39.830017246105" lon="2.805267451583">
        <ele>430.4</ele>
        <time>2020-06-25T21:37:38Z</time>
        <extensions><gpxtpx:TrackPointExtension><gpxtpx:hr>165</gpxtpx:hr></gpxtpx:TrackPointExtension></extensions>
      </trkpt>
      <trkpt lat="39.830063011279" lon="2.805342553407">
        <ele>430.8</ele>
        <time>2020-06-25T21:37:40Z</time>
        <extensions><gpxtpx:TrackPointExtension><gpxtpx:hr>166</gpxtpx:hr></gpxtpx:TrackPointExtension></extensions>
      </trkpt>
      <trkpt lat="39.830105004598" lon="2.805403825096">
        <ele>431.2</ele>
        <time>2020-06-25T21:37:41Z</time>
        <extensions><gpxtpx:TrackPointExtension><gpxtpx:hr>166</gpxtpx:hr></gpxtpx:TrackPointExtension></extensions>
      </trkpt>
      <trkpt lat="39.830146914098" lon="2.805463671862">
        <ele>431.6</ele>
        <time>2020-06-25T21:37:42Z</time>
        <extensions><gpxtpx:TrackPointExtension><gpxtpx:hr>166</gpxtpx:hr></gpxtpx:TrackPointExtension></extensions>
      </trkpt>
      <trkpt lat="39.830196534946" lon="2.805530140329">
        <ele>432.2</ele>
        <time>2020-06-25T21:37:43Z</time>
        <extensions><gpxtpx:TrackPointExtension><gpxtpx:hr>166</gpxtpx:hr></gpxtpx:TrackPointExtension></extensions>
      </trkpt>
      <trkpt lat="39.830230900736" lon="2.80557950972">
        <ele>432.4</ele>
        <time>2020-06-25T21:37:44Z</time>
        <extensions><gpxtpx:TrackPointExtension><gpxtpx:hr>166</gpxtpx:hr></gpxtpx:TrackPointExtension></extensions>
      </trkpt>
      <trkpt lat="39.830272810236" lon="2.805633656794">
        <ele>432.8</ele>
        <time>2020-06-25T21:37:45Z</time>
        <extensions><gpxtpx:TrackPointExtension><gpxtpx:hr>166</gpxtpx:hr></gpxtpx:TrackPointExtension></extensions>
      </trkpt>
      <trkpt lat="39.830310947881" lon="2.805683696737">
        <ele>433.2</ele>
        <time>2020-06-25T21:37:46Z</time>
        <extensions><gpxtpx:TrackPointExtension><gpxtpx:hr>166</gpxtpx:hr></gpxtpx:TrackPointExtension></extensions>
      </trkpt>
      <trkpt lat="39.8303529412" lon="2.805731892662">
        <ele>433.6</ele>
        <time>2020-06-25T21:37:47Z</time>
        <extensions><gpxtpx:TrackPointExtension><gpxtpx:hr>166</gpxtpx:hr></gpxtpx:TrackPointExtension></extensions>
      </trkpt>
      <trkpt lat="39.830387223171" lon="2.805771203773">
        <ele>433.8</ele>
        <time>2020-06-25T21:37:48Z</time>
        <extensions><gpxtpx:TrackPointExtension><gpxtpx:hr>166</gpxtpx:hr></gpxtpx:TrackPointExtension></extensions>
      </trkpt>
      <trkpt lat="39.830421588961" lon="2.805810095789">
        <ele>434.2</ele>
        <time>2020-06-25T21:37:49Z</time>
        <extensions><gpxtpx:TrackPointExtension><gpxtpx:hr>166</gpxtpx:hr></gpxtpx:TrackPointExtension></extensions>
      </trkpt>
      <trkpt lat="39.830455954751" lon="2.805848903986">
        <ele>434.4</ele>
        <time>2020-06-25T21:37:50Z</time>
        <extensions><gpxtpx:TrackPointExtension><gpxtpx:hr>166</gpxtpx:hr></gpxtpx:TrackPointExtension></extensions>
      </trkpt>
      <trkpt lat="39.830494092396" lon="2.805885197613">
        <ele>434.8</ele>
        <time>2020-06-25T21:37:51Z</time>
        <extensions><gpxtpx:TrackPointExtension><gpxtpx:hr>166</gpxtpx:hr></gpxtpx:TrackPointExtension></extensions>
      </trkpt>
      <trkpt lat="39.83053985757" lon="2.805918557575">
        <ele>435</ele>
        <time>2020-06-25T21:37:52Z</time>
        <extensions><gpxtpx:TrackPointExtension><gpxtpx:hr>166</gpxtpx:hr></gpxtpx:TrackPointExtension></extensions>
      </trkpt>
      <trkpt lat="39.830585622744" lon="2.80594831332">
        <ele>435.2</ele>
        <time>2020-06-25T21:37:53Z</time>
        <extensions><gpxtpx:TrackPointExtension><gpxtpx:hr>166</gpxtpx:hr></gpxtpx:TrackPointExtension></extensions>
      </trkpt>
      <trkpt lat="39.830635243592" lon="2.805975554495">
        <ele>435.4</ele>
        <time>2020-06-25T21:37:54Z</time>
        <extensions><gpxtpx:TrackPointExtension><gpxtpx:hr>166</gpxtpx:hr></gpxtpx:TrackPointExtension></extensions>
      </trkpt>
      <trkpt lat="39.830700035679" lon="2.806013189226">
        <ele>435.6</ele>
        <time>2020-06-25T21:37:56Z</time>
        <extensions><gpxtpx:TrackPointExtension><gpxtpx:hr>167</gpxtpx:hr></gpxtpx:TrackPointExtension></extensions>
      </trkpt>
      <trkpt lat="39.830749656527" lon="2.806045878636">
        <ele>435.8</ele>
        <time>2020-06-25T21:37:57Z</time>
        <extensions><gpxtpx:TrackPointExtension><gpxtpx:hr>167</gpxtpx:hr></gpxtpx:TrackPointExtension></extensions>
      </trkpt>
      <trkpt lat="39.830806904904" lon="2.806085189747">
        <ele>436.4</ele>
        <time>2020-06-25T21:37:58Z</time>
        <extensions><gpxtpx:TrackPointExtension><gpxtpx:hr>167</gpxtpx:hr></gpxtpx:TrackPointExtension></extensions>
      </trkpt>
      <trkpt lat="39.830825931817" lon="2.806102624099">
        <ele>437</ele>
        <time>2020-06-25T21:37:59Z</time>
        <extensions><gpxtpx:TrackPointExtension><gpxtpx:hr>167</gpxtpx:hr></gpxtpx:TrackPointExtension></extensions>
      </trkpt>
      <trkpt lat="39.830833559346" lon="2.806110503085">
        <ele>437.2</ele>
        <time>2020-06-25T21:38:00Z</time>
        <extensions><gpxtpx:TrackPointExtension><gpxtpx:hr>167</gpxtpx:hr></gpxtpx:TrackPointExtension></extensions>
      </trkpt>
      <trkpt lat="39.830845042549" lon="2.80612098046">
        <ele>437.6</ele>
        <time>2020-06-25T21:38:01Z</time>
        <extensions><gpxtpx:TrackPointExtension><gpxtpx:hr>167</gpxtpx:hr></gpxtpx:TrackPointExtension></extensions>
      </trkpt>
      <trkpt lat="39.830867925136" lon="2.806156519716">
        <ele>437.6</ele>
        <time>2020-06-25T21:38:02Z</time>
        <extensions><gpxtpx:TrackPointExtension><gpxtpx:hr>167</gpxtpx:hr></gpxtpx:TrackPointExtension></extensions>
      </trkpt>
      <trkpt lat="39.830898435252" lon="2.8062265924">
        <ele>437.6</ele>
        <time>2020-06-25T21:38:03Z</time>
        <extensions><gpxtpx:TrackPointExtension><gpxtpx:hr>167</gpxtpx:hr></gpxtpx:TrackPointExtension></extensions>
      </trkpt>
      <trkpt lat="39.830917545984" lon="2.806297167998">
        <ele>438</ele>
        <time>2020-06-25T21:38:04Z</time>
        <extensions><gpxtpx:TrackPointExtension><gpxtpx:hr>167</gpxtpx:hr></gpxtpx:TrackPointExtension></extensions>
      </trkpt>
      <trkpt lat="39.830940428571" lon="2.80638417212">
        <ele>438.4</ele>
        <time>2020-06-25T21:38:06Z</time>
        <extensions><gpxtpx:TrackPointExtension><gpxtpx:hr>167</gpxtpx:hr></gpxtpx:TrackPointExtension></extensions>
      </trkpt>
      <trkpt lat="39.830959455484" lon="2.806457346107">
        <ele>438.6</ele>
        <time>2020-06-25T21:38:07Z</time>
        <extensions><gpxtpx:TrackPointExtension><gpxtpx:hr>167</gpxtpx:hr></gpxtpx:TrackPointExtension></extensions>
      </trkpt>
      <trkpt lat="39.830974710542" lon="2.806530352456">
        <ele>439</ele>
        <time>2020-06-25T21:38:08Z</time>
        <extensions><gpxtpx:TrackPointExtension><gpxtpx:hr>168</gpxtpx:hr></gpxtpx:TrackPointExtension></extensions>
      </trkpt>
      <trkpt lat="39.830986193745" lon="2.806602604434">
        <ele>439.2</ele>
        <time>2020-06-25T21:38:09Z</time>
        <extensions><gpxtpx:TrackPointExtension><gpxtpx:hr>167</gpxtpx:hr></gpxtpx:TrackPointExtension></extensions>
      </trkpt>
      <trkpt lat="39.830986193745" lon="2.80668005319">
        <ele>440</ele>
        <time>2020-06-25T21:38:10Z</time>
        <extensions><gpxtpx:TrackPointExtension><gpxtpx:hr>167</gpxtpx:hr></gpxtpx:TrackPointExtension></extensions>
      </trkpt>
      <trkpt lat="39.830986193745" lon="2.80672531545">
        <ele>440.6</ele>
        <time>2020-06-25T21:38:11Z</time>
        <extensions><gpxtpx:TrackPointExtension><gpxtpx:hr>167</gpxtpx:hr></gpxtpx:TrackPointExtension></extensions>
      </trkpt>
      <trkpt lat="39.830974710542" lon="2.806765129475">
        <ele>440.8</ele>
        <time>2020-06-25T21:38:12Z</time>
        <extensions><gpxtpx:TrackPointExtension><gpxtpx:hr>167</gpxtpx:hr></gpxtpx:TrackPointExtension></extensions>
      </trkpt>
      <trkpt lat="39.830936572897" lon="2.806802596568">
        <ele>440.8</ele>
        <time>2020-06-25T21:38:13Z</time>
        <extensions><gpxtpx:TrackPointExtension><gpxtpx:hr>167</gpxtpx:hr></gpxtpx:TrackPointExtension></extensions>
      </trkpt>
      <trkpt lat="39.830883180194" lon="2.80682338368">
        <ele>441.2</ele>
        <time>2020-06-25T21:38:14Z</time>
        <extensions><gpxtpx:TrackPointExtension><gpxtpx:hr>167</gpxtpx:hr></gpxtpx:TrackPointExtension></extensions>
      </trkpt>
      <trkpt lat="39.83083741502" lon="2.806782815284">
        <ele>442.2</ele>
        <time>2020-06-25T21:38:15Z</time>
        <extensions><gpxtpx:TrackPointExtension><gpxtpx:hr>168</gpxtpx:hr></gpxtpx:TrackPointExtension></extensions>
      </trkpt>
      <trkpt lat="39.830810676759" lon="2.806728249115">
        <ele>442.4</ele>
        <time>2020-06-25T21:38:16Z</time>
        <extensions><gpxtpx:TrackPointExtension><gpxtpx:hr>168</gpxtpx:hr></gpxtpx:TrackPointExtension></extensions>
      </trkpt>
      <trkpt lat="39.830787794172" lon="2.806670246367">
        <ele>442.8</ele>
        <time>2020-06-25T21:38:17Z</time>
        <extensions><gpxtpx:TrackPointExtension><gpxtpx:hr>168</gpxtpx:hr></gpxtpx:TrackPointExtension></extensions>
      </trkpt>
      <trkpt lat="39.83076113973" lon="2.806599922226">
        <ele>443.2</ele>
        <time>2020-06-25T21:38:19Z</time>
        <extensions><gpxtpx:TrackPointExtension><gpxtpx:hr>168</gpxtpx:hr></gpxtpx:TrackPointExtension></extensions>
      </trkpt>
      <trkpt lat="39.830738173324" lon="2.806540829831">
        <ele>443.6</ele>
        <time>2020-06-25T21:38:20Z</time>
        <extensions><gpxtpx:TrackPointExtension><gpxtpx:hr>168</gpxtpx:hr></gpxtpx:TrackPointExtension></extensions>
      </trkpt>
      <trkpt lat="39.830719146411" lon="2.806483581454">
        <ele>444</ele>
        <time>2020-06-25T21:38:21Z</time>
        <extensions><gpxtpx:TrackPointExtension><gpxtpx:hr>168</gpxtpx:hr></gpxtpx:TrackPointExtension></extensions>
      </trkpt>
      <trkpt lat="39.83069240815" lon="2.806418034996">
        <ele>444.6</ele>
        <time>2020-06-25T21:38:22Z</time>
        <extensions><gpxtpx:TrackPointExtension><gpxtpx:hr>168</gpxtpx:hr></gpxtpx:TrackPointExtension></extensions>
      </trkpt>
      <trkpt lat="39.830665753708" lon="2.80635651185">
        <ele>445</ele>
        <time>2020-06-25T21:38:23Z</time>
        <extensions><gpxtpx:TrackPointExtension><gpxtpx:hr>168</gpxtpx:hr></gpxtpx:TrackPointExtension></extensions>
      </trkpt>
      <trkpt lat="39.830642871121" lon="2.80630789683">
        <ele>445.2</ele>
        <time>2020-06-25T21:38:24Z</time>
        <extensions><gpxtpx:TrackPointExtension><gpxtpx:hr>169</gpxtpx:hr></gpxtpx:TrackPointExtension></extensions>
      </trkpt>
      <trkpt lat="39.830623760389" lon="2.806260203819">
        <ele>445.6</ele>
        <time>2020-06-25T21:38:25Z</time>
        <extensions><gpxtpx:TrackPointExtension><gpxtpx:hr>168</gpxtpx:hr></gpxtpx:TrackPointExtension></extensions>
      </trkpt>
      <trkpt lat="39.830597105947" lon="2.806213684274">
        <ele>446</ele>
        <time>2020-06-25T21:38:26Z</time>
        <extensions><gpxtpx:TrackPointExtension><gpxtpx:hr>168</gpxtpx:hr></gpxtpx:TrackPointExtension></extensions>
      </trkpt>
      <trkpt lat="39.830551256954" lon="2.806167667643">
        <ele>446</ele>
        <time>2020-06-25T21:38:27Z</time>
        <extensions><gpxtpx:TrackPointExtension><gpxtpx:hr>168</gpxtpx:hr></gpxtpx:TrackPointExtension></extensions>
      </trkpt>
      <trkpt lat="39.830497864251" lon="2.806162722322">
        <ele>446.6</ele>
        <time>2020-06-25T21:38:28Z</time>
        <extensions><gpxtpx:TrackPointExtension><gpxtpx:hr>167</gpxtpx:hr></gpxtpx:TrackPointExtension></extensions>
      </trkpt>
      <trkpt lat="39.830471209809" lon="2.806208906591">
        <ele>446.8</ele>
        <time>2020-06-25T21:38:29Z</time>
        <extensions><gpxtpx:TrackPointExtension><gpxtpx:hr>167</gpxtpx:hr></gpxtpx:TrackPointExtension></extensions>
      </trkpt>
      <trkpt lat="39.83046358228" lon="2.806267579891">
        <ele>447.4</ele>
        <time>2020-06-25T21:38:31Z</time>
        <extensions><gpxtpx:TrackPointExtension><gpxtpx:hr>168</gpxtpx:hr></gpxtpx:TrackPointExtension></extensions>
      </trkpt>
      <trkpt lat="39.830478837338" lon="2.806307393916">
        <ele>447.6</ele>
        <time>2020-06-25T21:38:32Z</time>
        <extensions><gpxtpx:TrackPointExtension><gpxtpx:hr>167</gpxtpx:hr></gpxtpx:TrackPointExtension></extensions>
      </trkpt>
      <trkpt lat="39.830490236722" lon="2.806334132177">
        <ele>447.8</ele>
        <time>2020-06-25T21:38:33Z</time>
        <extensions><gpxtpx:TrackPointExtension><gpxtpx:hr>167</gpxtpx:hr></gpxtpx:TrackPointExtension></extensions>
      </trkpt>
      <trkpt lat="39.830509347454" lon="2.806370593442">
        <ele>448.2</ele>
        <time>2020-06-25T21:38:34Z</time>
        <extensions><gpxtpx:TrackPointExtension><gpxtpx:hr>167</gpxtpx:hr></gpxtpx:TrackPointExtension></extensions>
      </trkpt>
      <trkpt lat="39.830524602512" lon="2.80641015601">
        <ele>448.6</ele>
        <time>2020-06-25T21:38:35Z</time>
        <extensions><gpxtpx:TrackPointExtension><gpxtpx:hr>167</gpxtpx:hr></gpxtpx:TrackPointExtension></extensions>
      </trkpt>
      <trkpt lat="39.830551256954" lon="2.806467404387">
        <ele>449</ele>
        <time>2020-06-25T21:38:36Z</time>
        <extensions><gpxtpx:TrackPointExtension><gpxtpx:hr>167</gpxtpx:hr></gpxtpx:TrackPointExtension></extensions>
      </trkpt>
      <trkpt lat="39.83057422336" lon="2.806517695787">
        <ele>449.4</ele>
        <time>2020-06-25T21:38:37Z</time>
        <extensions><gpxtpx:TrackPointExtension><gpxtpx:hr>167</gpxtpx:hr></gpxtpx:TrackPointExtension></extensions>
      </trkpt>
      <trkpt lat="39.830597105947" lon="2.806580643856">
        <ele>449.8</ele>
        <time>2020-06-25T21:38:38Z</time>
        <extensions><gpxtpx:TrackPointExtension><gpxtpx:hr>167</gpxtpx:hr></gpxtpx:TrackPointExtension></extensions>
      </trkpt>
      <trkpt lat="39.830612361005" lon="2.806637389319">
        <ele>450.2</ele>
        <time>2020-06-25T21:38:39Z</time>
        <extensions><gpxtpx:TrackPointExtension><gpxtpx:hr>167</gpxtpx:hr></gpxtpx:TrackPointExtension></extensions>
      </trkpt>
      <trkpt lat="39.830631387918" lon="2.806696481714">
        <ele>450.6</ele>
        <time>2020-06-25T21:38:40Z</time>
        <extensions><gpxtpx:TrackPointExtension><gpxtpx:hr>167</gpxtpx:hr></gpxtpx:TrackPointExtension></extensions>
      </trkpt>
      <trkpt lat="39.83065049865" lon="2.806767057312">
        <ele>451</ele>
        <time>2020-06-25T21:38:42Z</time>
        <extensions><gpxtpx:TrackPointExtension><gpxtpx:hr>167</gpxtpx:hr></gpxtpx:TrackPointExtension></extensions>
      </trkpt>
      <trkpt lat="39.830669525563" lon="2.806825982069">
        <ele>451.4</ele>
        <time>2020-06-25T21:38:43Z</time>
        <extensions><gpxtpx:TrackPointExtension><gpxtpx:hr>167</gpxtpx:hr></gpxtpx:TrackPointExtension></extensions>
      </trkpt>
      <trkpt lat="39.830684780621" lon="2.806896809124">
        <ele>451.8</ele>
        <time>2020-06-25T21:38:44Z</time>
        <extensions><gpxtpx:TrackPointExtension><gpxtpx:hr>167</gpxtpx:hr></gpxtpx:TrackPointExtension></extensions>
      </trkpt>
      <trkpt lat="39.830700035679" lon="2.806957577899">
        <ele>452.2</ele>
        <time>2020-06-25T21:38:45Z</time>
        <extensions><gpxtpx:TrackPointExtension><gpxtpx:hr>167</gpxtpx:hr></gpxtpx:TrackPointExtension></extensions>
      </trkpt>
      <trkpt lat="39.830715290737" lon="2.807036032483">
        <ele>452.6</ele>
        <time>2020-06-25T21:38:46Z</time>
        <extensions><gpxtpx:TrackPointExtension><gpxtpx:hr>167</gpxtpx:hr></gpxtpx:TrackPointExtension></extensions>
      </trkpt>
      <trkpt lat="39.830722918266" lon="2.807104428787">
        <ele>453</ele>
        <time>2020-06-25T21:38:47Z</time>
        <extensions><gpxtpx:TrackPointExtension><gpxtpx:hr>167</gpxtpx:hr></gpxtpx:TrackPointExtension></extensions>
      </trkpt>
      <trkpt lat="39.830730545795" lon="2.807188583063">
        <ele>453.4</ele>
        <time>2020-06-25T21:38:48Z</time>
        <extensions><gpxtpx:TrackPointExtension><gpxtpx:hr>168</gpxtpx:hr></gpxtpx:TrackPointExtension></extensions>
      </trkpt>
      <trkpt lat="39.830738173324" lon="2.807274162262">
        <ele>453.8</ele>
        <time>2020-06-25T21:38:49Z</time>
        <extensions><gpxtpx:TrackPointExtension><gpxtpx:hr>171</gpxtpx:hr></gpxtpx:TrackPointExtension></extensions>
      </trkpt>
      <trkpt lat="39.830742028998" lon="2.807345995145">
        <ele>454.2</ele>
        <time>2020-06-25T21:38:50Z</time>
        <extensions><gpxtpx:TrackPointExtension><gpxtpx:hr>172</gpxtpx:hr></gpxtpx:TrackPointExtension></extensions>
      </trkpt>
      <trkpt lat="39.830749656527" lon="2.807431825801">
        <ele>454.6</ele>
        <time>2020-06-25T21:38:52Z</time>
        <extensions><gpxtpx:TrackPointExtension><gpxtpx:hr>172</gpxtpx:hr></gpxtpx:TrackPointExtension></extensions>
      </trkpt>
      <trkpt lat="39.830753512201" lon="2.807503323408">
        <ele>455</ele>
        <time>2020-06-25T21:38:53Z</time>
        <extensions><gpxtpx:TrackPointExtension><gpxtpx:hr>172</gpxtpx:hr></gpxtpx:TrackPointExtension></extensions>
      </trkpt>
      <trkpt lat="39.830757284056" lon="2.807586723313">
        <ele>455.4</ele>
        <time>2020-06-25T21:38:54Z</time>
        <extensions><gpxtpx:TrackPointExtension><gpxtpx:hr>173</gpxtpx:hr></gpxtpx:TrackPointExtension></extensions>
      </trkpt>
      <trkpt lat="39.83076113973" lon="2.807653778513">
        <ele>455.8</ele>
        <time>2020-06-25T21:38:55Z</time>
        <extensions><gpxtpx:TrackPointExtension><gpxtpx:hr>173</gpxtpx:hr></gpxtpx:TrackPointExtension></extensions>
      </trkpt>
      <trkpt lat="39.830768767259" lon="2.807731227269">
        <ele>456.2</ele>
        <time>2020-06-25T21:38:56Z</time>
        <extensions><gpxtpx:TrackPointExtension><gpxtpx:hr>173</gpxtpx:hr></gpxtpx:TrackPointExtension></extensions>
      </trkpt>
      <trkpt lat="39.830776394788" lon="2.80780658055">
        <ele>456.6</ele>
        <time>2020-06-25T21:38:57Z</time>
        <extensions><gpxtpx:TrackPointExtension><gpxtpx:hr>173</gpxtpx:hr></gpxtpx:TrackPointExtension></extensions>
      </trkpt>
      <trkpt lat="39.830787794172" lon="2.807868355153">
        <ele>457</ele>
        <time>2020-06-25T21:38:58Z</time>
        <extensions><gpxtpx:TrackPointExtension><gpxtpx:hr>173</gpxtpx:hr></gpxtpx:TrackPointExtension></extensions>
      </trkpt>
      <trkpt lat="39.83080304923" lon="2.807942702606">
        <ele>457.2</ele>
        <time>2020-06-25T21:38:59Z</time>
        <extensions><gpxtpx:TrackPointExtension><gpxtpx:hr>173</gpxtpx:hr></gpxtpx:TrackPointExtension></extensions>
      </trkpt>
      <trkpt lat="39.830822159962" lon="2.808005147761">
        <ele>457.6</ele>
        <time>2020-06-25T21:39:00Z</time>
        <extensions><gpxtpx:TrackPointExtension><gpxtpx:hr>173</gpxtpx:hr></gpxtpx:TrackPointExtension></extensions>
      </trkpt>
      <trkpt lat="39.83083741502" lon="2.808056444989">
        <ele>458.2</ele>
        <time>2020-06-25T21:39:01Z</time>
        <extensions><gpxtpx:TrackPointExtension><gpxtpx:hr>173</gpxtpx:hr></gpxtpx:TrackPointExtension></extensions>
      </trkpt>
      <trkpt lat="39.830852670078" lon="2.808097013385">
        <ele>458.8</ele>
        <time>2020-06-25T21:39:02Z</time>
        <extensions><gpxtpx:TrackPointExtension><gpxtpx:hr>173</gpxtpx:hr></gpxtpx:TrackPointExtension></extensions>
      </trkpt>
      <trkpt lat="39.830867925136" lon="2.80813012189">
        <ele>459.2</ele>
        <time>2020-06-25T21:39:03Z</time>
        <extensions><gpxtpx:TrackPointExtension><gpxtpx:hr>173</gpxtpx:hr></gpxtpx:TrackPointExtension></extensions>
      </trkpt>
      <trkpt lat="39.830883180194" lon="2.808170187372">
        <ele>459.6</ele>
        <time>2020-06-25T21:39:05Z</time>
        <extensions><gpxtpx:TrackPointExtension><gpxtpx:hr>173</gpxtpx:hr></gpxtpx:TrackPointExtension></extensions>
      </trkpt>
      <trkpt lat="39.830898435252" lon="2.808219305306">
        <ele>460.4</ele>
        <time>2020-06-25T21:39:06Z</time>
        <extensions><gpxtpx:TrackPointExtension><gpxtpx:hr>173</gpxtpx:hr></gpxtpx:TrackPointExtension></extensions>
      </trkpt>
      <trkpt lat="39.830898435252" lon="2.808294826225">
        <ele>460.4</ele>
        <time>2020-06-25T21:39:07Z</time>
        <extensions><gpxtpx:TrackPointExtension><gpxtpx:hr>173</gpxtpx:hr></gpxtpx:TrackPointExtension></extensions>
      </trkpt>
      <trkpt lat="39.83083741502" lon="2.808330114024">
        <ele>461.2</ele>
        <time>2020-06-25T21:39:08Z</time>
        <extensions><gpxtpx:TrackPointExtension><gpxtpx:hr>173</gpxtpx:hr></gpxtpx:TrackPointExtension></extensions>
      </trkpt>
      <trkpt lat="39.830784022317" lon="2.808273200923">
        <ele>461.6</ele>
        <time>2020-06-25T21:39:09Z</time>
        <extensions><gpxtpx:TrackPointExtension><gpxtpx:hr>172</gpxtpx:hr></gpxtpx:TrackPointExtension></extensions>
      </trkpt>
      <trkpt lat="39.83076113973" lon="2.8082047208">
        <ele>462.2</ele>
        <time>2020-06-25T21:39:10Z</time>
        <extensions><gpxtpx:TrackPointExtension><gpxtpx:hr>172</gpxtpx:hr></gpxtpx:TrackPointExtension></extensions>
      </trkpt>
      <trkpt lat="39.830734401469" lon="2.80812676913">
        <ele>462.8</ele>
        <time>2020-06-25T21:39:12Z</time>
        <extensions><gpxtpx:TrackPointExtension><gpxtpx:hr>172</gpxtpx:hr></gpxtpx:TrackPointExtension></extensions>
      </trkpt>
      <trkpt lat="39.830707663208" lon="2.808051164392">
        <ele>463.4</ele>
        <time>2020-06-25T21:39:13Z</time>
        <extensions><gpxtpx:TrackPointExtension><gpxtpx:hr>172</gpxtpx:hr></gpxtpx:TrackPointExtension></extensions>
      </trkpt>
      <trkpt lat="39.830688636295" lon="2.807976565482">
        <ele>463.8</ele>
        <time>2020-06-25T21:39:14Z</time>
        <extensions><gpxtpx:TrackPointExtension><gpxtpx:hr>172</gpxtpx:hr></gpxtpx:TrackPointExtension></extensions>
      </trkpt>
      <trkpt lat="39.830665753708" lon="2.807903391495">
        <ele>464.4</ele>
        <time>2020-06-25T21:39:15Z</time>
        <extensions><gpxtpx:TrackPointExtension><gpxtpx:hr>172</gpxtpx:hr></gpxtpx:TrackPointExtension></extensions>
      </trkpt>
      <trkpt lat="39.83065049865" lon="2.80784262272">
        <ele>464.8</ele>
        <time>2020-06-25T21:39:16Z</time>
        <extensions><gpxtpx:TrackPointExtension><gpxtpx:hr>172</gpxtpx:hr></gpxtpx:TrackPointExtension></extensions>
      </trkpt>
      <trkpt lat="39.830639015447" lon="2.807781518669">
        <ele>465.2</ele>
        <time>2020-06-25T21:39:17Z</time>
        <extensions><gpxtpx:TrackPointExtension><gpxtpx:hr>172</gpxtpx:hr></gpxtpx:TrackPointExtension></extensions>
      </trkpt>
      <trkpt lat="39.830627616063" lon="2.807719995523">
        <ele>465.6</ele>
        <time>2020-06-25T21:39:18Z</time>
        <extensions><gpxtpx:TrackPointExtension><gpxtpx:hr>172</gpxtpx:hr></gpxtpx:TrackPointExtension></extensions>
      </trkpt>
      <trkpt lat="39.830612361005" lon="2.807647072993">
        <ele>466.2</ele>
        <time>2020-06-25T21:39:19Z</time>
        <extensions><gpxtpx:TrackPointExtension><gpxtpx:hr>172</gpxtpx:hr></gpxtpx:TrackPointExtension></extensions>
      </trkpt>
      <trkpt lat="39.830600877802" lon="2.807575072472">
        <ele>466.6</ele>
        <time>2020-06-25T21:39:21Z</time>
        <extensions><gpxtpx:TrackPointExtension><gpxtpx:hr>172</gpxtpx:hr></gpxtpx:TrackPointExtension></extensions>
      </trkpt>
      <trkpt lat="39.830589478418" lon="2.80751572862">
        <ele>467</ele>
        <time>2020-06-25T21:39:22Z</time>
        <extensions><gpxtpx:TrackPointExtension><gpxtpx:hr>173</gpxtpx:hr></gpxtpx:TrackPointExtension></extensions>
      </trkpt>
      <trkpt lat="39.83057422336" lon="2.807445655936">
        <ele>467.4</ele>
        <time>2020-06-25T21:39:23Z</time>
        <extensions><gpxtpx:TrackPointExtension><gpxtpx:hr>173</gpxtpx:hr></gpxtpx:TrackPointExtension></extensions>
      </trkpt>
      <trkpt lat="39.830558884483" lon="2.807378349279">
        <ele>467.8</ele>
        <time>2020-06-25T21:39:24Z</time>
        <extensions><gpxtpx:TrackPointExtension><gpxtpx:hr>173</gpxtpx:hr></gpxtpx:TrackPointExtension></extensions>
      </trkpt>
      <trkpt lat="39.830547485099" lon="2.807325208033">
        <ele>468.2</ele>
        <time>2020-06-25T21:39:25Z</time>
        <extensions><gpxtpx:TrackPointExtension><gpxtpx:hr>173</gpxtpx:hr></gpxtpx:TrackPointExtension></extensions>
      </trkpt>
      <trkpt lat="39.830528374367" lon="2.807264858353">
        <ele>468.6</ele>
        <time>2020-06-25T21:39:26Z</time>
        <extensions><gpxtpx:TrackPointExtension><gpxtpx:hr>173</gpxtpx:hr></gpxtpx:TrackPointExtension></extensions>
      </trkpt>
      <trkpt lat="39.830494092396" lon="2.807226972165">
        <ele>468.6</ele>
        <time>2020-06-25T21:39:27Z</time>
        <extensions><gpxtpx:TrackPointExtension><gpxtpx:hr>173</gpxtpx:hr></gpxtpx:TrackPointExtension></extensions>
      </trkpt>
      <trkpt lat="39.830448327222" lon="2.807233929142">
        <ele>469.2</ele>
        <time>2020-06-25T21:39:28Z</time>
        <extensions><gpxtpx:TrackPointExtension><gpxtpx:hr>172</gpxtpx:hr></gpxtpx:TrackPointExtension></extensions>
      </trkpt>
      <trkpt lat="39.830421588961" lon="2.807264187801">
        <ele>469.6</ele>
        <time>2020-06-25T21:39:29Z</time>
        <extensions><gpxtpx:TrackPointExtension><gpxtpx:hr>172</gpxtpx:hr></gpxtpx:TrackPointExtension></extensions>
      </trkpt>
      <trkpt lat="39.830406333903" lon="2.807305426749">
        <ele>470</ele>
        <time>2020-06-25T21:39:30Z</time>
        <extensions><gpxtpx:TrackPointExtension><gpxtpx:hr>172</gpxtpx:hr></gpxtpx:TrackPointExtension></extensions>
      </trkpt>
      <trkpt lat="39.830398706374" lon="2.80738078003">
        <ele>470</ele>
        <time>2020-06-25T21:39:31Z</time>
        <extensions><gpxtpx:TrackPointExtension><gpxtpx:hr>172</gpxtpx:hr></gpxtpx:TrackPointExtension></extensions>
      </trkpt>
      <trkpt lat="39.830410189577" lon="2.807451774723">
        <ele>470.6</ele>
        <time>2020-06-25T21:39:32Z</time>
        <extensions><gpxtpx:TrackPointExtension><gpxtpx:hr>172</gpxtpx:hr></gpxtpx:TrackPointExtension></extensions>
      </trkpt>
      <trkpt lat="39.830421588961" lon="2.80751237586">
        <ele>471</ele>
        <time>2020-06-25T21:39:33Z</time>
        <extensions><gpxtpx:TrackPointExtension><gpxtpx:hr>172</gpxtpx:hr></gpxtpx:TrackPointExtension></extensions>
      </trkpt>
      <trkpt lat="39.830433072164" lon="2.807563421631">
        <ele>471.4</ele>
        <time>2020-06-25T21:39:34Z</time>
        <extensions><gpxtpx:TrackPointExtension><gpxtpx:hr>172</gpxtpx:hr></gpxtpx:TrackPointExtension></extensions>
      </trkpt>
      <trkpt lat="39.830444471548" lon="2.807617736343">
        <ele>471.8</ele>
        <time>2020-06-25T21:39:36Z</time>
        <extensions><gpxtpx:TrackPointExtension><gpxtpx:hr>172</gpxtpx:hr></gpxtpx:TrackPointExtension></extensions>
      </trkpt>
      <trkpt lat="39.830455954751" lon="2.807661154585">
        <ele>472.2</ele>
        <time>2020-06-25T21:39:37Z</time>
        <extensions><gpxtpx:TrackPointExtension><gpxtpx:hr>172</gpxtpx:hr></gpxtpx:TrackPointExtension></extensions>
      </trkpt>
      <trkpt lat="39.830467354135" lon="2.807713373822">
        <ele>472.6</ele>
        <time>2020-06-25T21:39:38Z</time>
        <extensions><gpxtpx:TrackPointExtension><gpxtpx:hr>172</gpxtpx:hr></gpxtpx:TrackPointExtension></extensions>
      </trkpt>
      <trkpt lat="39.830486464867" lon="2.807785374343">
        <ele>473.2</ele>
        <time>2020-06-25T21:39:39Z</time>
        <extensions><gpxtpx:TrackPointExtension><gpxtpx:hr>172</gpxtpx:hr></gpxtpx:TrackPointExtension></extensions>
      </trkpt>
      <trkpt lat="39.83050549178" lon="2.807852597181">
        <ele>473.8</ele>
        <time>2020-06-25T21:39:40Z</time>
        <extensions><gpxtpx:TrackPointExtension><gpxtpx:hr>172</gpxtpx:hr></gpxtpx:TrackPointExtension></extensions>
      </trkpt>
      <trkpt lat="39.830528374367" lon="2.807918143639">
        <ele>474</ele>
        <time>2020-06-25T21:39:41Z</time>
        <extensions><gpxtpx:TrackPointExtension><gpxtpx:hr>172</gpxtpx:hr></gpxtpx:TrackPointExtension></extensions>
      </trkpt>
      <trkpt lat="39.830551256954" lon="2.807977487491">
        <ele>474.2</ele>
        <time>2020-06-25T21:39:42Z</time>
        <extensions><gpxtpx:TrackPointExtension><gpxtpx:hr>172</gpxtpx:hr></gpxtpx:TrackPointExtension></extensions>
      </trkpt>
      <trkpt lat="39.830577995215" lon="2.808042363397">
        <ele>474.4</ele>
        <time>2020-06-25T21:39:43Z</time>
        <extensions><gpxtpx:TrackPointExtension><gpxtpx:hr>172</gpxtpx:hr></gpxtpx:TrackPointExtension></extensions>
      </trkpt>
      <trkpt lat="39.830612361005" lon="2.808124589836">
        <ele>474.8</ele>
        <time>2020-06-25T21:39:44Z</time>
        <extensions><gpxtpx:TrackPointExtension><gpxtpx:hr>172</gpxtpx:hr></gpxtpx:TrackPointExtension></extensions>
      </trkpt>
      <trkpt lat="39.830642871121" lon="2.808194746339">
        <ele>475</ele>
        <time>2020-06-25T21:39:45Z</time>
        <extensions><gpxtpx:TrackPointExtension><gpxtpx:hr>172</gpxtpx:hr></gpxtpx:TrackPointExtension></extensions>
      </trkpt>
      <trkpt lat="39.830673381237" lon="2.808279403529">
        <ele>475.2</ele>
        <time>2020-06-25T21:39:47Z</time>
        <extensions><gpxtpx:TrackPointExtension><gpxtpx:hr>172</gpxtpx:hr></gpxtpx:TrackPointExtension></extensions>
      </trkpt>
      <trkpt lat="39.830684780621" lon="2.80834469853">
        <ele>476.2</ele>
        <time>2020-06-25T21:39:48Z</time>
        <extensions><gpxtpx:TrackPointExtension><gpxtpx:hr>172</gpxtpx:hr></gpxtpx:TrackPointExtension></extensions>
      </trkpt>
      <trkpt lat="39.83069240815" lon="2.808381411252">
        <ele>476.8</ele>
        <time>2020-06-25T21:39:49Z</time>
        <extensions><gpxtpx:TrackPointExtension><gpxtpx:hr>172</gpxtpx:hr></gpxtpx:TrackPointExtension></extensions>
      </trkpt>
      <trkpt lat="39.830696263824" lon="2.808410999359">
        <ele>477.2</ele>
        <time>2020-06-25T21:39:50Z</time>
        <extensions><gpxtpx:TrackPointExtension><gpxtpx:hr>172</gpxtpx:hr></gpxtpx:TrackPointExtension></extensions>
      </trkpt>
      <trkpt lat="39.830703891353" lon="2.808444107864">
        <ele>477.4</ele>
        <time>2020-06-25T21:39:51Z</time>
        <extensions><gpxtpx:TrackPointExtension><gpxtpx:hr>173</gpxtpx:hr></gpxtpx:TrackPointExtension></extensions>
      </trkpt>
      <trkpt lat="39.830715290737" lon="2.808499428404">
        <ele>477.8</ele>
        <time>2020-06-25T21:39:52Z</time>
        <extensions><gpxtpx:TrackPointExtension><gpxtpx:hr>173</gpxtpx:hr></gpxtpx:TrackPointExtension></extensions>
      </trkpt>
      <trkpt lat="39.83072677394" lon="2.808562879387">
        <ele>478.2</ele>
        <time>2020-06-25T21:39:54Z</time>
        <extensions><gpxtpx:TrackPointExtension><gpxtpx:hr>173</gpxtpx:hr></gpxtpx:TrackPointExtension></extensions>
      </trkpt>
      <trkpt lat="39.830738173324" lon="2.808618870479">
        <ele>478.6</ele>
        <time>2020-06-25T21:39:55Z</time>
        <extensions><gpxtpx:TrackPointExtension><gpxtpx:hr>173</gpxtpx:hr></gpxtpx:TrackPointExtension></extensions>
      </trkpt>
      <trkpt lat="39.830745884672" lon="2.808676118856">
        <ele>479</ele>
        <time>2020-06-25T21:39:56Z</time>
        <extensions><gpxtpx:TrackPointExtension><gpxtpx:hr>173</gpxtpx:hr></gpxtpx:TrackPointExtension></extensions>
      </trkpt>
      <trkpt lat="39.830757284056" lon="2.808732864319">
        <ele>479.4</ele>
        <time>2020-06-25T21:39:57Z</time>
        <extensions><gpxtpx:TrackPointExtension><gpxtpx:hr>173</gpxtpx:hr></gpxtpx:TrackPointExtension></extensions>
      </trkpt>
      <trkpt lat="39.830768767259" lon="2.808788855411">
        <ele>479.6</ele>
        <time>2020-06-25T21:39:58Z</time>
        <extensions><gpxtpx:TrackPointExtension><gpxtpx:hr>173</gpxtpx:hr></gpxtpx:TrackPointExtension></extensions>
      </trkpt>
      <trkpt lat="39.830780166643" lon="2.808858257543">
        <ele>480.2</ele>
        <time>2020-06-25T21:39:59Z</time>
        <extensions><gpxtpx:TrackPointExtension><gpxtpx:hr>174</gpxtpx:hr></gpxtpx:TrackPointExtension></extensions>
      </trkpt>
      <trkpt lat="39.830791649846" lon="2.808931180073">
        <ele>480.6</ele>
        <time>2020-06-25T21:40:00Z</time>
        <extensions><gpxtpx:TrackPointExtension><gpxtpx:hr>174</gpxtpx:hr></gpxtpx:TrackPointExtension></extensions>
      </trkpt>
      <trkpt lat="39.830806904904" lon="2.809006281897">
        <ele>481</ele>
        <time>2020-06-25T21:40:01Z</time>
        <extensions><gpxtpx:TrackPointExtension><gpxtpx:hr>174</gpxtpx:hr></gpxtpx:TrackPointExtension></extensions>
      </trkpt>
      <trkpt lat="39.830818304288" lon="2.809067134491">
        <ele>481.4</ele>
        <time>2020-06-25T21:40:02Z</time>
        <extensions><gpxtpx:TrackPointExtension><gpxtpx:hr>174</gpxtpx:hr></gpxtpx:TrackPointExtension></extensions>
      </trkpt>
      <trkpt lat="39.830829787491" lon="2.809136452804">
        <ele>482</ele>
        <time>2020-06-25T21:40:03Z</time>
        <extensions><gpxtpx:TrackPointExtension><gpxtpx:hr>173</gpxtpx:hr></gpxtpx:TrackPointExtension></extensions>
      </trkpt>
      <trkpt lat="39.83083741502" lon="2.809192779172">
        <ele>482.2</ele>
        <time>2020-06-25T21:40:04Z</time>
        <extensions><gpxtpx:TrackPointExtension><gpxtpx:hr>173</gpxtpx:hr></gpxtpx:TrackPointExtension></extensions>
      </trkpt>
      <trkpt lat="39.830845042549" lon="2.809247848255">
        <ele>482.6</ele>
        <time>2020-06-25T21:40:05Z</time>
        <extensions><gpxtpx:TrackPointExtension><gpxtpx:hr>173</gpxtpx:hr></gpxtpx:TrackPointExtension></extensions>
      </trkpt>
      <trkpt lat="39.830852670078" lon="2.809303168795">
        <ele>483</ele>
        <time>2020-06-25T21:40:06Z</time>
        <extensions><gpxtpx:TrackPointExtension><gpxtpx:hr>173</gpxtpx:hr></gpxtpx:TrackPointExtension></extensions>
      </trkpt>
      <trkpt lat="39.830860297607" lon="2.809374163488">
        <ele>483.4</ele>
        <time>2020-06-25T21:40:08Z</time>
        <extensions><gpxtpx:TrackPointExtension><gpxtpx:hr>173</gpxtpx:hr></gpxtpx:TrackPointExtension></extensions>
      </trkpt>
      <trkpt lat="39.830864069462" lon="2.809434010254">
        <ele>483.8</ele>
        <time>2020-06-25T21:40:09Z</time>
        <extensions><gpxtpx:TrackPointExtension><gpxtpx:hr>173</gpxtpx:hr></gpxtpx:TrackPointExtension></extensions>
      </trkpt>
      <trkpt lat="39.830871696991" lon="2.809494108477">
        <ele>484.2</ele>
        <time>2020-06-25T21:40:10Z</time>
        <extensions><gpxtpx:TrackPointExtension><gpxtpx:hr>173</gpxtpx:hr></gpxtpx:TrackPointExtension></extensions>
      </trkpt>
      <trkpt lat="39.830871696991" lon="2.809566108998">
        <ele>484.6</ele>
        <time>2020-06-25T21:40:11Z</time>
        <extensions><gpxtpx:TrackPointExtension><gpxtpx:hr>174</gpxtpx:hr></gpxtpx:TrackPointExtension></extensions>
      </trkpt>
      <trkpt lat="39.830867925136" lon="2.809642887202">
        <ele>484.8</ele>
        <time>2020-06-25T21:40:12Z</time>
        <extensions><gpxtpx:TrackPointExtension><gpxtpx:hr>174</gpxtpx:hr></gpxtpx:TrackPointExtension></extensions>
      </trkpt>
      <trkpt lat="39.830860297607" lon="2.809722515252">
        <ele>485.2</ele>
        <time>2020-06-25T21:40:13Z</time>
        <extensions><gpxtpx:TrackPointExtension><gpxtpx:hr>175</gpxtpx:hr></gpxtpx:TrackPointExtension></extensions>
      </trkpt>
      <trkpt lat="39.830856441933" lon="2.809790241004">
        <ele>485.4</ele>
        <time>2020-06-25T21:40:14Z</time>
        <extensions><gpxtpx:TrackPointExtension><gpxtpx:hr>175</gpxtpx:hr></gpxtpx:TrackPointExtension></extensions>
      </trkpt>
      <trkpt lat="39.830848814404" lon="2.809871964529">
        <ele>485.8</ele>
        <time>2020-06-25T21:40:15Z</time>
        <extensions><gpxtpx:TrackPointExtension><gpxtpx:hr>175</gpxtpx:hr></gpxtpx:TrackPointExtension></extensions>
      </trkpt>
      <trkpt lat="39.830848814404" lon="2.809938013901">
        <ele>486.2</ele>
        <time>2020-06-25T21:40:16Z</time>
        <extensions><gpxtpx:TrackPointExtension><gpxtpx:hr>175</gpxtpx:hr></gpxtpx:TrackPointExtension></extensions>
      </trkpt>
      <trkpt lat="39.830852670078" lon="2.809974056071">
        <ele>487</ele>
        <time>2020-06-25T21:40:18Z</time>
        <extensions><gpxtpx:TrackPointExtension><gpxtpx:hr>174</gpxtpx:hr></gpxtpx:TrackPointExtension></extensions>
      </trkpt>
      <trkpt lat="39.830852670078" lon="2.809989814043">
        <ele>487.2</ele>
        <time>2020-06-25T21:40:19Z</time>
        <extensions><gpxtpx:TrackPointExtension><gpxtpx:hr>174</gpxtpx:hr></gpxtpx:TrackPointExtension></extensions>
      </trkpt>
      <trkpt lat="39.830856441933" lon="2.81000599111">
        <ele>487.6</ele>
        <time>2020-06-25T21:40:20Z</time>
        <extensions><gpxtpx:TrackPointExtension><gpxtpx:hr>174</gpxtpx:hr></gpxtpx:TrackPointExtension></extensions>
      </trkpt>
      <trkpt lat="39.830860297607" lon="2.810027951688">
        <ele>488</ele>
        <time>2020-06-25T21:40:21Z</time>
        <extensions><gpxtpx:TrackPointExtension><gpxtpx:hr>173</gpxtpx:hr></gpxtpx:TrackPointExtension></extensions>
      </trkpt>
      <trkpt lat="39.830864069462" lon="2.810047984429">
        <ele>488.4</ele>
        <time>2020-06-25T21:40:22Z</time>
        <extensions><gpxtpx:TrackPointExtension><gpxtpx:hr>173</gpxtpx:hr></gpxtpx:TrackPointExtension></extensions>
      </trkpt>
      <trkpt lat="39.830875552665" lon="2.810084697151">
        <ele>488.6</ele>
        <time>2020-06-25T21:40:23Z</time>
        <extensions><gpxtpx:TrackPointExtension><gpxtpx:hr>173</gpxtpx:hr></gpxtpx:TrackPointExtension></extensions>
      </trkpt>
      <trkpt lat="39.830909834636" lon="2.810153093455">
        <ele>488.6</ele>
        <time>2020-06-25T21:40:24Z</time>
        <extensions><gpxtpx:TrackPointExtension><gpxtpx:hr>174</gpxtpx:hr></gpxtpx:TrackPointExtension></extensions>
      </trkpt>
      <trkpt lat="39.830951827955" lon="2.810218388456">
        <ele>488.6</ele>
        <time>2020-06-25T21:40:25Z</time>
        <extensions><gpxtpx:TrackPointExtension><gpxtpx:hr>174</gpxtpx:hr></gpxtpx:TrackPointExtension></extensions>
      </trkpt>
      <trkpt lat="39.831001448803" lon="2.810284940742">
        <ele>489</ele>
        <time>2020-06-25T21:40:26Z</time>
        <extensions><gpxtpx:TrackPointExtension><gpxtpx:hr>174</gpxtpx:hr></gpxtpx:TrackPointExtension></extensions>
      </trkpt>
      <trkpt lat="39.831054841506" lon="2.810346966802">
        <ele>489.8</ele>
        <time>2020-06-25T21:40:28Z</time>
        <extensions><gpxtpx:TrackPointExtension><gpxtpx:hr>174</gpxtpx:hr></gpxtpx:TrackPointExtension></extensions>
      </trkpt>
      <trkpt lat="39.831108234209" lon="2.810393402528">
        <ele>490.2</ele>
        <time>2020-06-25T21:40:29Z</time>
        <extensions><gpxtpx:TrackPointExtension><gpxtpx:hr>174</gpxtpx:hr></gpxtpx:TrackPointExtension></extensions>
      </trkpt>
      <trkpt lat="39.831165482586" lon="2.810435647304">
        <ele>490.6</ele>
        <time>2020-06-25T21:40:30Z</time>
        <extensions><gpxtpx:TrackPointExtension><gpxtpx:hr>174</gpxtpx:hr></gpxtpx:TrackPointExtension></extensions>
      </trkpt>
      <trkpt lat="39.831215019615" lon="2.810469007266">
        <ele>490.8</ele>
        <time>2020-06-25T21:40:31Z</time>
        <extensions><gpxtpx:TrackPointExtension><gpxtpx:hr>174</gpxtpx:hr></gpxtpx:TrackPointExtension></extensions>
      </trkpt>
      <trkpt lat="39.831268496137" lon="2.810502618685">
        <ele>491.6</ele>
        <time>2020-06-25T21:40:32Z</time>
        <extensions><gpxtpx:TrackPointExtension><gpxtpx:hr>173</gpxtpx:hr></gpxtpx:TrackPointExtension></extensions>
      </trkpt>
      <trkpt lat="39.831314261311" lon="2.810529356946">
        <ele>492.2</ele>
        <time>2020-06-25T21:40:33Z</time>
        <extensions><gpxtpx:TrackPointExtension><gpxtpx:hr>173</gpxtpx:hr></gpxtpx:TrackPointExtension></extensions>
      </trkpt>
      <trkpt lat="39.831360026485" lon="2.810552658628">
        <ele>492.8</ele>
        <time>2020-06-25T21:40:35Z</time>
        <extensions><gpxtpx:TrackPointExtension><gpxtpx:hr>173</gpxtpx:hr></gpxtpx:TrackPointExtension></extensions>
      </trkpt>
      <trkpt lat="39.831394308456" lon="2.810570344437">
        <ele>493</ele>
        <time>2020-06-25T21:40:36Z</time>
        <extensions><gpxtpx:TrackPointExtension><gpxtpx:hr>173</gpxtpx:hr></gpxtpx:TrackPointExtension></extensions>
      </trkpt>
      <trkpt lat="39.831447784978" lon="2.810592472653">
        <ele>493.4</ele>
        <time>2020-06-25T21:40:37Z</time>
        <extensions><gpxtpx:TrackPointExtension><gpxtpx:hr>173</gpxtpx:hr></gpxtpx:TrackPointExtension></extensions>
      </trkpt>
      <trkpt lat="39.831504949536" lon="2.810615858154">
        <ele>493.6</ele>
        <time>2020-06-25T21:40:38Z</time>
        <extensions><gpxtpx:TrackPointExtension><gpxtpx:hr>174</gpxtpx:hr></gpxtpx:TrackPointExtension></extensions>
      </trkpt>
      <trkpt lat="39.831562197913" lon="2.810639746569">
        <ele>494</ele>
        <time>2020-06-25T21:40:39Z</time>
        <extensions><gpxtpx:TrackPointExtension><gpxtpx:hr>174</gpxtpx:hr></gpxtpx:TrackPointExtension></extensions>
      </trkpt>
      <trkpt lat="39.831607963087" lon="2.810657097102">
        <ele>494.6</ele>
        <time>2020-06-25T21:40:40Z</time>
        <extensions><gpxtpx:TrackPointExtension><gpxtpx:hr>174</gpxtpx:hr></gpxtpx:TrackPointExtension></extensions>
      </trkpt>
      <trkpt lat="39.831649956406" lon="2.810672603617">
        <ele>495.2</ele>
        <time>2020-06-25T21:40:41Z</time>
        <extensions><gpxtpx:TrackPointExtension><gpxtpx:hr>174</gpxtpx:hr></gpxtpx:TrackPointExtension></extensions>
      </trkpt>
      <trkpt lat="39.831684238377" lon="2.810685511743">
        <ele>495.6</ele>
        <time>2020-06-25T21:40:43Z</time>
        <extensions><gpxtpx:TrackPointExtension><gpxtpx:hr>174</gpxtpx:hr></gpxtpx:TrackPointExtension></extensions>
      </trkpt>
      <trkpt lat="39.831707120964" lon="2.810695234747">
        <ele>496</ele>
        <time>2020-06-25T21:40:44Z</time>
        <extensions><gpxtpx:TrackPointExtension><gpxtpx:hr>174</gpxtpx:hr></gpxtpx:TrackPointExtension></extensions>
      </trkpt>
      <trkpt lat="39.831741486754" lon="2.810707639959">
        <ele>496.4</ele>
        <time>2020-06-25T21:40:45Z</time>
        <extensions><gpxtpx:TrackPointExtension><gpxtpx:hr>173</gpxtpx:hr></gpxtpx:TrackPointExtension></extensions>
      </trkpt>
      <trkpt lat="39.831768141196" lon="2.810719123162">
        <ele>496.8</ele>
        <time>2020-06-25T21:40:46Z</time>
        <extensions><gpxtpx:TrackPointExtension><gpxtpx:hr>173</gpxtpx:hr></gpxtpx:TrackPointExtension></extensions>
      </trkpt>
      <trkpt lat="39.831798735131" lon="2.810731528374">
        <ele>497.2</ele>
        <time>2020-06-25T21:40:47Z</time>
        <extensions><gpxtpx:TrackPointExtension><gpxtpx:hr>173</gpxtpx:hr></gpxtpx:TrackPointExtension></extensions>
      </trkpt>
      <trkpt lat="39.831833017102" lon="2.810747202527">
        <ele>497.8</ele>
        <time>2020-06-25T21:40:48Z</time>
        <extensions><gpxtpx:TrackPointExtension><gpxtpx:hr>173</gpxtpx:hr></gpxtpx:TrackPointExtension></extensions>
      </trkpt>
      <trkpt lat="39.831863527218" lon="2.81076371487">
        <ele>498.2</ele>
        <time>2020-06-25T21:40:49Z</time>
        <extensions><gpxtpx:TrackPointExtension><gpxtpx:hr>173</gpxtpx:hr></gpxtpx:TrackPointExtension></extensions>
      </trkpt>
      <trkpt lat="39.831901664863" lon="2.81078131686">
        <ele>498.8</ele>
        <time>2020-06-25T21:40:50Z</time>
        <extensions><gpxtpx:TrackPointExtension><gpxtpx:hr>173</gpxtpx:hr></gpxtpx:TrackPointExtension></extensions>
      </trkpt>
      <trkpt lat="39.831932174979" lon="2.810799170307">
        <ele>499</ele>
        <time>2020-06-25T21:40:51Z</time>
        <extensions><gpxtpx:TrackPointExtension><gpxtpx:hr>173</gpxtpx:hr></gpxtpx:TrackPointExtension></extensions>
      </trkpt>
      <trkpt lat="39.831985651501" lon="2.810835212477">
        <ele>499</ele>
        <time>2020-06-25T21:40:53Z</time>
        <extensions><gpxtpx:TrackPointExtension><gpxtpx:hr>173</gpxtpx:hr></gpxtpx:TrackPointExtension></extensions>
      </trkpt>
      <trkpt lat="39.83203518853" lon="2.810885755334">
        <ele>499</ele>
        <time>2020-06-25T21:40:54Z</time>
        <extensions><gpxtpx:TrackPointExtension><gpxtpx:hr>173</gpxtpx:hr></gpxtpx:TrackPointExtension></extensions>
      </trkpt>
      <trkpt lat="39.832080953704" lon="2.810979213519">
        <ele>499.4</ele>
        <time>2020-06-25T21:40:55Z</time>
        <extensions><gpxtpx:TrackPointExtension><gpxtpx:hr>173</gpxtpx:hr></gpxtpx:TrackPointExtension></extensions>
      </trkpt>
      <trkpt lat="39.832100064436" lon="2.811047609823">
        <ele>501</ele>
        <time>2020-06-25T21:40:56Z</time>
        <extensions><gpxtpx:TrackPointExtension><gpxtpx:hr>173</gpxtpx:hr></gpxtpx:TrackPointExtension></extensions>
      </trkpt>
      <trkpt lat="39.832103836291" lon="2.811081053604">
        <ele>501.4</ele>
        <time>2020-06-25T21:40:57Z</time>
        <extensions><gpxtpx:TrackPointExtension><gpxtpx:hr>173</gpxtpx:hr></gpxtpx:TrackPointExtension></extensions>
      </trkpt>
      <trkpt lat="39.83211146382" lon="2.811130171538">
        <ele>501.8</ele>
        <time>2020-06-25T21:40:58Z</time>
        <extensions><gpxtpx:TrackPointExtension><gpxtpx:hr>173</gpxtpx:hr></gpxtpx:TrackPointExtension></extensions>
      </trkpt>
      <trkpt lat="39.832115319494" lon="2.81118113349">
        <ele>502.2</ele>
        <time>2020-06-25T21:40:59Z</time>
        <extensions><gpxtpx:TrackPointExtension><gpxtpx:hr>173</gpxtpx:hr></gpxtpx:TrackPointExtension></extensions>
      </trkpt>
      <trkpt lat="39.832122947023" lon="2.811249110699">
        <ele>502.8</ele>
        <time>2020-06-25T21:41:01Z</time>
        <extensions><gpxtpx:TrackPointExtension><gpxtpx:hr>173</gpxtpx:hr></gpxtpx:TrackPointExtension></extensions>
      </trkpt>
      <trkpt lat="39.832130574552" lon="2.811309460379">
        <ele>503.2</ele>
        <time>2020-06-25T21:41:02Z</time>
        <extensions><gpxtpx:TrackPointExtension><gpxtpx:hr>173</gpxtpx:hr></gpxtpx:TrackPointExtension></extensions>
      </trkpt>
      <trkpt lat="39.832138202081" lon="2.81138313728">
        <ele>503.8</ele>
        <time>2020-06-25T21:41:03Z</time>
        <extensions><gpxtpx:TrackPointExtension><gpxtpx:hr>173</gpxtpx:hr></gpxtpx:TrackPointExtension></extensions>
      </trkpt>
      <trkpt lat="39.83214582961" lon="2.811443151684">
        <ele>504.4</ele>
        <time>2020-06-25T21:41:04Z</time>
        <extensions><gpxtpx:TrackPointExtension><gpxtpx:hr>173</gpxtpx:hr></gpxtpx:TrackPointExtension></extensions>
      </trkpt>
      <trkpt lat="39.832153457139" lon="2.81150132207">
        <ele>504.8</ele>
        <time>2020-06-25T21:41:05Z</time>
        <extensions><gpxtpx:TrackPointExtension><gpxtpx:hr>172</gpxtpx:hr></gpxtpx:TrackPointExtension></extensions>
      </trkpt>
      <trkpt lat="39.832161084668" lon="2.811569550736">
        <ele>505.4</ele>
        <time>2020-06-25T21:41:06Z</time>
        <extensions><gpxtpx:TrackPointExtension><gpxtpx:hr>172</gpxtpx:hr></gpxtpx:TrackPointExtension></extensions>
      </trkpt>
      <trkpt lat="39.832168712197" lon="2.811624871276">
        <ele>505.8</ele>
        <time>2020-06-25T21:41:07Z</time>
        <extensions><gpxtpx:TrackPointExtension><gpxtpx:hr>172</gpxtpx:hr></gpxtpx:TrackPointExtension></extensions>
      </trkpt>
      <trkpt lat="39.832176339726" lon="2.811678766893">
        <ele>506.2</ele>
        <time>2020-06-25T21:41:08Z</time>
        <extensions><gpxtpx:TrackPointExtension><gpxtpx:hr>172</gpxtpx:hr></gpxtpx:TrackPointExtension></extensions>
      </trkpt>
      <trkpt lat="39.832183967255" lon="2.811731405225">
        <ele>506.6</ele>
        <time>2020-06-25T21:41:09Z</time>
        <extensions><gpxtpx:TrackPointExtension><gpxtpx:hr>172</gpxtpx:hr></gpxtpx:TrackPointExtension></extensions>
      </trkpt>
      <trkpt lat="39.832195450458" lon="2.811794856208">
        <ele>507.2</ele>
        <time>2020-06-25T21:41:10Z</time>
        <extensions><gpxtpx:TrackPointExtension><gpxtpx:hr>172</gpxtpx:hr></gpxtpx:TrackPointExtension></extensions>
      </trkpt>
      <trkpt lat="39.832210705516" lon="2.811848248911">
        <ele>507.6</ele>
        <time>2020-06-25T21:41:11Z</time>
        <extensions><gpxtpx:TrackPointExtension><gpxtpx:hr>171</gpxtpx:hr></gpxtpx:TrackPointExtension></extensions>
      </trkpt>
      <trkpt lat="39.832225960574" lon="2.811911867532">
        <ele>508</ele>
        <time>2020-06-25T21:41:12Z</time>
        <extensions><gpxtpx:TrackPointExtension><gpxtpx:hr>171</gpxtpx:hr></gpxtpx:TrackPointExtension></extensions>
      </trkpt>
      <trkpt lat="39.832244987487" lon="2.811964086769">
        <ele>508.4</ele>
        <time>2020-06-25T21:41:13Z</time>
        <extensions><gpxtpx:TrackPointExtension><gpxtpx:hr>171</gpxtpx:hr></gpxtpx:TrackPointExtension></extensions>
      </trkpt>
      <trkpt lat="39.832264098219" lon="2.812017563291">
        <ele>508.8</ele>
        <time>2020-06-25T21:41:14Z</time>
        <extensions><gpxtpx:TrackPointExtension><gpxtpx:hr>171</gpxtpx:hr></gpxtpx:TrackPointExtension></extensions>
      </trkpt>
      <trkpt lat="39.832286980806" lon="2.812071878003">
        <ele>509.2</ele>
        <time>2020-06-25T21:41:15Z</time>
        <extensions><gpxtpx:TrackPointExtension><gpxtpx:hr>171</gpxtpx:hr></gpxtpx:TrackPointExtension></extensions>
      </trkpt>
      <trkpt lat="39.832317490922" lon="2.812119822471">
        <ele>509.6</ele>
        <time>2020-06-25T21:41:16Z</time>
        <extensions><gpxtpx:TrackPointExtension><gpxtpx:hr>171</gpxtpx:hr></gpxtpx:TrackPointExtension></extensions>
      </trkpt>
      <trkpt lat="39.832355628567" lon="2.812170113871">
        <ele>510.2</ele>
        <time>2020-06-25T21:41:18Z</time>
        <extensions><gpxtpx:TrackPointExtension><gpxtpx:hr>171</gpxtpx:hr></gpxtpx:TrackPointExtension></extensions>
      </trkpt>
      <trkpt lat="39.832393766212" lon="2.812216884873">
        <ele>510.8</ele>
        <time>2020-06-25T21:41:19Z</time>
        <extensions><gpxtpx:TrackPointExtension><gpxtpx:hr>171</gpxtpx:hr></gpxtpx:TrackPointExtension></extensions>
      </trkpt>
      <trkpt lat="39.832424276328" lon="2.812254268147">
        <ele>511.2</ele>
        <time>2020-06-25T21:41:20Z</time>
        <extensions><gpxtpx:TrackPointExtension><gpxtpx:hr>171</gpxtpx:hr></gpxtpx:TrackPointExtension></extensions>
      </trkpt>
      <trkpt lat="39.832451014589" lon="2.81229005886">
        <ele>511.6</ele>
        <time>2020-06-25T21:41:21Z</time>
        <extensions><gpxtpx:TrackPointExtension><gpxtpx:hr>171</gpxtpx:hr></gpxtpx:TrackPointExtension></extensions>
      </trkpt>
      <trkpt lat="39.832481524705" lon="2.812325346659">
        <ele>512</ele>
        <time>2020-06-25T21:41:22Z</time>
        <extensions><gpxtpx:TrackPointExtension><gpxtpx:hr>171</gpxtpx:hr></gpxtpx:TrackPointExtension></extensions>
      </trkpt>
      <trkpt lat="39.832512034821" lon="2.812368261987">
        <ele>512.4</ele>
        <time>2020-06-25T21:41:23Z</time>
        <extensions><gpxtpx:TrackPointExtension><gpxtpx:hr>171</gpxtpx:hr></gpxtpx:TrackPointExtension></extensions>
      </trkpt>
      <trkpt lat="39.832542544937" lon="2.812405645261">
        <ele>513</ele>
        <time>2020-06-25T21:41:24Z</time>
        <extensions><gpxtpx:TrackPointExtension><gpxtpx:hr>172</gpxtpx:hr></gpxtpx:TrackPointExtension></extensions>
      </trkpt>
      <trkpt lat="39.832576910727" lon="2.812453086815">
        <ele>513.4</ele>
        <time>2020-06-25T21:41:25Z</time>
        <extensions><gpxtpx:TrackPointExtension><gpxtpx:hr>172</gpxtpx:hr></gpxtpx:TrackPointExtension></extensions>
      </trkpt>
      <trkpt lat="39.832603565169" lon="2.81249457722">
        <ele>513.8</ele>
        <time>2020-06-25T21:41:26Z</time>
        <extensions><gpxtpx:TrackPointExtension><gpxtpx:hr>172</gpxtpx:hr></gpxtpx:TrackPointExtension></extensions>
      </trkpt>
      <trkpt lat="39.832637930959" lon="2.812544700982">
        <ele>514.4</ele>
        <time>2020-06-25T21:41:27Z</time>
        <extensions><gpxtpx:TrackPointExtension><gpxtpx:hr>172</gpxtpx:hr></gpxtpx:TrackPointExtension></extensions>
      </trkpt>
      <trkpt lat="39.832676068604" lon="2.812597339314">
        <ele>515</ele>
        <time>2020-06-25T21:41:29Z</time>
        <extensions><gpxtpx:TrackPointExtension><gpxtpx:hr>172</gpxtpx:hr></gpxtpx:TrackPointExtension></extensions>
      </trkpt>
      <trkpt lat="39.832668441075" lon="2.812669339835">
        <ele>515.2</ele>
        <time>2020-06-25T21:41:30Z</time>
        <extensions><gpxtpx:TrackPointExtension><gpxtpx:hr>172</gpxtpx:hr></gpxtpx:TrackPointExtension></extensions>
      </trkpt>
      <trkpt lat="39.832653186017" lon="2.812727510221">
        <ele>516</ele>
        <time>2020-06-25T21:41:31Z</time>
        <extensions><gpxtpx:TrackPointExtension><gpxtpx:hr>172</gpxtpx:hr></gpxtpx:TrackPointExtension></extensions>
      </trkpt>
      <trkpt lat="39.832637930959" lon="2.812778053078">
        <ele>516.8</ele>
        <time>2020-06-25T21:41:32Z</time>
        <extensions><gpxtpx:TrackPointExtension><gpxtpx:hr>173</gpxtpx:hr></gpxtpx:TrackPointExtension></extensions>
      </trkpt>
      <trkpt lat="39.832615048372" lon="2.812818621474">
        <ele>517.2</ele>
        <time>2020-06-25T21:41:33Z</time>
        <extensions><gpxtpx:TrackPointExtension><gpxtpx:hr>173</gpxtpx:hr></gpxtpx:TrackPointExtension></extensions>
      </trkpt>
      <trkpt lat="39.832584538256" lon="2.812858435499">
        <ele>517.6</ele>
        <time>2020-06-25T21:41:34Z</time>
        <extensions><gpxtpx:TrackPointExtension><gpxtpx:hr>173</gpxtpx:hr></gpxtpx:TrackPointExtension></extensions>
      </trkpt>
      <trkpt lat="39.832550172466" lon="2.812894226212">
        <ele>518</ele>
        <time>2020-06-25T21:41:35Z</time>
        <extensions><gpxtpx:TrackPointExtension><gpxtpx:hr>173</gpxtpx:hr></gpxtpx:TrackPointExtension></extensions>
      </trkpt>
      <trkpt lat="39.832508262966" lon="2.812930938934">
        <ele>518.2</ele>
        <time>2020-06-25T21:41:36Z</time>
        <extensions><gpxtpx:TrackPointExtension><gpxtpx:hr>173</gpxtpx:hr></gpxtpx:TrackPointExtension></extensions>
      </trkpt>
      <trkpt lat="39.832454786444" lon="2.812970250045">
        <ele>518.6</ele>
        <time>2020-06-25T21:41:38Z</time>
        <extensions><gpxtpx:TrackPointExtension><gpxtpx:hr>173</gpxtpx:hr></gpxtpx:TrackPointExtension></extensions>
      </trkpt>
      <trkpt lat="39.832389994357" lon="2.81298910932">
        <ele>519</ele>
        <time>2020-06-25T21:41:39Z</time>
        <extensions><gpxtpx:TrackPointExtension><gpxtpx:hr>173</gpxtpx:hr></gpxtpx:TrackPointExtension></extensions>
      </trkpt>
      <trkpt lat="39.832325118451" lon="2.812988354949">
        <ele>519.4</ele>
        <time>2020-06-25T21:41:40Z</time>
        <extensions><gpxtpx:TrackPointExtension><gpxtpx:hr>173</gpxtpx:hr></gpxtpx:TrackPointExtension></extensions>
      </trkpt>
      <trkpt lat="39.832271725748" lon="2.812986008017">
        <ele>519.8</ele>
        <time>2020-06-25T21:41:41Z</time>
        <extensions><gpxtpx:TrackPointExtension><gpxtpx:hr>173</gpxtpx:hr></gpxtpx:TrackPointExtension></extensions>
      </trkpt>
      <trkpt lat="39.832210705516" lon="2.812968070751">
        <ele>520.2</ele>
        <time>2020-06-25T21:41:42Z</time>
        <extensions><gpxtpx:TrackPointExtension><gpxtpx:hr>173</gpxtpx:hr></gpxtpx:TrackPointExtension></extensions>
      </trkpt>
      <trkpt lat="39.832161084668" lon="2.812927837631">
        <ele>520.6</ele>
        <time>2020-06-25T21:41:43Z</time>
        <extensions><gpxtpx:TrackPointExtension><gpxtpx:hr>173</gpxtpx:hr></gpxtpx:TrackPointExtension></extensions>
      </trkpt>
      <trkpt lat="39.832130574552" lon="2.812870589254">
        <ele>521.2</ele>
        <time>2020-06-25T21:41:45Z</time>
        <extensions><gpxtpx:TrackPointExtension><gpxtpx:hr>173</gpxtpx:hr></gpxtpx:TrackPointExtension></extensions>
      </trkpt>
      <trkpt lat="39.832126802697" lon="2.812812167411">
        <ele>521.8</ele>
        <time>2020-06-25T21:41:46Z</time>
        <extensions><gpxtpx:TrackPointExtension><gpxtpx:hr>173</gpxtpx:hr></gpxtpx:TrackPointExtension></extensions>
      </trkpt>
      <trkpt lat="39.832130574552" lon="2.812768078617">
        <ele>522.2</ele>
        <time>2020-06-25T21:41:47Z</time>
        <extensions><gpxtpx:TrackPointExtension><gpxtpx:hr>173</gpxtpx:hr></gpxtpx:TrackPointExtension></extensions>
      </trkpt>
      <trkpt lat="39.832134430226" lon="2.812722313443">
        <ele>522.6</ele>
        <time>2020-06-25T21:41:48Z</time>
        <extensions><gpxtpx:TrackPointExtension><gpxtpx:hr>173</gpxtpx:hr></gpxtpx:TrackPointExtension></extensions>
      </trkpt>
      <trkpt lat="39.832142057755" lon="2.812661460849">
        <ele>523</ele>
        <time>2020-06-25T21:41:49Z</time>
        <extensions><gpxtpx:TrackPointExtension><gpxtpx:hr>173</gpxtpx:hr></gpxtpx:TrackPointExtension></extensions>
      </trkpt>
      <trkpt lat="39.832149685284" lon="2.812596668762">
        <ele>523.4</ele>
        <time>2020-06-25T21:41:50Z</time>
        <extensions><gpxtpx:TrackPointExtension><gpxtpx:hr>173</gpxtpx:hr></gpxtpx:TrackPointExtension></extensions>
      </trkpt>
      <trkpt lat="39.832153457139" lon="2.812541348222">
        <ele>524</ele>
        <time>2020-06-25T21:41:51Z</time>
        <extensions><gpxtpx:TrackPointExtension><gpxtpx:hr>174</gpxtpx:hr></gpxtpx:TrackPointExtension></extensions>
      </trkpt>
      <trkpt lat="39.832157312813" lon="2.812486949691">
        <ele>524.4</ele>
        <time>2020-06-25T21:41:52Z</time>
        <extensions><gpxtpx:TrackPointExtension><gpxtpx:hr>175</gpxtpx:hr></gpxtpx:TrackPointExtension></extensions>
      </trkpt>
      <trkpt lat="39.832153457139" lon="2.812434311359">
        <ele>524.8</ele>
        <time>2020-06-25T21:41:53Z</time>
        <extensions><gpxtpx:TrackPointExtension><gpxtpx:hr>175</gpxtpx:hr></gpxtpx:TrackPointExtension></extensions>
      </trkpt>
      <trkpt lat="39.832130574552" lon="2.812386618348">
        <ele>525.2</ele>
        <time>2020-06-25T21:41:54Z</time>
        <extensions><gpxtpx:TrackPointExtension><gpxtpx:hr>175</gpxtpx:hr></gpxtpx:TrackPointExtension></extensions>
      </trkpt>
      <trkpt lat="39.832103836291" lon="2.812353426024">
        <ele>525.4</ele>
        <time>2020-06-25T21:41:56Z</time>
        <extensions><gpxtpx:TrackPointExtension><gpxtpx:hr>175</gpxtpx:hr></gpxtpx:TrackPointExtension></extensions>
      </trkpt>
      <trkpt lat="39.832058071117" lon="2.812332471274">
        <ele>525.6</ele>
        <time>2020-06-25T21:41:57Z</time>
        <extensions><gpxtpx:TrackPointExtension><gpxtpx:hr>176</gpxtpx:hr></gpxtpx:TrackPointExtension></extensions>
      </trkpt>
      <trkpt lat="39.832000906559" lon="2.812335824034">
        <ele>526</ele>
        <time>2020-06-25T21:41:58Z</time>
        <extensions><gpxtpx:TrackPointExtension><gpxtpx:hr>175</gpxtpx:hr></gpxtpx:TrackPointExtension></extensions>
      </trkpt>
      <trkpt lat="39.831955141385" lon="2.812363735761">
        <ele>526.4</ele>
        <time>2020-06-25T21:41:59Z</time>
        <extensions><gpxtpx:TrackPointExtension><gpxtpx:hr>175</gpxtpx:hr></gpxtpx:TrackPointExtension></extensions>
      </trkpt>
      <trkpt lat="39.831936030653" lon="2.81242165469">
        <ele>526.6</ele>
        <time>2020-06-25T21:42:00Z</time>
        <extensions><gpxtpx:TrackPointExtension><gpxtpx:hr>174</gpxtpx:hr></gpxtpx:TrackPointExtension></extensions>
      </trkpt>
      <trkpt lat="39.83192454745" lon="2.812482926379">
        <ele>527</ele>
        <time>2020-06-25T21:42:01Z</time>
        <extensions><gpxtpx:TrackPointExtension><gpxtpx:hr>174</gpxtpx:hr></gpxtpx:TrackPointExtension></extensions>
      </trkpt>
      <trkpt lat="39.831920775595" lon="2.812554004891">
        <ele>527.4</ele>
        <time>2020-06-25T21:42:02Z</time>
        <extensions><gpxtpx:TrackPointExtension><gpxtpx:hr>174</gpxtpx:hr></gpxtpx:TrackPointExtension></extensions>
      </trkpt>
      <trkpt lat="39.831916919921" lon="2.812621898281">
        <ele>527.6</ele>
        <time>2020-06-25T21:42:03Z</time>
        <extensions><gpxtpx:TrackPointExtension><gpxtpx:hr>173</gpxtpx:hr></gpxtpx:TrackPointExtension></extensions>
      </trkpt>
      <trkpt lat="39.831913148066" lon="2.81268819911">
        <ele>528</ele>
        <time>2020-06-25T21:42:04Z</time>
        <extensions><gpxtpx:TrackPointExtension><gpxtpx:hr>172</gpxtpx:hr></gpxtpx:TrackPointExtension></extensions>
      </trkpt>
      <trkpt lat="39.831913148066" lon="2.812753494111">
        <ele>528.4</ele>
        <time>2020-06-25T21:42:06Z</time>
        <extensions><gpxtpx:TrackPointExtension><gpxtpx:hr>172</gpxtpx:hr></gpxtpx:TrackPointExtension></extensions>
      </trkpt>
      <trkpt lat="39.831909292392" lon="2.812807138271">
        <ele>528.6</ele>
        <time>2020-06-25T21:42:07Z</time>
        <extensions><gpxtpx:TrackPointExtension><gpxtpx:hr>172</gpxtpx:hr></gpxtpx:TrackPointExtension></extensions>
      </trkpt>
      <trkpt lat="39.831905520537" lon="2.812873942014">
        <ele>529</ele>
        <time>2020-06-25T21:42:08Z</time>
        <extensions><gpxtpx:TrackPointExtension><gpxtpx:hr>172</gpxtpx:hr></gpxtpx:TrackPointExtension></extensions>
      </trkpt>
      <trkpt lat="39.831897893008" lon="2.812946445449">
        <ele>529.4</ele>
        <time>2020-06-25T21:42:09Z</time>
        <extensions><gpxtpx:TrackPointExtension><gpxtpx:hr>172</gpxtpx:hr></gpxtpx:TrackPointExtension></extensions>
      </trkpt>
      <trkpt lat="39.831886409805" lon="2.813024397119">
        <ele>529.8</ele>
        <time>2020-06-25T21:42:10Z</time>
        <extensions><gpxtpx:TrackPointExtension><gpxtpx:hr>172</gpxtpx:hr></gpxtpx:TrackPointExtension></extensions>
      </trkpt>
      <trkpt lat="39.831871154747" lon="2.813102767884">
        <ele>530</ele>
        <time>2020-06-25T21:42:11Z</time>
        <extensions><gpxtpx:TrackPointExtension><gpxtpx:hr>172</gpxtpx:hr></gpxtpx:TrackPointExtension></extensions>
      </trkpt>
      <trkpt lat="39.831855899689" lon="2.813170074541">
        <ele>530.4</ele>
        <time>2020-06-25T21:42:12Z</time>
        <extensions><gpxtpx:TrackPointExtension><gpxtpx:hr>172</gpxtpx:hr></gpxtpx:TrackPointExtension></extensions>
      </trkpt>
      <trkpt lat="39.831836872776" lon="2.813238722302">
        <ele>530.6</ele>
        <time>2020-06-25T21:42:13Z</time>
        <extensions><gpxtpx:TrackPointExtension><gpxtpx:hr>172</gpxtpx:hr></gpxtpx:TrackPointExtension></extensions>
      </trkpt>
      <trkpt lat="39.831813990189" lon="2.813318853266">
        <ele>531</ele>
        <time>2020-06-25T21:42:15Z</time>
        <extensions><gpxtpx:TrackPointExtension><gpxtpx:hr>172</gpxtpx:hr></gpxtpx:TrackPointExtension></extensions>
      </trkpt>
      <trkpt lat="39.831783480073" lon="2.813392446348">
        <ele>531.4</ele>
        <time>2020-06-25T21:42:16Z</time>
        <extensions><gpxtpx:TrackPointExtension><gpxtpx:hr>172</gpxtpx:hr></gpxtpx:TrackPointExtension></extensions>
      </trkpt>
      <trkpt lat="39.831756741812" lon="2.813444497947">
        <ele>532</ele>
        <time>2020-06-25T21:42:17Z</time>
        <extensions><gpxtpx:TrackPointExtension><gpxtpx:hr>172</gpxtpx:hr></gpxtpx:TrackPointExtension></extensions>
      </trkpt>
      <trkpt lat="39.831722376022" lon="2.81349286151">
        <ele>532.4</ele>
        <time>2020-06-25T21:42:18Z</time>
        <extensions><gpxtpx:TrackPointExtension><gpxtpx:hr>172</gpxtpx:hr></gpxtpx:TrackPointExtension></extensions>
      </trkpt>
      <trkpt lat="39.831699493435" lon="2.8135272273">
        <ele>532.8</ele>
        <time>2020-06-25T21:42:19Z</time>
        <extensions><gpxtpx:TrackPointExtension><gpxtpx:hr>172</gpxtpx:hr></gpxtpx:TrackPointExtension></extensions>
      </trkpt>
      <trkpt lat="39.831680466522" lon="2.813559832891">
        <ele>533.2</ele>
        <time>2020-06-25T21:42:20Z</time>
        <extensions><gpxtpx:TrackPointExtension><gpxtpx:hr>172</gpxtpx:hr></gpxtpx:TrackPointExtension></extensions>
      </trkpt>
      <trkpt lat="39.831653728261" lon="2.813601574753">
        <ele>533.6</ele>
        <time>2020-06-25T21:42:21Z</time>
        <extensions><gpxtpx:TrackPointExtension><gpxtpx:hr>172</gpxtpx:hr></gpxtpx:TrackPointExtension></extensions>
      </trkpt>
      <trkpt lat="39.831634701348" lon="2.813643568072">
        <ele>534</ele>
        <time>2020-06-25T21:42:22Z</time>
        <extensions><gpxtpx:TrackPointExtension><gpxtpx:hr>172</gpxtpx:hr></gpxtpx:TrackPointExtension></extensions>
      </trkpt>
      <trkpt lat="39.831623218145" lon="2.813716742059">
        <ele>534.4</ele>
        <time>2020-06-25T21:42:23Z</time>
        <extensions><gpxtpx:TrackPointExtension><gpxtpx:hr>172</gpxtpx:hr></gpxtpx:TrackPointExtension></extensions>
      </trkpt>
      <trkpt lat="39.83166135579" lon="2.813784467811">
        <ele>534.8</ele>
        <time>2020-06-25T21:42:25Z</time>
        <extensions><gpxtpx:TrackPointExtension><gpxtpx:hr>172</gpxtpx:hr></gpxtpx:TrackPointExtension></extensions>
      </trkpt>
      <trkpt lat="39.831726231696" lon="2.813835429763">
        <ele>535.4</ele>
        <time>2020-06-25T21:42:26Z</time>
        <extensions><gpxtpx:TrackPointExtension><gpxtpx:hr>172</gpxtpx:hr></gpxtpx:TrackPointExtension></extensions>
      </trkpt>
      <trkpt lat="39.831779624399" lon="2.813834759211">
        <ele>535.8</ele>
        <time>2020-06-25T21:42:27Z</time>
        <extensions><gpxtpx:TrackPointExtension><gpxtpx:hr>173</gpxtpx:hr></gpxtpx:TrackPointExtension></extensions>
      </trkpt>
      <trkpt lat="39.83184827216" lon="2.813825203845">
        <ele>536</ele>
        <time>2020-06-25T21:42:28Z</time>
        <extensions><gpxtpx:TrackPointExtension><gpxtpx:hr>173</gpxtpx:hr></gpxtpx:TrackPointExtension></extensions>
      </trkpt>
      <trkpt lat="39.831913148066" lon="2.813814223556">
        <ele>536.4</ele>
        <time>2020-06-25T21:42:29Z</time>
        <extensions><gpxtpx:TrackPointExtension><gpxtpx:hr>173</gpxtpx:hr></gpxtpx:TrackPointExtension></extensions>
      </trkpt>
      <trkpt lat="39.831985651501" lon="2.813802321258">
        <ele>536.6</ele>
        <time>2020-06-25T21:42:30Z</time>
        <extensions><gpxtpx:TrackPointExtension><gpxtpx:hr>173</gpxtpx:hr></gpxtpx:TrackPointExtension></extensions>
      </trkpt>
      <trkpt lat="39.832042816059" lon="2.813791340969">
        <ele>536.8</ele>
        <time>2020-06-25T21:42:31Z</time>
        <extensions><gpxtpx:TrackPointExtension><gpxtpx:hr>173</gpxtpx:hr></gpxtpx:TrackPointExtension></extensions>
      </trkpt>
      <trkpt lat="39.832100064436" lon="2.813779187214">
        <ele>537</ele>
        <time>2020-06-25T21:42:32Z</time>
        <extensions><gpxtpx:TrackPointExtension><gpxtpx:hr>173</gpxtpx:hr></gpxtpx:TrackPointExtension></extensions>
      </trkpt>
      <trkpt lat="39.832161084668" lon="2.81376275869">
        <ele>537.6</ele>
        <time>2020-06-25T21:42:34Z</time>
        <extensions><gpxtpx:TrackPointExtension><gpxtpx:hr>173</gpxtpx:hr></gpxtpx:TrackPointExtension></extensions>
      </trkpt>
      <trkpt lat="39.832210705516" lon="2.813748677098">
        <ele>537.8</ele>
        <time>2020-06-25T21:42:35Z</time>
        <extensions><gpxtpx:TrackPointExtension><gpxtpx:hr>173</gpxtpx:hr></gpxtpx:TrackPointExtension></extensions>
      </trkpt>
      <trkpt lat="39.832252615016" lon="2.813734344049">
        <ele>538.2</ele>
        <time>2020-06-25T21:42:36Z</time>
        <extensions><gpxtpx:TrackPointExtension><gpxtpx:hr>173</gpxtpx:hr></gpxtpx:TrackPointExtension></extensions>
      </trkpt>
      <trkpt lat="39.832302235864" lon="2.813715987688">
        <ele>538.4</ele>
        <time>2020-06-25T21:42:37Z</time>
        <extensions><gpxtpx:TrackPointExtension><gpxtpx:hr>173</gpxtpx:hr></gpxtpx:TrackPointExtension></extensions>
      </trkpt>
      <trkpt lat="39.832348001038" lon="2.813699307707">
        <ele>538.8</ele>
        <time>2020-06-25T21:42:38Z</time>
        <extensions><gpxtpx:TrackPointExtension><gpxtpx:hr>173</gpxtpx:hr></gpxtpx:TrackPointExtension></extensions>
      </trkpt>
      <trkpt lat="39.832389994357" lon="2.813680699889">
        <ele>539</ele>
        <time>2020-06-25T21:42:39Z</time>
        <extensions><gpxtpx:TrackPointExtension><gpxtpx:hr>173</gpxtpx:hr></gpxtpx:TrackPointExtension></extensions>
      </trkpt>
      <trkpt lat="39.83244338706" lon="2.813654548361">
        <ele>539.4</ele>
        <time>2020-06-25T21:42:40Z</time>
        <extensions><gpxtpx:TrackPointExtension><gpxtpx:hr>173</gpxtpx:hr></gpxtpx:TrackPointExtension></extensions>
      </trkpt>
      <trkpt lat="39.832489152234" lon="2.81362948648">
        <ele>539.8</ele>
        <time>2020-06-25T21:42:41Z</time>
        <extensions><gpxtpx:TrackPointExtension><gpxtpx:hr>173</gpxtpx:hr></gpxtpx:TrackPointExtension></extensions>
      </trkpt>
      <trkpt lat="39.832542544937" lon="2.813596545613">
        <ele>540.2</ele>
        <time>2020-06-25T21:42:42Z</time>
        <extensions><gpxtpx:TrackPointExtension><gpxtpx:hr>173</gpxtpx:hr></gpxtpx:TrackPointExtension></extensions>
      </trkpt>
      <trkpt lat="39.83259593764" lon="2.813561090176">
        <ele>540.6</ele>
        <time>2020-06-25T21:42:43Z</time>
        <extensions><gpxtpx:TrackPointExtension><gpxtpx:hr>173</gpxtpx:hr></gpxtpx:TrackPointExtension></extensions>
      </trkpt>
      <trkpt lat="39.832653186017" lon="2.813520018866">
        <ele>540.8</ele>
        <time>2020-06-25T21:42:45Z</time>
        <extensions><gpxtpx:TrackPointExtension><gpxtpx:hr>173</gpxtpx:hr></gpxtpx:TrackPointExtension></extensions>
      </trkpt>
      <trkpt lat="39.832698951191" lon="2.813479953384">
        <ele>541</ele>
        <time>2020-06-25T21:42:46Z</time>
        <extensions><gpxtpx:TrackPointExtension><gpxtpx:hr>173</gpxtpx:hr></gpxtpx:TrackPointExtension></extensions>
      </trkpt>
      <trkpt lat="39.832752343894" lon="2.813425638672">
        <ele>541.4</ele>
        <time>2020-06-25T21:42:47Z</time>
        <extensions><gpxtpx:TrackPointExtension><gpxtpx:hr>173</gpxtpx:hr></gpxtpx:TrackPointExtension></extensions>
      </trkpt>
      <trkpt lat="39.832790481539" lon="2.813378448575">
        <ele>541.8</ele>
        <time>2020-06-25T21:42:48Z</time>
        <extensions><gpxtpx:TrackPointExtension><gpxtpx:hr>173</gpxtpx:hr></gpxtpx:TrackPointExtension></extensions>
      </trkpt>
      <trkpt lat="39.832832474858" lon="2.813320697284">
        <ele>542.2</ele>
        <time>2020-06-25T21:42:49Z</time>
        <extensions><gpxtpx:TrackPointExtension><gpxtpx:hr>173</gpxtpx:hr></gpxtpx:TrackPointExtension></extensions>
      </trkpt>
      <trkpt lat="39.832862984974" lon="2.813270657341">
        <ele>542.6</ele>
        <time>2020-06-25T21:42:50Z</time>
        <extensions><gpxtpx:TrackPointExtension><gpxtpx:hr>172</gpxtpx:hr></gpxtpx:TrackPointExtension></extensions>
      </trkpt>
      <trkpt lat="39.832889723235" lon="2.81320703872">
        <ele>543</ele>
        <time>2020-06-25T21:42:51Z</time>
        <extensions><gpxtpx:TrackPointExtension><gpxtpx:hr>172</gpxtpx:hr></gpxtpx:TrackPointExtension></extensions>
      </trkpt>
      <trkpt lat="39.832920233351" lon="2.813131433982">
        <ele>543.2</ele>
        <time>2020-06-25T21:42:52Z</time>
        <extensions><gpxtpx:TrackPointExtension><gpxtpx:hr>172</gpxtpx:hr></gpxtpx:TrackPointExtension></extensions>
      </trkpt>
      <trkpt lat="39.832943115938" lon="2.813062786221">
        <ele>543.6</ele>
        <time>2020-06-25T21:42:53Z</time>
        <extensions><gpxtpx:TrackPointExtension><gpxtpx:hr>172</gpxtpx:hr></gpxtpx:TrackPointExtension></extensions>
      </trkpt>
      <trkpt lat="39.832965998525" lon="2.812992629718">
        <ele>543.8</ele>
        <time>2020-06-25T21:42:54Z</time>
        <extensions><gpxtpx:TrackPointExtension><gpxtpx:hr>171</gpxtpx:hr></gpxtpx:TrackPointExtension></extensions>
      </trkpt>
      <trkpt lat="39.832988881112" lon="2.812923059948">
        <ele>544.2</ele>
        <time>2020-06-25T21:42:55Z</time>
        <extensions><gpxtpx:TrackPointExtension><gpxtpx:hr>171</gpxtpx:hr></gpxtpx:TrackPointExtension></extensions>
      </trkpt>
      <trkpt lat="39.833015619373" lon="2.812841504061">
        <ele>544.6</ele>
        <time>2020-06-25T21:42:57Z</time>
        <extensions><gpxtpx:TrackPointExtension><gpxtpx:hr>171</gpxtpx:hr></gpxtpx:TrackPointExtension></extensions>
      </trkpt>
      <trkpt lat="39.833042273815" lon="2.812762378925">
        <ele>544.8</ele>
        <time>2020-06-25T21:42:58Z</time>
        <extensions><gpxtpx:TrackPointExtension><gpxtpx:hr>171</gpxtpx:hr></gpxtpx:TrackPointExtension></extensions>
      </trkpt>
      <trkpt lat="39.833065156402" lon="2.81268484635">
        <ele>545.2</ele>
        <time>2020-06-25T21:42:59Z</time>
        <extensions><gpxtpx:TrackPointExtension><gpxtpx:hr>171</gpxtpx:hr></gpxtpx:TrackPointExtension></extensions>
      </trkpt>
      <trkpt lat="39.833088038989" lon="2.812621227729">
        <ele>545.4</ele>
        <time>2020-06-25T21:43:00Z</time>
        <extensions><gpxtpx:TrackPointExtension><gpxtpx:hr>171</gpxtpx:hr></gpxtpx:TrackPointExtension></extensions>
      </trkpt>
      <trkpt lat="39.833107149721" lon="2.812558531117">
        <ele>545.6</ele>
        <time>2020-06-25T21:43:01Z</time>
        <extensions><gpxtpx:TrackPointExtension><gpxtpx:hr>171</gpxtpx:hr></gpxtpx:TrackPointExtension></extensions>
      </trkpt>
      <trkpt lat="39.833133804163" lon="2.812485273311">
        <ele>546</ele>
        <time>2020-06-25T21:43:02Z</time>
        <extensions><gpxtpx:TrackPointExtension><gpxtpx:hr>171</gpxtpx:hr></gpxtpx:TrackPointExtension></extensions>
      </trkpt>
      <trkpt lat="39.833152914895" lon="2.812425678002">
        <ele>546.4</ele>
        <time>2020-06-25T21:43:03Z</time>
        <extensions><gpxtpx:TrackPointExtension><gpxtpx:hr>171</gpxtpx:hr></gpxtpx:TrackPointExtension></extensions>
      </trkpt>
      <trkpt lat="39.833172025627" lon="2.812366585607">
        <ele>546.6</ele>
        <time>2020-06-25T21:43:04Z</time>
        <extensions><gpxtpx:TrackPointExtension><gpxtpx:hr>171</gpxtpx:hr></gpxtpx:TrackPointExtension></extensions>
      </trkpt>
      <trkpt lat="39.833194908214" lon="2.812298859855">
        <ele>547</ele>
        <time>2020-06-25T21:43:05Z</time>
        <extensions><gpxtpx:TrackPointExtension><gpxtpx:hr>172</gpxtpx:hr></gpxtpx:TrackPointExtension></extensions>
      </trkpt>
      <trkpt lat="39.833217790801" lon="2.812233313397">
        <ele>547.4</ele>
        <time>2020-06-25T21:43:07Z</time>
        <extensions><gpxtpx:TrackPointExtension><gpxtpx:hr>172</gpxtpx:hr></gpxtpx:TrackPointExtension></extensions>
      </trkpt>
      <trkpt lat="39.833233045859" lon="2.81217941778">
        <ele>547.6</ele>
        <time>2020-06-25T21:43:08Z</time>
        <extensions><gpxtpx:TrackPointExtension><gpxtpx:hr>172</gpxtpx:hr></gpxtpx:TrackPointExtension></extensions>
      </trkpt>
      <trkpt lat="39.833259700301" lon="2.812116218254">
        <ele>548</ele>
        <time>2020-06-25T21:43:09Z</time>
        <extensions><gpxtpx:TrackPointExtension><gpxtpx:hr>172</gpxtpx:hr></gpxtpx:TrackPointExtension></extensions>
      </trkpt>
      <trkpt lat="39.833282582888" lon="2.812053521642">
        <ele>548.2</ele>
        <time>2020-06-25T21:43:10Z</time>
        <extensions><gpxtpx:TrackPointExtension><gpxtpx:hr>172</gpxtpx:hr></gpxtpx:TrackPointExtension></extensions>
      </trkpt>
      <trkpt lat="39.833313093004" lon="2.811988226641">
        <ele>548.6</ele>
        <time>2020-06-25T21:43:11Z</time>
        <extensions><gpxtpx:TrackPointExtension><gpxtpx:hr>172</gpxtpx:hr></gpxtpx:TrackPointExtension></extensions>
      </trkpt>
      <trkpt lat="39.83333605941" lon="2.811931732635">
        <ele>548.8</ele>
        <time>2020-06-25T21:43:12Z</time>
        <extensions><gpxtpx:TrackPointExtension><gpxtpx:hr>172</gpxtpx:hr></gpxtpx:TrackPointExtension></extensions>
      </trkpt>
      <trkpt lat="39.833374197055" lon="2.811869958032">
        <ele>549.2</ele>
        <time>2020-06-25T21:43:13Z</time>
        <extensions><gpxtpx:TrackPointExtension><gpxtpx:hr>172</gpxtpx:hr></gpxtpx:TrackPointExtension></extensions>
      </trkpt>
      <trkpt lat="39.833419962229" lon="2.811852272223">
        <ele>549.6</ele>
        <time>2020-06-25T21:43:15Z</time>
        <extensions><gpxtpx:TrackPointExtension><gpxtpx:hr>173</gpxtpx:hr></gpxtpx:TrackPointExtension></extensions>
      </trkpt>
      <trkpt lat="39.833461871729" lon="2.811861576132">
        <ele>550.2</ele>
        <time>2020-06-25T21:43:16Z</time>
        <extensions><gpxtpx:TrackPointExtension><gpxtpx:hr>173</gpxtpx:hr></gpxtpx:TrackPointExtension></extensions>
      </trkpt>
      <trkpt lat="39.833496237519" lon="2.811880686864">
        <ele>550.8</ele>
        <time>2020-06-25T21:43:17Z</time>
        <extensions><gpxtpx:TrackPointExtension><gpxtpx:hr>173</gpxtpx:hr></gpxtpx:TrackPointExtension></extensions>
      </trkpt>
      <trkpt lat="39.833515348251" lon="2.811936426499">
        <ele>551</ele>
        <time>2020-06-25T21:43:18Z</time>
        <extensions><gpxtpx:TrackPointExtension><gpxtpx:hr>173</gpxtpx:hr></gpxtpx:TrackPointExtension></extensions>
      </trkpt>
      <trkpt lat="39.833515348251" lon="2.812011109228">
        <ele>551.4</ele>
        <time>2020-06-25T21:43:19Z</time>
        <extensions><gpxtpx:TrackPointExtension><gpxtpx:hr>173</gpxtpx:hr></gpxtpx:TrackPointExtension></extensions>
      </trkpt>
      <trkpt lat="39.833492465664" lon="2.812080259903">
        <ele>551.8</ele>
        <time>2020-06-25T21:43:20Z</time>
        <extensions><gpxtpx:TrackPointExtension><gpxtpx:hr>173</gpxtpx:hr></gpxtpx:TrackPointExtension></extensions>
      </trkpt>
      <trkpt lat="39.833477126787" lon="2.812134323158">
        <ele>552.2</ele>
        <time>2020-06-25T21:43:21Z</time>
        <extensions><gpxtpx:TrackPointExtension><gpxtpx:hr>173</gpxtpx:hr></gpxtpx:TrackPointExtension></extensions>
      </trkpt>
      <trkpt lat="39.833458099874" lon="2.812199199064">
        <ele>552.8</ele>
        <time>2020-06-25T21:43:23Z</time>
        <extensions><gpxtpx:TrackPointExtension><gpxtpx:hr>172</gpxtpx:hr></gpxtpx:TrackPointExtension></extensions>
      </trkpt>
      <trkpt lat="39.833435217287" lon="2.812264745522">
        <ele>553.2</ele>
        <time>2020-06-25T21:43:24Z</time>
        <extensions><gpxtpx:TrackPointExtension><gpxtpx:hr>172</gpxtpx:hr></gpxtpx:TrackPointExtension></extensions>
      </trkpt>
      <trkpt lat="39.833416106555" lon="2.812329872885">
        <ele>553.6</ele>
        <time>2020-06-25T21:43:25Z</time>
        <extensions><gpxtpx:TrackPointExtension><gpxtpx:hr>171</gpxtpx:hr></gpxtpx:TrackPointExtension></extensions>
      </trkpt>
      <trkpt lat="39.833397079642" lon="2.812384187597">
        <ele>554</ele>
        <time>2020-06-25T21:43:26Z</time>
        <extensions><gpxtpx:TrackPointExtension><gpxtpx:hr>171</gpxtpx:hr></gpxtpx:TrackPointExtension></extensions>
      </trkpt>
      <trkpt lat="39.83337796891" lon="2.81244931496">
        <ele>554.4</ele>
        <time>2020-06-25T21:43:27Z</time>
        <extensions><gpxtpx:TrackPointExtension><gpxtpx:hr>170</gpxtpx:hr></gpxtpx:TrackPointExtension></extensions>
      </trkpt>
      <trkpt lat="39.833355086323" lon="2.812513939409">
        <ele>554.8</ele>
        <time>2020-06-25T21:43:28Z</time>
        <extensions><gpxtpx:TrackPointExtension><gpxtpx:hr>170</gpxtpx:hr></gpxtpx:TrackPointExtension></extensions>
      </trkpt>
      <trkpt lat="39.83333605941" lon="2.812578982953">
        <ele>555.2</ele>
        <time>2020-06-25T21:43:30Z</time>
        <extensions><gpxtpx:TrackPointExtension><gpxtpx:hr>170</gpxtpx:hr></gpxtpx:TrackPointExtension></extensions>
      </trkpt>
      <trkpt lat="39.833316948678" lon="2.812634052036">
        <ele>555.6</ele>
        <time>2020-06-25T21:43:31Z</time>
        <extensions><gpxtpx:TrackPointExtension><gpxtpx:hr>170</gpxtpx:hr></gpxtpx:TrackPointExtension></extensions>
      </trkpt>
      <trkpt lat="39.833297837946" lon="2.812689624033">
        <ele>556</ele>
        <time>2020-06-25T21:43:32Z</time>
        <extensions><gpxtpx:TrackPointExtension><gpxtpx:hr>170</gpxtpx:hr></gpxtpx:TrackPointExtension></extensions>
      </trkpt>
      <trkpt lat="39.833282582888" lon="2.812745698944">
        <ele>556.4</ele>
        <time>2020-06-25T21:43:33Z</time>
        <extensions><gpxtpx:TrackPointExtension><gpxtpx:hr>170</gpxtpx:hr></gpxtpx:TrackPointExtension></extensions>
      </trkpt>
      <trkpt lat="39.833259700301" lon="2.81281308942">
        <ele>556.8</ele>
        <time>2020-06-25T21:43:34Z</time>
        <extensions><gpxtpx:TrackPointExtension><gpxtpx:hr>170</gpxtpx:hr></gpxtpx:TrackPointExtension></extensions>
      </trkpt>
      <trkpt lat="39.833240673388" lon="2.812882994466">
        <ele>557.2</ele>
        <time>2020-06-25T21:43:35Z</time>
        <extensions><gpxtpx:TrackPointExtension><gpxtpx:hr>170</gpxtpx:hr></gpxtpx:TrackPointExtension></extensions>
      </trkpt>
      <trkpt lat="39.833221562656" lon="2.812945691078">
        <ele>557.6</ele>
        <time>2020-06-25T21:43:36Z</time>
        <extensions><gpxtpx:TrackPointExtension><gpxtpx:hr>170</gpxtpx:hr></gpxtpx:TrackPointExtension></extensions>
      </trkpt>
      <trkpt lat="39.833198680069" lon="2.813024816214">
        <ele>558</ele>
        <time>2020-06-25T21:43:37Z</time>
        <extensions><gpxtpx:TrackPointExtension><gpxtpx:hr>170</gpxtpx:hr></gpxtpx:TrackPointExtension></extensions>
      </trkpt>
      <trkpt lat="39.833179653156" lon="2.813105198635">
        <ele>558.4</ele>
        <time>2020-06-25T21:43:38Z</time>
        <extensions><gpxtpx:TrackPointExtension><gpxtpx:hr>170</gpxtpx:hr></gpxtpx:TrackPointExtension></extensions>
      </trkpt>
      <trkpt lat="39.833160542424" lon="2.813171248007">
        <ele>558.8</ele>
        <time>2020-06-25T21:43:39Z</time>
        <extensions><gpxtpx:TrackPointExtension><gpxtpx:hr>171</gpxtpx:hr></gpxtpx:TrackPointExtension></extensions>
      </trkpt>
      <trkpt lat="39.833141431692" lon="2.813235872456">
        <ele>559</ele>
        <time>2020-06-25T21:43:40Z</time>
        <extensions><gpxtpx:TrackPointExtension><gpxtpx:hr>171</gpxtpx:hr></gpxtpx:TrackPointExtension></extensions>
      </trkpt>
      <trkpt lat="39.833122404779" lon="2.813300664543">
        <ele>559.4</ele>
        <time>2020-06-25T21:43:41Z</time>
        <extensions><gpxtpx:TrackPointExtension><gpxtpx:hr>171</gpxtpx:hr></gpxtpx:TrackPointExtension></extensions>
      </trkpt>
      <trkpt lat="39.833103294047" lon="2.813366043363">
        <ele>559.8</ele>
        <time>2020-06-25T21:43:42Z</time>
        <extensions><gpxtpx:TrackPointExtension><gpxtpx:hr>171</gpxtpx:hr></gpxtpx:TrackPointExtension></extensions>
      </trkpt>
      <trkpt lat="39.833084267134" lon="2.813429661984">
        <ele>560.2</ele>
        <time>2020-06-25T21:43:43Z</time>
        <extensions><gpxtpx:TrackPointExtension><gpxtpx:hr>171</gpxtpx:hr></gpxtpx:TrackPointExtension></extensions>
      </trkpt>
      <trkpt lat="39.833057528873" lon="2.813503087428">
        <ele>560.4</ele>
        <time>2020-06-25T21:43:45Z</time>
        <extensions><gpxtpx:TrackPointExtension><gpxtpx:hr>171</gpxtpx:hr></gpxtpx:TrackPointExtension></extensions>
      </trkpt>
      <trkpt lat="39.833030874431" lon="2.813574417397">
        <ele>560.8</ele>
        <time>2020-06-25T21:43:46Z</time>
        <extensions><gpxtpx:TrackPointExtension><gpxtpx:hr>171</gpxtpx:hr></gpxtpx:TrackPointExtension></extensions>
      </trkpt>
      <trkpt lat="39.833007991844" lon="2.81363283924">
        <ele>561.2</ele>
        <time>2020-06-25T21:43:47Z</time>
        <extensions><gpxtpx:TrackPointExtension><gpxtpx:hr>171</gpxtpx:hr></gpxtpx:TrackPointExtension></extensions>
      </trkpt>
      <trkpt lat="39.832981253583" lon="2.813701738458">
        <ele>561.6</ele>
        <time>2020-06-25T21:43:48Z</time>
        <extensions><gpxtpx:TrackPointExtension><gpxtpx:hr>170</gpxtpx:hr></gpxtpx:TrackPointExtension></extensions>
      </trkpt>
      <trkpt lat="39.832946887793" lon="2.813769883305">
        <ele>561.8</ele>
        <time>2020-06-25T21:43:49Z</time>
        <extensions><gpxtpx:TrackPointExtension><gpxtpx:hr>170</gpxtpx:hr></gpxtpx:TrackPointExtension></extensions>
      </trkpt>
      <trkpt lat="39.832912605822" lon="2.813837860514">
        <ele>562.2</ele>
        <time>2020-06-25T21:43:50Z</time>
        <extensions><gpxtpx:TrackPointExtension><gpxtpx:hr>170</gpxtpx:hr></gpxtpx:TrackPointExtension></extensions>
      </trkpt>
      <trkpt lat="39.832870612503" lon="2.813906759732">
        <ele>562.6</ele>
        <time>2020-06-25T21:43:52Z</time>
        <extensions><gpxtpx:TrackPointExtension><gpxtpx:hr>171</gpxtpx:hr></gpxtpx:TrackPointExtension></extensions>
      </trkpt>
      <trkpt lat="39.832840102387" lon="2.813963756652">
        <ele>562.8</ele>
        <time>2020-06-25T21:43:53Z</time>
        <extensions><gpxtpx:TrackPointExtension><gpxtpx:hr>171</gpxtpx:hr></gpxtpx:TrackPointExtension></extensions>
      </trkpt>
      <trkpt lat="39.832801964742" lon="2.814018825735">
        <ele>563.2</ele>
        <time>2020-06-25T21:43:54Z</time>
        <extensions><gpxtpx:TrackPointExtension><gpxtpx:hr>171</gpxtpx:hr></gpxtpx:TrackPointExtension></extensions>
      </trkpt>
      <trkpt lat="39.832767598952" lon="2.814070793515">
        <ele>563.4</ele>
        <time>2020-06-25T21:43:55Z</time>
        <extensions><gpxtpx:TrackPointExtension><gpxtpx:hr>171</gpxtpx:hr></gpxtpx:TrackPointExtension></extensions>
      </trkpt>
      <trkpt lat="39.832733316981" lon="2.814121084915">
        <ele>563.6</ele>
        <time>2020-06-25T21:43:56Z</time>
        <extensions><gpxtpx:TrackPointExtension><gpxtpx:hr>171</gpxtpx:hr></gpxtpx:TrackPointExtension></extensions>
      </trkpt>
      <trkpt lat="39.832698951191" lon="2.814169029383">
        <ele>563.8</ele>
        <time>2020-06-25T21:43:57Z</time>
        <extensions><gpxtpx:TrackPointExtension><gpxtpx:hr>172</gpxtpx:hr></gpxtpx:TrackPointExtension></extensions>
      </trkpt>
      <trkpt lat="39.832649414162" lon="2.814218566412">
        <ele>564</ele>
        <time>2020-06-25T21:43:58Z</time>
        <extensions><gpxtpx:TrackPointExtension><gpxtpx:hr>172</gpxtpx:hr></gpxtpx:TrackPointExtension></extensions>
      </trkpt>
      <trkpt lat="39.832588310111" lon="2.814261062645">
        <ele>564</ele>
        <time>2020-06-25T21:43:59Z</time>
        <extensions><gpxtpx:TrackPointExtension><gpxtpx:hr>172</gpxtpx:hr></gpxtpx:TrackPointExtension></extensions>
      </trkpt>
      <trkpt lat="39.83251966235" lon="2.81430087667">
        <ele>564.4</ele>
        <time>2020-06-25T21:44:00Z</time>
        <extensions><gpxtpx:TrackPointExtension><gpxtpx:hr>171</gpxtpx:hr></gpxtpx:TrackPointExtension></extensions>
      </trkpt>
      <trkpt lat="39.832470125321" lon="2.814328956035">
        <ele>564.8</ele>
        <time>2020-06-25T21:44:01Z</time>
        <extensions><gpxtpx:TrackPointExtension><gpxtpx:hr>171</gpxtpx:hr></gpxtpx:TrackPointExtension></extensions>
      </trkpt>
      <trkpt lat="39.832424276328" lon="2.814353095907">
        <ele>565.2</ele>
        <time>2020-06-25T21:44:02Z</time>
        <extensions><gpxtpx:TrackPointExtension><gpxtpx:hr>171</gpxtpx:hr></gpxtpx:TrackPointExtension></extensions>
      </trkpt>
      <trkpt lat="39.832374739299" lon="2.814376649046">
        <ele>565.4</ele>
        <time>2020-06-25T21:44:03Z</time>
        <extensions><gpxtpx:TrackPointExtension><gpxtpx:hr>170</gpxtpx:hr></gpxtpx:TrackPointExtension></extensions>
      </trkpt>
      <trkpt lat="39.832340373509" lon="2.814393329027">
        <ele>565.8</ele>
        <time>2020-06-25T21:44:04Z</time>
        <extensions><gpxtpx:TrackPointExtension><gpxtpx:hr>170</gpxtpx:hr></gpxtpx:TrackPointExtension></extensions>
      </trkpt>
      <trkpt lat="39.832302235864" lon="2.814408835542">
        <ele>566</ele>
        <time>2020-06-25T21:44:05Z</time>
        <extensions><gpxtpx:TrackPointExtension><gpxtpx:hr>169</gpxtpx:hr></gpxtpx:TrackPointExtension></extensions>
      </trkpt>
      <trkpt lat="39.83225647069" lon="2.814427024265">
        <ele>566.4</ele>
        <time>2020-06-25T21:44:07Z</time>
        <extensions><gpxtpx:TrackPointExtension><gpxtpx:hr>169</gpxtpx:hr></gpxtpx:TrackPointExtension></extensions>
      </trkpt>
      <trkpt lat="39.832210705516" lon="2.814444626255">
        <ele>566.8</ele>
        <time>2020-06-25T21:44:08Z</time>
        <extensions><gpxtpx:TrackPointExtension><gpxtpx:hr>169</gpxtpx:hr></gpxtpx:TrackPointExtension></extensions>
      </trkpt>
      <trkpt lat="39.832172567871" lon="2.814458959304">
        <ele>567</ele>
        <time>2020-06-25T21:44:09Z</time>
        <extensions><gpxtpx:TrackPointExtension><gpxtpx:hr>169</gpxtpx:hr></gpxtpx:TrackPointExtension></extensions>
      </trkpt>
      <trkpt lat="39.832130574552" lon="2.814476309837">
        <ele>567.4</ele>
        <time>2020-06-25T21:44:10Z</time>
        <extensions><gpxtpx:TrackPointExtension><gpxtpx:hr>169</gpxtpx:hr></gpxtpx:TrackPointExtension></extensions>
      </trkpt>
      <trkpt lat="39.832084809378" lon="2.814496845492">
        <ele>567.8</ele>
        <time>2020-06-25T21:44:11Z</time>
        <extensions><gpxtpx:TrackPointExtension><gpxtpx:hr>168</gpxtpx:hr></gpxtpx:TrackPointExtension></extensions>
      </trkpt>
      <trkpt lat="39.832050443588" lon="2.814517381147">
        <ele>568</ele>
        <time>2020-06-25T21:44:12Z</time>
        <extensions><gpxtpx:TrackPointExtension><gpxtpx:hr>168</gpxtpx:hr></gpxtpx:TrackPointExtension></extensions>
      </trkpt>
      <trkpt lat="39.832008534088" lon="2.814543784132">
        <ele>568.4</ele>
        <time>2020-06-25T21:44:13Z</time>
        <extensions><gpxtpx:TrackPointExtension><gpxtpx:hr>168</gpxtpx:hr></gpxtpx:TrackPointExtension></extensions>
      </trkpt>
      <trkpt lat="39.831966540769" lon="2.814572198773">
        <ele>568.8</ele>
        <time>2020-06-25T21:44:15Z</time>
        <extensions><gpxtpx:TrackPointExtension><gpxtpx:hr>168</gpxtpx:hr></gpxtpx:TrackPointExtension></extensions>
      </trkpt>
      <trkpt lat="39.831920775595" lon="2.814601283966">
        <ele>569.2</ele>
        <time>2020-06-25T21:44:16Z</time>
        <extensions><gpxtpx:TrackPointExtension><gpxtpx:hr>168</gpxtpx:hr></gpxtpx:TrackPointExtension></extensions>
      </trkpt>
      <trkpt lat="39.83188263795" lon="2.814625842933">
        <ele>569.6</ele>
        <time>2020-06-25T21:44:17Z</time>
        <extensions><gpxtpx:TrackPointExtension><gpxtpx:hr>167</gpxtpx:hr></gpxtpx:TrackPointExtension></extensions>
      </trkpt>
      <trkpt lat="39.831836872776" lon="2.814655850135">
        <ele>570</ele>
        <time>2020-06-25T21:44:18Z</time>
        <extensions><gpxtpx:TrackPointExtension><gpxtpx:hr>167</gpxtpx:hr></gpxtpx:TrackPointExtension></extensions>
      </trkpt>
      <trkpt lat="39.831798735131" lon="2.814681582568">
        <ele>570.4</ele>
        <time>2020-06-25T21:44:19Z</time>
        <extensions><gpxtpx:TrackPointExtension><gpxtpx:hr>167</gpxtpx:hr></gpxtpx:TrackPointExtension></extensions>
      </trkpt>
      <trkpt lat="39.831760513667" lon="2.814708320829">
        <ele>570.8</ele>
        <time>2020-06-25T21:44:20Z</time>
        <extensions><gpxtpx:TrackPointExtension><gpxtpx:hr>167</gpxtpx:hr></gpxtpx:TrackPointExtension></extensions>
      </trkpt>
      <trkpt lat="39.831710976638" lon="2.814740507325">
        <ele>571.2</ele>
        <time>2020-06-25T21:44:21Z</time>
        <extensions><gpxtpx:TrackPointExtension><gpxtpx:hr>167</gpxtpx:hr></gpxtpx:TrackPointExtension></extensions>
      </trkpt>
      <trkpt lat="39.831668983319" lon="2.814766239758">
        <ele>571.6</ele>
        <time>2020-06-25T21:44:22Z</time>
        <extensions><gpxtpx:TrackPointExtension><gpxtpx:hr>167</gpxtpx:hr></gpxtpx:TrackPointExtension></extensions>
      </trkpt>
      <trkpt lat="39.831623218145" lon="2.814790798725">
        <ele>572</ele>
        <time>2020-06-25T21:44:23Z</time>
        <extensions><gpxtpx:TrackPointExtension><gpxtpx:hr>167</gpxtpx:hr></gpxtpx:TrackPointExtension></extensions>
      </trkpt>
      <trkpt lat="39.831581224826" lon="2.814815357692">
        <ele>572.4</ele>
        <time>2020-06-25T21:44:24Z</time>
        <extensions><gpxtpx:TrackPointExtension><gpxtpx:hr>167</gpxtpx:hr></gpxtpx:TrackPointExtension></extensions>
      </trkpt>
      <trkpt lat="39.831531687797" lon="2.814844945799">
        <ele>572.8</ele>
        <time>2020-06-25T21:44:25Z</time>
        <extensions><gpxtpx:TrackPointExtension><gpxtpx:hr>167</gpxtpx:hr></gpxtpx:TrackPointExtension></extensions>
      </trkpt>
      <trkpt lat="39.831485922623" lon="2.814861122866">
        <ele>573.4</ele>
        <time>2020-06-25T21:44:26Z</time>
        <extensions><gpxtpx:TrackPointExtension><gpxtpx:hr>168</gpxtpx:hr></gpxtpx:TrackPointExtension></extensions>
      </trkpt>
      <trkpt lat="39.831451556833" lon="2.814859446486">
        <ele>574.4</ele>
        <time>2020-06-25T21:44:28Z</time>
        <extensions><gpxtpx:TrackPointExtension><gpxtpx:hr>168</gpxtpx:hr></gpxtpx:TrackPointExtension></extensions>
      </trkpt>
      <trkpt lat="39.831424818572" lon="2.814849723482">
        <ele>574.8</ele>
        <time>2020-06-25T21:44:29Z</time>
        <extensions><gpxtpx:TrackPointExtension><gpxtpx:hr>168</gpxtpx:hr></gpxtpx:TrackPointExtension></extensions>
      </trkpt>
      <trkpt lat="39.831390536601" lon="2.814822482307">
        <ele>575.2</ele>
        <time>2020-06-25T21:44:30Z</time>
        <extensions><gpxtpx:TrackPointExtension><gpxtpx:hr>168</gpxtpx:hr></gpxtpx:TrackPointExtension></extensions>
      </trkpt>
      <trkpt lat="39.831352398956" lon="2.814779818436">
        <ele>575.8</ele>
        <time>2020-06-25T21:44:31Z</time>
        <extensions><gpxtpx:TrackPointExtension><gpxtpx:hr>168</gpxtpx:hr></gpxtpx:TrackPointExtension></extensions>
      </trkpt>
      <trkpt lat="39.831314261311" lon="2.814723072973">
        <ele>576.2</ele>
        <time>2020-06-25T21:44:32Z</time>
        <extensions><gpxtpx:TrackPointExtension><gpxtpx:hr>168</gpxtpx:hr></gpxtpx:TrackPointExtension></extensions>
      </trkpt>
      <trkpt lat="39.831279895521" lon="2.814663058569">
        <ele>576.6</ele>
        <time>2020-06-25T21:44:34Z</time>
        <extensions><gpxtpx:TrackPointExtension><gpxtpx:hr>168</gpxtpx:hr></gpxtpx:TrackPointExtension></extensions>
      </trkpt>
      <trkpt lat="39.831249385405" lon="2.814613186264">
        <ele>577</ele>
        <time>2020-06-25T21:44:35Z</time>
        <extensions><gpxtpx:TrackPointExtension><gpxtpx:hr>168</gpxtpx:hr></gpxtpx:TrackPointExtension></extensions>
      </trkpt>
      <trkpt lat="39.831215019615" lon="2.814555518792">
        <ele>577.4</ele>
        <time>2020-06-25T21:44:36Z</time>
        <extensions><gpxtpx:TrackPointExtension><gpxtpx:hr>168</gpxtpx:hr></gpxtpx:TrackPointExtension></extensions>
      </trkpt>
      <trkpt lat="39.831188365173" lon="2.814509250704">
        <ele>577.8</ele>
        <time>2020-06-25T21:44:37Z</time>
        <extensions><gpxtpx:TrackPointExtension><gpxtpx:hr>168</gpxtpx:hr></gpxtpx:TrackPointExtension></extensions>
      </trkpt>
      <trkpt lat="39.831153999383" lon="2.814457282924">
        <ele>578.2</ele>
        <time>2020-06-25T21:44:38Z</time>
        <extensions><gpxtpx:TrackPointExtension><gpxtpx:hr>168</gpxtpx:hr></gpxtpx:TrackPointExtension></extensions>
      </trkpt>
      <trkpt lat="39.831127344941" lon="2.814419815831">
        <ele>578.4</ele>
        <time>2020-06-25T21:44:39Z</time>
        <extensions><gpxtpx:TrackPointExtension><gpxtpx:hr>168</gpxtpx:hr></gpxtpx:TrackPointExtension></extensions>
      </trkpt>
      <trkpt lat="39.83110060668" lon="2.81438721024">
        <ele>578.8</ele>
        <time>2020-06-25T21:44:40Z</time>
        <extensions><gpxtpx:TrackPointExtension><gpxtpx:hr>168</gpxtpx:hr></gpxtpx:TrackPointExtension></extensions>
      </trkpt>
      <trkpt lat="39.83106624089" lon="2.814350916613">
        <ele>579.2</ele>
        <time>2020-06-25T21:44:41Z</time>
        <extensions><gpxtpx:TrackPointExtension><gpxtpx:hr>168</gpxtpx:hr></gpxtpx:TrackPointExtension></extensions>
      </trkpt>
      <trkpt lat="39.831031958919" lon="2.814315628814">
        <ele>579.8</ele>
        <time>2020-06-25T21:44:42Z</time>
        <extensions><gpxtpx:TrackPointExtension><gpxtpx:hr>169</gpxtpx:hr></gpxtpx:TrackPointExtension></extensions>
      </trkpt>
      <trkpt lat="39.830997593129" lon="2.814283190861">
        <ele>580.2</ele>
        <time>2020-06-25T21:44:44Z</time>
        <extensions><gpxtpx:TrackPointExtension><gpxtpx:hr>169</gpxtpx:hr></gpxtpx:TrackPointExtension></extensions>
      </trkpt>
      <trkpt lat="39.830963311158" lon="2.814252932202">
        <ele>580.8</ele>
        <time>2020-06-25T21:44:45Z</time>
        <extensions><gpxtpx:TrackPointExtension><gpxtpx:hr>169</gpxtpx:hr></gpxtpx:TrackPointExtension></extensions>
      </trkpt>
      <trkpt lat="39.830928945368" lon="2.814224349923">
        <ele>581.2</ele>
        <time>2020-06-25T21:44:46Z</time>
        <extensions><gpxtpx:TrackPointExtension><gpxtpx:hr>169</gpxtpx:hr></gpxtpx:TrackPointExtension></extensions>
      </trkpt>
      <trkpt lat="39.830894579578" lon="2.814197360205">
        <ele>581.6</ele>
        <time>2020-06-25T21:44:47Z</time>
        <extensions><gpxtpx:TrackPointExtension><gpxtpx:hr>169</gpxtpx:hr></gpxtpx:TrackPointExtension></extensions>
      </trkpt>
      <trkpt lat="39.830864069462" lon="2.814173052695">
        <ele>582.2</ele>
        <time>2020-06-25T21:44:48Z</time>
        <extensions><gpxtpx:TrackPointExtension><gpxtpx:hr>169</gpxtpx:hr></gpxtpx:TrackPointExtension></extensions>
      </trkpt>
      <trkpt lat="39.830829787491" lon="2.814150924479">
        <ele>582.6</ele>
        <time>2020-06-25T21:44:50Z</time>
        <extensions><gpxtpx:TrackPointExtension><gpxtpx:hr>169</gpxtpx:hr></gpxtpx:TrackPointExtension></extensions>
      </trkpt>
      <trkpt lat="39.830795421701" lon="2.814131143195">
        <ele>583</ele>
        <time>2020-06-25T21:44:51Z</time>
        <extensions><gpxtpx:TrackPointExtension><gpxtpx:hr>169</gpxtpx:hr></gpxtpx:TrackPointExtension></extensions>
      </trkpt>
      <trkpt lat="39.83076113973" lon="2.814113205929">
        <ele>583.6</ele>
        <time>2020-06-25T21:44:52Z</time>
        <extensions><gpxtpx:TrackPointExtension><gpxtpx:hr>169</gpxtpx:hr></gpxtpx:TrackPointExtension></extensions>
      </trkpt>
      <trkpt lat="39.83072677394" lon="2.814096525948">
        <ele>584</ele>
        <time>2020-06-25T21:44:53Z</time>
        <extensions><gpxtpx:TrackPointExtension><gpxtpx:hr>170</gpxtpx:hr></gpxtpx:TrackPointExtension></extensions>
      </trkpt>
      <trkpt lat="39.830696263824" lon="2.814083701641">
        <ele>584.4</ele>
        <time>2020-06-25T21:44:54Z</time>
        <extensions><gpxtpx:TrackPointExtension><gpxtpx:hr>170</gpxtpx:hr></gpxtpx:TrackPointExtension></extensions>
      </trkpt>
      <trkpt lat="39.830658126179" lon="2.814070793515">
        <ele>585</ele>
        <time>2020-06-25T21:44:55Z</time>
        <extensions><gpxtpx:TrackPointExtension><gpxtpx:hr>170</gpxtpx:hr></gpxtpx:TrackPointExtension></extensions>
      </trkpt>
      <trkpt lat="39.830619988534" lon="2.814063165986">
        <ele>585.4</ele>
        <time>2020-06-25T21:44:56Z</time>
        <extensions><gpxtpx:TrackPointExtension><gpxtpx:hr>170</gpxtpx:hr></gpxtpx:TrackPointExtension></extensions>
      </trkpt>
      <trkpt lat="39.830581850889" lon="2.814058388303">
        <ele>585.6</ele>
        <time>2020-06-25T21:44:57Z</time>
        <extensions><gpxtpx:TrackPointExtension><gpxtpx:hr>171</gpxtpx:hr></gpxtpx:TrackPointExtension></extensions>
      </trkpt>
      <trkpt lat="39.830532230041" lon="2.814064339452">
        <ele>586</ele>
        <time>2020-06-25T21:44:59Z</time>
        <extensions><gpxtpx:TrackPointExtension><gpxtpx:hr>171</gpxtpx:hr></gpxtpx:TrackPointExtension></extensions>
      </trkpt>
      <trkpt lat="39.830486464867" lon="2.814088227867">
        <ele>586.2</ele>
        <time>2020-06-25T21:45:00Z</time>
        <extensions><gpxtpx:TrackPointExtension><gpxtpx:hr>171</gpxtpx:hr></gpxtpx:TrackPointExtension></extensions>
      </trkpt>
      <trkpt lat="39.830444471548" lon="2.814119408535">
        <ele>586.8</ele>
        <time>2020-06-25T21:45:01Z</time>
        <extensions><gpxtpx:TrackPointExtension><gpxtpx:hr>171</gpxtpx:hr></gpxtpx:TrackPointExtension></extensions>
      </trkpt>
      <trkpt lat="39.830402562048" lon="2.814148493728">
        <ele>587.4</ele>
        <time>2020-06-25T21:45:02Z</time>
        <extensions><gpxtpx:TrackPointExtension><gpxtpx:hr>171</gpxtpx:hr></gpxtpx:TrackPointExtension></extensions>
      </trkpt>
      <trkpt lat="39.830364340584" lon="2.814172801238">
        <ele>588</ele>
        <time>2020-06-25T21:45:03Z</time>
        <extensions><gpxtpx:TrackPointExtension><gpxtpx:hr>171</gpxtpx:hr></gpxtpx:TrackPointExtension></extensions>
      </trkpt>
      <trkpt lat="39.830337686142" lon="2.81419023559">
        <ele>588.6</ele>
        <time>2020-06-25T21:45:04Z</time>
        <extensions><gpxtpx:TrackPointExtension><gpxtpx:hr>171</gpxtpx:hr></gpxtpx:TrackPointExtension></extensions>
      </trkpt>
      <trkpt lat="39.830303320352" lon="2.814200461508">
        <ele>588.8</ele>
        <time>2020-06-25T21:45:05Z</time>
        <extensions><gpxtpx:TrackPointExtension><gpxtpx:hr>171</gpxtpx:hr></gpxtpx:TrackPointExtension></extensions>
      </trkpt>
      <trkpt lat="39.830246155794" lon="2.814195935282">
        <ele>589</ele>
        <time>2020-06-25T21:45:06Z</time>
        <extensions><gpxtpx:TrackPointExtension><gpxtpx:hr>171</gpxtpx:hr></gpxtpx:TrackPointExtension></extensions>
      </trkpt>
      <trkpt lat="39.830204162475" lon="2.814152349402">
        <ele>589.6</ele>
        <time>2020-06-25T21:45:07Z</time>
        <extensions><gpxtpx:TrackPointExtension><gpxtpx:hr>171</gpxtpx:hr></gpxtpx:TrackPointExtension></extensions>
      </trkpt>
      <trkpt lat="39.830181279888" lon="2.814074146275">
        <ele>589.6</ele>
        <time>2020-06-25T21:45:09Z</time>
        <extensions><gpxtpx:TrackPointExtension><gpxtpx:hr>171</gpxtpx:hr></gpxtpx:TrackPointExtension></extensions>
      </trkpt>
      <trkpt lat="39.830188907417" lon="2.813984208488">
        <ele>590.6</ele>
        <time>2020-06-25T21:45:10Z</time>
        <extensions><gpxtpx:TrackPointExtension><gpxtpx:hr>171</gpxtpx:hr></gpxtpx:TrackPointExtension></extensions>
      </trkpt>
      <trkpt lat="39.830215561859" lon="2.813944226825">
        <ele>591.4</ele>
        <time>2020-06-25T21:45:11Z</time>
        <extensions><gpxtpx:TrackPointExtension><gpxtpx:hr>171</gpxtpx:hr></gpxtpx:TrackPointExtension></extensions>
      </trkpt>
      <trkpt lat="39.830249927649" lon="2.813907262646">
        <ele>591.6</ele>
        <time>2020-06-25T21:45:12Z</time>
        <extensions><gpxtpx:TrackPointExtension><gpxtpx:hr>171</gpxtpx:hr></gpxtpx:TrackPointExtension></extensions>
      </trkpt>
      <trkpt lat="39.830288065294" lon="2.813860491644">
        <ele>591.8</ele>
        <time>2020-06-25T21:45:13Z</time>
        <extensions><gpxtpx:TrackPointExtension><gpxtpx:hr>171</gpxtpx:hr></gpxtpx:TrackPointExtension></extensions>
      </trkpt>
      <trkpt lat="39.830322431084" lon="2.813819252696">
        <ele>592</ele>
        <time>2020-06-25T21:45:14Z</time>
        <extensions><gpxtpx:TrackPointExtension><gpxtpx:hr>171</gpxtpx:hr></gpxtpx:TrackPointExtension></extensions>
      </trkpt>
      <trkpt lat="39.830364340584" lon="2.813768709839">
        <ele>592.2</ele>
        <time>2020-06-25T21:45:15Z</time>
        <extensions><gpxtpx:TrackPointExtension><gpxtpx:hr>172</gpxtpx:hr></gpxtpx:TrackPointExtension></extensions>
      </trkpt>
      <trkpt lat="39.830398706374" lon="2.813722190294">
        <ele>593</ele>
        <time>2020-06-25T21:45:16Z</time>
        <extensions><gpxtpx:TrackPointExtension><gpxtpx:hr>172</gpxtpx:hr></gpxtpx:TrackPointExtension></extensions>
      </trkpt>
      <trkpt lat="39.830406333903" lon="2.813703833933">
        <ele>593.6</ele>
        <time>2020-06-25T21:45:18Z</time>
        <extensions><gpxtpx:TrackPointExtension><gpxtpx:hr>172</gpxtpx:hr></gpxtpx:TrackPointExtension></extensions>
      </trkpt>
      <trkpt lat="39.830413961432" lon="2.813691261083">
        <ele>593.8</ele>
        <time>2020-06-25T21:45:19Z</time>
        <extensions><gpxtpx:TrackPointExtension><gpxtpx:hr>172</gpxtpx:hr></gpxtpx:TrackPointExtension></extensions>
      </trkpt>
      <trkpt lat="39.830417817106" lon="2.81367307236">
        <ele>594.2</ele>
        <time>2020-06-25T21:45:20Z</time>
        <extensions><gpxtpx:TrackPointExtension><gpxtpx:hr>172</gpxtpx:hr></gpxtpx:TrackPointExtension></extensions>
      </trkpt>
      <trkpt lat="39.830417817106" lon="2.813649016307">
        <ele>594.6</ele>
        <time>2020-06-25T21:45:21Z</time>
        <extensions><gpxtpx:TrackPointExtension><gpxtpx:hr>172</gpxtpx:hr></gpxtpx:TrackPointExtension></extensions>
      </trkpt>
      <trkpt lat="39.830413961432" lon="2.81362613372">
        <ele>595.2</ele>
        <time>2020-06-25T21:45:22Z</time>
        <extensions><gpxtpx:TrackPointExtension><gpxtpx:hr>172</gpxtpx:hr></gpxtpx:TrackPointExtension></extensions>
      </trkpt>
      <trkpt lat="39.830391078845" lon="2.813593025215">
        <ele>595.4</ele>
        <time>2020-06-25T21:45:23Z</time>
        <extensions><gpxtpx:TrackPointExtension><gpxtpx:hr>172</gpxtpx:hr></gpxtpx:TrackPointExtension></extensions>
      </trkpt>
      <trkpt lat="39.8303529412" lon="2.813579614175">
        <ele>595.8</ele>
        <time>2020-06-25T21:45:24Z</time>
        <extensions><gpxtpx:TrackPointExtension><gpxtpx:hr>172</gpxtpx:hr></gpxtpx:TrackPointExtension></extensions>
      </trkpt>
      <trkpt lat="39.830299548497" lon="2.813583218392">
        <ele>595.8</ele>
        <time>2020-06-25T21:45:25Z</time>
        <extensions><gpxtpx:TrackPointExtension><gpxtpx:hr>172</gpxtpx:hr></gpxtpx:TrackPointExtension></extensions>
      </trkpt>
      <trkpt lat="39.830249927649" lon="2.813613477051">
        <ele>596.8</ele>
        <time>2020-06-25T21:45:26Z</time>
        <extensions><gpxtpx:TrackPointExtension><gpxtpx:hr>172</gpxtpx:hr></gpxtpx:TrackPointExtension></extensions>
      </trkpt>
      <trkpt lat="39.830211790004" lon="2.813653542533">
        <ele>597</ele>
        <time>2020-06-25T21:45:27Z</time>
        <extensions><gpxtpx:TrackPointExtension><gpxtpx:hr>172</gpxtpx:hr></gpxtpx:TrackPointExtension></extensions>
      </trkpt>
      <trkpt lat="39.830169796685" lon="2.813701989915">
        <ele>597.2</ele>
        <time>2020-06-25T21:45:28Z</time>
        <extensions><gpxtpx:TrackPointExtension><gpxtpx:hr>172</gpxtpx:hr></gpxtpx:TrackPointExtension></extensions>
      </trkpt>
      <trkpt lat="39.830120259656" lon="2.81376778783">
        <ele>597.6</ele>
        <time>2020-06-25T21:45:30Z</time>
        <extensions><gpxtpx:TrackPointExtension><gpxtpx:hr>172</gpxtpx:hr></gpxtpx:TrackPointExtension></extensions>
      </trkpt>
      <trkpt lat="39.830078266337" lon="2.813827634596">
        <ele>597.8</ele>
        <time>2020-06-25T21:45:31Z</time>
        <extensions><gpxtpx:TrackPointExtension><gpxtpx:hr>171</gpxtpx:hr></gpxtpx:TrackPointExtension></extensions>
      </trkpt>
      <trkpt lat="39.830040128692" lon="2.813887481362">
        <ele>598.4</ele>
        <time>2020-06-25T21:45:32Z</time>
        <extensions><gpxtpx:TrackPointExtension><gpxtpx:hr>171</gpxtpx:hr></gpxtpx:TrackPointExtension></extensions>
      </trkpt>
      <trkpt lat="39.830013390431" lon="2.813938443314">
        <ele>599.4</ele>
        <time>2020-06-25T21:45:33Z</time>
        <extensions><gpxtpx:TrackPointExtension><gpxtpx:hr>170</gpxtpx:hr></gpxtpx:TrackPointExtension></extensions>
      </trkpt>
      <trkpt lat="39.829998135373" lon="2.813971384181">
        <ele>599.8</ele>
        <time>2020-06-25T21:45:34Z</time>
        <extensions><gpxtpx:TrackPointExtension><gpxtpx:hr>170</gpxtpx:hr></gpxtpx:TrackPointExtension></extensions>
      </trkpt>
      <trkpt lat="39.829982880315" lon="2.814000972288">
        <ele>600.4</ele>
        <time>2020-06-25T21:45:35Z</time>
        <extensions><gpxtpx:TrackPointExtension><gpxtpx:hr>170</gpxtpx:hr></gpxtpx:TrackPointExtension></extensions>
      </trkpt>
      <trkpt lat="39.829971480931" lon="2.81403600863">
        <ele>601</ele>
        <time>2020-06-25T21:45:36Z</time>
        <extensions><gpxtpx:TrackPointExtension><gpxtpx:hr>170</gpxtpx:hr></gpxtpx:TrackPointExtension></extensions>
      </trkpt>
      <trkpt lat="39.829956225873" lon="2.814082695813">
        <ele>601.4</ele>
        <time>2020-06-25T21:45:38Z</time>
        <extensions><gpxtpx:TrackPointExtension><gpxtpx:hr>170</gpxtpx:hr></gpxtpx:TrackPointExtension></extensions>
      </trkpt>
      <trkpt lat="39.82994474267" lon="2.81413826781">
        <ele>601.6</ele>
        <time>2020-06-25T21:45:39Z</time>
        <extensions><gpxtpx:TrackPointExtension><gpxtpx:hr>170</gpxtpx:hr></gpxtpx:TrackPointExtension></extensions>
      </trkpt>
      <trkpt lat="39.829929487612" lon="2.814203311354">
        <ele>602</ele>
        <time>2020-06-25T21:45:40Z</time>
        <extensions><gpxtpx:TrackPointExtension><gpxtpx:hr>171</gpxtpx:hr></gpxtpx:TrackPointExtension></extensions>
      </trkpt>
      <trkpt lat="39.829914232554" lon="2.814288471458">
        <ele>602.6</ele>
        <time>2020-06-25T21:45:41Z</time>
        <extensions><gpxtpx:TrackPointExtension><gpxtpx:hr>171</gpxtpx:hr></gpxtpx:TrackPointExtension></extensions>
      </trkpt>
      <trkpt lat="39.829895205641" lon="2.814377654874">
        <ele>603</ele>
        <time>2020-06-25T21:45:42Z</time>
        <extensions><gpxtpx:TrackPointExtension><gpxtpx:hr>171</gpxtpx:hr></gpxtpx:TrackPointExtension></extensions>
      </trkpt>
      <trkpt lat="39.829876094909" lon="2.814464658996">
        <ele>603.6</ele>
        <time>2020-06-25T21:45:43Z</time>
        <extensions><gpxtpx:TrackPointExtension><gpxtpx:hr>171</gpxtpx:hr></gpxtpx:TrackPointExtension></extensions>
      </trkpt>
      <trkpt lat="39.829856984177" lon="2.8145330553">
        <ele>604</ele>
        <time>2020-06-25T21:45:44Z</time>
        <extensions><gpxtpx:TrackPointExtension><gpxtpx:hr>172</gpxtpx:hr></gpxtpx:TrackPointExtension></extensions>
      </trkpt>
      <trkpt lat="39.829837957264" lon="2.814591477143">
        <ele>604.6</ele>
        <time>2020-06-25T21:45:45Z</time>
        <extensions><gpxtpx:TrackPointExtension><gpxtpx:hr>172</gpxtpx:hr></gpxtpx:TrackPointExtension></extensions>
      </trkpt>
      <trkpt lat="39.829818846532" lon="2.814616287567">
        <ele>605.4</ele>
        <time>2020-06-25T21:45:46Z</time>
        <extensions><gpxtpx:TrackPointExtension><gpxtpx:hr>172</gpxtpx:hr></gpxtpx:TrackPointExtension></extensions>
      </trkpt>
      <trkpt lat="39.829807447148" lon="2.814629363331">
        <ele>605.8</ele>
        <time>2020-06-25T21:45:48Z</time>
        <extensions><gpxtpx:TrackPointExtension><gpxtpx:hr>172</gpxtpx:hr></gpxtpx:TrackPointExtension></extensions>
      </trkpt>
      <trkpt lat="39.829788336416" lon="2.814644199294">
        <ele>606.2</ele>
        <time>2020-06-25T21:45:49Z</time>
        <extensions><gpxtpx:TrackPointExtension><gpxtpx:hr>172</gpxtpx:hr></gpxtpx:TrackPointExtension></extensions>
      </trkpt>
      <trkpt lat="39.829742571242" lon="2.814663226207">
        <ele>606.2</ele>
        <time>2020-06-25T21:45:50Z</time>
        <extensions><gpxtpx:TrackPointExtension><gpxtpx:hr>173</gpxtpx:hr></gpxtpx:TrackPointExtension></extensions>
      </trkpt>
      <trkpt lat="39.829677695336" lon="2.814642522914">
        <ele>606.2</ele>
        <time>2020-06-25T21:45:51Z</time>
        <extensions><gpxtpx:TrackPointExtension><gpxtpx:hr>173</gpxtpx:hr></gpxtpx:TrackPointExtension></extensions>
      </trkpt>
      <trkpt lat="39.829624302633" lon="2.814567672547">
        <ele>607.4</ele>
        <time>2020-06-25T21:45:52Z</time>
        <extensions><gpxtpx:TrackPointExtension><gpxtpx:hr>173</gpxtpx:hr></gpxtpx:TrackPointExtension></extensions>
      </trkpt>
      <trkpt lat="39.829609047575" lon="2.814490139972">
        <ele>608</ele>
        <time>2020-06-25T21:45:53Z</time>
        <extensions><gpxtpx:TrackPointExtension><gpxtpx:hr>174</gpxtpx:hr></gpxtpx:TrackPointExtension></extensions>
      </trkpt>
      <trkpt lat="39.829631930162" lon="2.814420067288">
        <ele>608.2</ele>
        <time>2020-06-25T21:45:54Z</time>
        <extensions><gpxtpx:TrackPointExtension><gpxtpx:hr>174</gpxtpx:hr></gpxtpx:TrackPointExtension></extensions>
      </trkpt>
      <trkpt lat="39.829658668423" lon="2.814358544142">
        <ele>608.8</ele>
        <time>2020-06-25T21:45:55Z</time>
        <extensions><gpxtpx:TrackPointExtension><gpxtpx:hr>174</gpxtpx:hr></gpxtpx:TrackPointExtension></extensions>
      </trkpt>
      <trkpt lat="39.829685322865" lon="2.814296098987">
        <ele>609.6</ele>
        <time>2020-06-25T21:45:56Z</time>
        <extensions><gpxtpx:TrackPointExtension><gpxtpx:hr>174</gpxtpx:hr></gpxtpx:TrackPointExtension></extensions>
      </trkpt>
      <trkpt lat="39.829708205452" lon="2.814242454827">
        <ele>610</ele>
        <time>2020-06-25T21:45:57Z</time>
        <extensions><gpxtpx:TrackPointExtension><gpxtpx:hr>174</gpxtpx:hr></gpxtpx:TrackPointExtension></extensions>
      </trkpt>
      <trkpt lat="39.829727316184" lon="2.814200964422">
        <ele>610.6</ele>
        <time>2020-06-25T21:45:58Z</time>
        <extensions><gpxtpx:TrackPointExtension><gpxtpx:hr>174</gpxtpx:hr></gpxtpx:TrackPointExtension></extensions>
      </trkpt>
      <trkpt lat="39.829742571242" lon="2.814157797637">
        <ele>611</ele>
        <time>2020-06-25T21:45:59Z</time>
        <extensions><gpxtpx:TrackPointExtension><gpxtpx:hr>174</gpxtpx:hr></gpxtpx:TrackPointExtension></extensions>
      </trkpt>
      <trkpt lat="39.829761681974" lon="2.814114630852">
        <ele>611.4</ele>
        <time>2020-06-25T21:46:00Z</time>
        <extensions><gpxtpx:TrackPointExtension><gpxtpx:hr>174</gpxtpx:hr></gpxtpx:TrackPointExtension></extensions>
      </trkpt>
      <trkpt lat="39.829780708887" lon="2.814063836538">
        <ele>612</ele>
        <time>2020-06-25T21:46:02Z</time>
        <extensions><gpxtpx:TrackPointExtension><gpxtpx:hr>174</gpxtpx:hr></gpxtpx:TrackPointExtension></extensions>
      </trkpt>
      <trkpt lat="39.829799819619" lon="2.81402259759">
        <ele>612.4</ele>
        <time>2020-06-25T21:46:03Z</time>
        <extensions><gpxtpx:TrackPointExtension><gpxtpx:hr>174</gpxtpx:hr></gpxtpx:TrackPointExtension></extensions>
      </trkpt>
      <trkpt lat="39.829815074677" lon="2.813983537936">
        <ele>612.8</ele>
        <time>2020-06-25T21:46:04Z</time>
        <extensions><gpxtpx:TrackPointExtension><gpxtpx:hr>174</gpxtpx:hr></gpxtpx:TrackPointExtension></extensions>
      </trkpt>
      <trkpt lat="39.82983410159" lon="2.813940622608">
        <ele>613.2</ele>
        <time>2020-06-25T21:46:05Z</time>
        <extensions><gpxtpx:TrackPointExtension><gpxtpx:hr>175</gpxtpx:hr></gpxtpx:TrackPointExtension></extensions>
      </trkpt>
      <trkpt lat="39.829849356648" lon="2.813905837723">
        <ele>613.6</ele>
        <time>2020-06-25T21:46:06Z</time>
        <extensions><gpxtpx:TrackPointExtension><gpxtpx:hr>175</gpxtpx:hr></gpxtpx:TrackPointExtension></extensions>
      </trkpt>
      <trkpt lat="39.829864611706" lon="2.813870969019">
        <ele>614</ele>
        <time>2020-06-25T21:46:07Z</time>
        <extensions><gpxtpx:TrackPointExtension><gpxtpx:hr>175</gpxtpx:hr></gpxtpx:TrackPointExtension></extensions>
      </trkpt>
      <trkpt lat="39.829879866764" lon="2.813835262125">
        <ele>614.4</ele>
        <time>2020-06-25T21:46:08Z</time>
        <extensions><gpxtpx:TrackPointExtension><gpxtpx:hr>175</gpxtpx:hr></gpxtpx:TrackPointExtension></extensions>
      </trkpt>
      <trkpt lat="39.829895205641" lon="2.813791340969">
        <ele>614.8</ele>
        <time>2020-06-25T21:46:09Z</time>
        <extensions><gpxtpx:TrackPointExtension><gpxtpx:hr>175</gpxtpx:hr></gpxtpx:TrackPointExtension></extensions>
      </trkpt>
      <trkpt lat="39.829910460699" lon="2.813746330166">
        <ele>615.2</ele>
        <time>2020-06-25T21:46:10Z</time>
        <extensions><gpxtpx:TrackPointExtension><gpxtpx:hr>176</gpxtpx:hr></gpxtpx:TrackPointExtension></extensions>
      </trkpt>
      <trkpt lat="39.829925715757" lon="2.81370743815">
        <ele>615.6</ele>
        <time>2020-06-25T21:46:11Z</time>
        <extensions><gpxtpx:TrackPointExtension><gpxtpx:hr>176</gpxtpx:hr></gpxtpx:TrackPointExtension></extensions>
      </trkpt>
      <trkpt lat="39.829937115141" lon="2.813667875582">
        <ele>616</ele>
        <time>2020-06-25T21:46:12Z</time>
        <extensions><gpxtpx:TrackPointExtension><gpxtpx:hr>176</gpxtpx:hr></gpxtpx:TrackPointExtension></extensions>
      </trkpt>
      <trkpt lat="39.829952370199" lon="2.813619679657">
        <ele>616.6</ele>
        <time>2020-06-25T21:46:13Z</time>
        <extensions><gpxtpx:TrackPointExtension><gpxtpx:hr>176</gpxtpx:hr></gpxtpx:TrackPointExtension></extensions>
      </trkpt>
      <trkpt lat="39.829952370199" lon="2.813570142628">
        <ele>616.6</ele>
        <time>2020-06-25T21:46:14Z</time>
        <extensions><gpxtpx:TrackPointExtension><gpxtpx:hr>176</gpxtpx:hr></gpxtpx:TrackPointExtension></extensions>
      </trkpt>
      <trkpt lat="39.82994474267" lon="2.813507613654">
        <ele>617</ele>
        <time>2020-06-25T21:46:15Z</time>
        <extensions><gpxtpx:TrackPointExtension><gpxtpx:hr>176</gpxtpx:hr></gpxtpx:TrackPointExtension></extensions>
      </trkpt>
      <trkpt lat="39.82990283317" lon="2.813482887049">
        <ele>617.6</ele>
        <time>2020-06-25T21:46:16Z</time>
        <extensions><gpxtpx:TrackPointExtension><gpxtpx:hr>176</gpxtpx:hr></gpxtpx:TrackPointExtension></extensions>
      </trkpt>
      <trkpt lat="39.829853212322" lon="2.813493112967">
        <ele>617.6</ele>
        <time>2020-06-25T21:46:17Z</time>
        <extensions><gpxtpx:TrackPointExtension><gpxtpx:hr>176</gpxtpx:hr></gpxtpx:TrackPointExtension></extensions>
      </trkpt>
      <trkpt lat="39.829803591474" lon="2.813557988873">
        <ele>617.8</ele>
        <time>2020-06-25T21:46:19Z</time>
        <extensions><gpxtpx:TrackPointExtension><gpxtpx:hr>176</gpxtpx:hr></gpxtpx:TrackPointExtension></extensions>
      </trkpt>
      <trkpt lat="39.829776937032" lon="2.813614901974">
        <ele>618.2</ele>
        <time>2020-06-25T21:46:20Z</time>
        <extensions><gpxtpx:TrackPointExtension><gpxtpx:hr>176</gpxtpx:hr></gpxtpx:TrackPointExtension></extensions>
      </trkpt>
      <trkpt lat="39.829754054445" lon="2.813661170062">
        <ele>618.8</ele>
        <time>2020-06-25T21:46:21Z</time>
        <extensions><gpxtpx:TrackPointExtension><gpxtpx:hr>176</gpxtpx:hr></gpxtpx:TrackPointExtension></extensions>
      </trkpt>
      <trkpt lat="39.829731171858" lon="2.81370408539">
        <ele>619.2</ele>
        <time>2020-06-25T21:46:22Z</time>
        <extensions><gpxtpx:TrackPointExtension><gpxtpx:hr>176</gpxtpx:hr></gpxtpx:TrackPointExtension></extensions>
      </trkpt>
      <trkpt lat="39.8297159168" lon="2.813736020429">
        <ele>619.4</ele>
        <time>2020-06-25T21:46:23Z</time>
        <extensions><gpxtpx:TrackPointExtension><gpxtpx:hr>176</gpxtpx:hr></gpxtpx:TrackPointExtension></extensions>
      </trkpt>
      <trkpt lat="39.829696806068" lon="2.813770386219">
        <ele>619.8</ele>
        <time>2020-06-25T21:46:24Z</time>
        <extensions><gpxtpx:TrackPointExtension><gpxtpx:hr>176</gpxtpx:hr></gpxtpx:TrackPointExtension></extensions>
      </trkpt>
      <trkpt lat="39.829677695336" lon="2.813807601855">
        <ele>620.2</ele>
        <time>2020-06-25T21:46:25Z</time>
        <extensions><gpxtpx:TrackPointExtension><gpxtpx:hr>175</gpxtpx:hr></gpxtpx:TrackPointExtension></extensions>
      </trkpt>
      <trkpt lat="39.829658668423" lon="2.813846661509">
        <ele>620.6</ele>
        <time>2020-06-25T21:46:26Z</time>
        <extensions><gpxtpx:TrackPointExtension><gpxtpx:hr>175</gpxtpx:hr></gpxtpx:TrackPointExtension></extensions>
      </trkpt>
      <trkpt lat="39.829635785836" lon="2.813887229905">
        <ele>621</ele>
        <time>2020-06-25T21:46:27Z</time>
        <extensions><gpxtpx:TrackPointExtension><gpxtpx:hr>175</gpxtpx:hr></gpxtpx:TrackPointExtension></extensions>
      </trkpt>
      <trkpt lat="39.829612903249" lon="2.813928468853">
        <ele>621.4</ele>
        <time>2020-06-25T21:46:28Z</time>
        <extensions><gpxtpx:TrackPointExtension><gpxtpx:hr>175</gpxtpx:hr></gpxtpx:TrackPointExtension></extensions>
      </trkpt>
      <trkpt lat="39.829586164988" lon="2.813979514624">
        <ele>621.8</ele>
        <time>2020-06-25T21:46:29Z</time>
        <extensions><gpxtpx:TrackPointExtension><gpxtpx:hr>175</gpxtpx:hr></gpxtpx:TrackPointExtension></extensions>
      </trkpt>
      <trkpt lat="39.829559510546" lon="2.814032152956">
        <ele>622.4</ele>
        <time>2020-06-25T21:46:30Z</time>
        <extensions><gpxtpx:TrackPointExtension><gpxtpx:hr>175</gpxtpx:hr></gpxtpx:TrackPointExtension></extensions>
      </trkpt>
      <trkpt lat="39.829528916611" lon="2.814086551487">
        <ele>623</ele>
        <time>2020-06-25T21:46:31Z</time>
        <extensions><gpxtpx:TrackPointExtension><gpxtpx:hr>175</gpxtpx:hr></gpxtpx:TrackPointExtension></extensions>
      </trkpt>
      <trkpt lat="39.829502262169" lon="2.814130388824">
        <ele>623.4</ele>
        <time>2020-06-25T21:46:32Z</time>
        <extensions><gpxtpx:TrackPointExtension><gpxtpx:hr>175</gpxtpx:hr></gpxtpx:TrackPointExtension></extensions>
      </trkpt>
      <trkpt lat="39.829467896379" lon="2.814175651084">
        <ele>624.2</ele>
        <time>2020-06-25T21:46:34Z</time>
        <extensions><gpxtpx:TrackPointExtension><gpxtpx:hr>175</gpxtpx:hr></gpxtpx:TrackPointExtension></extensions>
      </trkpt>
      <trkpt lat="39.829445013792" lon="2.814207669942">
        <ele>624.6</ele>
        <time>2020-06-25T21:46:35Z</time>
        <extensions><gpxtpx:TrackPointExtension><gpxtpx:hr>175</gpxtpx:hr></gpxtpx:TrackPointExtension></extensions>
      </trkpt>
      <trkpt lat="39.829414503676" lon="2.814238599153">
        <ele>625.2</ele>
        <time>2020-06-25T21:46:36Z</time>
        <extensions><gpxtpx:TrackPointExtension><gpxtpx:hr>175</gpxtpx:hr></gpxtpx:TrackPointExtension></extensions>
      </trkpt>
      <trkpt lat="39.829387849234" lon="2.814256033505">
        <ele>625.8</ele>
        <time>2020-06-25T21:46:37Z</time>
        <extensions><gpxtpx:TrackPointExtension><gpxtpx:hr>175</gpxtpx:hr></gpxtpx:TrackPointExtension></extensions>
      </trkpt>
      <trkpt lat="39.829368738502" lon="2.814266259423">
        <ele>626.2</ele>
        <time>2020-06-25T21:46:38Z</time>
        <extensions><gpxtpx:TrackPointExtension><gpxtpx:hr>175</gpxtpx:hr></gpxtpx:TrackPointExtension></extensions>
      </trkpt>
      <trkpt lat="39.829342000241" lon="2.814280592472">
        <ele>626.8</ele>
        <time>2020-06-25T21:46:39Z</time>
        <extensions><gpxtpx:TrackPointExtension><gpxtpx:hr>175</gpxtpx:hr></gpxtpx:TrackPointExtension></extensions>
      </trkpt>
      <trkpt lat="39.829319117654" lon="2.814294674064">
        <ele>627.4</ele>
        <time>2020-06-25T21:46:40Z</time>
        <extensions><gpxtpx:TrackPointExtension><gpxtpx:hr>175</gpxtpx:hr></gpxtpx:TrackPointExtension></extensions>
      </trkpt>
      <trkpt lat="39.829288607538" lon="2.814318059565">
        <ele>627.6</ele>
        <time>2020-06-25T21:46:41Z</time>
        <extensions><gpxtpx:TrackPointExtension><gpxtpx:hr>175</gpxtpx:hr></gpxtpx:TrackPointExtension></extensions>
      </trkpt>
      <trkpt lat="39.829250469893" lon="2.814358041228">
        <ele>628</ele>
        <time>2020-06-25T21:46:42Z</time>
        <extensions><gpxtpx:TrackPointExtension><gpxtpx:hr>175</gpxtpx:hr></gpxtpx:TrackPointExtension></extensions>
      </trkpt>
      <trkpt lat="39.829212332248" lon="2.814416714528">
        <ele>628.4</ele>
        <time>2020-06-25T21:46:44Z</time>
        <extensions><gpxtpx:TrackPointExtension><gpxtpx:hr>175</gpxtpx:hr></gpxtpx:TrackPointExtension></extensions>
      </trkpt>
      <trkpt lat="39.829200932864" lon="2.814490139972">
        <ele>629</ele>
        <time>2020-06-25T21:46:45Z</time>
        <extensions><gpxtpx:TrackPointExtension><gpxtpx:hr>176</gpxtpx:hr></gpxtpx:TrackPointExtension></extensions>
      </trkpt>
      <trkpt lat="39.829204704719" lon="2.814537162431">
        <ele>630</ele>
        <time>2020-06-25T21:46:46Z</time>
        <extensions><gpxtpx:TrackPointExtension><gpxtpx:hr>176</gpxtpx:hr></gpxtpx:TrackPointExtension></extensions>
      </trkpt>
      <trkpt lat="39.829208560393" lon="2.814557614267">
        <ele>630.4</ele>
        <time>2020-06-25T21:46:47Z</time>
        <extensions><gpxtpx:TrackPointExtension><gpxtpx:hr>176</gpxtpx:hr></gpxtpx:TrackPointExtension></extensions>
      </trkpt>
      <trkpt lat="39.829216187922" lon="2.814586448003">
        <ele>630.8</ele>
        <time>2020-06-25T21:46:48Z</time>
        <extensions><gpxtpx:TrackPointExtension><gpxtpx:hr>176</gpxtpx:hr></gpxtpx:TrackPointExtension></extensions>
      </trkpt>
      <trkpt lat="39.829235214835" lon="2.814635146842">
        <ele>631</ele>
        <time>2020-06-25T21:46:49Z</time>
        <extensions><gpxtpx:TrackPointExtension><gpxtpx:hr>176</gpxtpx:hr></gpxtpx:TrackPointExtension></extensions>
      </trkpt>
      <trkpt lat="39.829250469893" lon="2.814682085482">
        <ele>631.4</ele>
        <time>2020-06-25T21:46:50Z</time>
        <extensions><gpxtpx:TrackPointExtension><gpxtpx:hr>176</gpxtpx:hr></gpxtpx:TrackPointExtension></extensions>
      </trkpt>
      <trkpt lat="39.82927335248" lon="2.814741261696">
        <ele>631.8</ele>
        <time>2020-06-25T21:46:51Z</time>
        <extensions><gpxtpx:TrackPointExtension><gpxtpx:hr>175</gpxtpx:hr></gpxtpx:TrackPointExtension></extensions>
      </trkpt>
      <trkpt lat="39.829296235067" lon="2.814801024643">
        <ele>632.2</ele>
        <time>2020-06-25T21:46:52Z</time>
        <extensions><gpxtpx:TrackPointExtension><gpxtpx:hr>175</gpxtpx:hr></gpxtpx:TrackPointExtension></extensions>
      </trkpt>
      <trkpt lat="39.829315345799" lon="2.814850896948">
        <ele>632.6</ele>
        <time>2020-06-25T21:46:53Z</time>
        <extensions><gpxtpx:TrackPointExtension><gpxtpx:hr>175</gpxtpx:hr></gpxtpx:TrackPointExtension></extensions>
      </trkpt>
      <trkpt lat="39.829338228386" lon="2.814909821705">
        <ele>633</ele>
        <time>2020-06-25T21:46:54Z</time>
        <extensions><gpxtpx:TrackPointExtension><gpxtpx:hr>175</gpxtpx:hr></gpxtpx:TrackPointExtension></extensions>
      </trkpt>
      <trkpt lat="39.829364882828" lon="2.814966734806">
        <ele>633.6</ele>
        <time>2020-06-25T21:46:56Z</time>
        <extensions><gpxtpx:TrackPointExtension><gpxtpx:hr>175</gpxtpx:hr></gpxtpx:TrackPointExtension></extensions>
      </trkpt>
      <trkpt lat="39.829387849234" lon="2.815022809717">
        <ele>634</ele>
        <time>2020-06-25T21:46:57Z</time>
        <extensions><gpxtpx:TrackPointExtension><gpxtpx:hr>175</gpxtpx:hr></gpxtpx:TrackPointExtension></extensions>
      </trkpt>
      <trkpt lat="39.829414503676" lon="2.815070502728">
        <ele>634.2</ele>
        <time>2020-06-25T21:46:58Z</time>
        <extensions><gpxtpx:TrackPointExtension><gpxtpx:hr>176</gpxtpx:hr></gpxtpx:TrackPointExtension></extensions>
      </trkpt>
      <trkpt lat="39.829445013792" lon="2.815125823268">
        <ele>634.2</ele>
        <time>2020-06-25T21:46:59Z</time>
        <extensions><gpxtpx:TrackPointExtension><gpxtpx:hr>176</gpxtpx:hr></gpxtpx:TrackPointExtension></extensions>
      </trkpt>
      <trkpt lat="39.829490778966" lon="2.815177288134">
        <ele>635</ele>
        <time>2020-06-25T21:47:00Z</time>
        <extensions><gpxtpx:TrackPointExtension><gpxtpx:hr>176</gpxtpx:hr></gpxtpx:TrackPointExtension></extensions>
      </trkpt>
      <trkpt lat="39.829532772285" lon="2.815179886523">
        <ele>636.4</ele>
        <time>2020-06-25T21:47:01Z</time>
        <extensions><gpxtpx:TrackPointExtension><gpxtpx:hr>175</gpxtpx:hr></gpxtpx:TrackPointExtension></extensions>
      </trkpt>
      <trkpt lat="39.829574765604" lon="2.815173013365">
        <ele>636.8</ele>
        <time>2020-06-25T21:47:02Z</time>
        <extensions><gpxtpx:TrackPointExtension><gpxtpx:hr>175</gpxtpx:hr></gpxtpx:TrackPointExtension></extensions>
      </trkpt>
      <trkpt lat="39.82960527572" lon="2.815167732768">
        <ele>637.2</ele>
        <time>2020-06-25T21:47:03Z</time>
        <extensions><gpxtpx:TrackPointExtension><gpxtpx:hr>175</gpxtpx:hr></gpxtpx:TrackPointExtension></extensions>
      </trkpt>
      <trkpt lat="39.829639557691" lon="2.81516253599">
        <ele>637.6</ele>
        <time>2020-06-25T21:47:04Z</time>
        <extensions><gpxtpx:TrackPointExtension><gpxtpx:hr>175</gpxtpx:hr></gpxtpx:TrackPointExtension></extensions>
      </trkpt>
      <trkpt lat="39.829673923481" lon="2.815156333384">
        <ele>638.2</ele>
        <time>2020-06-25T21:47:06Z</time>
        <extensions><gpxtpx:TrackPointExtension><gpxtpx:hr>175</gpxtpx:hr></gpxtpx:TrackPointExtension></extensions>
      </trkpt>
      <trkpt lat="39.8297159168" lon="2.815149376407">
        <ele>638.6</ele>
        <time>2020-06-25T21:47:07Z</time>
        <extensions><gpxtpx:TrackPointExtension><gpxtpx:hr>175</gpxtpx:hr></gpxtpx:TrackPointExtension></extensions>
      </trkpt>
      <trkpt lat="39.8297578263" lon="2.815142251792">
        <ele>639.2</ele>
        <time>2020-06-25T21:47:08Z</time>
        <extensions><gpxtpx:TrackPointExtension><gpxtpx:hr>175</gpxtpx:hr></gpxtpx:TrackPointExtension></extensions>
      </trkpt>
      <trkpt lat="39.829795963945" lon="2.815136049186">
        <ele>639.6</ele>
        <time>2020-06-25T21:47:09Z</time>
        <extensions><gpxtpx:TrackPointExtension><gpxtpx:hr>175</gpxtpx:hr></gpxtpx:TrackPointExtension></extensions>
      </trkpt>
      <trkpt lat="39.829841729119" lon="2.8151281702">
        <ele>640.2</ele>
        <time>2020-06-25T21:47:10Z</time>
        <extensions><gpxtpx:TrackPointExtension><gpxtpx:hr>175</gpxtpx:hr></gpxtpx:TrackPointExtension></extensions>
      </trkpt>
      <trkpt lat="39.829891349967" lon="2.815120039757">
        <ele>640.8</ele>
        <time>2020-06-25T21:47:11Z</time>
        <extensions><gpxtpx:TrackPointExtension><gpxtpx:hr>175</gpxtpx:hr></gpxtpx:TrackPointExtension></extensions>
      </trkpt>
      <trkpt lat="39.829940970815" lon="2.815112160771">
        <ele>641.4</ele>
        <time>2020-06-25T21:47:13Z</time>
        <extensions><gpxtpx:TrackPointExtension><gpxtpx:hr>175</gpxtpx:hr></gpxtpx:TrackPointExtension></extensions>
      </trkpt>
      <trkpt lat="39.82997910846" lon="2.815106209622">
        <ele>642</ele>
        <time>2020-06-25T21:47:14Z</time>
        <extensions><gpxtpx:TrackPointExtension><gpxtpx:hr>175</gpxtpx:hr></gpxtpx:TrackPointExtension></extensions>
      </trkpt>
      <trkpt lat="39.83002101796" lon="2.815100007016">
        <ele>642.4</ele>
        <time>2020-06-25T21:47:15Z</time>
        <extensions><gpxtpx:TrackPointExtension><gpxtpx:hr>175</gpxtpx:hr></gpxtpx:TrackPointExtension></extensions>
      </trkpt>
      <trkpt lat="39.830051528076" lon="2.815095061695">
        <ele>642.8</ele>
        <time>2020-06-25T21:47:16Z</time>
        <extensions><gpxtpx:TrackPointExtension><gpxtpx:hr>176</gpxtpx:hr></gpxtpx:TrackPointExtension></extensions>
      </trkpt>
      <trkpt lat="39.830082122011" lon="2.815090284012">
        <ele>643.2</ele>
        <time>2020-06-25T21:47:17Z</time>
        <extensions><gpxtpx:TrackPointExtension><gpxtpx:hr>176</gpxtpx:hr></gpxtpx:TrackPointExtension></extensions>
      </trkpt>
      <trkpt lat="39.830120259656" lon="2.815086176881">
        <ele>643.8</ele>
        <time>2020-06-25T21:47:18Z</time>
        <extensions><gpxtpx:TrackPointExtension><gpxtpx:hr>176</gpxtpx:hr></gpxtpx:TrackPointExtension></extensions>
      </trkpt>
      <trkpt lat="39.830154541627" lon="2.815083578492">
        <ele>644.2</ele>
        <time>2020-06-25T21:47:19Z</time>
        <extensions><gpxtpx:TrackPointExtension><gpxtpx:hr>176</gpxtpx:hr></gpxtpx:TrackPointExtension></extensions>
      </trkpt>
      <trkpt lat="39.830200306801" lon="2.815081902112">
        <ele>644.4</ele>
        <time>2020-06-25T21:47:20Z</time>
        <extensions><gpxtpx:TrackPointExtension><gpxtpx:hr>176</gpxtpx:hr></gpxtpx:TrackPointExtension></extensions>
      </trkpt>
      <trkpt lat="39.830253783323" lon="2.815081483017">
        <ele>644.4</ele>
        <time>2020-06-25T21:47:21Z</time>
        <extensions><gpxtpx:TrackPointExtension><gpxtpx:hr>176</gpxtpx:hr></gpxtpx:TrackPointExtension></extensions>
      </trkpt>
      <trkpt lat="39.830314803555" lon="2.815086679795">
        <ele>644.6</ele>
        <time>2020-06-25T21:47:22Z</time>
        <extensions><gpxtpx:TrackPointExtension><gpxtpx:hr>176</gpxtpx:hr></gpxtpx:TrackPointExtension></extensions>
      </trkpt>
      <trkpt lat="39.830356713055" lon="2.815106963993">
        <ele>645.6</ele>
        <time>2020-06-25T21:47:23Z</time>
        <extensions><gpxtpx:TrackPointExtension><gpxtpx:hr>176</gpxtpx:hr></gpxtpx:TrackPointExtension></extensions>
      </trkpt>
      <trkpt lat="39.830379595642" lon="2.815131774417">
        <ele>646</ele>
        <time>2020-06-25T21:47:24Z</time>
        <extensions><gpxtpx:TrackPointExtension><gpxtpx:hr>176</gpxtpx:hr></gpxtpx:TrackPointExtension></extensions>
      </trkpt>
      <trkpt lat="39.830398706374" lon="2.815174689745">
        <ele>646.4</ele>
        <time>2020-06-25T21:47:25Z</time>
        <extensions><gpxtpx:TrackPointExtension><gpxtpx:hr>176</gpxtpx:hr></gpxtpx:TrackPointExtension></extensions>
      </trkpt>
      <trkpt lat="39.830410189577" lon="2.815220203462">
        <ele>646.8</ele>
        <time>2020-06-25T21:47:26Z</time>
        <extensions><gpxtpx:TrackPointExtension><gpxtpx:hr>176</gpxtpx:hr></gpxtpx:TrackPointExtension></extensions>
      </trkpt>
      <trkpt lat="39.830406333903" lon="2.81528407354">
        <ele>647</ele>
        <time>2020-06-25T21:47:28Z</time>
        <extensions><gpxtpx:TrackPointExtension><gpxtpx:hr>176</gpxtpx:hr></gpxtpx:TrackPointExtension></extensions>
      </trkpt>
      <trkpt lat="39.830406333903" lon="2.815348027437">
        <ele>647.4</ele>
        <time>2020-06-25T21:47:29Z</time>
        <extensions><gpxtpx:TrackPointExtension><gpxtpx:hr>176</gpxtpx:hr></gpxtpx:TrackPointExtension></extensions>
      </trkpt>
      <trkpt lat="39.830402562048" lon="2.815416172284">
        <ele>647.6</ele>
        <time>2020-06-25T21:47:30Z</time>
        <extensions><gpxtpx:TrackPointExtension><gpxtpx:hr>176</gpxtpx:hr></gpxtpx:TrackPointExtension></extensions>
      </trkpt>
      <trkpt lat="39.830387223171" lon="2.815480545276">
        <ele>648.2</ele>
        <time>2020-06-25T21:47:31Z</time>
        <extensions><gpxtpx:TrackPointExtension><gpxtpx:hr>176</gpxtpx:hr></gpxtpx:TrackPointExtension></extensions>
      </trkpt>
      <trkpt lat="39.830364340584" lon="2.815533267427">
        <ele>648.8</ele>
        <time>2020-06-25T21:47:32Z</time>
        <extensions><gpxtpx:TrackPointExtension><gpxtpx:hr>176</gpxtpx:hr></gpxtpx:TrackPointExtension></extensions>
      </trkpt>
      <trkpt lat="39.830341457997" lon="2.815580960438">
        <ele>649.2</ele>
        <time>2020-06-25T21:47:33Z</time>
        <extensions><gpxtpx:TrackPointExtension><gpxtpx:hr>176</gpxtpx:hr></gpxtpx:TrackPointExtension></extensions>
      </trkpt>
      <trkpt lat="39.830314803555" lon="2.815633179675">
        <ele>649.6</ele>
        <time>2020-06-25T21:47:34Z</time>
        <extensions><gpxtpx:TrackPointExtension><gpxtpx:hr>176</gpxtpx:hr></gpxtpx:TrackPointExtension></extensions>
      </trkpt>
      <trkpt lat="39.830291920968" lon="2.815682968161">
        <ele>650.2</ele>
        <time>2020-06-25T21:47:35Z</time>
        <extensions><gpxtpx:TrackPointExtension><gpxtpx:hr>176</gpxtpx:hr></gpxtpx:TrackPointExtension></extensions>
      </trkpt>
      <trkpt lat="39.830269038381" lon="2.815734013932">
        <ele>650.6</ele>
        <time>2020-06-25T21:47:36Z</time>
        <extensions><gpxtpx:TrackPointExtension><gpxtpx:hr>175</gpxtpx:hr></gpxtpx:TrackPointExtension></extensions>
      </trkpt>
      <trkpt lat="39.830257555178" lon="2.815780449658">
        <ele>651</ele>
        <time>2020-06-25T21:47:37Z</time>
        <extensions><gpxtpx:TrackPointExtension><gpxtpx:hr>175</gpxtpx:hr></gpxtpx:TrackPointExtension></extensions>
      </trkpt>
      <trkpt lat="39.830265182707" lon="2.815846079935">
        <ele>651.4</ele>
        <time>2020-06-25T21:47:38Z</time>
        <extensions><gpxtpx:TrackPointExtension><gpxtpx:hr>175</gpxtpx:hr></gpxtpx:TrackPointExtension></extensions>
      </trkpt>
      <trkpt lat="39.830291920968" lon="2.815911374936">
        <ele>651.8</ele>
        <time>2020-06-25T21:47:40Z</time>
        <extensions><gpxtpx:TrackPointExtension><gpxtpx:hr>175</gpxtpx:hr></gpxtpx:TrackPointExtension></extensions>
      </trkpt>
      <trkpt lat="39.830341457997" lon="2.815941382138">
        <ele>652</ele>
        <time>2020-06-25T21:47:41Z</time>
        <extensions><gpxtpx:TrackPointExtension><gpxtpx:hr>175</gpxtpx:hr></gpxtpx:TrackPointExtension></extensions>
      </trkpt>
      <trkpt lat="39.830391078845" lon="2.815961247241">
        <ele>652.8</ele>
        <time>2020-06-25T21:47:42Z</time>
        <extensions><gpxtpx:TrackPointExtension><gpxtpx:hr>175</gpxtpx:hr></gpxtpx:TrackPointExtension></extensions>
      </trkpt>
      <trkpt lat="39.830436844019" lon="2.815978346317">
        <ele>653.4</ele>
        <time>2020-06-25T21:47:43Z</time>
        <extensions><gpxtpx:TrackPointExtension><gpxtpx:hr>175</gpxtpx:hr></gpxtpx:TrackPointExtension></extensions>
      </trkpt>
      <trkpt lat="39.830478837338" lon="2.8159915059">
        <ele>653.8</ele>
        <time>2020-06-25T21:47:44Z</time>
        <extensions><gpxtpx:TrackPointExtension><gpxtpx:hr>176</gpxtpx:hr></gpxtpx:TrackPointExtension></extensions>
      </trkpt>
      <trkpt lat="39.830516974983" lon="2.816002234732">
        <ele>654.4</ele>
        <time>2020-06-25T21:47:45Z</time>
        <extensions><gpxtpx:TrackPointExtension><gpxtpx:hr>176</gpxtpx:hr></gpxtpx:TrackPointExtension></extensions>
      </trkpt>
      <trkpt lat="39.830547485099" lon="2.816010113718">
        <ele>654.6</ele>
        <time>2020-06-25T21:47:46Z</time>
        <extensions><gpxtpx:TrackPointExtension><gpxtpx:hr>176</gpxtpx:hr></gpxtpx:TrackPointExtension></extensions>
      </trkpt>
      <trkpt lat="39.830589478418" lon="2.816018914713">
        <ele>654.6</ele>
        <time>2020-06-25T21:47:47Z</time>
        <extensions><gpxtpx:TrackPointExtension><gpxtpx:hr>176</gpxtpx:hr></gpxtpx:TrackPointExtension></extensions>
      </trkpt>
      <trkpt lat="39.830658126179" lon="2.816026290785">
        <ele>654.6</ele>
        <time>2020-06-25T21:47:48Z</time>
        <extensions><gpxtpx:TrackPointExtension><gpxtpx:hr>176</gpxtpx:hr></gpxtpx:TrackPointExtension></extensions>
      </trkpt>
      <trkpt lat="39.830722918266" lon="2.816023692396">
        <ele>655</ele>
        <time>2020-06-25T21:47:49Z</time>
        <extensions><gpxtpx:TrackPointExtension><gpxtpx:hr>176</gpxtpx:hr></gpxtpx:TrackPointExtension></extensions>
      </trkpt>
      <trkpt lat="39.830795421701" lon="2.816017238333">
        <ele>655.4</ele>
        <time>2020-06-25T21:47:51Z</time>
        <extensions><gpxtpx:TrackPointExtension><gpxtpx:hr>176</gpxtpx:hr></gpxtpx:TrackPointExtension></extensions>
      </trkpt>
      <trkpt lat="39.830852670078" lon="2.816002905284">
        <ele>655.8</ele>
        <time>2020-06-25T21:47:52Z</time>
        <extensions><gpxtpx:TrackPointExtension><gpxtpx:hr>176</gpxtpx:hr></gpxtpx:TrackPointExtension></extensions>
      </trkpt>
      <trkpt lat="39.83091369031" lon="2.815981196163">
        <ele>656.2</ele>
        <time>2020-06-25T21:47:53Z</time>
        <extensions><gpxtpx:TrackPointExtension><gpxtpx:hr>175</gpxtpx:hr></gpxtpx:TrackPointExtension></extensions>
      </trkpt>
      <trkpt lat="39.830978566216" lon="2.815958565033">
        <ele>656.4</ele>
        <time>2020-06-25T21:47:54Z</time>
        <extensions><gpxtpx:TrackPointExtension><gpxtpx:hr>175</gpxtpx:hr></gpxtpx:TrackPointExtension></extensions>
      </trkpt>
      <trkpt lat="39.831039586448" lon="2.815936688274">
        <ele>656.8</ele>
        <time>2020-06-25T21:47:55Z</time>
        <extensions><gpxtpx:TrackPointExtension><gpxtpx:hr>175</gpxtpx:hr></gpxtpx:TrackPointExtension></extensions>
      </trkpt>
      <trkpt lat="39.831089207296" lon="2.815918331913">
        <ele>657.2</ele>
        <time>2020-06-25T21:47:56Z</time>
        <extensions><gpxtpx:TrackPointExtension><gpxtpx:hr>175</gpxtpx:hr></gpxtpx:TrackPointExtension></extensions>
      </trkpt>
      <trkpt lat="39.831138744325" lon="2.81590014319">
        <ele>657.4</ele>
        <time>2020-06-25T21:47:57Z</time>
        <extensions><gpxtpx:TrackPointExtension><gpxtpx:hr>175</gpxtpx:hr></gpxtpx:TrackPointExtension></extensions>
      </trkpt>
      <trkpt lat="39.831199764557" lon="2.815876841508">
        <ele>657.8</ele>
        <time>2020-06-25T21:47:58Z</time>
        <extensions><gpxtpx:TrackPointExtension><gpxtpx:hr>176</gpxtpx:hr></gpxtpx:TrackPointExtension></extensions>
      </trkpt>
      <trkpt lat="39.83125315726" lon="2.815857060224">
        <ele>658</ele>
        <time>2020-06-25T21:47:59Z</time>
        <extensions><gpxtpx:TrackPointExtension><gpxtpx:hr>176</gpxtpx:hr></gpxtpx:TrackPointExtension></extensions>
      </trkpt>
      <trkpt lat="39.831318033166" lon="2.815834093818">
        <ele>658.4</ele>
        <time>2020-06-25T21:48:01Z</time>
        <extensions><gpxtpx:TrackPointExtension><gpxtpx:hr>176</gpxtpx:hr></gpxtpx:TrackPointExtension></extensions>
      </trkpt>
      <trkpt lat="39.831371425869" lon="2.815817413837">
        <ele>658.8</ele>
        <time>2020-06-25T21:48:02Z</time>
        <extensions><gpxtpx:TrackPointExtension><gpxtpx:hr>176</gpxtpx:hr></gpxtpx:TrackPointExtension></extensions>
      </trkpt>
      <trkpt lat="39.83143252992" lon="2.81579956039">
        <ele>659</ele>
        <time>2020-06-25T21:48:03Z</time>
        <extensions><gpxtpx:TrackPointExtension><gpxtpx:hr>177</gpxtpx:hr></gpxtpx:TrackPointExtension></extensions>
      </trkpt>
      <trkpt lat="39.831497322007" lon="2.815782377495">
        <ele>659.4</ele>
        <time>2020-06-25T21:48:04Z</time>
        <extensions><gpxtpx:TrackPointExtension><gpxtpx:hr>177</gpxtpx:hr></gpxtpx:TrackPointExtension></extensions>
      </trkpt>
      <trkpt lat="39.831546942855" lon="2.815769553188">
        <ele>659.8</ele>
        <time>2020-06-25T21:48:05Z</time>
        <extensions><gpxtpx:TrackPointExtension><gpxtpx:hr>177</gpxtpx:hr></gpxtpx:TrackPointExtension></extensions>
      </trkpt>
      <trkpt lat="39.831600335558" lon="2.815758991994">
        <ele>660</ele>
        <time>2020-06-25T21:48:06Z</time>
        <extensions><gpxtpx:TrackPointExtension><gpxtpx:hr>177</gpxtpx:hr></gpxtpx:TrackPointExtension></extensions>
      </trkpt>
      <trkpt lat="39.831657583935" lon="2.815760919831">
        <ele>660.6</ele>
        <time>2020-06-25T21:48:07Z</time>
        <extensions><gpxtpx:TrackPointExtension><gpxtpx:hr>177</gpxtpx:hr></gpxtpx:TrackPointExtension></extensions>
      </trkpt>
      <trkpt lat="39.831703349109" lon="2.815767373894">
        <ele>661</ele>
        <time>2020-06-25T21:48:08Z</time>
        <extensions><gpxtpx:TrackPointExtension><gpxtpx:hr>177</gpxtpx:hr></gpxtpx:TrackPointExtension></extensions>
      </trkpt>
      <trkpt lat="39.831741486754" lon="2.815775504337">
        <ele>661.4</ele>
        <time>2020-06-25T21:48:10Z</time>
        <extensions><gpxtpx:TrackPointExtension><gpxtpx:hr>177</gpxtpx:hr></gpxtpx:TrackPointExtension></extensions>
      </trkpt>
      <trkpt lat="39.831779624399" lon="2.815787909549">
        <ele>661.8</ele>
        <time>2020-06-25T21:48:11Z</time>
        <extensions><gpxtpx:TrackPointExtension><gpxtpx:hr>177</gpxtpx:hr></gpxtpx:TrackPointExtension></extensions>
      </trkpt>
      <trkpt lat="39.831833017102" lon="2.815815988914">
        <ele>661.8</ele>
        <time>2020-06-25T21:48:12Z</time>
        <extensions><gpxtpx:TrackPointExtension><gpxtpx:hr>177</gpxtpx:hr></gpxtpx:TrackPointExtension></extensions>
      </trkpt>
      <trkpt lat="39.831878782276" lon="2.815859155699">
        <ele>662</ele>
        <time>2020-06-25T21:48:13Z</time>
        <extensions><gpxtpx:TrackPointExtension><gpxtpx:hr>177</gpxtpx:hr></gpxtpx:TrackPointExtension></extensions>
      </trkpt>
      <trkpt lat="39.831928403124" lon="2.815912548402">
        <ele>662.2</ele>
        <time>2020-06-25T21:48:14Z</time>
        <extensions><gpxtpx:TrackPointExtension><gpxtpx:hr>177</gpxtpx:hr></gpxtpx:TrackPointExtension></extensions>
      </trkpt>
      <trkpt lat="39.831981795827" lon="2.81597809486">
        <ele>662.4</ele>
        <time>2020-06-25T21:48:15Z</time>
        <extensions><gpxtpx:TrackPointExtension><gpxtpx:hr>177</gpxtpx:hr></gpxtpx:TrackPointExtension></extensions>
      </trkpt>
      <trkpt lat="39.832039044204" lon="2.816040372377">
        <ele>662.8</ele>
        <time>2020-06-25T21:48:16Z</time>
        <extensions><gpxtpx:TrackPointExtension><gpxtpx:hr>177</gpxtpx:hr></gpxtpx:TrackPointExtension></extensions>
      </trkpt>
      <trkpt lat="39.832100064436" lon="2.816094687089">
        <ele>663</ele>
        <time>2020-06-25T21:48:18Z</time>
        <extensions><gpxtpx:TrackPointExtension><gpxtpx:hr>177</gpxtpx:hr></gpxtpx:TrackPointExtension></extensions>
      </trkpt>
      <trkpt lat="39.832161084668" lon="2.816136428951">
        <ele>663.4</ele>
        <time>2020-06-25T21:48:19Z</time>
        <extensions><gpxtpx:TrackPointExtension><gpxtpx:hr>176</gpxtpx:hr></gpxtpx:TrackPointExtension></extensions>
      </trkpt>
      <trkpt lat="39.8322221049" lon="2.816162915755">
        <ele>663.6</ele>
        <time>2020-06-25T21:48:20Z</time>
        <extensions><gpxtpx:TrackPointExtension><gpxtpx:hr>176</gpxtpx:hr></gpxtpx:TrackPointExtension></extensions>
      </trkpt>
      <trkpt lat="39.832271725748" lon="2.816164843592">
        <ele>663.8</ele>
        <time>2020-06-25T21:48:21Z</time>
        <extensions><gpxtpx:TrackPointExtension><gpxtpx:hr>175</gpxtpx:hr></gpxtpx:TrackPointExtension></extensions>
      </trkpt>
      <trkpt lat="39.832325118451" lon="2.816161993746">
        <ele>664</ele>
        <time>2020-06-25T21:48:22Z</time>
        <extensions><gpxtpx:TrackPointExtension><gpxtpx:hr>175</gpxtpx:hr></gpxtpx:TrackPointExtension></extensions>
      </trkpt>
      <trkpt lat="39.832389994357" lon="2.816152857475">
        <ele>664.4</ele>
        <time>2020-06-25T21:48:23Z</time>
        <extensions><gpxtpx:TrackPointExtension><gpxtpx:hr>174</gpxtpx:hr></gpxtpx:TrackPointExtension></extensions>
      </trkpt>
      <trkpt lat="39.832431903857" lon="2.816127376499">
        <ele>664.8</ele>
        <time>2020-06-25T21:48:24Z</time>
        <extensions><gpxtpx:TrackPointExtension><gpxtpx:hr>174</gpxtpx:hr></gpxtpx:TrackPointExtension></extensions>
      </trkpt>
      <trkpt lat="39.832466269647" lon="2.816082784791">
        <ele>665.4</ele>
        <time>2020-06-25T21:48:25Z</time>
        <extensions><gpxtpx:TrackPointExtension><gpxtpx:hr>174</gpxtpx:hr></gpxtpx:TrackPointExtension></extensions>
      </trkpt>
      <trkpt lat="39.832485380379" lon="2.816032996305">
        <ele>665.6</ele>
        <time>2020-06-25T21:48:27Z</time>
        <extensions><gpxtpx:TrackPointExtension><gpxtpx:hr>174</gpxtpx:hr></gpxtpx:TrackPointExtension></extensions>
      </trkpt>
      <trkpt lat="39.832489152234" lon="2.815956218101">
        <ele>665.8</ele>
        <time>2020-06-25T21:48:28Z</time>
        <extensions><gpxtpx:TrackPointExtension><gpxtpx:hr>174</gpxtpx:hr></gpxtpx:TrackPointExtension></extensions>
      </trkpt>
      <trkpt lat="39.832470125321" lon="2.815878936983">
        <ele>666.2</ele>
        <time>2020-06-25T21:48:29Z</time>
        <extensions><gpxtpx:TrackPointExtension><gpxtpx:hr>174</gpxtpx:hr></gpxtpx:TrackPointExtension></extensions>
      </trkpt>
      <trkpt lat="39.832424276328" lon="2.815820766597">
        <ele>666.4</ele>
        <time>2020-06-25T21:48:30Z</time>
        <extensions><gpxtpx:TrackPointExtension><gpxtpx:hr>174</gpxtpx:hr></gpxtpx:TrackPointExtension></extensions>
      </trkpt>
      <trkpt lat="39.832389994357" lon="2.815793357784">
        <ele>667.4</ele>
        <time>2020-06-25T21:48:31Z</time>
        <extensions><gpxtpx:TrackPointExtension><gpxtpx:hr>174</gpxtpx:hr></gpxtpx:TrackPointExtension></extensions>
      </trkpt>
      <trkpt lat="39.832378511154" lon="2.815785227341">
        <ele>667.6</ele>
        <time>2020-06-25T21:48:32Z</time>
        <extensions><gpxtpx:TrackPointExtension><gpxtpx:hr>174</gpxtpx:hr></gpxtpx:TrackPointExtension></extensions>
      </trkpt>
      <trkpt lat="39.832359484241" lon="2.815776426346">
        <ele>668</ele>
        <time>2020-06-25T21:48:33Z</time>
        <extensions><gpxtpx:TrackPointExtension><gpxtpx:hr>174</gpxtpx:hr></gpxtpx:TrackPointExtension></extensions>
      </trkpt>
      <trkpt lat="39.83233274598" lon="2.815768128265">
        <ele>668.6</ele>
        <time>2020-06-25T21:48:34Z</time>
        <extensions><gpxtpx:TrackPointExtension><gpxtpx:hr>174</gpxtpx:hr></gpxtpx:TrackPointExtension></extensions>
      </trkpt>
      <trkpt lat="39.832271725748" lon="2.815761925659">
        <ele>668.6</ele>
        <time>2020-06-25T21:48:36Z</time>
        <extensions><gpxtpx:TrackPointExtension><gpxtpx:hr>174</gpxtpx:hr></gpxtpx:TrackPointExtension></extensions>
      </trkpt>
      <trkpt lat="39.832195450458" lon="2.815784053875">
        <ele>669</ele>
        <time>2020-06-25T21:48:37Z</time>
        <extensions><gpxtpx:TrackPointExtension><gpxtpx:hr>174</gpxtpx:hr></gpxtpx:TrackPointExtension></extensions>
      </trkpt>
      <trkpt lat="39.832134430226" lon="2.815825795737">
        <ele>669.4</ele>
        <time>2020-06-25T21:48:38Z</time>
        <extensions><gpxtpx:TrackPointExtension><gpxtpx:hr>174</gpxtpx:hr></gpxtpx:TrackPointExtension></extensions>
      </trkpt>
      <trkpt lat="39.832080953704" lon="2.81587080654">
        <ele>669.8</ele>
        <time>2020-06-25T21:48:39Z</time>
        <extensions><gpxtpx:TrackPointExtension><gpxtpx:hr>173</gpxtpx:hr></gpxtpx:TrackPointExtension></extensions>
      </trkpt>
      <trkpt lat="39.83203518853" lon="2.815924953614">
        <ele>670</ele>
        <time>2020-06-25T21:48:40Z</time>
        <extensions><gpxtpx:TrackPointExtension><gpxtpx:hr>173</gpxtpx:hr></gpxtpx:TrackPointExtension></extensions>
      </trkpt>
      <trkpt lat="39.831989423356" lon="2.815997708506">
        <ele>670.4</ele>
        <time>2020-06-25T21:48:41Z</time>
        <extensions><gpxtpx:TrackPointExtension><gpxtpx:hr>173</gpxtpx:hr></gpxtpx:TrackPointExtension></extensions>
      </trkpt>
      <trkpt lat="39.831947513856" lon="2.816063925516">
        <ele>670.8</ele>
        <time>2020-06-25T21:48:42Z</time>
        <extensions><gpxtpx:TrackPointExtension><gpxtpx:hr>173</gpxtpx:hr></gpxtpx:TrackPointExtension></extensions>
      </trkpt>
      <trkpt lat="39.831909292392" lon="2.816113546364">
        <ele>671.4</ele>
        <time>2020-06-25T21:48:43Z</time>
        <extensions><gpxtpx:TrackPointExtension><gpxtpx:hr>173</gpxtpx:hr></gpxtpx:TrackPointExtension></extensions>
      </trkpt>
      <trkpt lat="39.83188263795" lon="2.816147157783">
        <ele>671.8</ele>
        <time>2020-06-25T21:48:44Z</time>
        <extensions><gpxtpx:TrackPointExtension><gpxtpx:hr>172</gpxtpx:hr></gpxtpx:TrackPointExtension></extensions>
      </trkpt>
      <trkpt lat="39.831852127834" lon="2.816184624876">
        <ele>672.4</ele>
        <time>2020-06-25T21:48:46Z</time>
        <extensions><gpxtpx:TrackPointExtension><gpxtpx:hr>172</gpxtpx:hr></gpxtpx:TrackPointExtension></extensions>
      </trkpt>
      <trkpt lat="39.831813990189" lon="2.816227288747">
        <ele>672.8</ele>
        <time>2020-06-25T21:48:47Z</time>
        <extensions><gpxtpx:TrackPointExtension><gpxtpx:hr>172</gpxtpx:hr></gpxtpx:TrackPointExtension></extensions>
      </trkpt>
      <trkpt lat="39.831779624399" lon="2.816264923478">
        <ele>673.4</ele>
        <time>2020-06-25T21:48:48Z</time>
        <extensions><gpxtpx:TrackPointExtension><gpxtpx:hr>172</gpxtpx:hr></gpxtpx:TrackPointExtension></extensions>
      </trkpt>
      <trkpt lat="39.831741486754" lon="2.816302642028">
        <ele>673.8</ele>
        <time>2020-06-25T21:48:49Z</time>
        <extensions><gpxtpx:TrackPointExtension><gpxtpx:hr>172</gpxtpx:hr></gpxtpx:TrackPointExtension></extensions>
      </trkpt>
      <trkpt lat="39.831680466522" lon="2.816343126605">
        <ele>674</ele>
        <time>2020-06-25T21:48:50Z</time>
        <extensions><gpxtpx:TrackPointExtension><gpxtpx:hr>173</gpxtpx:hr></gpxtpx:TrackPointExtension></extensions>
      </trkpt>
      <trkpt lat="39.831600335558" lon="2.816367266477">
        <ele>674.4</ele>
        <time>2020-06-25T21:48:51Z</time>
        <extensions><gpxtpx:TrackPointExtension><gpxtpx:hr>173</gpxtpx:hr></gpxtpx:TrackPointExtension></extensions>
      </trkpt>
      <trkpt lat="39.831539315326" lon="2.816382270078">
        <ele>675</ele>
        <time>2020-06-25T21:48:52Z</time>
        <extensions><gpxtpx:TrackPointExtension><gpxtpx:hr>173</gpxtpx:hr></gpxtpx:TrackPointExtension></extensions>
      </trkpt>
      <trkpt lat="39.831470667565" lon="2.816398950059">
        <ele>675.4</ele>
        <time>2020-06-25T21:48:53Z</time>
        <extensions><gpxtpx:TrackPointExtension><gpxtpx:hr>173</gpxtpx:hr></gpxtpx:TrackPointExtension></extensions>
      </trkpt>
      <trkpt lat="39.831405791659" lon="2.816415127126">
        <ele>676</ele>
        <time>2020-06-25T21:48:55Z</time>
        <extensions><gpxtpx:TrackPointExtension><gpxtpx:hr>173</gpxtpx:hr></gpxtpx:TrackPointExtension></extensions>
      </trkpt>
      <trkpt lat="39.831340915753" lon="2.816431639469">
        <ele>676.6</ele>
        <time>2020-06-25T21:48:56Z</time>
        <extensions><gpxtpx:TrackPointExtension><gpxtpx:hr>173</gpxtpx:hr></gpxtpx:TrackPointExtension></extensions>
      </trkpt>
      <trkpt lat="39.831276123666" lon="2.81644831945">
        <ele>677</ele>
        <time>2020-06-25T21:48:57Z</time>
        <extensions><gpxtpx:TrackPointExtension><gpxtpx:hr>174</gpxtpx:hr></gpxtpx:TrackPointExtension></extensions>
      </trkpt>
      <trkpt lat="39.831226502818" lon="2.816461898128">
        <ele>677.6</ele>
        <time>2020-06-25T21:48:58Z</time>
        <extensions><gpxtpx:TrackPointExtension><gpxtpx:hr>174</gpxtpx:hr></gpxtpx:TrackPointExtension></extensions>
      </trkpt>
      <trkpt lat="39.831173110115" lon="2.816475728263">
        <ele>678</ele>
        <time>2020-06-25T21:48:59Z</time>
        <extensions><gpxtpx:TrackPointExtension><gpxtpx:hr>175</gpxtpx:hr></gpxtpx:TrackPointExtension></extensions>
      </trkpt>
      <trkpt lat="39.831108234209" lon="2.816492408244">
        <ele>678.4</ele>
        <time>2020-06-25T21:49:00Z</time>
        <extensions><gpxtpx:TrackPointExtension><gpxtpx:hr>175</gpxtpx:hr></gpxtpx:TrackPointExtension></extensions>
      </trkpt>
      <trkpt lat="39.831054841506" lon="2.816506489836">
        <ele>679</ele>
        <time>2020-06-25T21:49:01Z</time>
        <extensions><gpxtpx:TrackPointExtension><gpxtpx:hr>176</gpxtpx:hr></gpxtpx:TrackPointExtension></extensions>
      </trkpt>
      <trkpt lat="39.831005220658" lon="2.816520319971">
        <ele>679.6</ele>
        <time>2020-06-25T21:49:02Z</time>
        <extensions><gpxtpx:TrackPointExtension><gpxtpx:hr>176</gpxtpx:hr></gpxtpx:TrackPointExtension></extensions>
      </trkpt>
      <trkpt lat="39.8309480561" lon="2.816535575029">
        <ele>680.2</ele>
        <time>2020-06-25T21:49:04Z</time>
        <extensions><gpxtpx:TrackPointExtension><gpxtpx:hr>176</gpxtpx:hr></gpxtpx:TrackPointExtension></extensions>
      </trkpt>
      <trkpt lat="39.830894579578" lon="2.816549824259">
        <ele>680.8</ele>
        <time>2020-06-25T21:49:05Z</time>
        <extensions><gpxtpx:TrackPointExtension><gpxtpx:hr>176</gpxtpx:hr></gpxtpx:TrackPointExtension></extensions>
      </trkpt>
      <trkpt lat="39.830852670078" lon="2.816561810376">
        <ele>681.4</ele>
        <time>2020-06-25T21:49:06Z</time>
        <extensions><gpxtpx:TrackPointExtension><gpxtpx:hr>176</gpxtpx:hr></gpxtpx:TrackPointExtension></extensions>
      </trkpt>
      <trkpt lat="39.83080304923" lon="2.816576059606">
        <ele>682</ele>
        <time>2020-06-25T21:49:07Z</time>
        <extensions><gpxtpx:TrackPointExtension><gpxtpx:hr>177</gpxtpx:hr></gpxtpx:TrackPointExtension></extensions>
      </trkpt>
      <trkpt lat="39.830749656527" lon="2.816590392655">
        <ele>682.6</ele>
        <time>2020-06-25T21:49:08Z</time>
        <extensions><gpxtpx:TrackPointExtension><gpxtpx:hr>177</gpxtpx:hr></gpxtpx:TrackPointExtension></extensions>
      </trkpt>
      <trkpt lat="39.830707663208" lon="2.816603049324">
        <ele>683.2</ele>
        <time>2020-06-25T21:49:09Z</time>
        <extensions><gpxtpx:TrackPointExtension><gpxtpx:hr>177</gpxtpx:hr></gpxtpx:TrackPointExtension></extensions>
      </trkpt>
      <trkpt lat="39.830654270505" lon="2.816617550011">
        <ele>683.8</ele>
        <time>2020-06-25T21:49:10Z</time>
        <extensions><gpxtpx:TrackPointExtension><gpxtpx:hr>177</gpxtpx:hr></gpxtpx:TrackPointExtension></extensions>
      </trkpt>
      <trkpt lat="39.830608505331" lon="2.816631128689">
        <ele>684.4</ele>
        <time>2020-06-25T21:49:12Z</time>
        <extensions><gpxtpx:TrackPointExtension><gpxtpx:hr>177</gpxtpx:hr></gpxtpx:TrackPointExtension></extensions>
      </trkpt>
      <trkpt lat="39.830566512012" lon="2.816643114806">
        <ele>684.8</ele>
        <time>2020-06-25T21:49:13Z</time>
        <extensions><gpxtpx:TrackPointExtension><gpxtpx:hr>177</gpxtpx:hr></gpxtpx:TrackPointExtension></extensions>
      </trkpt>
      <trkpt lat="39.830524602512" lon="2.816655520018">
        <ele>685.4</ele>
        <time>2020-06-25T21:49:14Z</time>
        <extensions><gpxtpx:TrackPointExtension><gpxtpx:hr>177</gpxtpx:hr></gpxtpx:TrackPointExtension></extensions>
      </trkpt>
      <trkpt lat="39.830482609193" lon="2.816668092868">
        <ele>686</ele>
        <time>2020-06-25T21:49:15Z</time>
        <extensions><gpxtpx:TrackPointExtension><gpxtpx:hr>177</gpxtpx:hr></gpxtpx:TrackPointExtension></extensions>
      </trkpt>
      <trkpt lat="39.830444471548" lon="2.816679073157">
        <ele>686.4</ele>
        <time>2020-06-25T21:49:16Z</time>
        <extensions><gpxtpx:TrackPointExtension><gpxtpx:hr>177</gpxtpx:hr></gpxtpx:TrackPointExtension></extensions>
      </trkpt>
      <trkpt lat="39.830410189577" lon="2.816690304903">
        <ele>687</ele>
        <time>2020-06-25T21:49:17Z</time>
        <extensions><gpxtpx:TrackPointExtension><gpxtpx:hr>177</gpxtpx:hr></gpxtpx:TrackPointExtension></extensions>
      </trkpt>
      <trkpt lat="39.830375823787" lon="2.816701955744">
        <ele>687.6</ele>
        <time>2020-06-25T21:49:18Z</time>
        <extensions><gpxtpx:TrackPointExtension><gpxtpx:hr>178</gpxtpx:hr></gpxtpx:TrackPointExtension></extensions>
      </trkpt>
      <trkpt lat="39.830349085526" lon="2.816710589101">
        <ele>688</ele>
        <time>2020-06-25T21:49:19Z</time>
        <extensions><gpxtpx:TrackPointExtension><gpxtpx:hr>178</gpxtpx:hr></gpxtpx:TrackPointExtension></extensions>
      </trkpt>
      <trkpt lat="39.830322431084" lon="2.816720815019">
        <ele>688.6</ele>
        <time>2020-06-25T21:49:21Z</time>
        <extensions><gpxtpx:TrackPointExtension><gpxtpx:hr>179</gpxtpx:hr></gpxtpx:TrackPointExtension></extensions>
      </trkpt>
      <trkpt lat="39.830291920968" lon="2.816731543851">
        <ele>689.2</ele>
        <time>2020-06-25T21:49:22Z</time>
        <extensions><gpxtpx:TrackPointExtension><gpxtpx:hr>179</gpxtpx:hr></gpxtpx:TrackPointExtension></extensions>
      </trkpt>
      <trkpt lat="39.830261410852" lon="2.816743446149">
        <ele>689.8</ele>
        <time>2020-06-25T21:49:23Z</time>
        <extensions><gpxtpx:TrackPointExtension><gpxtpx:hr>179</gpxtpx:hr></gpxtpx:TrackPointExtension></extensions>
      </trkpt>
      <trkpt lat="39.830227045062" lon="2.816755599904">
        <ele>690.4</ele>
        <time>2020-06-25T21:49:24Z</time>
        <extensions><gpxtpx:TrackPointExtension><gpxtpx:hr>179</gpxtpx:hr></gpxtpx:TrackPointExtension></extensions>
      </trkpt>
      <trkpt lat="39.830196534946" lon="2.816768256573">
        <ele>691</ele>
        <time>2020-06-25T21:49:25Z</time>
        <extensions><gpxtpx:TrackPointExtension><gpxtpx:hr>179</gpxtpx:hr></gpxtpx:TrackPointExtension></extensions>
      </trkpt>
      <trkpt lat="39.830162169156" lon="2.816784685097">
        <ele>691.4</ele>
        <time>2020-06-25T21:49:27Z</time>
        <extensions><gpxtpx:TrackPointExtension><gpxtpx:hr>179</gpxtpx:hr></gpxtpx:TrackPointExtension></extensions>
      </trkpt>
      <trkpt lat="39.830124031511" lon="2.816800945983">
        <ele>691.8</ele>
        <time>2020-06-25T21:49:28Z</time>
        <extensions><gpxtpx:TrackPointExtension><gpxtpx:hr>179</gpxtpx:hr></gpxtpx:TrackPointExtension></extensions>
      </trkpt>
      <trkpt lat="39.83008974954" lon="2.816818045059">
        <ele>692.2</ele>
        <time>2020-06-25T21:49:29Z</time>
        <extensions><gpxtpx:TrackPointExtension><gpxtpx:hr>179</gpxtpx:hr></gpxtpx:TrackPointExtension></extensions>
      </trkpt>
      <trkpt lat="39.830051528076" lon="2.816835982325">
        <ele>692.6</ele>
        <time>2020-06-25T21:49:30Z</time>
        <extensions><gpxtpx:TrackPointExtension><gpxtpx:hr>179</gpxtpx:hr></gpxtpx:TrackPointExtension></extensions>
      </trkpt>
      <trkpt lat="39.830005762902" lon="2.816857188532">
        <ele>693.2</ele>
        <time>2020-06-25T21:49:31Z</time>
        <extensions><gpxtpx:TrackPointExtension><gpxtpx:hr>179</gpxtpx:hr></gpxtpx:TrackPointExtension></extensions>
      </trkpt>
      <trkpt lat="39.829959997728" lon="2.816878394739">
        <ele>693.8</ele>
        <time>2020-06-25T21:49:32Z</time>
        <extensions><gpxtpx:TrackPointExtension><gpxtpx:hr>179</gpxtpx:hr></gpxtpx:TrackPointExtension></extensions>
      </trkpt>
      <trkpt lat="39.829925715757" lon="2.816895577634">
        <ele>694.2</ele>
        <time>2020-06-25T21:49:33Z</time>
        <extensions><gpxtpx:TrackPointExtension><gpxtpx:hr>179</gpxtpx:hr></gpxtpx:TrackPointExtension></extensions>
      </trkpt>
      <trkpt lat="39.829887578112" lon="2.816912006158">
        <ele>694.6</ele>
        <time>2020-06-25T21:49:34Z</time>
        <extensions><gpxtpx:TrackPointExtension><gpxtpx:hr>179</gpxtpx:hr></gpxtpx:TrackPointExtension></extensions>
      </trkpt>
      <trkpt lat="39.829853212322" lon="2.816928267044">
        <ele>695</ele>
        <time>2020-06-25T21:49:35Z</time>
        <extensions><gpxtpx:TrackPointExtension><gpxtpx:hr>180</gpxtpx:hr></gpxtpx:TrackPointExtension></extensions>
      </trkpt>
      <trkpt lat="39.829815074677" lon="2.816946623405">
        <ele>695.4</ele>
        <time>2020-06-25T21:49:36Z</time>
        <extensions><gpxtpx:TrackPointExtension><gpxtpx:hr>180</gpxtpx:hr></gpxtpx:TrackPointExtension></extensions>
      </trkpt>
      <trkpt lat="39.829776937032" lon="2.816963973938">
        <ele>695.8</ele>
        <time>2020-06-25T21:49:37Z</time>
        <extensions><gpxtpx:TrackPointExtension><gpxtpx:hr>180</gpxtpx:hr></gpxtpx:TrackPointExtension></extensions>
      </trkpt>
      <trkpt lat="39.829738799387" lon="2.81698140829">
        <ele>696.4</ele>
        <time>2020-06-25T21:49:39Z</time>
        <extensions><gpxtpx:TrackPointExtension><gpxtpx:hr>180</gpxtpx:hr></gpxtpx:TrackPointExtension></extensions>
      </trkpt>
      <trkpt lat="39.829696806068" lon="2.816999764651">
        <ele>696.8</ele>
        <time>2020-06-25T21:49:40Z</time>
        <extensions><gpxtpx:TrackPointExtension><gpxtpx:hr>179</gpxtpx:hr></gpxtpx:TrackPointExtension></extensions>
      </trkpt>
      <trkpt lat="39.829654812749" lon="2.817018372469">
        <ele>697.2</ele>
        <time>2020-06-25T21:49:41Z</time>
        <extensions><gpxtpx:TrackPointExtension><gpxtpx:hr>179</gpxtpx:hr></gpxtpx:TrackPointExtension></extensions>
      </trkpt>
      <trkpt lat="39.829612903249" lon="2.817037902296">
        <ele>697.8</ele>
        <time>2020-06-25T21:49:42Z</time>
        <extensions><gpxtpx:TrackPointExtension><gpxtpx:hr>179</gpxtpx:hr></gpxtpx:TrackPointExtension></extensions>
      </trkpt>
      <trkpt lat="39.829567138075" lon="2.81705768358">
        <ele>698.4</ele>
        <time>2020-06-25T21:49:43Z</time>
        <extensions><gpxtpx:TrackPointExtension><gpxtpx:hr>179</gpxtpx:hr></gpxtpx:TrackPointExtension></extensions>
      </trkpt>
      <trkpt lat="39.829517517227" lon="2.817076291398">
        <ele>698.8</ele>
        <time>2020-06-25T21:49:45Z</time>
        <extensions><gpxtpx:TrackPointExtension><gpxtpx:hr>178</gpxtpx:hr></gpxtpx:TrackPointExtension></extensions>
      </trkpt>
      <trkpt lat="39.829471752053" lon="2.817093222836">
        <ele>699.4</ele>
        <time>2020-06-25T21:49:46Z</time>
        <extensions><gpxtpx:TrackPointExtension><gpxtpx:hr>178</gpxtpx:hr></gpxtpx:TrackPointExtension></extensions>
      </trkpt>
      <trkpt lat="39.82941835935" lon="2.817109902817">
        <ele>699.8</ele>
        <time>2020-06-25T21:49:47Z</time>
        <extensions><gpxtpx:TrackPointExtension><gpxtpx:hr>178</gpxtpx:hr></gpxtpx:TrackPointExtension></extensions>
      </trkpt>
      <trkpt lat="39.829368738502" lon="2.817125157875">
        <ele>700</ele>
        <time>2020-06-25T21:49:48Z</time>
        <extensions><gpxtpx:TrackPointExtension><gpxtpx:hr>178</gpxtpx:hr></gpxtpx:TrackPointExtension></extensions>
      </trkpt>
      <trkpt lat="39.829311490125" lon="2.817138736553">
        <ele>700.2</ele>
        <time>2020-06-25T21:49:49Z</time>
        <extensions><gpxtpx:TrackPointExtension><gpxtpx:hr>178</gpxtpx:hr></gpxtpx:TrackPointExtension></extensions>
      </trkpt>
      <trkpt lat="39.829235214835" lon="2.817150471213">
        <ele>700.4</ele>
        <time>2020-06-25T21:49:50Z</time>
        <extensions><gpxtpx:TrackPointExtension><gpxtpx:hr>178</gpxtpx:hr></gpxtpx:TrackPointExtension></extensions>
      </trkpt>
      <trkpt lat="39.829158939545" lon="2.817151896136">
        <ele>701</ele>
        <time>2020-06-25T21:49:51Z</time>
        <extensions><gpxtpx:TrackPointExtension><gpxtpx:hr>178</gpxtpx:hr></gpxtpx:TrackPointExtension></extensions>
      </trkpt>
      <trkpt lat="39.829113174371" lon="2.817151141765">
        <ele>701.8</ele>
        <time>2020-06-25T21:49:52Z</time>
        <extensions><gpxtpx:TrackPointExtension><gpxtpx:hr>178</gpxtpx:hr></gpxtpx:TrackPointExtension></extensions>
      </trkpt>
      <trkpt lat="39.829067409197" lon="2.817150638851">
        <ele>702.4</ele>
        <time>2020-06-25T21:49:54Z</time>
        <extensions><gpxtpx:TrackPointExtension><gpxtpx:hr>178</gpxtpx:hr></gpxtpx:TrackPointExtension></extensions>
      </trkpt>
      <trkpt lat="39.829033043407" lon="2.817150638851">
        <ele>703</ele>
        <time>2020-06-25T21:49:55Z</time>
        <extensions><gpxtpx:TrackPointExtension><gpxtpx:hr>178</gpxtpx:hr></gpxtpx:TrackPointExtension></extensions>
      </trkpt>
      <trkpt lat="39.829002533291" lon="2.817150638851">
        <ele>703.4</ele>
        <time>2020-06-25T21:49:56Z</time>
        <extensions><gpxtpx:TrackPointExtension><gpxtpx:hr>178</gpxtpx:hr></gpxtpx:TrackPointExtension></extensions>
      </trkpt>
      <trkpt lat="39.828968167501" lon="2.817151141765">
        <ele>704</ele>
        <time>2020-06-25T21:49:57Z</time>
        <extensions><gpxtpx:TrackPointExtension><gpxtpx:hr>178</gpxtpx:hr></gpxtpx:TrackPointExtension></extensions>
      </trkpt>
      <trkpt lat="39.828937657385" lon="2.817151393222">
        <ele>704.4</ele>
        <time>2020-06-25T21:49:58Z</time>
        <extensions><gpxtpx:TrackPointExtension><gpxtpx:hr>178</gpxtpx:hr></gpxtpx:TrackPointExtension></extensions>
      </trkpt>
      <trkpt lat="39.828903375414" lon="2.817151896136">
        <ele>704.8</ele>
        <time>2020-06-25T21:49:59Z</time>
        <extensions><gpxtpx:TrackPointExtension><gpxtpx:hr>178</gpxtpx:hr></gpxtpx:TrackPointExtension></extensions>
      </trkpt>
      <trkpt lat="39.828861382095" lon="2.817152818145">
        <ele>705.4</ele>
        <time>2020-06-25T21:50:00Z</time>
        <extensions><gpxtpx:TrackPointExtension><gpxtpx:hr>178</gpxtpx:hr></gpxtpx:TrackPointExtension></extensions>
      </trkpt>
      <trkpt lat="39.828819388776" lon="2.817155248896">
        <ele>706</ele>
        <time>2020-06-25T21:50:01Z</time>
        <extensions><gpxtpx:TrackPointExtension><gpxtpx:hr>179</gpxtpx:hr></gpxtpx:TrackPointExtension></extensions>
      </trkpt>
      <trkpt lat="39.828777479276" lon="2.817159272208">
        <ele>706.8</ele>
        <time>2020-06-25T21:50:02Z</time>
        <extensions><gpxtpx:TrackPointExtension><gpxtpx:hr>179</gpxtpx:hr></gpxtpx:TrackPointExtension></extensions>
      </trkpt>
      <trkpt lat="39.828739341631" lon="2.817163798434">
        <ele>707.4</ele>
        <time>2020-06-25T21:50:04Z</time>
        <extensions><gpxtpx:TrackPointExtension><gpxtpx:hr>179</gpxtpx:hr></gpxtpx:TrackPointExtension></extensions>
      </trkpt>
      <trkpt lat="39.828697348312" lon="2.81716832466">
        <ele>708</ele>
        <time>2020-06-25T21:50:05Z</time>
        <extensions><gpxtpx:TrackPointExtension><gpxtpx:hr>179</gpxtpx:hr></gpxtpx:TrackPointExtension></extensions>
      </trkpt>
      <trkpt lat="39.828655354993" lon="2.817172850886">
        <ele>708.6</ele>
        <time>2020-06-25T21:50:06Z</time>
        <extensions><gpxtpx:TrackPointExtension><gpxtpx:hr>179</gpxtpx:hr></gpxtpx:TrackPointExtension></extensions>
      </trkpt>
      <trkpt lat="39.828624844877" lon="2.81717670656">
        <ele>709</ele>
        <time>2020-06-25T21:50:07Z</time>
        <extensions><gpxtpx:TrackPointExtension><gpxtpx:hr>180</gpxtpx:hr></gpxtpx:TrackPointExtension></extensions>
      </trkpt>
      <trkpt lat="39.828579079703" lon="2.81719095579">
        <ele>709.2</ele>
        <time>2020-06-25T21:50:08Z</time>
        <extensions><gpxtpx:TrackPointExtension><gpxtpx:hr>180</gpxtpx:hr></gpxtpx:TrackPointExtension></extensions>
      </trkpt>
      <trkpt lat="39.828521915145" lon="2.817233619661">
        <ele>709.2</ele>
        <time>2020-06-25T21:50:09Z</time>
        <extensions><gpxtpx:TrackPointExtension><gpxtpx:hr>180</gpxtpx:hr></gpxtpx:TrackPointExtension></extensions>
      </trkpt>
      <trkpt lat="39.828476066152" lon="2.817273685143">
        <ele>709.8</ele>
        <time>2020-06-25T21:50:10Z</time>
        <extensions><gpxtpx:TrackPointExtension><gpxtpx:hr>180</gpxtpx:hr></gpxtpx:TrackPointExtension></extensions>
      </trkpt>
      <trkpt lat="39.828422673449" lon="2.817318779765">
        <ele>710.4</ele>
        <time>2020-06-25T21:50:12Z</time>
        <extensions><gpxtpx:TrackPointExtension><gpxtpx:hr>181</gpxtpx:hr></gpxtpx:TrackPointExtension></extensions>
      </trkpt>
      <trkpt lat="39.828380763949" lon="2.817354067564">
        <ele>711</ele>
        <time>2020-06-25T21:50:13Z</time>
        <extensions><gpxtpx:TrackPointExtension><gpxtpx:hr>181</gpxtpx:hr></gpxtpx:TrackPointExtension></extensions>
      </trkpt>
      <trkpt lat="39.828334914956" lon="2.817394300684">
        <ele>711.6</ele>
        <time>2020-06-25T21:50:14Z</time>
        <extensions><gpxtpx:TrackPointExtension><gpxtpx:hr>181</gpxtpx:hr></gpxtpx:TrackPointExtension></extensions>
      </trkpt>
      <trkpt lat="39.828296777311" lon="2.817426738637">
        <ele>712</ele>
        <time>2020-06-25T21:50:15Z</time>
        <extensions><gpxtpx:TrackPointExtension><gpxtpx:hr>181</gpxtpx:hr></gpxtpx:TrackPointExtension></extensions>
      </trkpt>
      <trkpt lat="39.828254867811" lon="2.81745917659">
        <ele>712.6</ele>
        <time>2020-06-25T21:50:16Z</time>
        <extensions><gpxtpx:TrackPointExtension><gpxtpx:hr>181</gpxtpx:hr></gpxtpx:TrackPointExtension></extensions>
      </trkpt>
      <trkpt lat="39.828209102637" lon="2.817498068606">
        <ele>713.2</ele>
        <time>2020-06-25T21:50:17Z</time>
        <extensions><gpxtpx:TrackPointExtension><gpxtpx:hr>181</gpxtpx:hr></gpxtpx:TrackPointExtension></extensions>
      </trkpt>
      <trkpt lat="39.828167109318" lon="2.817530003645">
        <ele>713.6</ele>
        <time>2020-06-25T21:50:18Z</time>
        <extensions><gpxtpx:TrackPointExtension><gpxtpx:hr>181</gpxtpx:hr></gpxtpx:TrackPointExtension></extensions>
      </trkpt>
      <trkpt lat="39.828121344144" lon="2.817567638376">
        <ele>714.2</ele>
        <time>2020-06-25T21:50:19Z</time>
        <extensions><gpxtpx:TrackPointExtension><gpxtpx:hr>181</gpxtpx:hr></gpxtpx:TrackPointExtension></extensions>
      </trkpt>
      <trkpt lat="39.828071723296" lon="2.817604351098">
        <ele>714.8</ele>
        <time>2020-06-25T21:50:20Z</time>
        <extensions><gpxtpx:TrackPointExtension><gpxtpx:hr>180</gpxtpx:hr></gpxtpx:TrackPointExtension></extensions>
      </trkpt>
      <trkpt lat="39.828025958122" lon="2.817639219802">
        <ele>715.4</ele>
        <time>2020-06-25T21:50:22Z</time>
        <extensions><gpxtpx:TrackPointExtension><gpxtpx:hr>180</gpxtpx:hr></gpxtpx:TrackPointExtension></extensions>
      </trkpt>
      <trkpt lat="39.827976337274" lon="2.817675681067">
        <ele>715.8</ele>
        <time>2020-06-25T21:50:23Z</time>
        <extensions><gpxtpx:TrackPointExtension><gpxtpx:hr>180</gpxtpx:hr></gpxtpx:TrackPointExtension></extensions>
      </trkpt>
      <trkpt lat="39.827922944571" lon="2.817715243635">
        <ele>716.2</ele>
        <time>2020-06-25T21:50:24Z</time>
        <extensions><gpxtpx:TrackPointExtension><gpxtpx:hr>180</gpxtpx:hr></gpxtpx:TrackPointExtension></extensions>
      </trkpt>
      <trkpt lat="39.827858152484" lon="2.817757907506">
        <ele>716.6</ele>
        <time>2020-06-25T21:50:25Z</time>
        <extensions><gpxtpx:TrackPointExtension><gpxtpx:hr>180</gpxtpx:hr></gpxtpx:TrackPointExtension></extensions>
      </trkpt>
      <trkpt lat="39.827804675962" lon="2.817794871685">
        <ele>716.8</ele>
        <time>2020-06-25T21:50:26Z</time>
        <extensions><gpxtpx:TrackPointExtension><gpxtpx:hr>181</gpxtpx:hr></gpxtpx:TrackPointExtension></extensions>
      </trkpt>
      <trkpt lat="39.827747511404" lon="2.817831584407">
        <ele>717.2</ele>
        <time>2020-06-25T21:50:27Z</time>
        <extensions><gpxtpx:TrackPointExtension><gpxtpx:hr>181</gpxtpx:hr></gpxtpx:TrackPointExtension></extensions>
      </trkpt>
      <trkpt lat="39.827682635498" lon="2.817873326269">
        <ele>717.8</ele>
        <time>2020-06-25T21:50:28Z</time>
        <extensions><gpxtpx:TrackPointExtension><gpxtpx:hr>181</gpxtpx:hr></gpxtpx:TrackPointExtension></extensions>
      </trkpt>
      <trkpt lat="39.827617759592" lon="2.817911212457">
        <ele>718.2</ele>
        <time>2020-06-25T21:50:30Z</time>
        <extensions><gpxtpx:TrackPointExtension><gpxtpx:hr>180</gpxtpx:hr></gpxtpx:TrackPointExtension></extensions>
      </trkpt>
      <trkpt lat="39.82755673936" lon="2.817943901867">
        <ele>718.6</ele>
        <time>2020-06-25T21:50:31Z</time>
        <extensions><gpxtpx:TrackPointExtension><gpxtpx:hr>180</gpxtpx:hr></gpxtpx:TrackPointExtension></extensions>
      </trkpt>
      <trkpt lat="39.827495719128" lon="2.817971562137">
        <ele>719</ele>
        <time>2020-06-25T21:50:32Z</time>
        <extensions><gpxtpx:TrackPointExtension><gpxtpx:hr>180</gpxtpx:hr></gpxtpx:TrackPointExtension></extensions>
      </trkpt>
      <trkpt lat="39.827442326425" lon="2.817989415584">
        <ele>718.8</ele>
        <time>2020-06-25T21:50:33Z</time>
        <extensions><gpxtpx:TrackPointExtension><gpxtpx:hr>180</gpxtpx:hr></gpxtpx:TrackPointExtension></extensions>
      </trkpt>
      <trkpt lat="39.827366051135" lon="2.818002994262">
        <ele>718.6</ele>
        <time>2020-06-25T21:50:34Z</time>
        <extensions><gpxtpx:TrackPointExtension><gpxtpx:hr>181</gpxtpx:hr></gpxtpx:TrackPointExtension></extensions>
      </trkpt>
      <trkpt lat="39.827278292642" lon="2.817987068652">
        <ele>718.4</ele>
        <time>2020-06-25T21:50:35Z</time>
        <extensions><gpxtpx:TrackPointExtension><gpxtpx:hr>181</gpxtpx:hr></gpxtpx:TrackPointExtension></extensions>
      </trkpt>
      <trkpt lat="39.82718290662" lon="2.817951780853">
        <ele>717.8</ele>
        <time>2020-06-25T21:50:37Z</time>
        <extensions><gpxtpx:TrackPointExtension><gpxtpx:hr>180</gpxtpx:hr></gpxtpx:TrackPointExtension></extensions>
      </trkpt>
      <trkpt lat="39.827102775656" lon="2.817911715371">
        <ele>717.4</ele>
        <time>2020-06-25T21:50:38Z</time>
        <extensions><gpxtpx:TrackPointExtension><gpxtpx:hr>180</gpxtpx:hr></gpxtpx:TrackPointExtension></extensions>
      </trkpt>
      <trkpt lat="39.827003617779" lon="2.817839211936">
        <ele>716.8</ele>
        <time>2020-06-25T21:50:39Z</time>
        <extensions><gpxtpx:TrackPointExtension><gpxtpx:hr>180</gpxtpx:hr></gpxtpx:TrackPointExtension></extensions>
      </trkpt>
      <trkpt lat="39.826931114344" lon="2.817758661877">
        <ele>716.6</ele>
        <time>2020-06-25T21:50:40Z</time>
        <extensions><gpxtpx:TrackPointExtension><gpxtpx:hr>180</gpxtpx:hr></gpxtpx:TrackPointExtension></extensions>
      </trkpt>
      <trkpt lat="39.826847211525" lon="2.817641315277">
        <ele>715.2</ele>
        <time>2020-06-25T21:50:41Z</time>
        <extensions><gpxtpx:TrackPointExtension><gpxtpx:hr>180</gpxtpx:hr></gpxtpx:TrackPointExtension></extensions>
      </trkpt>
      <trkpt lat="39.826767080561" lon="2.817537631174">
        <ele>714.2</ele>
        <time>2020-06-25T21:50:42Z</time>
        <extensions><gpxtpx:TrackPointExtension><gpxtpx:hr>179</gpxtpx:hr></gpxtpx:TrackPointExtension></extensions>
      </trkpt>
      <trkpt lat="39.826645040097" lon="2.81743486908">
        <ele>712.8</ele>
        <time>2020-06-25T21:50:43Z</time>
        <extensions><gpxtpx:TrackPointExtension><gpxtpx:hr>179</gpxtpx:hr></gpxtpx:TrackPointExtension></extensions>
      </trkpt>
      <trkpt lat="39.826507744575" lon="2.81738122492">
        <ele>712.4</ele>
        <time>2020-06-25T21:50:44Z</time>
        <extensions><gpxtpx:TrackPointExtension><gpxtpx:hr>179</gpxtpx:hr></gpxtpx:TrackPointExtension></extensions>
      </trkpt>
      <trkpt lat="39.826385620292" lon="2.817380302911">
        <ele>711.2</ele>
        <time>2020-06-25T21:50:45Z</time>
        <extensions><gpxtpx:TrackPointExtension><gpxtpx:hr>179</gpxtpx:hr></gpxtpx:TrackPointExtension></extensions>
      </trkpt>
      <trkpt lat="39.826233069712" lon="2.817376447237">
        <ele>709.8</ele>
        <time>2020-06-25T21:50:47Z</time>
        <extensions><gpxtpx:TrackPointExtension><gpxtpx:hr>179</gpxtpx:hr></gpxtpx:TrackPointExtension></extensions>
      </trkpt>
      <trkpt lat="39.826072807784" lon="2.817343338732">
        <ele>708.4</ele>
        <time>2020-06-25T21:50:48Z</time>
        <extensions><gpxtpx:TrackPointExtension><gpxtpx:hr>178</gpxtpx:hr></gpxtpx:TrackPointExtension></extensions>
      </trkpt>
      <trkpt lat="39.825924029059" lon="2.817249126176">
        <ele>706.8</ele>
        <time>2020-06-25T21:50:49Z</time>
        <extensions><gpxtpx:TrackPointExtension><gpxtpx:hr>178</gpxtpx:hr></gpxtpx:TrackPointExtension></extensions>
      </trkpt>
      <trkpt lat="39.825775334153" lon="2.817139910019">
        <ele>705.8</ele>
        <time>2020-06-25T21:50:50Z</time>
        <extensions><gpxtpx:TrackPointExtension><gpxtpx:hr>177</gpxtpx:hr></gpxtpx:TrackPointExtension></extensions>
      </trkpt>
      <trkpt lat="39.825634182957" lon="2.817015941718">
        <ele>704.6</ele>
        <time>2020-06-25T21:50:51Z</time>
        <extensions><gpxtpx:TrackPointExtension><gpxtpx:hr>177</gpxtpx:hr></gpxtpx:TrackPointExtension></extensions>
      </trkpt>
      <trkpt lat="39.825504431145" lon="2.816873365599">
        <ele>703.2</ele>
        <time>2020-06-25T21:50:53Z</time>
        <extensions><gpxtpx:TrackPointExtension><gpxtpx:hr>177</gpxtpx:hr></gpxtpx:TrackPointExtension></extensions>
      </trkpt>
      <trkpt lat="39.825378535007" lon="2.816718384268">
        <ele>701.8</ele>
        <time>2020-06-25T21:50:54Z</time>
        <extensions><gpxtpx:TrackPointExtension><gpxtpx:hr>176</gpxtpx:hr></gpxtpx:TrackPointExtension></extensions>
      </trkpt>
      <trkpt lat="39.825283232804" lon="2.816588967732">
        <ele>700.8</ele>
        <time>2020-06-25T21:50:55Z</time>
        <extensions><gpxtpx:TrackPointExtension><gpxtpx:hr>175</gpxtpx:hr></gpxtpx:TrackPointExtension></extensions>
      </trkpt>
      <trkpt lat="39.82520310184" lon="2.816441111016">
        <ele>699.8</ele>
        <time>2020-06-25T21:50:56Z</time>
        <extensions><gpxtpx:TrackPointExtension><gpxtpx:hr>175</gpxtpx:hr></gpxtpx:TrackPointExtension></extensions>
      </trkpt>
      <trkpt lat="39.825195474311" lon="2.816316891258">
        <ele>699.4</ele>
        <time>2020-06-25T21:50:57Z</time>
        <extensions><gpxtpx:TrackPointExtension><gpxtpx:hr>174</gpxtpx:hr></gpxtpx:TrackPointExtension></extensions>
      </trkpt>
      <trkpt lat="39.825214501224" lon="2.81615411476">
        <ele>698.2</ele>
        <time>2020-06-25T21:50:58Z</time>
        <extensions><gpxtpx:TrackPointExtension><gpxtpx:hr>173</gpxtpx:hr></gpxtpx:TrackPointExtension></extensions>
      </trkpt>
      <trkpt lat="39.825210729369" lon="2.815975245014">
        <ele>697.2</ele>
        <time>2020-06-25T21:50:59Z</time>
        <extensions><gpxtpx:TrackPointExtension><gpxtpx:hr>173</gpxtpx:hr></gpxtpx:TrackPointExtension></extensions>
      </trkpt>
      <trkpt lat="39.825187846782" lon="2.815828142669">
        <ele>696.4</ele>
        <time>2020-06-25T21:51:00Z</time>
        <extensions><gpxtpx:TrackPointExtension><gpxtpx:hr>173</gpxtpx:hr></gpxtpx:TrackPointExtension></extensions>
      </trkpt>
      <trkpt lat="39.825122970876" lon="2.815696295382">
        <ele>695.2</ele>
        <time>2020-06-25T21:51:01Z</time>
        <extensions><gpxtpx:TrackPointExtension><gpxtpx:hr>173</gpxtpx:hr></gpxtpx:TrackPointExtension></extensions>
      </trkpt>
      <trkpt lat="39.825039068057" lon="2.815595461125">
        <ele>693.6</ele>
        <time>2020-06-25T21:51:02Z</time>
        <extensions><gpxtpx:TrackPointExtension><gpxtpx:hr>173</gpxtpx:hr></gpxtpx:TrackPointExtension></extensions>
      </trkpt>
      <trkpt lat="39.82498181968" lon="2.815510133383">
        <ele>693.2</ele>
        <time>2020-06-25T21:51:03Z</time>
        <extensions><gpxtpx:TrackPointExtension><gpxtpx:hr>172</gpxtpx:hr></gpxtpx:TrackPointExtension></extensions>
      </trkpt>
      <trkpt lat="39.824958937093" lon="2.815410221135">
        <ele>693</ele>
        <time>2020-06-25T21:51:05Z</time>
        <extensions><gpxtpx:TrackPointExtension><gpxtpx:hr>172</gpxtpx:hr></gpxtpx:TrackPointExtension></extensions>
      </trkpt>
      <trkpt lat="39.824966564622" lon="2.815311482353">
        <ele>692.2</ele>
        <time>2020-06-25T21:51:06Z</time>
        <extensions><gpxtpx:TrackPointExtension><gpxtpx:hr>172</gpxtpx:hr></gpxtpx:TrackPointExtension></extensions>
      </trkpt>
      <trkpt lat="39.824985675354" lon="2.815200422178">
        <ele>691.4</ele>
        <time>2020-06-25T21:51:07Z</time>
        <extensions><gpxtpx:TrackPointExtension><gpxtpx:hr>172</gpxtpx:hr></gpxtpx:TrackPointExtension></extensions>
      </trkpt>
      <trkpt lat="39.825012329796" lon="2.815051391996">
        <ele>690.2</ele>
        <time>2020-06-25T21:51:08Z</time>
        <extensions><gpxtpx:TrackPointExtension><gpxtpx:hr>171</gpxtpx:hr></gpxtpx:TrackPointExtension></extensions>
      </trkpt>
      <trkpt lat="39.825027584854" lon="2.814900517796">
        <ele>689</ele>
        <time>2020-06-25T21:51:09Z</time>
        <extensions><gpxtpx:TrackPointExtension><gpxtpx:hr>170</gpxtpx:hr></gpxtpx:TrackPointExtension></extensions>
      </trkpt>
      <trkpt lat="39.825008557941" lon="2.814770346889">
        <ele>689</ele>
        <time>2020-06-25T21:51:10Z</time>
        <extensions><gpxtpx:TrackPointExtension><gpxtpx:hr>169</gpxtpx:hr></gpxtpx:TrackPointExtension></extensions>
      </trkpt>
      <trkpt lat="39.824951309564" lon="2.814683510405">
        <ele>688.8</ele>
        <time>2020-06-25T21:51:11Z</time>
        <extensions><gpxtpx:TrackPointExtension><gpxtpx:hr>168</gpxtpx:hr></gpxtpx:TrackPointExtension></extensions>
      </trkpt>
      <trkpt lat="39.824859779216" lon="2.81465543104">
        <ele>688.2</ele>
        <time>2020-06-25T21:51:13Z</time>
        <extensions><gpxtpx:TrackPointExtension><gpxtpx:hr>167</gpxtpx:hr></gpxtpx:TrackPointExtension></extensions>
      </trkpt>
      <trkpt lat="39.824768248868" lon="2.81469063502">
        <ele>687</ele>
        <time>2020-06-25T21:51:14Z</time>
        <extensions><gpxtpx:TrackPointExtension><gpxtpx:hr>165</gpxtpx:hr></gpxtpx:TrackPointExtension></extensions>
      </trkpt>
      <trkpt lat="39.824661379643" lon="2.814775795124">
        <ele>686</ele>
        <time>2020-06-25T21:51:15Z</time>
        <extensions><gpxtpx:TrackPointExtension><gpxtpx:hr>162</gpxtpx:hr></gpxtpx:TrackPointExtension></extensions>
      </trkpt>
      <trkpt lat="39.82456607744" lon="2.814857770106">
        <ele>685.2</ele>
        <time>2020-06-25T21:51:16Z</time>
        <extensions><gpxtpx:TrackPointExtension><gpxtpx:hr>162</gpxtpx:hr></gpxtpx:TrackPointExtension></extensions>
      </trkpt>
      <trkpt lat="39.824470691418" lon="2.81494460659">
        <ele>684.4</ele>
        <time>2020-06-25T21:51:17Z</time>
        <extensions><gpxtpx:TrackPointExtension><gpxtpx:hr>159</gpxtpx:hr></gpxtpx:TrackPointExtension></extensions>
      </trkpt>
      <trkpt lat="39.824352422809" lon="2.815056421136">
        <ele>683.4</ele>
        <time>2020-06-25T21:51:18Z</time>
        <extensions><gpxtpx:TrackPointExtension><gpxtpx:hr>157</gpxtpx:hr></gpxtpx:TrackPointExtension></extensions>
      </trkpt>
      <trkpt lat="39.824238009874" lon="2.815179635066">
        <ele>682.4</ele>
        <time>2020-06-25T21:51:19Z</time>
        <extensions><gpxtpx:TrackPointExtension><gpxtpx:hr>156</gpxtpx:hr></gpxtpx:TrackPointExtension></extensions>
      </trkpt>
      <trkpt lat="39.824146395707" lon="2.81529748458">
        <ele>681.4</ele>
        <time>2020-06-25T21:51:20Z</time>
        <extensions><gpxtpx:TrackPointExtension><gpxtpx:hr>155</gpxtpx:hr></gpxtpx:TrackPointExtension></extensions>
      </trkpt>
      <trkpt lat="39.824054865359" lon="2.815417178112">
        <ele>680.4</ele>
        <time>2020-06-25T21:51:21Z</time>
        <extensions><gpxtpx:TrackPointExtension><gpxtpx:hr>155</gpxtpx:hr></gpxtpx:TrackPointExtension></extensions>
      </trkpt>
      <trkpt lat="39.823951851808" lon="2.81552798683">
        <ele>679.2</ele>
        <time>2020-06-25T21:51:22Z</time>
        <extensions><gpxtpx:TrackPointExtension><gpxtpx:hr>154</gpxtpx:hr></gpxtpx:TrackPointExtension></extensions>
      </trkpt>
      <trkpt lat="39.823833583199" lon="2.815621445015">
        <ele>678</ele>
        <time>2020-06-25T21:51:23Z</time>
        <extensions><gpxtpx:TrackPointExtension><gpxtpx:hr>153</gpxtpx:hr></gpxtpx:TrackPointExtension></extensions>
      </trkpt>
      <trkpt lat="39.823684804474" lon="2.815721860177">
        <ele>676.8</ele>
        <time>2020-06-25T21:51:24Z</time>
        <extensions><gpxtpx:TrackPointExtension><gpxtpx:hr>152</gpxtpx:hr></gpxtpx:TrackPointExtension></extensions>
      </trkpt>
      <trkpt lat="39.823551364626" lon="2.815785730255">
        <ele>675.8</ele>
        <time>2020-06-25T21:51:25Z</time>
        <extensions><gpxtpx:TrackPointExtension><gpxtpx:hr>150</gpxtpx:hr></gpxtpx:TrackPointExtension></extensions>
      </trkpt>
      <trkpt lat="39.823413985285" lon="2.815823364986">
        <ele>674.4</ele>
        <time>2020-06-25T21:51:26Z</time>
        <extensions><gpxtpx:TrackPointExtension><gpxtpx:hr>148</gpxtpx:hr></gpxtpx:TrackPointExtension></extensions>
      </trkpt>
      <trkpt lat="39.823276689763" lon="2.815831998343">
        <ele>673.4</ele>
        <time>2020-06-25T21:51:28Z</time>
        <extensions><gpxtpx:TrackPointExtension><gpxtpx:hr>146</gpxtpx:hr></gpxtpx:TrackPointExtension></extensions>
      </trkpt>
      <trkpt lat="39.82318893127" lon="2.815824873728">
        <ele>673.2</ele>
        <time>2020-06-25T21:51:29Z</time>
        <extensions><gpxtpx:TrackPointExtension><gpxtpx:hr>142</gpxtpx:hr></gpxtpx:TrackPointExtension></extensions>
      </trkpt>
      <trkpt lat="39.823097400922" lon="2.815787658092">
        <ele>672.8</ele>
        <time>2020-06-25T21:51:30Z</time>
        <extensions><gpxtpx:TrackPointExtension><gpxtpx:hr>140</gpxtpx:hr></gpxtpx:TrackPointExtension></extensions>
      </trkpt>
      <trkpt lat="39.8230020149" lon="2.815715154657">
        <ele>671.8</ele>
        <time>2020-06-25T21:51:31Z</time>
        <extensions><gpxtpx:TrackPointExtension><gpxtpx:hr>139</gpxtpx:hr></gpxtpx:TrackPointExtension></extensions>
      </trkpt>
      <trkpt lat="39.822918112081" lon="2.815642902679">
        <ele>670.8</ele>
        <time>2020-06-25T21:51:32Z</time>
        <extensions><gpxtpx:TrackPointExtension><gpxtpx:hr>138</gpxtpx:hr></gpxtpx:TrackPointExtension></extensions>
      </trkpt>
      <trkpt lat="39.822826497914" lon="2.815561598249">
        <ele>669.8</ele>
        <time>2020-06-25T21:51:33Z</time>
        <extensions><gpxtpx:TrackPointExtension><gpxtpx:hr>137</gpxtpx:hr></gpxtpx:TrackPointExtension></extensions>
      </trkpt>
      <trkpt lat="39.822712084979" lon="2.815449783703">
        <ele>668.6</ele>
        <time>2020-06-25T21:51:34Z</time>
        <extensions><gpxtpx:TrackPointExtension><gpxtpx:hr>137</gpxtpx:hr></gpxtpx:TrackPointExtension></extensions>
      </trkpt>
      <trkpt lat="39.82259381637" lon="2.815320618624">
        <ele>667.2</ele>
        <time>2020-06-25T21:51:35Z</time>
        <extensions><gpxtpx:TrackPointExtension><gpxtpx:hr>137</gpxtpx:hr></gpxtpx:TrackPointExtension></extensions>
      </trkpt>
      <trkpt lat="39.822506141696" lon="2.815207546793">
        <ele>666</ele>
        <time>2020-06-25T21:51:36Z</time>
        <extensions><gpxtpx:TrackPointExtension><gpxtpx:hr>136</gpxtpx:hr></gpxtpx:TrackPointExtension></extensions>
      </trkpt>
      <trkpt lat="39.822429782587" lon="2.815097911541">
        <ele>664.8</ele>
        <time>2020-06-25T21:51:38Z</time>
        <extensions><gpxtpx:TrackPointExtension><gpxtpx:hr>135</gpxtpx:hr></gpxtpx:TrackPointExtension></extensions>
      </trkpt>
      <trkpt lat="39.822376389884" lon="2.815001100596">
        <ele>664.4</ele>
        <time>2020-06-25T21:51:39Z</time>
        <extensions><gpxtpx:TrackPointExtension><gpxtpx:hr>135</gpxtpx:hr></gpxtpx:TrackPointExtension></extensions>
      </trkpt>
      <trkpt lat="39.8223649905" lon="2.814903367642">
        <ele>663.8</ele>
        <time>2020-06-25T21:51:40Z</time>
        <extensions><gpxtpx:TrackPointExtension><gpxtpx:hr>135</gpxtpx:hr></gpxtpx:TrackPointExtension></extensions>
      </trkpt>
      <trkpt lat="39.822345879768" lon="2.814794905856">
        <ele>663.2</ele>
        <time>2020-06-25T21:51:41Z</time>
        <extensions><gpxtpx:TrackPointExtension><gpxtpx:hr>134</gpxtpx:hr></gpxtpx:TrackPointExtension></extensions>
      </trkpt>
      <trkpt lat="39.822319141507" lon="2.81468141493">
        <ele>662.6</ele>
        <time>2020-06-25T21:51:42Z</time>
        <extensions><gpxtpx:TrackPointExtension><gpxtpx:hr>135</gpxtpx:hr></gpxtpx:TrackPointExtension></extensions>
      </trkpt>
      <trkpt lat="39.822269604478" lon="2.814579826302">
        <ele>663.4</ele>
        <time>2020-06-25T21:51:43Z</time>
        <extensions><gpxtpx:TrackPointExtension><gpxtpx:hr>135</gpxtpx:hr></gpxtpx:TrackPointExtension></extensions>
      </trkpt>
      <trkpt lat="39.822227611159" lon="2.814532636205">
        <ele>664.2</ele>
        <time>2020-06-25T21:51:44Z</time>
        <extensions><gpxtpx:TrackPointExtension><gpxtpx:hr>136</gpxtpx:hr></gpxtpx:TrackPointExtension></extensions>
      </trkpt>
      <trkpt lat="39.822185701659" lon="2.814512603464">
        <ele>664.6</ele>
        <time>2020-06-25T21:51:45Z</time>
        <extensions><gpxtpx:TrackPointExtension><gpxtpx:hr>137</gpxtpx:hr></gpxtpx:TrackPointExtension></extensions>
      </trkpt>
      <trkpt lat="39.82214370834" lon="2.814509502161">
        <ele>664.6</ele>
        <time>2020-06-25T21:51:46Z</time>
        <extensions><gpxtpx:TrackPointExtension><gpxtpx:hr>138</gpxtpx:hr></gpxtpx:TrackPointExtension></extensions>
      </trkpt>
      <trkpt lat="39.822094087492" lon="2.814511849093">
        <ele>664.4</ele>
        <time>2020-06-25T21:51:47Z</time>
        <extensions><gpxtpx:TrackPointExtension><gpxtpx:hr>140</gpxtpx:hr></gpxtpx:TrackPointExtension></extensions>
      </trkpt>
      <trkpt lat="39.822029295405" lon="2.814523332296">
        <ele>664</ele>
        <time>2020-06-25T21:51:48Z</time>
        <extensions><gpxtpx:TrackPointExtension><gpxtpx:hr>141</gpxtpx:hr></gpxtpx:TrackPointExtension></extensions>
      </trkpt>
      <trkpt lat="39.821952936296" lon="2.81453808444">
        <ele>663.4</ele>
        <time>2020-06-25T21:51:49Z</time>
        <extensions><gpxtpx:TrackPointExtension><gpxtpx:hr>142</gpxtpx:hr></gpxtpx:TrackPointExtension></extensions>
      </trkpt>
      <trkpt lat="39.821838523361" lon="2.814556440801">
        <ele>662.6</ele>
        <time>2020-06-25T21:51:50Z</time>
        <extensions><gpxtpx:TrackPointExtension><gpxtpx:hr>142</gpxtpx:hr></gpxtpx:TrackPointExtension></extensions>
      </trkpt>
      <trkpt lat="39.82173550981" lon="2.814549064729">
        <ele>661.4</ele>
        <time>2020-06-25T21:51:51Z</time>
        <extensions><gpxtpx:TrackPointExtension><gpxtpx:hr>142</gpxtpx:hr></gpxtpx:TrackPointExtension></extensions>
      </trkpt>
      <trkpt lat="39.82162486873" lon="2.81448779304">
        <ele>659.8</ele>
        <time>2020-06-25T21:51:52Z</time>
        <extensions><gpxtpx:TrackPointExtension><gpxtpx:hr>142</gpxtpx:hr></gpxtpx:TrackPointExtension></extensions>
      </trkpt>
      <trkpt lat="39.82147231815" lon="2.814413864682">
        <ele>657.6</ele>
        <time>2020-06-25T21:51:53Z</time>
        <extensions><gpxtpx:TrackPointExtension><gpxtpx:hr>141</gpxtpx:hr></gpxtpx:TrackPointExtension></extensions>
      </trkpt>
      <trkpt lat="39.821304512512" lon="2.814391904104">
        <ele>656.6</ele>
        <time>2020-06-25T21:51:55Z</time>
        <extensions><gpxtpx:TrackPointExtension><gpxtpx:hr>140</gpxtpx:hr></gpxtpx:TrackPointExtension></extensions>
      </trkpt>
      <trkpt lat="39.821140478729" lon="2.814376900503">
        <ele>655.8</ele>
        <time>2020-06-25T21:51:56Z</time>
        <extensions><gpxtpx:TrackPointExtension><gpxtpx:hr>140</gpxtpx:hr></gpxtpx:TrackPointExtension></extensions>
      </trkpt>
      <trkpt lat="39.821006955062" lon="2.814362651273">
        <ele>655.2</ele>
        <time>2020-06-25T21:51:57Z</time>
        <extensions><gpxtpx:TrackPointExtension><gpxtpx:hr>139</gpxtpx:hr></gpxtpx:TrackPointExtension></extensions>
      </trkpt>
      <trkpt lat="39.820850548808" lon="2.814323004886">
        <ele>654.2</ele>
        <time>2020-06-25T21:51:58Z</time>
        <extensions><gpxtpx:TrackPointExtension><gpxtpx:hr>138</gpxtpx:hr></gpxtpx:TrackPointExtension></extensions>
      </trkpt>
      <trkpt lat="39.82072465267" lon="2.814282939404">
        <ele>653.2</ele>
        <time>2020-06-25T21:51:59Z</time>
        <extensions><gpxtpx:TrackPointExtension><gpxtpx:hr>138</gpxtpx:hr></gpxtpx:TrackPointExtension></extensions>
      </trkpt>
      <trkpt lat="39.82061401159" lon="2.814261733197">
        <ele>652.4</ele>
        <time>2020-06-25T21:52:00Z</time>
        <extensions><gpxtpx:TrackPointExtension><gpxtpx:hr>138</gpxtpx:hr></gpxtpx:TrackPointExtension></extensions>
      </trkpt>
      <trkpt lat="39.820533880626" lon="2.814348821138">
        <ele>651.2</ele>
        <time>2020-06-25T21:52:02Z</time>
        <extensions><gpxtpx:TrackPointExtension><gpxtpx:hr>138</gpxtpx:hr></gpxtpx:TrackPointExtension></extensions>
      </trkpt>
      <trkpt lat="39.820533880626" lon="2.814459210761">
        <ele>651</ele>
        <time>2020-06-25T21:52:03Z</time>
        <extensions><gpxtpx:TrackPointExtension><gpxtpx:hr>137</gpxtpx:hr></gpxtpx:TrackPointExtension></extensions>
      </trkpt>
      <trkpt lat="39.820598756532" lon="2.814557195172">
        <ele>649.8</ele>
        <time>2020-06-25T21:52:04Z</time>
        <extensions><gpxtpx:TrackPointExtension><gpxtpx:hr>137</gpxtpx:hr></gpxtpx:TrackPointExtension></extensions>
      </trkpt>
      <trkpt lat="39.82072465267" lon="2.814558117181">
        <ele>647.8</ele>
        <time>2020-06-25T21:52:05Z</time>
        <extensions><gpxtpx:TrackPointExtension><gpxtpx:hr>134</gpxtpx:hr></gpxtpx:TrackPointExtension></extensions>
      </trkpt>
      <trkpt lat="39.820861948192" lon="2.814546885435">
        <ele>646.6</ele>
        <time>2020-06-25T21:52:06Z</time>
        <extensions><gpxtpx:TrackPointExtension><gpxtpx:hr>132</gpxtpx:hr></gpxtpx:TrackPointExtension></extensions>
      </trkpt>
      <trkpt lat="39.820984072475" lon="2.814552166032">
        <ele>646.2</ele>
        <time>2020-06-25T21:52:07Z</time>
        <extensions><gpxtpx:TrackPointExtension><gpxtpx:hr>132</gpxtpx:hr></gpxtpx:TrackPointExtension></extensions>
      </trkpt>
      <trkpt lat="39.821117512323" lon="2.814591225686">
        <ele>645.6</ele>
        <time>2020-06-25T21:52:08Z</time>
        <extensions><gpxtpx:TrackPointExtension><gpxtpx:hr>131</gpxtpx:hr></gpxtpx:TrackPointExtension></extensions>
      </trkpt>
      <trkpt lat="39.821254891664" lon="2.814669428813">
        <ele>644</ele>
        <time>2020-06-25T21:52:10Z</time>
        <extensions><gpxtpx:TrackPointExtension><gpxtpx:hr>131</gpxtpx:hr></gpxtpx:TrackPointExtension></extensions>
      </trkpt>
      <trkpt lat="39.821365532744" lon="2.814765736844">
        <ele>643</ele>
        <time>2020-06-25T21:52:11Z</time>
        <extensions><gpxtpx:TrackPointExtension><gpxtpx:hr>131</gpxtpx:hr></gpxtpx:TrackPointExtension></extensions>
      </trkpt>
      <trkpt lat="39.821468462476" lon="2.814868498938">
        <ele>642.2</ele>
        <time>2020-06-25T21:52:12Z</time>
        <extensions><gpxtpx:TrackPointExtension><gpxtpx:hr>131</gpxtpx:hr></gpxtpx:TrackPointExtension></extensions>
      </trkpt>
      <trkpt lat="39.821605841817" lon="2.814951060653">
        <ele>641.6</ele>
        <time>2020-06-25T21:52:13Z</time>
        <extensions><gpxtpx:TrackPointExtension><gpxtpx:hr>130</gpxtpx:hr></gpxtpx:TrackPointExtension></extensions>
      </trkpt>
      <trkpt lat="39.821720254752" lon="2.814981570769">
        <ele>640.8</ele>
        <time>2020-06-25T21:52:14Z</time>
        <extensions><gpxtpx:TrackPointExtension><gpxtpx:hr>129</gpxtpx:hr></gpxtpx:TrackPointExtension></extensions>
      </trkpt>
      <trkpt lat="39.821808013245" lon="2.815035634024">
        <ele>640</ele>
        <time>2020-06-25T21:52:15Z</time>
        <extensions><gpxtpx:TrackPointExtension><gpxtpx:hr>128</gpxtpx:hr></gpxtpx:TrackPointExtension></extensions>
      </trkpt>
      <trkpt lat="39.821861405948" lon="2.815150549873">
        <ele>639.2</ele>
        <time>2020-06-25T21:52:16Z</time>
        <extensions><gpxtpx:TrackPointExtension><gpxtpx:hr>128</gpxtpx:hr></gpxtpx:TrackPointExtension></extensions>
      </trkpt>
      <trkpt lat="39.821838523361" lon="2.815245013886">
        <ele>638.6</ele>
        <time>2020-06-25T21:52:17Z</time>
        <extensions><gpxtpx:TrackPointExtension><gpxtpx:hr>125</gpxtpx:hr></gpxtpx:TrackPointExtension></extensions>
      </trkpt>
      <trkpt lat="39.821739365484" lon="2.81529077906">
        <ele>637.4</ele>
        <time>2020-06-25T21:52:18Z</time>
        <extensions><gpxtpx:TrackPointExtension><gpxtpx:hr>124</gpxtpx:hr></gpxtpx:TrackPointExtension></extensions>
      </trkpt>
      <trkpt lat="39.821651606991" lon="2.815260017487">
        <ele>636.4</ele>
        <time>2020-06-25T21:52:19Z</time>
        <extensions><gpxtpx:TrackPointExtension><gpxtpx:hr>123</gpxtpx:hr></gpxtpx:TrackPointExtension></extensions>
      </trkpt>
      <trkpt lat="39.82154859344" lon="2.815219029996">
        <ele>635</ele>
        <time>2020-06-25T21:52:20Z</time>
        <extensions><gpxtpx:TrackPointExtension><gpxtpx:hr>122</gpxtpx:hr></gpxtpx:TrackPointExtension></extensions>
      </trkpt>
      <trkpt lat="39.82143795236" lon="2.815174186831">
        <ele>633.6</ele>
        <time>2020-06-25T21:52:21Z</time>
        <extensions><gpxtpx:TrackPointExtension><gpxtpx:hr>122</gpxtpx:hr></gpxtpx:TrackPointExtension></extensions>
      </trkpt>
      <trkpt lat="39.821296801164" lon="2.815124565983">
        <ele>631.8</ele>
        <time>2020-06-25T21:52:22Z</time>
        <extensions><gpxtpx:TrackPointExtension><gpxtpx:hr>123</gpxtpx:hr></gpxtpx:TrackPointExtension></extensions>
      </trkpt>
      <trkpt lat="39.821190015758" lon="2.81510218631">
        <ele>630.6</ele>
        <time>2020-06-25T21:52:23Z</time>
        <extensions><gpxtpx:TrackPointExtension><gpxtpx:hr>122</gpxtpx:hr></gpxtpx:TrackPointExtension></extensions>
      </trkpt>
      <trkpt lat="39.821075602823" lon="2.815106209622">
        <ele>629.6</ele>
        <time>2020-06-25T21:52:24Z</time>
        <extensions><gpxtpx:TrackPointExtension><gpxtpx:hr>122</gpxtpx:hr></gpxtpx:TrackPointExtension></extensions>
      </trkpt>
      <trkpt lat="39.820964961743" lon="2.81514744857">
        <ele>628.6</ele>
        <time>2020-06-25T21:52:25Z</time>
        <extensions><gpxtpx:TrackPointExtension><gpxtpx:hr>122</gpxtpx:hr></gpxtpx:TrackPointExtension></extensions>
      </trkpt>
      <trkpt lat="39.820842921279" lon="2.815231435208">
        <ele>626.4</ele>
        <time>2020-06-25T21:52:27Z</time>
        <extensions><gpxtpx:TrackPointExtension><gpxtpx:hr>122</gpxtpx:hr></gpxtpx:TrackPointExtension></extensions>
      </trkpt>
      <trkpt lat="39.820743679583" lon="2.815359426821">
        <ele>625.6</ele>
        <time>2020-06-25T21:52:28Z</time>
        <extensions><gpxtpx:TrackPointExtension><gpxtpx:hr>122</gpxtpx:hr></gpxtpx:TrackPointExtension></extensions>
      </trkpt>
      <trkpt lat="39.820659776764" lon="2.815469816444">
        <ele>624.8</ele>
        <time>2020-06-25T21:52:29Z</time>
        <extensions><gpxtpx:TrackPointExtension><gpxtpx:hr>123</gpxtpx:hr></gpxtpx:TrackPointExtension></extensions>
      </trkpt>
      <trkpt lat="39.820556763213" lon="2.81560426212">
        <ele>623.8</ele>
        <time>2020-06-25T21:52:30Z</time>
        <extensions><gpxtpx:TrackPointExtension><gpxtpx:hr>123</gpxtpx:hr></gpxtpx:TrackPointExtension></extensions>
      </trkpt>
      <trkpt lat="39.820472860394" lon="2.81571825596">
        <ele>623</ele>
        <time>2020-06-25T21:52:31Z</time>
        <extensions><gpxtpx:TrackPointExtension><gpxtpx:hr>123</gpxtpx:hr></gpxtpx:TrackPointExtension></extensions>
      </trkpt>
      <trkpt lat="39.820362219314" lon="2.815858904242">
        <ele>621.6</ele>
        <time>2020-06-25T21:52:32Z</time>
        <extensions><gpxtpx:TrackPointExtension><gpxtpx:hr>122</gpxtpx:hr></gpxtpx:TrackPointExtension></extensions>
      </trkpt>
      <trkpt lat="39.82027454464" lon="2.815967868942">
        <ele>620.4</ele>
        <time>2020-06-25T21:52:33Z</time>
        <extensions><gpxtpx:TrackPointExtension><gpxtpx:hr>122</gpxtpx:hr></gpxtpx:TrackPointExtension></extensions>
      </trkpt>
      <trkpt lat="39.820171531089" lon="2.816068535561">
        <ele>619.4</ele>
        <time>2020-06-25T21:52:34Z</time>
        <extensions><gpxtpx:TrackPointExtension><gpxtpx:hr>121</gpxtpx:hr></gpxtpx:TrackPointExtension></extensions>
      </trkpt>
      <trkpt lat="39.820087544451" lon="2.816106170292">
        <ele>618.2</ele>
        <time>2020-06-25T21:52:35Z</time>
        <extensions><gpxtpx:TrackPointExtension><gpxtpx:hr>121</gpxtpx:hr></gpxtpx:TrackPointExtension></extensions>
      </trkpt>
      <trkpt lat="39.819992242248" lon="2.81607448671">
        <ele>618</ele>
        <time>2020-06-25T21:52:37Z</time>
        <extensions><gpxtpx:TrackPointExtension><gpxtpx:hr>120</gpxtpx:hr></gpxtpx:TrackPointExtension></extensions>
      </trkpt>
      <trkpt lat="39.81990825561" lon="2.815986979674">
        <ele>616.6</ele>
        <time>2020-06-25T21:52:38Z</time>
        <extensions><gpxtpx:TrackPointExtension><gpxtpx:hr>121</gpxtpx:hr></gpxtpx:TrackPointExtension></extensions>
      </trkpt>
      <trkpt lat="39.819854862907" lon="2.815869213979">
        <ele>615.4</ele>
        <time>2020-06-25T21:52:39Z</time>
        <extensions><gpxtpx:TrackPointExtension><gpxtpx:hr>121</gpxtpx:hr></gpxtpx:TrackPointExtension></extensions>
      </trkpt>
      <trkpt lat="39.819793842675" lon="2.815739043072">
        <ele>614</ele>
        <time>2020-06-25T21:52:40Z</time>
        <extensions><gpxtpx:TrackPointExtension><gpxtpx:hr>121</gpxtpx:hr></gpxtpx:TrackPointExtension></extensions>
      </trkpt>
      <trkpt lat="39.819728966769" lon="2.815601663731">
        <ele>612.6</ele>
        <time>2020-06-25T21:52:41Z</time>
        <extensions><gpxtpx:TrackPointExtension><gpxtpx:hr>121</gpxtpx:hr></gpxtpx:TrackPointExtension></extensions>
      </trkpt>
      <trkpt lat="39.819622181363" lon="2.815451962997">
        <ele>611.4</ele>
        <time>2020-06-25T21:52:42Z</time>
        <extensions><gpxtpx:TrackPointExtension><gpxtpx:hr>119</gpxtpx:hr></gpxtpx:TrackPointExtension></extensions>
      </trkpt>
      <trkpt lat="39.81949251337" lon="2.815330341628">
        <ele>610.2</ele>
        <time>2020-06-25T21:52:43Z</time>
        <extensions><gpxtpx:TrackPointExtension><gpxtpx:hr>118</gpxtpx:hr></gpxtpx:TrackPointExtension></extensions>
      </trkpt>
      <trkpt lat="39.819374244761" lon="2.815246941723">
        <ele>608.8</ele>
        <time>2020-06-25T21:52:44Z</time>
        <extensions><gpxtpx:TrackPointExtension><gpxtpx:hr>117</gpxtpx:hr></gpxtpx:TrackPointExtension></extensions>
      </trkpt>
      <trkpt lat="39.819210210978" lon="2.815183993654">
        <ele>607.4</ele>
        <time>2020-06-25T21:52:45Z</time>
        <extensions><gpxtpx:TrackPointExtension><gpxtpx:hr>115</gpxtpx:hr></gpxtpx:TrackPointExtension></extensions>
      </trkpt>
      <trkpt lat="39.819072915456" lon="2.815148957312">
        <ele>606.2</ele>
        <time>2020-06-25T21:52:46Z</time>
        <extensions><gpxtpx:TrackPointExtension><gpxtpx:hr>115</gpxtpx:hr></gpxtpx:TrackPointExtension></extensions>
      </trkpt>
      <trkpt lat="39.818924136731" lon="2.815145353095">
        <ele>605</ele>
        <time>2020-06-25T21:52:48Z</time>
        <extensions><gpxtpx:TrackPointExtension><gpxtpx:hr>114</gpxtpx:hr></gpxtpx:TrackPointExtension></extensions>
      </trkpt>
      <trkpt lat="39.818817267506" lon="2.815165385836">
        <ele>603.4</ele>
        <time>2020-06-25T21:52:49Z</time>
        <extensions><gpxtpx:TrackPointExtension><gpxtpx:hr>114</gpxtpx:hr></gpxtpx:TrackPointExtension></extensions>
      </trkpt>
      <trkpt lat="39.818737220361" lon="2.81528072078">
        <ele>602.4</ele>
        <time>2020-06-25T21:52:50Z</time>
        <extensions><gpxtpx:TrackPointExtension><gpxtpx:hr>113</gpxtpx:hr></gpxtpx:TrackPointExtension></extensions>
      </trkpt>
      <trkpt lat="39.8187104821" lon="2.815431175885">
        <ele>601.4</ele>
        <time>2020-06-25T21:52:51Z</time>
        <extensions><gpxtpx:TrackPointExtension><gpxtpx:hr>113</gpxtpx:hr></gpxtpx:TrackPointExtension></extensions>
      </trkpt>
      <trkpt lat="39.818702854571" lon="2.815597388962">
        <ele>599.8</ele>
        <time>2020-06-25T21:52:52Z</time>
        <extensions><gpxtpx:TrackPointExtension><gpxtpx:hr>113</gpxtpx:hr></gpxtpx:TrackPointExtension></extensions>
      </trkpt>
      <trkpt lat="39.818691371368" lon="2.815811462688">
        <ele>597.8</ele>
        <time>2020-06-25T21:52:53Z</time>
        <extensions><gpxtpx:TrackPointExtension><gpxtpx:hr>113</gpxtpx:hr></gpxtpx:TrackPointExtension></extensions>
      </trkpt>
      <trkpt lat="39.818683743839" lon="2.816001061266">
        <ele>596</ele>
        <time>2020-06-25T21:52:54Z</time>
        <extensions><gpxtpx:TrackPointExtension><gpxtpx:hr>114</gpxtpx:hr></gpxtpx:TrackPointExtension></extensions>
      </trkpt>
      <trkpt lat="39.818657089397" lon="2.81623709557">
        <ele>593.8</ele>
        <time>2020-06-25T21:52:55Z</time>
        <extensions><gpxtpx:TrackPointExtension><gpxtpx:hr>114</gpxtpx:hr></gpxtpx:TrackPointExtension></extensions>
      </trkpt>
      <trkpt lat="39.818611324223" lon="2.816479751575">
        <ele>591.4</ele>
        <time>2020-06-25T21:52:56Z</time>
        <extensions><gpxtpx:TrackPointExtension><gpxtpx:hr>115</gpxtpx:hr></gpxtpx:TrackPointExtension></extensions>
      </trkpt>
      <trkpt lat="39.818550220172" lon="2.816728945462">
        <ele>588.8</ele>
        <time>2020-06-25T21:52:57Z</time>
        <extensions><gpxtpx:TrackPointExtension><gpxtpx:hr>115</gpxtpx:hr></gpxtpx:TrackPointExtension></extensions>
      </trkpt>
      <trkpt lat="39.818500683143" lon="2.816941594265">
        <ele>586.6</ele>
        <time>2020-06-25T21:52:58Z</time>
        <extensions><gpxtpx:TrackPointExtension><gpxtpx:hr>115</gpxtpx:hr></gpxtpx:TrackPointExtension></extensions>
      </trkpt>
      <trkpt lat="39.818435807237" lon="2.817199756785">
        <ele>584.2</ele>
        <time>2020-06-25T21:53:00Z</time>
        <extensions><gpxtpx:TrackPointExtension><gpxtpx:hr>115</gpxtpx:hr></gpxtpx:TrackPointExtension></extensions>
      </trkpt>
      <trkpt lat="39.818370931331" lon="2.817456326744">
        <ele>582.2</ele>
        <time>2020-06-25T21:53:01Z</time>
        <extensions><gpxtpx:TrackPointExtension><gpxtpx:hr>115</gpxtpx:hr></gpxtpx:TrackPointExtension></extensions>
      </trkpt>
      <trkpt lat="39.818313766773" lon="2.817664952235">
        <ele>580.6</ele>
        <time>2020-06-25T21:53:02Z</time>
        <extensions><gpxtpx:TrackPointExtension><gpxtpx:hr>115</gpxtpx:hr></gpxtpx:TrackPointExtension></extensions>
      </trkpt>
      <trkpt lat="39.818248890867" lon="2.817866872206">
        <ele>579</ele>
        <time>2020-06-25T21:53:03Z</time>
        <extensions><gpxtpx:TrackPointExtension><gpxtpx:hr>115</gpxtpx:hr></gpxtpx:TrackPointExtension></extensions>
      </trkpt>
      <trkpt lat="39.818176387432" lon="2.818058566259">
        <ele>577.8</ele>
        <time>2020-06-25T21:53:04Z</time>
        <extensions><gpxtpx:TrackPointExtension><gpxtpx:hr>115</gpxtpx:hr></gpxtpx:TrackPointExtension></extensions>
      </trkpt>
      <trkpt lat="39.818103967816" lon="2.818242632783">
        <ele>576.8</ele>
        <time>2020-06-25T21:53:05Z</time>
        <extensions><gpxtpx:TrackPointExtension><gpxtpx:hr>116</gpxtpx:hr></gpxtpx:TrackPointExtension></extensions>
      </trkpt>
      <trkpt lat="39.818031464381" lon="2.818422424538">
        <ele>575.6</ele>
        <time>2020-06-25T21:53:06Z</time>
        <extensions><gpxtpx:TrackPointExtension><gpxtpx:hr>117</gpxtpx:hr></gpxtpx:TrackPointExtension></extensions>
      </trkpt>
      <trkpt lat="39.817939934033" lon="2.818631469124">
        <ele>574.2</ele>
        <time>2020-06-25T21:53:07Z</time>
        <extensions><gpxtpx:TrackPointExtension><gpxtpx:hr>117</gpxtpx:hr></gpxtpx:TrackPointExtension></extensions>
      </trkpt>
      <trkpt lat="39.817863574924" lon="2.81880195697">
        <ele>573</ele>
        <time>2020-06-25T21:53:08Z</time>
        <extensions><gpxtpx:TrackPointExtension><gpxtpx:hr>117</gpxtpx:hr></gpxtpx:TrackPointExtension></extensions>
      </trkpt>
      <trkpt lat="39.817787299634" lon="2.818972696273">
        <ele>571.8</ele>
        <time>2020-06-25T21:53:09Z</time>
        <extensions><gpxtpx:TrackPointExtension><gpxtpx:hr>117</gpxtpx:hr></gpxtpx:TrackPointExtension></extensions>
      </trkpt>
      <trkpt lat="39.817718651873" lon="2.819147207431">
        <ele>570.4</ele>
        <time>2020-06-25T21:53:10Z</time>
        <extensions><gpxtpx:TrackPointExtension><gpxtpx:hr>117</gpxtpx:hr></gpxtpx:TrackPointExtension></extensions>
      </trkpt>
      <trkpt lat="39.817650004112" lon="2.819366310297">
        <ele>569</ele>
        <time>2020-06-25T21:53:11Z</time>
        <extensions><gpxtpx:TrackPointExtension><gpxtpx:hr>118</gpxtpx:hr></gpxtpx:TrackPointExtension></extensions>
      </trkpt>
      <trkpt lat="39.817615638322" lon="2.81955465159">
        <ele>568.2</ele>
        <time>2020-06-25T21:53:12Z</time>
        <extensions><gpxtpx:TrackPointExtension><gpxtpx:hr>118</gpxtpx:hr></gpxtpx:TrackPointExtension></extensions>
      </trkpt>
      <trkpt lat="39.817592755735" lon="2.819737041734">
        <ele>567.6</ele>
        <time>2020-06-25T21:53:13Z</time>
        <extensions><gpxtpx:TrackPointExtension><gpxtpx:hr>118</gpxtpx:hr></gpxtpx:TrackPointExtension></extensions>
      </trkpt>
      <trkpt lat="39.817569873148" lon="2.819912307263">
        <ele>567.2</ele>
        <time>2020-06-25T21:53:14Z</time>
        <extensions><gpxtpx:TrackPointExtension><gpxtpx:hr>118</gpxtpx:hr></gpxtpx:TrackPointExtension></extensions>
      </trkpt>
      <trkpt lat="39.817546990561" lon="2.820080867272">
        <ele>566.6</ele>
        <time>2020-06-25T21:53:15Z</time>
        <extensions><gpxtpx:TrackPointExtension><gpxtpx:hr>118</gpxtpx:hr></gpxtpx:TrackPointExtension></extensions>
      </trkpt>
      <trkpt lat="39.817524107974" lon="2.820242973218">
        <ele>566.2</ele>
        <time>2020-06-25T21:53:16Z</time>
        <extensions><gpxtpx:TrackPointExtension><gpxtpx:hr>116</gpxtpx:hr></gpxtpx:TrackPointExtension></extensions>
      </trkpt>
      <trkpt lat="39.817489742184" lon="2.820428464665">
        <ele>565.6</ele>
        <time>2020-06-25T21:53:17Z</time>
        <extensions><gpxtpx:TrackPointExtension><gpxtpx:hr>115</gpxtpx:hr></gpxtpx:TrackPointExtension></extensions>
      </trkpt>
      <trkpt lat="39.817447832684" lon="2.82060490366">
        <ele>565.2</ele>
        <time>2020-06-25T21:53:19Z</time>
        <extensions><gpxtpx:TrackPointExtension><gpxtpx:hr>115</gpxtpx:hr></gpxtpx:TrackPointExtension></extensions>
      </trkpt>
      <trkpt lat="39.817398211836" lon="2.820741025716">
        <ele>564.8</ele>
        <time>2020-06-25T21:53:20Z</time>
        <extensions><gpxtpx:TrackPointExtension><gpxtpx:hr>113</gpxtpx:hr></gpxtpx:TrackPointExtension></extensions>
      </trkpt>
      <trkpt lat="39.817337191604" lon="2.820865245474">
        <ele>564.2</ele>
        <time>2020-06-25T21:53:21Z</time>
        <extensions><gpxtpx:TrackPointExtension><gpxtpx:hr>113</gpxtpx:hr></gpxtpx:TrackPointExtension></extensions>
      </trkpt>
      <trkpt lat="39.817260916314" lon="2.820971779423">
        <ele>563.8</ele>
        <time>2020-06-25T21:53:22Z</time>
        <extensions><gpxtpx:TrackPointExtension><gpxtpx:hr>111</gpxtpx:hr></gpxtpx:TrackPointExtension></extensions>
      </trkpt>
      <trkpt lat="39.817176929676" lon="2.821070769662">
        <ele>563.4</ele>
        <time>2020-06-25T21:53:23Z</time>
        <extensions><gpxtpx:TrackPointExtension><gpxtpx:hr>110</gpxtpx:hr></gpxtpx:TrackPointExtension></extensions>
      </trkpt>
      <trkpt lat="39.817077771799" lon="2.821190463194">
        <ele>562.6</ele>
        <time>2020-06-25T21:53:24Z</time>
        <extensions><gpxtpx:TrackPointExtension><gpxtpx:hr>110</gpxtpx:hr></gpxtpx:TrackPointExtension></extensions>
      </trkpt>
      <trkpt lat="39.81699386898" lon="2.821291045994">
        <ele>562</ele>
        <time>2020-06-25T21:53:25Z</time>
        <extensions><gpxtpx:TrackPointExtension><gpxtpx:hr>110</gpxtpx:hr></gpxtpx:TrackPointExtension></extensions>
      </trkpt>
      <trkpt lat="39.816909966161" lon="2.821391461156">
        <ele>561.6</ele>
        <time>2020-06-25T21:53:26Z</time>
        <extensions><gpxtpx:TrackPointExtension><gpxtpx:hr>110</gpxtpx:hr></gpxtpx:TrackPointExtension></extensions>
      </trkpt>
      <trkpt lat="39.816803096936" lon="2.821511573783">
        <ele>560.8</ele>
        <time>2020-06-25T21:53:27Z</time>
        <extensions><gpxtpx:TrackPointExtension><gpxtpx:hr>110</gpxtpx:hr></gpxtpx:TrackPointExtension></extensions>
      </trkpt>
      <trkpt lat="39.816715422262" lon="2.821611988945">
        <ele>560.2</ele>
        <time>2020-06-25T21:53:28Z</time>
        <extensions><gpxtpx:TrackPointExtension><gpxtpx:hr>111</gpxtpx:hr></gpxtpx:TrackPointExtension></extensions>
      </trkpt>
      <trkpt lat="39.816608553037" lon="2.821726653337">
        <ele>560</ele>
        <time>2020-06-25T21:53:29Z</time>
        <extensions><gpxtpx:TrackPointExtension><gpxtpx:hr>111</gpxtpx:hr></gpxtpx:TrackPointExtension></extensions>
      </trkpt>
      <trkpt lat="39.816520878363" lon="2.821810556156">
        <ele>560</ele>
        <time>2020-06-25T21:53:30Z</time>
        <extensions><gpxtpx:TrackPointExtension><gpxtpx:hr>111</gpxtpx:hr></gpxtpx:TrackPointExtension></extensions>
      </trkpt>
      <trkpt lat="39.816414009138" lon="2.821895883898">
        <ele>560.2</ele>
        <time>2020-06-25T21:53:31Z</time>
        <extensions><gpxtpx:TrackPointExtension><gpxtpx:hr>110</gpxtpx:hr></gpxtpx:TrackPointExtension></extensions>
      </trkpt>
      <trkpt lat="39.816333961993" lon="2.821958831967">
        <ele>560.2</ele>
        <time>2020-06-25T21:53:32Z</time>
        <extensions><gpxtpx:TrackPointExtension><gpxtpx:hr>109</gpxtpx:hr></gpxtpx:TrackPointExtension></extensions>
      </trkpt>
      <trkpt lat="39.816253831029" lon="2.822015158335">
        <ele>560.4</ele>
        <time>2020-06-25T21:53:33Z</time>
        <extensions><gpxtpx:TrackPointExtension><gpxtpx:hr>109</gpxtpx:hr></gpxtpx:TrackPointExtension></extensions>
      </trkpt>
      <trkpt lat="39.816158445007" lon="2.822076178567">
        <ele>560.4</ele>
        <time>2020-06-25T21:53:35Z</time>
        <extensions><gpxtpx:TrackPointExtension><gpxtpx:hr>110</gpxtpx:hr></gpxtpx:TrackPointExtension></extensions>
      </trkpt>
      <trkpt lat="39.816063058985" lon="2.822102162457">
        <ele>560.4</ele>
        <time>2020-06-25T21:53:36Z</time>
        <extensions><gpxtpx:TrackPointExtension><gpxtpx:hr>110</gpxtpx:hr></gpxtpx:TrackPointExtension></extensions>
      </trkpt>
      <trkpt lat="39.815979156166" lon="2.822092607091">
        <ele>560.4</ele>
        <time>2020-06-25T21:53:37Z</time>
        <extensions><gpxtpx:TrackPointExtension><gpxtpx:hr>111</gpxtpx:hr></gpxtpx:TrackPointExtension></extensions>
      </trkpt>
      <trkpt lat="39.815891397673" lon="2.822034939619">
        <ele>560.2</ele>
        <time>2020-06-25T21:53:38Z</time>
        <extensions><gpxtpx:TrackPointExtension><gpxtpx:hr>112</gpxtpx:hr></gpxtpx:TrackPointExtension></extensions>
      </trkpt>
      <trkpt lat="39.815818978057" lon="2.821982971839">
        <ele>560.2</ele>
        <time>2020-06-25T21:53:39Z</time>
        <extensions><gpxtpx:TrackPointExtension><gpxtpx:hr>112</gpxtpx:hr></gpxtpx:TrackPointExtension></extensions>
      </trkpt>
      <trkpt lat="39.81572736389" lon="2.82193594938">
        <ele>559.8</ele>
        <time>2020-06-25T21:53:40Z</time>
        <extensions><gpxtpx:TrackPointExtension><gpxtpx:hr>113</gpxtpx:hr></gpxtpx:TrackPointExtension></extensions>
      </trkpt>
      <trkpt lat="39.815624350339" lon="2.821933099534">
        <ele>559.6</ele>
        <time>2020-06-25T21:53:41Z</time>
        <extensions><gpxtpx:TrackPointExtension><gpxtpx:hr>114</gpxtpx:hr></gpxtpx:TrackPointExtension></extensions>
      </trkpt>
      <trkpt lat="39.815544303194" lon="2.821956987949">
        <ele>559.4</ele>
        <time>2020-06-25T21:53:42Z</time>
        <extensions><gpxtpx:TrackPointExtension><gpxtpx:hr>114</gpxtpx:hr></gpxtpx:TrackPointExtension></extensions>
      </trkpt>
      <trkpt lat="39.815448917172" lon="2.822013481955">
        <ele>559.2</ele>
        <time>2020-06-25T21:53:44Z</time>
        <extensions><gpxtpx:TrackPointExtension><gpxtpx:hr>115</gpxtpx:hr></gpxtpx:TrackPointExtension></extensions>
      </trkpt>
      <trkpt lat="39.815376413737" lon="2.822080453336">
        <ele>559.2</ele>
        <time>2020-06-25T21:53:45Z</time>
        <extensions><gpxtpx:TrackPointExtension><gpxtpx:hr>116</gpxtpx:hr></gpxtpx:TrackPointExtension></extensions>
      </trkpt>
      <trkpt lat="39.815319249179" lon="2.822159159377">
        <ele>559.2</ele>
        <time>2020-06-25T21:53:46Z</time>
        <extensions><gpxtpx:TrackPointExtension><gpxtpx:hr>116</gpxtpx:hr></gpxtpx:TrackPointExtension></extensions>
      </trkpt>
      <trkpt lat="39.815265772657" lon="2.822239709436">
        <ele>559.2</ele>
        <time>2020-06-25T21:53:47Z</time>
        <extensions><gpxtpx:TrackPointExtension><gpxtpx:hr>118</gpxtpx:hr></gpxtpx:TrackPointExtension></extensions>
      </trkpt>
      <trkpt lat="39.815208608099" lon="2.822332916164">
        <ele>559.2</ele>
        <time>2020-06-25T21:53:48Z</time>
        <extensions><gpxtpx:TrackPointExtension><gpxtpx:hr>118</gpxtpx:hr></gpxtpx:TrackPointExtension></extensions>
      </trkpt>
    </trkseg>
  </trk>
</gpx>